GFSSGP_prec_precacc24_009.txt.gz
Total_Precipitation_Accumulation
0.00 0.00 0.01 0.06 0.28 0.03 0.04 0.02 0.02 0.02 0.02 0.00 0.00 0.01 0.05 0.04 0.11 0.11 0.05 0.03 0.01 0.01 0.02 0.18 0.22 0.24 0.20 0.08 0.14 0.05 0.01 0.01 0.01 0.01 0.00 0.00 0.00 0.00 0.00 0.00 0.00 0.00 0.00 0.00 0.00 0.00 0.00 0.00 0.00
0.00 0.00 0.03 0.02 0.02 0.03 0.01 0.02 0.03 0.01 0.00 0.00 0.00 0.02 0.00 0.01 0.00 0.01 0.02 0.01 0.00 0.00 0.00 0.05 0.16 0.11 0.12 0.08 0.08 0.05 0.02 0.01 0.02 0.01 0.00 0.00 0.00 0.00 0.00 0.00 0.00 0.00 0.01 0.00 0.02 0.00 0.00 0.00 0.00
0.00 0.00 0.14 0.00 0.00 0.00 0.00 0.01 0.00 0.00 0.00 0.00 0.00 0.01 0.00 0.00 0.00 0.00 0.00 0.00 0.01 0.00 0.00 0.02 0.09 0.10 0.08 0.11 0.06 0.05 0.04 0.01 0.00 0.00 0.00 0.00 0.00 0.00 0.00 0.00 0.00 0.00 0.00 0.00 0.01 0.00 0.00 0.00 0.00
0.00 0.00 0.00 0.00 0.00 0.00 0.00 0.00 0.00 0.00 0.00 0.00 0.00 0.00 0.00 0.00 0.00 0.00 0.00 0.00 0.00 0.00 0.01 0.02 0.09 0.09 0.14 0.12 0.06 0.02 0.01 0.00 0.01 0.01 0.00 0.00 0.00 0.00 0.00 0.00 0.00 0.00 0.00 0.00 0.00 0.00 0.00 0.01 0.00
0.00 0.00 0.00 0.00 0.00 0.00 0.00 0.00 0.00 0.00 0.00 0.00 0.00 0.00 0.00 0.00 0.00 0.00 0.00 0.00 0.00 0.00 0.00 0.02 0.11 0.10 0.10 0.07 0.03 0.02 0.01 0.00 0.00 0.00 0.00 0.00 0.00 0.00 0.00 0.03 0.00 0.00 0.00 0.00 0.00 0.00 0.00 0.00 0.00
0.00 0.00 0.00 0.00 0.00 0.00 0.00 0.00 0.00 0.00 0.00 0.00 0.00 0.00 0.00 0.00 0.00 0.00 0.00 0.00 0.01 0.01 0.02 0.02 0.08 0.13 0.07 0.02 0.01 0.01 0.00 0.00 0.00 0.01 0.00 0.00 0.03 0.01 0.03 0.03 0.03 0.01 0.00 0.01 0.02 0.01 0.01 0.00 0.00
0.00 0.00 0.00 0.00 0.00 0.00 0.00 0.00 0.00 0.00 0.00 0.00 0.00 0.00 0.00 0.00 0.00 0.00 0.00 0.00 0.01 0.02 0.01 0.04 0.07 0.09 0.05 0.02 0.01 0.01 0.00 0.00 0.00 0.00 0.00 0.02 0.05 0.08 0.09 0.12 0.09 0.05 0.04 0.05 0.12 0.10 0.04 0.00 0.01
0.00 0.00 0.00 0.00 0.00 0.00 0.00 0.00 0.00 0.00 0.00 0.00 0.00 0.00 0.00 0.00 0.00 0.00 0.00 0.00 0.01 0.02 0.02 0.04 0.08 0.11 0.05 0.01 0.02 0.03 0.02 0.01 0.02 0.01 0.03 0.03 0.03 0.03 0.04 0.08 0.06 0.04 0.09 0.14 0.09 0.07 0.03 0.05 0.02
0.00 0.00 0.00 0.00 0.00 0.00 0.00 0.00 0.00 0.00 0.00 0.00 0.00 0.00 0.00 0.00 0.00 0.00 0.00 0.01 0.01 0.02 0.03 0.03 0.01 0.05 0.05 0.02 0.03 0.03 0.01 0.01 0.02 0.02 0.01 0.01 0.00 0.01 0.03 0.03 0.03 0.00 0.02 0.06 0.06 0.05 0.06 0.08 0.01
0.00 0.01 0.00 0.00 0.00 0.00 0.00 0.00 0.00 0.00 0.00 0.00 0.00 0.00 0.00 0.00 0.00 0.00 0.00 0.00 0.00 0.00 0.01 0.02 0.01 0.02 0.01 0.02 0.02 0.02 0.00 0.00 0.00 0.00 0.01 0.01 0.00 0.00 0.00 0.00 0.00 0.00 0.00 0.06 0.07 0.05 0.03 0.00 0.00
0.00 0.01 0.00 0.00 0.00 0.00 0.00 0.00 0.00 0.00 0.00 0.00 0.00 0.00 0.00 0.00 0.00 0.00 0.00 0.00 0.00 0.00 0.00 0.00 0.00 0.00 0.00 0.02 0.04 0.04 0.01 0.00 0.00 0.00 0.00 0.00 0.00 0.00 0.00 0.01 0.00 0.00 0.02 0.06 0.01 0.00 0.00 0.00 0.00
0.00 0.00 0.00 0.00 0.00 0.00 0.00 0.00 0.00 0.00 0.00 0.00 0.00 0.00 0.00 0.00 0.00 0.00 0.00 0.00 0.00 0.00 0.00 0.00 0.00 0.01 0.01 0.02 0.02 0.05 0.01 0.01 0.00 0.00 0.00 0.00 0.00 0.00 0.01 0.01 0.00 0.06 0.01 0.00 0.00 0.00 0.00 0.00 0.00
0.00 0.00 0.00 0.00 0.00 0.00 0.00 0.00 0.00 0.00 0.00 0.00 0.00 0.00 0.00 0.00 0.00 0.00 0.00 0.00 0.00 0.00 0.00 0.00 0.00 0.00 0.00 0.00 0.00 0.00 0.01 0.00 0.00 0.00 0.00 0.00 0.00 0.10 0.07 0.06 0.08 0.04 0.00 0.00 0.00 0.00 0.00 0.00 0.00
0.00 0.00 0.00 0.00 0.00 0.00 0.00 0.00 0.00 0.00 0.00 0.00 0.00 0.00 0.00 0.00 0.00 0.00 0.00 0.00 0.00 0.00 0.00 0.00 0.00 0.00 0.00 0.00 0.00 0.00 0.00 0.00 0.00 0.00 0.00 0.00 0.01 0.18 0.12 0.10 0.11 0.04 0.00 0.00 0.00 0.00 0.00 0.00 0.00
0.00 0.00 0.00 0.00 0.00 0.00 0.00 0.00 0.00 0.00 0.00 0.00 0.00 0.00 0.00 0.00 0.00 0.00 0.00 0.00 0.00 0.00 0.00 0.00 0.00 0.00 0.01 0.03 0.00 0.01 0.00 0.00 0.00 0.00 0.00 0.04 0.19 0.22 0.12 0.13 0.08 0.02 0.01 0.00 0.01 0.03 0.00 0.00 0.00
0.00 0.00 0.00 0.00 0.00 0.00 0.00 0.00 0.00 0.00 0.00 0.00 0.00 0.00 0.00 0.00 0.00 0.00 0.00 0.00 0.00 0.00 0.00 0.00 0.00 0.00 0.00 0.01 0.03 0.00 0.00 0.00 0.01 0.05 0.08 0.22 0.19 0.17 0.11 0.16 0.10 0.05 0.02 0.02 0.02 0.01 0.00 0.00 0.00
0.00 0.00 0.00 0.00 0.00 0.00 0.00 0.01 0.00 0.00 0.00 0.00 0.00 0.00 0.00 0.00 0.00 0.00 0.00 0.00 0.00 0.00 0.00 0.00 0.00 0.00 0.00 0.01 0.05 0.04 0.08 0.15 0.13 0.07 0.09 0.12 0.10 0.09 0.11 0.13 0.08 0.06 0.05 0.13 0.06 0.01 0.00 0.00 0.00
0.00 0.00 0.00 0.00 0.00 0.00 0.00 0.01 0.00 0.00 0.00 0.00 0.00 0.00 0.00 0.00 0.00 0.00 0.00 0.00 0.00 0.00 0.00 0.00 0.00 0.03 0.13 0.23 0.22 0.15 0.11 0.09 0.02 0.00 0.06 0.06 0.16 0.06 0.10 0.09 0.07 0.05 0.10 0.05 0.06 0.01 0.00 0.00 0.00
0.00 0.00 0.00 0.00 0.00 0.00 0.00 0.00 0.00 0.00 0.00 0.00 0.00 0.00 0.00 0.00 0.00 0.00 0.00 0.00 0.00 0.00 0.00 0.00 0.00 0.04 0.13 0.10 0.06 0.02 0.02 0.00 0.01 0.04 0.09 0.09 0.07 0.06 0.11 0.06 0.05 0.04 0.01 0.00 0.00 0.00 0.00 0.00 0.00
0.00 0.00 0.00 0.00 0.00 0.00 0.00 0.00 0.00 0.00 0.00 0.00 0.00 0.00 0.00 0.00 0.00 0.00 0.00 0.00 0.00 0.00 0.00 0.00 0.00 0.00 0.08 0.02 0.02 0.02 0.00 0.00 0.01 0.01 0.03 0.02 0.01 0.03 0.05 0.02 0.01 0.01 0.00 0.00 0.00 0.00 0.00 0.00 0.00
0.00 0.00 0.00 0.00 0.00 0.00 0.00 0.00 0.00 0.00 0.00 0.00 0.00 0.00 0.00 0.00 0.00 0.00 0.00 0.00 0.00 0.00 0.00 0.00 0.00 0.00 0.06 0.04 0.04 0.05 0.03 0.02 0.02 0.01 0.02 0.02 0.02 0.03 0.04 0.02 0.00 0.00 0.00 0.00 0.00 0.00 0.00 0.01 0.01
0.00 0.00 0.00 0.00 0.00 0.00 0.00 0.00 0.00 0.00 0.00 0.00 0.00 0.00 0.00 0.00 0.00 0.00 0.00 0.00 0.00 0.00 0.00 0.00 0.00 0.00 0.01 0.04 0.01 0.04 0.01 0.00 0.00 0.00 0.00 0.01 0.01 0.01 0.00 0.00 0.00 0.00 0.00 0.00 0.00 0.00 0.00 0.00 0.00
0.00 0.00 0.00 0.00 0.00 0.00 0.00 0.00 0.00 0.00 0.00 0.00 0.00 0.00 0.00 0.00 0.00 0.00 0.00 0.00 0.00 0.00 0.00 0.00 0.00 0.00 0.00 0.02 0.01 0.02 0.01 0.00 0.00 0.00 0.00 0.00 0.00 0.00 0.00 0.00 0.00 0.00 0.00 0.00 0.00 0.00 0.00 0.00 0.00
0.00 0.00 0.00 0.00 0.00 0.00 0.00 0.00 0.00 0.00 0.00 0.00 0.00 0.00 0.00 0.00 0.00 0.00 0.00 0.00 0.00 0.00 0.00 0.00 0.00 0.00 0.00 0.00 0.00 0.00 0.01 0.00 0.00 0.00 0.00 0.00 0.00 0.00 0.00 0.00 0.00 0.00 0.00 0.00 0.00 0.00 0.00 0.00 0.00
0.00 0.00 0.00 0.00 0.00 0.00 0.00 0.00 0.00 0.00 0.00 0.00 0.00 0.00 0.00 0.00 0.00 0.00 0.00 0.00 0.00 0.00 0.00 0.00 0.00 0.00 0.00 0.00 0.00 0.00 0.00 0.00 0.00 0.00 0.00 0.00 0.00 0.00 0.00 0.00 0.00 0.00 0.00 0.00 0.00 0.00 0.00 0.00 0.00
0.00 0.00 0.00 0.00 0.00 0.00 0.00 0.00 0.00 0.00 0.00 0.00 0.00 0.00 0.00 0.00 0.00 0.00 0.00 0.00 0.00 0.00 0.00 0.00 0.00 0.00 0.00 0.00 0.00 0.00 0.00 0.00 0.00 0.00 0.00 0.00 0.00 0.00 0.00 0.00 0.00 0.00 0.00 0.00 0.00 0.00 0.00 0.00 0.00
0.00 0.00 0.00 0.00 0.00 0.00 0.00 0.00 0.00 0.00 0.00 0.00 0.00 0.00 0.00 0.00 0.00 0.00 0.00 0.00 0.00 0.00 0.00 0.00 0.00 0.00 0.00 0.00 0.00 0.00 0.00 0.00 0.00 0.00 0.00 0.00 0.00 0.00 0.00 0.00 0.00 0.00 0.00 0.00 0.00 0.00 0.00 0.00 0.00
0.00 0.00 0.00 0.00 0.00 0.00 0.00 0.00 0.00 0.00 0.00 0.00 0.00 0.00 0.00 0.00 0.00 0.00 0.00 0.00 0.00 0.00 0.00 0.00 0.00 0.00 0.00 0.00 0.00 0.00 0.00 0.00 0.00 0.00 0.00 0.00 0.00 0.00 0.00 0.00 0.00 0.00 0.00 0.00 0.00 0.00 0.00 0.00 0.00
0.00 0.00 0.00 0.00 0.00 0.00 0.00 0.00 0.00 0.00 0.00 0.00 0.00 0.00 0.00 0.00 0.00 0.00 0.00 0.00 0.00 0.00 0.00 0.00 0.00 0.00 0.00 0.00 0.00 0.00 0.00 0.00 0.00 0.00 0.00 0.00 0.00 0.00 0.00 0.00 0.00 0.00 0.00 0.00 0.00 0.00 0.00 0.00 0.00
0.00 0.00 0.00 0.00 0.00 0.00 0.00 0.00 0.00 0.00 0.00 0.00 0.00 0.00 0.00 0.00 0.00 0.00 0.00 0.00 0.00 0.00 0.00 0.00 0.00 0.00 0.00 0.00 0.00 0.00 0.00 0.00 0.00 0.01 0.01 0.00 0.00 0.00 0.00 0.00 0.00 0.00 0.00 0.00 0.00 0.00 0.00 0.00 0.00

GFSSGP_prec_precacc24_015.txt.gz
Total_Precipitation_Accumulation
0.00 0.00 0.04 0.29 0.72 0.27 0.29 0.10 0.07 0.07 0.03 0.00 0.00 0.01 0.07 0.11 0.18 0.14 0.10 0.07 0.01 0.02 0.02 0.23 0.29 0.26 0.23 0.11 0.15 0.06 0.01 0.01 0.01 0.01 0.01 0.00 0.00 0.00 0.00 0.00 0.00 0.00 0.00 0.00 0.00 0.00 0.00 0.00 0.00
0.00 0.07 0.54 1.79 0.73 0.24 0.16 0.06 0.08 0.02 0.02 0.01 0.01 0.03 0.00 0.01 0.01 0.02 0.09 0.04 0.00 0.00 0.00 0.06 0.18 0.12 0.14 0.08 0.08 0.05 0.02 0.01 0.02 0.01 0.00 0.00 0.00 0.00 0.00 0.00 0.00 0.00 0.01 0.00 0.02 0.00 0.00 0.00 0.00
0.02 0.32 0.91 0.87 0.17 0.18 0.06 0.03 0.01 0.02 0.06 0.03 0.05 0.08 0.00 0.00 0.00 0.00 0.00 0.00 0.01 0.00 0.00 0.02 0.09 0.11 0.09 0.11 0.06 0.05 0.04 0.01 0.00 0.00 0.00 0.00 0.00 0.00 0.00 0.00 0.00 0.00 0.00 0.00 0.01 0.00 0.00 0.00 0.00
0.24 1.07 0.55 0.45 0.02 0.03 0.01 0.02 0.00 0.00 0.00 0.02 0.01 0.00 0.00 0.00 0.00 0.00 0.00 0.00 0.00 0.00 0.01 0.03 0.09 0.09 0.14 0.12 0.07 0.02 0.01 0.00 0.01 0.01 0.00 0.00 0.00 0.00 0.00 0.00 0.00 0.00 0.00 0.00 0.00 0.00 0.00 0.01 0.00
0.37 0.41 0.30 0.24 0.00 0.01 0.00 0.01 0.03 0.02 0.02 0.01 0.00 0.00 0.00 0.00 0.00 0.00 0.00 0.00 0.00 0.00 0.00 0.02 0.12 0.10 0.10 0.07 0.03 0.02 0.01 0.00 0.00 0.00 0.00 0.00 0.00 0.00 0.00 0.03 0.00 0.00 0.00 0.00 0.00 0.00 0.00 0.00 0.00
1.03 0.13 0.06 0.00 0.00 0.00 0.00 0.00 0.01 0.00 0.02 0.01 0.00 0.00 0.01 0.00 0.00 0.00 0.00 0.00 0.01 0.01 0.02 0.02 0.08 0.13 0.07 0.02 0.01 0.01 0.00 0.00 0.00 0.01 0.00 0.00 0.03 0.01 0.03 0.03 0.03 0.01 0.00 0.01 0.02 0.01 0.01 0.00 0.00
0.13 0.01 0.01 0.00 0.00 0.00 0.00 0.00 0.00 0.00 0.00 0.01 0.00 0.00 0.00 0.00 0.00 0.00 0.00 0.00 0.02 0.02 0.01 0.04 0.07 0.09 0.05 0.03 0.01 0.01 0.00 0.00 0.00 0.00 0.00 0.02 0.05 0.08 0.09 0.12 0.09 0.05 0.04 0.05 0.12 0.10 0.04 0.00 0.01
0.01 0.00 0.05 0.01 0.00 0.00 0.00 0.00 0.00 0.00 0.00 0.00 0.02 0.00 0.00 0.00 0.00 0.00 0.00 0.00 0.02 0.02 0.02 0.04 0.08 0.11 0.05 0.01 0.02 0.03 0.02 0.01 0.02 0.01 0.03 0.03 0.03 0.04 0.04 0.10 0.07 0.04 0.09 0.14 0.09 0.07 0.03 0.05 0.02
0.00 0.00 0.05 0.00 0.00 0.00 0.00 0.00 0.00 0.00 0.00 0.02 0.05 0.01 0.00 0.00 0.00 0.00 0.00 0.01 0.03 0.02 0.03 0.03 0.01 0.05 0.05 0.02 0.03 0.03 0.01 0.01 0.02 0.02 0.01 0.02 0.02 0.02 0.06 0.16 0.10 0.01 0.02 0.06 0.06 0.06 0.07 0.08 0.02
0.00 0.02 0.00 0.00 0.00 0.00 0.00 0.00 0.00 0.00 0.00 0.00 0.00 0.00 0.00 0.00 0.00 0.00 0.00 0.00 0.01 0.00 0.01 0.02 0.01 0.02 0.01 0.02 0.02 0.02 0.00 0.00 0.00 0.00 0.01 0.01 0.09 0.03 0.10 0.16 0.06 0.06 0.05 0.10 0.10 0.09 0.07 0.01 0.00
0.00 0.02 0.00 0.00 0.00 0.01 0.00 0.00 0.00 0.00 0.00 0.00 0.00 0.00 0.00 0.00 0.00 0.00 0.00 0.00 0.00 0.00 0.00 0.00 0.00 0.00 0.00 0.02 0.04 0.04 0.01 0.00 0.00 0.00 0.00 0.01 0.06 0.10 0.20 0.22 0.22 0.14 0.48 0.51 0.11 0.07 0.02 0.01 0.00
0.00 0.00 0.00 0.00 0.00 0.00 0.00 0.00 0.00 0.00 0.00 0.00 0.00 0.00 0.00 0.00 0.00 0.00 0.00 0.00 0.00 0.00 0.00 0.00 0.00 0.01 0.02 0.02 0.02 0.05 0.01 0.01 0.00 0.00 0.00 0.00 0.05 0.05 0.13 0.28 0.14 0.35 0.20 0.41 0.12 0.06 0.00 0.00 0.00
0.00 0.00 0.00 0.00 0.00 0.00 0.01 0.00 0.00 0.00 0.00 0.00 0.00 0.00 0.00 0.00 0.00 0.00 0.00 0.00 0.00 0.00 0.00 0.00 0.00 0.00 0.01 0.00 0.00 0.00 0.01 0.00 0.00 0.00 0.00 0.00 0.01 0.14 0.16 0.15 0.15 0.16 0.10 0.07 0.03 0.01 0.00 0.00 0.00
0.00 0.00 0.00 0.00 0.00 0.00 0.00 0.00 0.00 0.00 0.00 0.00 0.00 0.00 0.00 0.00 0.00 0.00 0.00 0.00 0.00 0.00 0.00 0.00 0.00 0.00 0.01 0.00 0.00 0.01 0.00 0.00 0.00 0.00 0.00 0.00 0.01 0.19 0.14 0.13 0.12 0.06 0.02 0.01 0.00 0.00 0.00 0.00 0.00
0.00 0.00 0.00 0.00 0.00 0.00 0.00 0.01 0.00 0.00 0.00 0.00 0.00 0.00 0.00 0.00 0.00 0.00 0.00 0.00 0.00 0.00 0.00 0.00 0.00 0.00 0.01 0.03 0.01 0.01 0.00 0.00 0.00 0.00 0.00 0.04 0.19 0.22 0.12 0.14 0.12 0.05 0.01 0.01 0.02 0.04 0.02 0.00 0.00
0.00 0.00 0.00 0.00 0.00 0.00 0.00 0.00 0.00 0.00 0.00 0.00 0.00 0.00 0.00 0.00 0.00 0.00 0.00 0.00 0.00 0.00 0.00 0.00 0.00 0.00 0.00 0.01 0.04 0.00 0.00 0.00 0.01 0.05 0.08 0.22 0.20 0.17 0.11 0.20 0.19 0.10 0.04 0.04 0.04 0.04 0.01 0.00 0.00
0.00 0.00 0.00 0.00 0.00 0.00 0.00 0.03 0.02 0.00 0.00 0.00 0.00 0.00 0.00 0.00 0.00 0.00 0.00 0.00 0.00 0.00 0.00 0.00 0.00 0.00 0.00 0.01 0.05 0.04 0.08 0.15 0.13 0.07 0.09 0.12 0.11 0.12 0.13 0.15 0.12 0.10 0.07 0.14 0.07 0.03 0.01 0.00 0.00
0.00 0.00 0.00 0.00 0.00 0.00 0.00 0.09 0.08 0.00 0.00 0.00 0.00 0.00 0.00 0.00 0.00 0.00 0.00 0.00 0.00 0.00 0.00 0.00 0.00 0.03 0.13 0.24 0.24 0.16 0.11 0.09 0.02 0.00 0.06 0.08 0.18 0.08 0.13 0.10 0.09 0.06 0.11 0.07 0.09 0.02 0.00 0.00 0.00
0.00 0.00 0.00 0.00 0.00 0.00 0.00 0.03 0.12 0.00 0.00 0.00 0.00 0.00 0.00 0.00 0.00 0.00 0.00 0.00 0.00 0.00 0.00 0.00 0.00 0.04 0.13 0.11 0.07 0.02 0.02 0.00 0.01 0.04 0.09 0.10 0.08 0.10 0.13 0.08 0.09 0.05 0.03 0.01 0.00 0.00 0.00 0.00 0.00
0.00 0.00 0.00 0.00 0.00 0.00 0.00 0.00 0.00 0.00 0.00 0.00 0.00 0.00 0.00 0.00 0.00 0.00 0.00 0.00 0.00 0.00 0.00 0.00 0.00 0.00 0.08 0.02 0.02 0.02 0.01 0.00 0.01 0.01 0.04 0.02 0.01 0.05 0.06 0.06 0.03 0.01 0.01 0.00 0.00 0.00 0.00 0.00 0.00
0.00 0.00 0.00 0.00 0.00 0.00 0.00 0.00 0.00 0.00 0.00 0.00 0.00 0.00 0.00 0.00 0.00 0.00 0.00 0.00 0.00 0.00 0.00 0.00 0.00 0.00 0.06 0.04 0.05 0.08 0.07 0.03 0.02 0.01 0.02 0.02 0.02 0.04 0.05 0.05 0.02 0.01 0.00 0.00 0.00 0.00 0.00 0.01 0.01
0.00 0.00 0.00 0.00 0.00 0.00 0.00 0.00 0.00 0.02 0.08 0.01 0.00 0.00 0.00 0.00 0.00 0.00 0.00 0.00 0.00 0.00 0.00 0.00 0.00 0.00 0.01 0.04 0.01 0.05 0.01 0.00 0.00 0.00 0.00 0.01 0.01 0.01 0.00 0.00 0.00 0.00 0.00 0.00 0.00 0.00 0.00 0.00 0.00
0.00 0.00 0.00 0.00 0.00 0.00 0.00 0.00 0.00 0.00 0.02 0.01 0.00 0.00 0.00 0.00 0.00 0.00 0.00 0.00 0.00 0.00 0.00 0.00 0.00 0.00 0.00 0.02 0.01 0.03 0.01 0.00 0.00 0.00 0.00 0.01 0.02 0.00 0.00 0.00 0.00 0.00 0.00 0.00 0.00 0.00 0.00 0.00 0.00
0.00 0.00 0.00 0.00 0.00 0.00 0.00 0.01 0.00 0.00 0.00 0.00 0.01 0.00 0.00 0.00 0.00 0.00 0.00 0.00 0.00 0.00 0.00 0.00 0.00 0.00 0.00 0.01 0.00 0.02 0.01 0.00 0.00 0.00 0.00 0.00 0.00 0.00 0.00 0.00 0.00 0.00 0.00 0.00 0.00 0.00 0.00 0.00 0.00
0.00 0.00 0.00 0.00 0.00 0.00 0.00 0.00 0.00 0.00 0.00 0.00 0.01 0.01 0.00 0.00 0.00 0.00 0.00 0.00 0.00 0.00 0.00 0.00 0.00 0.00 0.00 0.00 0.00 0.00 0.01 0.00 0.00 0.00 0.00 0.00 0.00 0.00 0.00 0.00 0.00 0.00 0.00 0.00 0.00 0.00 0.00 0.00 0.00
0.00 0.00 0.00 0.00 0.00 0.00 0.00 0.00 0.00 0.00 0.00 0.00 0.00 0.00 0.00 0.00 0.00 0.00 0.00 0.00 0.00 0.00 0.00 0.00 0.00 0.00 0.00 0.00 0.00 0.00 0.00 0.00 0.00 0.00 0.00 0.00 0.00 0.00 0.00 0.00 0.00 0.00 0.00 0.00 0.00 0.00 0.00 0.00 0.00
0.00 0.00 0.00 0.00 0.00 0.00 0.00 0.00 0.00 0.00 0.00 0.00 0.00 0.00 0.00 0.00 0.00 0.00 0.00 0.00 0.00 0.00 0.00 0.00 0.00 0.00 0.00 0.00 0.00 0.00 0.00 0.00 0.00 0.00 0.00 0.00 0.00 0.00 0.00 0.00 0.00 0.00 0.00 0.00 0.00 0.00 0.00 0.00 0.00
0.00 0.00 0.00 0.00 0.00 0.00 0.00 0.00 0.00 0.00 0.00 0.00 0.00 0.00 0.00 0.00 0.00 0.00 0.00 0.00 0.00 0.00 0.00 0.00 0.00 0.00 0.00 0.00 0.00 0.00 0.00 0.00 0.00 0.00 0.00 0.00 0.00 0.00 0.00 0.00 0.00 0.00 0.00 0.00 0.00 0.00 0.00 0.00 0.00
0.00 0.00 0.00 0.00 0.00 0.00 0.00 0.00 0.00 0.00 0.00 0.00 0.00 0.00 0.00 0.00 0.00 0.00 0.00 0.00 0.00 0.00 0.00 0.00 0.00 0.00 0.00 0.00 0.00 0.00 0.00 0.00 0.00 0.00 0.00 0.00 0.00 0.00 0.00 0.00 0.00 0.00 0.00 0.00 0.00 0.00 0.00 0.00 0.00
0.00 0.00 0.00 0.00 0.00 0.00 0.00 0.00 0.00 0.00 0.00 0.00 0.00 0.00 0.00 0.00 0.00 0.00 0.00 0.00 0.00 0.00 0.00 0.00 0.00 0.00 0.00 0.00 0.00 0.00 0.00 0.00 0.00 0.01 0.01 0.00 0.00 0.00 0.00 0.00 0.00 0.00 0.00 0.00 0.00 0.00 0.00 0.00 0.00

GFSSGP_prec_precacc24_018.txt.gz
Total_Precipitation_Accumulation
0.00 0.00 0.05 0.35 0.78 0.33 0.32 0.18 0.09 0.08 0.03 0.00 0.00 0.01 0.07 0.11 0.18 0.15 0.11 0.07 0.01 0.02 0.05 0.31 0.35 0.26 0.23 0.11 0.15 0.06 0.01 0.01 0.01 0.01 0.01 0.00 0.00 0.00 0.00 0.00 0.00 0.00 0.00 0.00 0.00 0.00 0.00 0.00 0.00
0.00 0.10 0.65 1.80 0.77 0.26 0.17 0.07 0.08 0.02 0.02 0.01 0.01 0.03 0.00 0.01 0.01 0.02 0.09 0.04 0.00 0.00 0.00 0.09 0.20 0.12 0.14 0.08 0.08 0.05 0.02 0.01 0.02 0.01 0.00 0.00 0.00 0.00 0.00 0.00 0.00 0.00 0.01 0.00 0.02 0.00 0.00 0.00 0.00
0.03 0.61 1.73 1.21 0.19 0.18 0.06 0.03 0.01 0.03 0.07 0.03 0.05 0.08 0.00 0.00 0.00 0.00 0.00 0.00 0.01 0.00 0.00 0.02 0.10 0.11 0.09 0.11 0.06 0.05 0.04 0.01 0.00 0.00 0.00 0.00 0.00 0.00 0.00 0.00 0.00 0.00 0.00 0.00 0.01 0.00 0.00 0.00 0.00
0.25 1.27 1.71 1.02 0.07 0.04 0.01 0.04 0.02 0.04 0.01 0.02 0.01 0.00 0.00 0.00 0.00 0.00 0.00 0.00 0.00 0.00 0.01 0.03 0.09 0.09 0.14 0.12 0.07 0.02 0.01 0.00 0.01 0.01 0.00 0.00 0.00 0.00 0.00 0.00 0.00 0.00 0.00 0.00 0.00 0.00 0.00 0.01 0.00
0.39 0.43 0.55 0.61 0.01 0.02 0.00 0.03 0.05 0.02 0.02 0.01 0.00 0.00 0.00 0.00 0.00 0.00 0.00 0.00 0.00 0.00 0.00 0.02 0.12 0.10 0.10 0.07 0.03 0.02 0.01 0.00 0.00 0.00 0.00 0.00 0.00 0.00 0.00 0.03 0.00 0.00 0.00 0.00 0.00 0.00 0.00 0.00 0.00
1.03 0.14 0.13 0.02 0.02 0.00 0.02 0.04 0.02 0.01 0.02 0.01 0.00 0.00 0.01 0.00 0.00 0.00 0.00 0.00 0.01 0.01 0.02 0.02 0.08 0.13 0.07 0.02 0.01 0.01 0.00 0.00 0.00 0.01 0.00 0.00 0.03 0.01 0.03 0.03 0.03 0.01 0.00 0.01 0.02 0.01 0.01 0.00 0.02
0.14 0.01 0.01 0.00 0.01 0.00 0.01 0.00 0.00 0.00 0.00 0.01 0.00 0.00 0.00 0.00 0.00 0.00 0.00 0.00 0.02 0.02 0.01 0.04 0.07 0.09 0.05 0.03 0.01 0.01 0.00 0.00 0.00 0.00 0.00 0.02 0.05 0.08 0.09 0.12 0.09 0.05 0.04 0.05 0.12 0.10 0.04 0.02 0.06
0.03 0.01 0.06 0.01 0.00 0.01 0.00 0.00 0.00 0.00 0.00 0.00 0.02 0.00 0.00 0.00 0.00 0.00 0.00 0.00 0.02 0.02 0.02 0.04 0.08 0.11 0.05 0.01 0.02 0.03 0.02 0.01 0.02 0.01 0.03 0.03 0.03 0.04 0.04 0.10 0.07 0.04 0.09 0.14 0.09 0.07 0.03 0.07 0.05
0.04 0.00 0.07 0.00 0.00 0.00 0.00 0.00 0.00 0.00 0.00 0.02 0.05 0.01 0.00 0.00 0.00 0.00 0.00 0.01 0.03 0.02 0.03 0.03 0.01 0.05 0.05 0.02 0.03 0.03 0.01 0.01 0.02 0.02 0.01 0.02 0.02 0.02 0.06 0.17 0.10 0.01 0.02 0.06 0.06 0.06 0.07 0.10 0.05
0.00 0.02 0.01 0.00 0.00 0.00 0.00 0.00 0.00 0.00 0.00 0.00 0.00 0.00 0.00 0.00 0.00 0.00 0.00 0.00 0.01 0.00 0.01 0.02 0.01 0.02 0.01 0.02 0.02 0.02 0.00 0.00 0.00 0.00 0.01 0.01 0.10 0.05 0.10 0.16 0.06 0.06 0.05 0.10 0.10 0.09 0.07 0.02 0.00
0.00 0.02 0.00 0.00 0.00 0.01 0.00 0.00 0.00 0.00 0.00 0.00 0.00 0.00 0.00 0.00 0.00 0.00 0.00 0.00 0.00 0.00 0.00 0.00 0.00 0.00 0.00 0.02 0.04 0.04 0.01 0.00 0.00 0.00 0.00 0.02 0.06 0.10 0.20 0.22 0.22 0.14 0.48 0.52 0.11 0.07 0.02 0.01 0.00
0.00 0.00 0.00 0.00 0.00 0.00 0.00 0.00 0.00 0.00 0.00 0.00 0.00 0.00 0.00 0.00 0.00 0.00 0.00 0.00 0.00 0.00 0.00 0.00 0.00 0.01 0.02 0.02 0.02 0.05 0.01 0.01 0.00 0.00 0.00 0.00 0.05 0.05 0.13 0.28 0.14 0.35 0.20 0.41 0.12 0.06 0.01 0.00 0.00
0.00 0.00 0.00 0.00 0.00 0.00 0.01 0.00 0.00 0.00 0.00 0.00 0.00 0.00 0.00 0.00 0.00 0.00 0.00 0.00 0.00 0.00 0.00 0.00 0.00 0.00 0.01 0.00 0.00 0.00 0.01 0.00 0.00 0.00 0.00 0.00 0.01 0.14 0.16 0.15 0.15 0.16 0.10 0.07 0.03 0.01 0.00 0.00 0.00
0.00 0.00 0.00 0.00 0.00 0.00 0.00 0.00 0.00 0.00 0.00 0.00 0.00 0.00 0.00 0.00 0.00 0.00 0.00 0.00 0.00 0.00 0.00 0.00 0.00 0.00 0.01 0.00 0.00 0.01 0.00 0.00 0.00 0.00 0.00 0.00 0.01 0.20 0.16 0.16 0.15 0.06 0.02 0.02 0.03 0.01 0.00 0.00 0.00
0.00 0.00 0.00 0.00 0.00 0.00 0.00 0.01 0.00 0.00 0.00 0.00 0.00 0.00 0.00 0.00 0.00 0.00 0.00 0.00 0.00 0.00 0.00 0.00 0.00 0.00 0.01 0.03 0.01 0.01 0.00 0.00 0.00 0.00 0.00 0.04 0.20 0.22 0.13 0.16 0.13 0.05 0.04 0.05 0.07 0.04 0.02 0.00 0.00
0.00 0.00 0.00 0.00 0.00 0.00 0.00 0.00 0.00 0.00 0.00 0.00 0.00 0.00 0.00 0.00 0.00 0.00 0.00 0.00 0.00 0.00 0.00 0.00 0.00 0.00 0.00 0.01 0.04 0.00 0.00 0.00 0.01 0.05 0.08 0.22 0.20 0.17 0.11 0.20 0.19 0.10 0.06 0.04 0.04 0.04 0.01 0.00 0.00
0.00 0.00 0.00 0.00 0.00 0.00 0.00 0.03 0.02 0.00 0.00 0.00 0.00 0.00 0.00 0.00 0.00 0.00 0.00 0.00 0.00 0.00 0.00 0.00 0.00 0.00 0.00 0.01 0.05 0.04 0.08 0.15 0.13 0.07 0.09 0.12 0.11 0.12 0.13 0.15 0.12 0.10 0.07 0.14 0.07 0.03 0.01 0.00 0.00
0.00 0.00 0.00 0.00 0.00 0.00 0.00 0.09 0.08 0.00 0.00 0.00 0.00 0.00 0.00 0.00 0.00 0.00 0.00 0.00 0.00 0.00 0.00 0.00 0.00 0.03 0.13 0.24 0.24 0.16 0.11 0.09 0.02 0.00 0.06 0.08 0.18 0.08 0.13 0.10 0.09 0.06 0.11 0.07 0.09 0.02 0.00 0.00 0.00
0.00 0.00 0.00 0.00 0.00 0.00 0.00 0.03 0.12 0.00 0.00 0.00 0.00 0.00 0.00 0.00 0.00 0.00 0.00 0.00 0.00 0.00 0.00 0.00 0.00 0.04 0.13 0.11 0.07 0.02 0.02 0.00 0.01 0.04 0.09 0.10 0.08 0.10 0.13 0.08 0.09 0.05 0.03 0.01 0.00 0.00 0.00 0.00 0.00
0.00 0.00 0.00 0.00 0.00 0.00 0.00 0.00 0.00 0.00 0.00 0.00 0.00 0.00 0.00 0.00 0.00 0.00 0.00 0.00 0.00 0.00 0.00 0.00 0.00 0.00 0.08 0.02 0.02 0.02 0.01 0.00 0.01 0.01 0.04 0.02 0.01 0.05 0.06 0.06 0.03 0.01 0.01 0.00 0.00 0.00 0.00 0.00 0.00
0.00 0.00 0.00 0.00 0.00 0.00 0.00 0.00 0.00 0.00 0.00 0.00 0.00 0.00 0.00 0.00 0.00 0.00 0.00 0.00 0.00 0.00 0.00 0.00 0.00 0.00 0.06 0.04 0.05 0.08 0.07 0.03 0.02 0.01 0.02 0.02 0.02 0.04 0.05 0.05 0.02 0.01 0.00 0.00 0.00 0.00 0.00 0.01 0.01
0.00 0.00 0.00 0.00 0.00 0.00 0.00 0.00 0.00 0.02 0.08 0.01 0.00 0.00 0.00 0.00 0.00 0.00 0.00 0.00 0.00 0.00 0.00 0.00 0.00 0.00 0.01 0.04 0.01 0.05 0.01 0.00 0.00 0.00 0.00 0.01 0.01 0.01 0.00 0.00 0.00 0.00 0.00 0.00 0.00 0.00 0.00 0.00 0.00
0.00 0.00 0.00 0.00 0.00 0.00 0.00 0.00 0.00 0.00 0.02 0.01 0.00 0.00 0.00 0.00 0.00 0.00 0.00 0.00 0.00 0.00 0.00 0.00 0.00 0.00 0.00 0.02 0.01 0.03 0.01 0.00 0.00 0.00 0.00 0.01 0.02 0.00 0.00 0.00 0.00 0.00 0.00 0.00 0.00 0.00 0.00 0.00 0.00
0.00 0.00 0.00 0.00 0.00 0.00 0.00 0.01 0.00 0.00 0.00 0.00 0.01 0.00 0.00 0.00 0.00 0.00 0.00 0.00 0.00 0.00 0.00 0.00 0.00 0.00 0.00 0.01 0.00 0.02 0.01 0.00 0.00 0.00 0.00 0.00 0.00 0.00 0.00 0.00 0.00 0.00 0.00 0.00 0.00 0.00 0.00 0.00 0.00
0.00 0.00 0.00 0.00 0.00 0.00 0.00 0.00 0.00 0.00 0.00 0.00 0.01 0.01 0.00 0.00 0.00 0.00 0.00 0.00 0.00 0.00 0.00 0.00 0.00 0.00 0.00 0.00 0.00 0.00 0.01 0.00 0.00 0.00 0.00 0.00 0.00 0.00 0.00 0.00 0.00 0.00 0.00 0.00 0.00 0.00 0.00 0.00 0.00
0.00 0.00 0.00 0.00 0.00 0.00 0.00 0.00 0.00 0.00 0.00 0.00 0.00 0.00 0.00 0.00 0.00 0.00 0.00 0.00 0.00 0.00 0.00 0.00 0.00 0.00 0.00 0.00 0.00 0.00 0.00 0.00 0.00 0.00 0.00 0.00 0.00 0.00 0.00 0.00 0.00 0.00 0.00 0.00 0.00 0.00 0.00 0.00 0.00
0.00 0.00 0.00 0.00 0.00 0.00 0.00 0.00 0.00 0.00 0.00 0.00 0.00 0.00 0.00 0.00 0.00 0.00 0.00 0.00 0.00 0.00 0.00 0.00 0.00 0.00 0.00 0.00 0.00 0.00 0.00 0.00 0.00 0.00 0.00 0.00 0.00 0.00 0.00 0.00 0.00 0.00 0.00 0.00 0.00 0.00 0.00 0.00 0.00
0.00 0.00 0.00 0.00 0.00 0.00 0.00 0.00 0.00 0.00 0.00 0.00 0.00 0.00 0.00 0.00 0.00 0.00 0.00 0.00 0.00 0.00 0.00 0.00 0.00 0.00 0.00 0.00 0.00 0.00 0.00 0.00 0.00 0.00 0.00 0.00 0.00 0.00 0.00 0.00 0.00 0.00 0.00 0.00 0.00 0.00 0.00 0.00 0.00
0.00 0.00 0.00 0.00 0.00 0.00 0.00 0.00 0.00 0.00 0.00 0.00 0.00 0.00 0.00 0.00 0.00 0.00 0.00 0.00 0.00 0.00 0.00 0.00 0.00 0.00 0.00 0.00 0.00 0.00 0.00 0.00 0.00 0.00 0.00 0.00 0.00 0.00 0.00 0.00 0.00 0.00 0.00 0.00 0.00 0.00 0.00 0.00 0.00
0.00 0.00 0.00 0.00 0.00 0.00 0.00 0.00 0.00 0.00 0.00 0.00 0.00 0.00 0.00 0.00 0.00 0.00 0.00 0.00 0.00 0.00 0.00 0.00 0.00 0.00 0.00 0.00 0.00 0.00 0.00 0.00 0.00 0.01 0.01 0.00 0.00 0.00 0.00 0.00 0.00 0.00 0.00 0.00 0.00 0.00 0.00 0.00 0.00

GFSSGP_prec_precacc24_021.txt.gz
Total_Precipitation_Accumulation
0.00 0.00 0.05 0.39 0.84 0.35 0.34 0.21 0.10 0.08 0.03 0.00 0.00 0.01 0.07 0.11 0.18 0.15 0.11 0.07 0.01 0.02 0.08 0.37 0.47 0.32 0.23 0.11 0.15 0.06 0.01 0.01 0.01 0.01 0.01 0.00 0.00 0.00 0.00 0.00 0.00 0.00 0.00 0.00 0.01 0.00 0.00 0.01 0.01
0.00 0.10 0.66 1.81 0.78 0.27 0.19 0.10 0.10 0.02 0.02 0.01 0.01 0.03 0.00 0.01 0.01 0.02 0.09 0.04 0.00 0.00 0.01 0.15 0.29 0.13 0.14 0.08 0.08 0.05 0.02 0.01 0.02 0.01 0.00 0.00 0.00 0.00 0.00 0.00 0.00 0.00 0.01 0.00 0.02 0.00 0.00 0.04 0.09
0.03 0.61 1.75 1.23 0.20 0.20 0.06 0.03 0.03 0.03 0.07 0.03 0.05 0.08 0.00 0.01 0.00 0.00 0.00 0.00 0.01 0.00 0.01 0.05 0.13 0.11 0.09 0.11 0.06 0.05 0.04 0.01 0.00 0.00 0.00 0.00 0.00 0.00 0.00 0.00 0.00 0.00 0.00 0.00 0.01 0.00 0.00 0.08 0.06
0.25 1.27 1.74 1.04 0.10 0.04 0.01 0.05 0.03 0.05 0.07 0.03 0.02 0.00 0.00 0.00 0.00 0.00 0.00 0.00 0.00 0.00 0.02 0.06 0.10 0.09 0.14 0.12 0.07 0.02 0.01 0.00 0.01 0.01 0.00 0.00 0.00 0.00 0.00 0.00 0.00 0.00 0.00 0.00 0.00 0.00 0.00 0.06 0.09
0.39 0.44 0.58 0.61 0.01 0.03 0.01 0.04 0.06 0.03 0.03 0.01 0.00 0.00 0.00 0.00 0.00 0.00 0.00 0.00 0.00 0.00 0.00 0.03 0.12 0.10 0.10 0.07 0.03 0.02 0.01 0.00 0.00 0.00 0.00 0.00 0.00 0.00 0.00 0.03 0.00 0.00 0.00 0.00 0.00 0.00 0.00 0.00 0.03
1.03 0.15 0.14 0.02 0.02 0.01 0.03 0.06 0.04 0.01 0.02 0.01 0.00 0.00 0.01 0.00 0.00 0.00 0.00 0.00 0.01 0.01 0.02 0.02 0.08 0.13 0.07 0.02 0.01 0.01 0.00 0.00 0.00 0.01 0.00 0.00 0.05 0.01 0.03 0.03 0.03 0.01 0.00 0.01 0.02 0.01 0.01 0.01 0.03
0.14 0.01 0.01 0.00 0.02 0.00 0.02 0.01 0.00 0.00 0.00 0.01 0.00 0.00 0.00 0.00 0.00 0.00 0.00 0.00 0.02 0.02 0.01 0.04 0.07 0.09 0.05 0.03 0.01 0.01 0.00 0.00 0.00 0.00 0.00 0.02 0.07 0.10 0.09 0.12 0.09 0.05 0.04 0.05 0.12 0.10 0.05 0.03 0.06
0.03 0.01 0.06 0.01 0.02 0.01 0.02 0.01 0.00 0.00 0.00 0.00 0.02 0.00 0.00 0.00 0.00 0.00 0.00 0.00 0.02 0.02 0.02 0.04 0.08 0.11 0.05 0.01 0.02 0.03 0.02 0.01 0.02 0.01 0.03 0.03 0.03 0.04 0.04 0.10 0.07 0.04 0.09 0.14 0.10 0.11 0.05 0.09 0.08
0.11 0.01 0.07 0.00 0.00 0.00 0.00 0.00 0.00 0.00 0.00 0.02 0.05 0.01 0.00 0.00 0.00 0.00 0.00 0.01 0.03 0.02 0.03 0.03 0.01 0.05 0.05 0.02 0.03 0.03 0.01 0.01 0.02 0.02 0.01 0.02 0.02 0.03 0.06 0.17 0.10 0.01 0.02 0.06 0.06 0.07 0.10 0.12 0.07
0.02 0.02 0.01 0.00 0.00 0.00 0.00 0.00 0.00 0.00 0.00 0.00 0.00 0.00 0.00 0.00 0.00 0.00 0.00 0.00 0.01 0.00 0.01 0.02 0.01 0.02 0.01 0.02 0.02 0.02 0.00 0.00 0.00 0.00 0.01 0.01 0.10 0.07 0.10 0.16 0.06 0.06 0.05 0.10 0.10 0.09 0.09 0.03 0.00
0.00 0.02 0.00 0.00 0.00 0.01 0.00 0.00 0.00 0.00 0.00 0.00 0.00 0.00 0.00 0.00 0.00 0.00 0.00 0.00 0.00 0.00 0.00 0.00 0.00 0.00 0.00 0.02 0.04 0.04 0.01 0.00 0.00 0.00 0.00 0.02 0.07 0.14 0.20 0.22 0.22 0.14 0.48 0.52 0.11 0.07 0.02 0.01 0.00
0.00 0.00 0.00 0.00 0.00 0.00 0.00 0.00 0.00 0.00 0.00 0.00 0.00 0.00 0.00 0.00 0.00 0.00 0.00 0.00 0.00 0.00 0.00 0.00 0.00 0.01 0.02 0.02 0.02 0.05 0.01 0.01 0.00 0.00 0.00 0.00 0.05 0.05 0.13 0.28 0.14 0.35 0.20 0.41 0.12 0.06 0.01 0.00 0.00
0.00 0.00 0.00 0.00 0.00 0.00 0.01 0.00 0.00 0.00 0.00 0.00 0.00 0.00 0.00 0.00 0.00 0.00 0.00 0.00 0.00 0.00 0.00 0.00 0.00 0.00 0.01 0.00 0.00 0.00 0.01 0.00 0.00 0.00 0.00 0.01 0.02 0.14 0.16 0.16 0.16 0.16 0.10 0.07 0.04 0.03 0.00 0.00 0.00
0.00 0.00 0.00 0.00 0.00 0.00 0.00 0.00 0.00 0.00 0.00 0.00 0.00 0.00 0.00 0.00 0.00 0.00 0.00 0.00 0.00 0.00 0.00 0.00 0.00 0.00 0.01 0.00 0.00 0.01 0.00 0.00 0.00 0.00 0.00 0.00 0.02 0.20 0.16 0.16 0.16 0.07 0.03 0.03 0.09 0.03 0.00 0.00 0.00
0.00 0.00 0.00 0.00 0.00 0.00 0.00 0.01 0.00 0.00 0.00 0.00 0.00 0.00 0.00 0.00 0.00 0.00 0.00 0.00 0.00 0.00 0.00 0.00 0.00 0.00 0.01 0.03 0.01 0.01 0.00 0.00 0.00 0.00 0.00 0.04 0.20 0.22 0.13 0.16 0.13 0.05 0.06 0.07 0.07 0.04 0.02 0.00 0.00
0.00 0.00 0.00 0.00 0.00 0.00 0.00 0.00 0.00 0.00 0.00 0.00 0.00 0.00 0.00 0.00 0.00 0.00 0.00 0.00 0.00 0.00 0.00 0.00 0.00 0.00 0.00 0.01 0.04 0.00 0.00 0.00 0.01 0.05 0.08 0.22 0.20 0.17 0.13 0.21 0.19 0.10 0.06 0.05 0.04 0.04 0.01 0.00 0.00
0.00 0.00 0.00 0.00 0.00 0.00 0.00 0.03 0.02 0.00 0.00 0.00 0.00 0.00 0.00 0.00 0.00 0.00 0.00 0.00 0.00 0.00 0.00 0.00 0.00 0.00 0.00 0.01 0.05 0.04 0.08 0.15 0.13 0.07 0.09 0.12 0.11 0.13 0.14 0.15 0.12 0.10 0.07 0.14 0.07 0.03 0.01 0.00 0.00
0.00 0.00 0.00 0.00 0.00 0.00 0.00 0.09 0.08 0.00 0.00 0.00 0.00 0.00 0.00 0.00 0.00 0.00 0.00 0.00 0.00 0.00 0.00 0.00 0.00 0.03 0.13 0.24 0.24 0.16 0.11 0.09 0.02 0.00 0.06 0.08 0.18 0.08 0.13 0.10 0.09 0.06 0.11 0.07 0.09 0.02 0.00 0.00 0.00
0.00 0.00 0.00 0.00 0.00 0.00 0.00 0.03 0.12 0.00 0.00 0.00 0.00 0.00 0.00 0.00 0.00 0.00 0.00 0.00 0.00 0.00 0.00 0.00 0.00 0.04 0.13 0.11 0.07 0.02 0.02 0.00 0.01 0.04 0.09 0.10 0.08 0.10 0.13 0.08 0.09 0.05 0.03 0.01 0.00 0.00 0.00 0.00 0.00
0.00 0.00 0.00 0.00 0.00 0.00 0.00 0.00 0.00 0.00 0.00 0.00 0.00 0.00 0.00 0.00 0.00 0.00 0.00 0.00 0.00 0.00 0.00 0.00 0.00 0.00 0.08 0.02 0.02 0.02 0.01 0.00 0.01 0.01 0.04 0.02 0.01 0.05 0.06 0.06 0.03 0.01 0.01 0.00 0.00 0.00 0.00 0.00 0.00
0.00 0.00 0.00 0.00 0.00 0.00 0.00 0.00 0.00 0.00 0.00 0.00 0.00 0.00 0.00 0.00 0.00 0.00 0.00 0.00 0.00 0.00 0.00 0.00 0.00 0.00 0.06 0.04 0.05 0.08 0.07 0.03 0.02 0.01 0.02 0.02 0.02 0.04 0.05 0.05 0.02 0.01 0.00 0.00 0.00 0.00 0.00 0.01 0.01
0.00 0.00 0.00 0.00 0.00 0.00 0.00 0.00 0.00 0.02 0.08 0.01 0.00 0.00 0.00 0.00 0.00 0.00 0.00 0.00 0.00 0.00 0.00 0.00 0.00 0.00 0.01 0.04 0.01 0.05 0.01 0.00 0.00 0.00 0.00 0.01 0.01 0.01 0.00 0.00 0.00 0.00 0.00 0.00 0.00 0.00 0.00 0.00 0.00
0.00 0.00 0.00 0.00 0.00 0.00 0.00 0.00 0.00 0.00 0.02 0.01 0.00 0.00 0.00 0.00 0.00 0.00 0.00 0.00 0.00 0.00 0.00 0.00 0.00 0.00 0.00 0.02 0.01 0.03 0.01 0.00 0.00 0.00 0.00 0.01 0.02 0.00 0.00 0.00 0.00 0.00 0.00 0.00 0.00 0.00 0.00 0.00 0.00
0.00 0.00 0.00 0.00 0.00 0.00 0.00 0.01 0.00 0.00 0.00 0.00 0.01 0.00 0.00 0.00 0.00 0.00 0.00 0.00 0.00 0.00 0.00 0.00 0.00 0.00 0.00 0.01 0.00 0.02 0.01 0.00 0.00 0.00 0.00 0.00 0.00 0.00 0.00 0.00 0.00 0.00 0.00 0.00 0.00 0.00 0.00 0.00 0.00
0.00 0.00 0.00 0.00 0.00 0.00 0.00 0.00 0.00 0.00 0.00 0.00 0.01 0.01 0.00 0.00 0.00 0.00 0.00 0.00 0.00 0.00 0.00 0.00 0.00 0.00 0.00 0.00 0.00 0.00 0.01 0.00 0.00 0.00 0.00 0.00 0.00 0.00 0.00 0.00 0.00 0.00 0.00 0.00 0.00 0.00 0.00 0.00 0.00
0.00 0.00 0.00 0.00 0.00 0.00 0.00 0.00 0.00 0.00 0.00 0.00 0.00 0.00 0.00 0.00 0.00 0.00 0.00 0.00 0.00 0.00 0.00 0.00 0.00 0.00 0.00 0.00 0.00 0.00 0.00 0.00 0.00 0.00 0.00 0.00 0.00 0.00 0.00 0.00 0.00 0.00 0.00 0.00 0.00 0.00 0.00 0.00 0.00
0.00 0.00 0.00 0.00 0.00 0.00 0.00 0.00 0.00 0.00 0.00 0.00 0.00 0.00 0.00 0.00 0.00 0.00 0.00 0.00 0.00 0.00 0.00 0.00 0.00 0.00 0.00 0.00 0.00 0.00 0.00 0.00 0.00 0.00 0.00 0.00 0.00 0.00 0.00 0.00 0.00 0.00 0.00 0.00 0.00 0.00 0.00 0.00 0.00
0.00 0.00 0.00 0.00 0.00 0.00 0.00 0.00 0.00 0.00 0.00 0.00 0.00 0.00 0.00 0.00 0.00 0.00 0.00 0.00 0.00 0.00 0.00 0.00 0.00 0.00 0.00 0.00 0.00 0.00 0.00 0.00 0.00 0.00 0.00 0.00 0.00 0.00 0.00 0.00 0.00 0.00 0.00 0.00 0.00 0.00 0.00 0.00 0.00
0.00 0.00 0.00 0.00 0.00 0.00 0.00 0.00 0.00 0.00 0.00 0.00 0.00 0.00 0.00 0.00 0.00 0.00 0.00 0.00 0.00 0.00 0.00 0.00 0.00 0.00 0.00 0.00 0.00 0.00 0.00 0.00 0.00 0.00 0.00 0.00 0.00 0.00 0.00 0.00 0.00 0.00 0.00 0.00 0.00 0.00 0.00 0.00 0.00
0.00 0.00 0.00 0.00 0.00 0.00 0.00 0.00 0.00 0.00 0.00 0.00 0.00 0.00 0.00 0.00 0.00 0.00 0.00 0.00 0.00 0.00 0.00 0.00 0.00 0.00 0.00 0.00 0.00 0.00 0.00 0.00 0.00 0.01 0.01 0.00 0.00 0.00 0.00 0.00 0.00 0.00 0.00 0.00 0.00 0.00 0.00 0.00 0.00

GFSSGP_prec_precacc24_024.txt.gz
Total_Precipitation_Accumulation
0.00 0.01 0.06 0.40 0.85 0.35 0.36 0.22 0.10 0.08 0.03 0.00 0.00 0.01 0.07 0.11 0.18 0.15 0.11 0.07 0.01 0.02 0.09 0.47 0.68 0.47 0.23 0.11 0.15 0.06 0.01 0.01 0.01 0.01 0.01 0.00 0.00 0.00 0.00 0.00 0.00 0.00 0.00 0.03 0.03 0.01 0.00 0.03 0.06
0.00 0.10 0.66 1.81 0.78 0.27 0.20 0.12 0.10 0.02 0.02 0.01 0.01 0.03 0.00 0.01 0.01 0.03 0.09 0.04 0.00 0.00 0.01 0.23 0.51 0.18 0.14 0.08 0.08 0.05 0.02 0.01 0.02 0.01 0.00 0.00 0.00 0.00 0.00 0.00 0.00 0.00 0.01 0.00 0.05 0.05 0.05 0.08 0.11
0.03 0.61 1.75 1.23 0.20 0.20 0.06 0.04 0.04 0.03 0.08 0.04 0.05 0.08 0.00 0.01 0.00 0.00 0.00 0.00 0.01 0.00 0.01 0.13 0.19 0.13 0.09 0.11 0.06 0.05 0.04 0.01 0.00 0.00 0.00 0.00 0.00 0.00 0.00 0.00 0.00 0.00 0.00 0.00 0.02 0.01 0.03 0.11 0.06
0.25 1.27 1.74 1.05 0.11 0.04 0.01 0.05 0.03 0.07 0.10 0.04 0.02 0.00 0.00 0.00 0.00 0.00 0.00 0.00 0.00 0.00 0.03 0.13 0.12 0.09 0.14 0.12 0.07 0.02 0.01 0.00 0.01 0.01 0.00 0.00 0.00 0.00 0.00 0.00 0.00 0.00 0.00 0.00 0.00 0.00 0.00 0.06 0.09
0.39 0.44 0.58 0.61 0.01 0.03 0.01 0.04 0.06 0.03 0.04 0.02 0.00 0.00 0.00 0.00 0.00 0.00 0.00 0.00 0.00 0.00 0.03 0.04 0.13 0.10 0.10 0.07 0.03 0.02 0.01 0.00 0.00 0.00 0.00 0.00 0.00 0.00 0.00 0.03 0.00 0.00 0.00 0.00 0.00 0.00 0.00 0.00 0.03
1.03 0.15 0.14 0.02 0.03 0.01 0.03 0.06 0.05 0.01 0.02 0.01 0.00 0.00 0.01 0.00 0.00 0.00 0.00 0.00 0.01 0.01 0.02 0.02 0.08 0.13 0.07 0.02 0.01 0.01 0.00 0.00 0.00 0.01 0.00 0.00 0.05 0.01 0.03 0.03 0.03 0.01 0.00 0.01 0.02 0.02 0.01 0.01 0.03
0.14 0.01 0.02 0.01 0.02 0.00 0.02 0.02 0.01 0.00 0.00 0.01 0.00 0.00 0.00 0.00 0.00 0.00 0.00 0.00 0.02 0.02 0.01 0.04 0.07 0.09 0.05 0.03 0.01 0.01 0.00 0.00 0.00 0.00 0.00 0.02 0.07 0.10 0.09 0.12 0.09 0.05 0.04 0.06 0.13 0.10 0.05 0.03 0.06
0.04 0.01 0.07 0.05 0.02 0.01 0.02 0.01 0.00 0.00 0.00 0.00 0.02 0.00 0.00 0.00 0.00 0.00 0.00 0.00 0.02 0.02 0.02 0.04 0.08 0.11 0.05 0.01 0.02 0.03 0.02 0.01 0.02 0.01 0.03 0.03 0.03 0.04 0.04 0.10 0.07 0.04 0.09 0.15 0.11 0.12 0.06 0.10 0.08
0.14 0.01 0.07 0.01 0.00 0.00 0.00 0.00 0.00 0.00 0.00 0.02 0.05 0.01 0.00 0.00 0.00 0.00 0.00 0.01 0.03 0.02 0.03 0.03 0.01 0.05 0.05 0.02 0.03 0.03 0.01 0.01 0.02 0.02 0.01 0.03 0.02 0.04 0.06 0.17 0.10 0.01 0.02 0.06 0.06 0.07 0.13 0.15 0.07
0.03 0.02 0.01 0.00 0.00 0.00 0.00 0.00 0.00 0.00 0.00 0.00 0.00 0.00 0.00 0.00 0.00 0.00 0.00 0.00 0.01 0.00 0.01 0.02 0.01 0.02 0.01 0.02 0.02 0.02 0.00 0.00 0.00 0.00 0.01 0.01 0.10 0.07 0.10 0.16 0.06 0.06 0.05 0.10 0.10 0.10 0.10 0.04 0.00
0.00 0.02 0.00 0.00 0.00 0.01 0.00 0.00 0.00 0.00 0.00 0.00 0.00 0.00 0.00 0.00 0.00 0.00 0.00 0.00 0.00 0.00 0.00 0.00 0.00 0.00 0.00 0.02 0.04 0.04 0.01 0.00 0.00 0.00 0.00 0.02 0.07 0.16 0.21 0.22 0.22 0.14 0.48 0.52 0.11 0.07 0.02 0.01 0.00
0.00 0.00 0.00 0.00 0.00 0.00 0.00 0.00 0.00 0.00 0.00 0.00 0.00 0.00 0.00 0.00 0.00 0.00 0.00 0.00 0.00 0.00 0.00 0.00 0.00 0.01 0.02 0.02 0.02 0.05 0.01 0.01 0.00 0.00 0.00 0.00 0.05 0.06 0.13 0.28 0.14 0.35 0.20 0.41 0.12 0.06 0.01 0.00 0.00
0.00 0.00 0.00 0.00 0.00 0.00 0.01 0.00 0.00 0.00 0.00 0.00 0.00 0.00 0.00 0.00 0.00 0.00 0.00 0.00 0.00 0.00 0.00 0.00 0.00 0.00 0.01 0.00 0.00 0.00 0.01 0.00 0.00 0.00 0.00 0.01 0.02 0.14 0.16 0.16 0.16 0.16 0.10 0.07 0.04 0.03 0.00 0.00 0.00
0.00 0.00 0.00 0.00 0.00 0.00 0.00 0.00 0.00 0.00 0.00 0.00 0.00 0.00 0.00 0.00 0.00 0.00 0.00 0.00 0.00 0.00 0.00 0.00 0.00 0.00 0.01 0.00 0.00 0.01 0.00 0.00 0.00 0.00 0.00 0.00 0.04 0.20 0.16 0.16 0.16 0.07 0.05 0.03 0.09 0.03 0.00 0.00 0.00
0.00 0.00 0.00 0.00 0.00 0.00 0.00 0.01 0.00 0.00 0.00 0.00 0.00 0.00 0.00 0.00 0.00 0.00 0.00 0.00 0.00 0.00 0.00 0.00 0.00 0.00 0.01 0.03 0.01 0.01 0.00 0.00 0.00 0.00 0.00 0.04 0.20 0.23 0.13 0.16 0.13 0.06 0.07 0.07 0.07 0.04 0.02 0.00 0.00
0.00 0.00 0.00 0.00 0.00 0.00 0.00 0.00 0.00 0.00 0.00 0.00 0.00 0.00 0.00 0.00 0.00 0.00 0.00 0.00 0.00 0.00 0.00 0.00 0.00 0.00 0.00 0.01 0.04 0.00 0.00 0.00 0.01 0.05 0.08 0.22 0.20 0.17 0.14 0.21 0.20 0.10 0.06 0.05 0.04 0.04 0.01 0.00 0.00
0.00 0.00 0.00 0.00 0.00 0.00 0.00 0.03 0.02 0.00 0.00 0.00 0.00 0.00 0.00 0.00 0.00 0.00 0.00 0.00 0.00 0.00 0.00 0.00 0.00 0.00 0.00 0.01 0.05 0.04 0.08 0.15 0.13 0.07 0.09 0.12 0.11 0.13 0.19 0.15 0.12 0.10 0.07 0.14 0.07 0.03 0.01 0.00 0.00
0.00 0.00 0.00 0.00 0.00 0.00 0.00 0.09 0.08 0.00 0.00 0.00 0.00 0.00 0.00 0.00 0.00 0.00 0.00 0.00 0.00 0.00 0.00 0.00 0.00 0.03 0.13 0.24 0.24 0.16 0.11 0.09 0.02 0.00 0.06 0.08 0.18 0.08 0.14 0.11 0.09 0.06 0.11 0.07 0.09 0.02 0.00 0.00 0.00
0.00 0.00 0.00 0.00 0.00 0.00 0.00 0.03 0.12 0.00 0.00 0.00 0.00 0.00 0.00 0.00 0.00 0.00 0.00 0.00 0.00 0.00 0.00 0.00 0.00 0.04 0.13 0.11 0.07 0.02 0.02 0.00 0.01 0.04 0.09 0.10 0.08 0.10 0.13 0.08 0.09 0.05 0.03 0.01 0.00 0.00 0.00 0.00 0.00
0.00 0.00 0.00 0.00 0.00 0.00 0.00 0.00 0.00 0.00 0.00 0.00 0.00 0.00 0.00 0.00 0.00 0.00 0.00 0.00 0.00 0.00 0.00 0.00 0.00 0.00 0.08 0.02 0.02 0.02 0.01 0.00 0.01 0.01 0.04 0.02 0.01 0.05 0.06 0.06 0.03 0.01 0.01 0.00 0.00 0.00 0.00 0.00 0.00
0.00 0.00 0.00 0.00 0.00 0.00 0.00 0.00 0.00 0.00 0.00 0.00 0.00 0.00 0.00 0.00 0.00 0.00 0.00 0.00 0.00 0.00 0.00 0.00 0.00 0.00 0.06 0.04 0.05 0.08 0.07 0.03 0.02 0.01 0.02 0.02 0.02 0.04 0.05 0.05 0.02 0.01 0.00 0.00 0.00 0.00 0.00 0.01 0.01
0.00 0.00 0.00 0.00 0.00 0.00 0.00 0.00 0.00 0.02 0.08 0.01 0.00 0.00 0.00 0.00 0.00 0.00 0.00 0.00 0.00 0.00 0.00 0.00 0.00 0.00 0.01 0.04 0.01 0.05 0.01 0.00 0.00 0.00 0.00 0.01 0.01 0.01 0.00 0.00 0.00 0.00 0.00 0.00 0.00 0.00 0.00 0.00 0.00
0.00 0.00 0.00 0.00 0.00 0.00 0.00 0.00 0.00 0.00 0.02 0.01 0.00 0.00 0.00 0.00 0.00 0.00 0.00 0.00 0.00 0.00 0.00 0.00 0.00 0.00 0.00 0.02 0.01 0.03 0.01 0.00 0.00 0.00 0.00 0.01 0.02 0.00 0.00 0.00 0.00 0.00 0.00 0.00 0.00 0.00 0.00 0.00 0.00
0.00 0.00 0.00 0.00 0.00 0.00 0.00 0.01 0.00 0.00 0.00 0.00 0.01 0.00 0.00 0.00 0.00 0.00 0.00 0.00 0.00 0.00 0.00 0.00 0.00 0.00 0.00 0.01 0.00 0.02 0.01 0.00 0.00 0.00 0.00 0.00 0.00 0.00 0.00 0.00 0.00 0.00 0.00 0.00 0.00 0.00 0.00 0.00 0.00
0.00 0.00 0.00 0.00 0.00 0.00 0.00 0.00 0.00 0.00 0.00 0.00 0.01 0.01 0.00 0.00 0.00 0.00 0.00 0.00 0.00 0.00 0.00 0.00 0.00 0.00 0.00 0.00 0.00 0.00 0.01 0.00 0.00 0.00 0.00 0.00 0.00 0.00 0.00 0.00 0.00 0.00 0.00 0.00 0.00 0.00 0.00 0.00 0.00
0.00 0.00 0.00 0.00 0.00 0.00 0.00 0.00 0.00 0.00 0.00 0.00 0.00 0.00 0.00 0.00 0.00 0.00 0.00 0.00 0.00 0.00 0.00 0.00 0.00 0.00 0.00 0.00 0.00 0.00 0.00 0.00 0.00 0.00 0.00 0.00 0.00 0.00 0.00 0.00 0.00 0.00 0.00 0.00 0.00 0.00 0.00 0.00 0.00
0.00 0.00 0.00 0.00 0.00 0.00 0.00 0.00 0.00 0.00 0.00 0.00 0.00 0.00 0.00 0.00 0.00 0.00 0.00 0.00 0.00 0.00 0.00 0.00 0.00 0.00 0.00 0.00 0.00 0.00 0.00 0.00 0.00 0.00 0.00 0.00 0.00 0.00 0.00 0.00 0.00 0.00 0.00 0.00 0.00 0.00 0.00 0.00 0.00
0.00 0.00 0.00 0.00 0.00 0.00 0.00 0.00 0.00 0.00 0.00 0.00 0.00 0.00 0.00 0.00 0.00 0.00 0.00 0.00 0.00 0.00 0.00 0.00 0.00 0.00 0.00 0.00 0.00 0.00 0.00 0.00 0.00 0.00 0.00 0.00 0.00 0.00 0.00 0.00 0.00 0.00 0.00 0.00 0.00 0.00 0.00 0.00 0.00
0.00 0.00 0.00 0.00 0.00 0.00 0.00 0.00 0.00 0.00 0.00 0.00 0.00 0.00 0.00 0.00 0.00 0.00 0.00 0.00 0.00 0.00 0.00 0.00 0.00 0.00 0.00 0.00 0.00 0.00 0.00 0.00 0.00 0.00 0.00 0.00 0.00 0.00 0.00 0.00 0.00 0.00 0.00 0.00 0.00 0.00 0.00 0.00 0.00
0.00 0.00 0.00 0.00 0.00 0.00 0.00 0.00 0.00 0.00 0.00 0.00 0.00 0.00 0.00 0.00 0.00 0.00 0.00 0.00 0.00 0.00 0.00 0.00 0.00 0.00 0.00 0.00 0.00 0.00 0.00 0.00 0.00 0.01 0.01 0.00 0.00 0.00 0.00 0.00 0.00 0.00 0.00 0.00 0.00 0.00 0.00 0.00 0.00

GFSSGP_prec_precacc24_027.txt.gz
Total_Precipitation_Accumulation
0.00 0.01 0.07 0.42 0.88 0.36 0.40 0.27 0.10 0.08 0.03 0.00 0.00 0.01 0.06 0.11 0.18 0.15 0.11 0.07 0.01 0.02 0.08 0.37 0.75 0.47 0.17 0.08 0.06 0.03 0.00 0.00 0.00 0.01 0.01 0.00 0.00 0.00 0.00 0.00 0.00 0.00 0.01 0.05 0.05 0.01 0.01 0.04 0.09
0.00 0.11 0.66 1.81 0.79 0.28 0.22 0.15 0.10 0.02 0.02 0.01 0.01 0.03 0.00 0.01 0.01 0.03 0.09 0.04 0.00 0.00 0.01 0.20 0.55 0.18 0.10 0.03 0.02 0.02 0.01 0.01 0.01 0.01 0.00 0.00 0.00 0.00 0.00 0.00 0.00 0.00 0.03 0.05 0.05 0.06 0.05 0.09 0.13
0.03 0.61 1.75 1.24 0.21 0.21 0.07 0.06 0.05 0.05 0.10 0.04 0.05 0.08 0.00 0.01 0.01 0.00 0.00 0.00 0.01 0.00 0.01 0.16 0.21 0.09 0.03 0.03 0.02 0.04 0.04 0.01 0.00 0.00 0.00 0.00 0.00 0.00 0.00 0.00 0.00 0.00 0.01 0.01 0.01 0.01 0.03 0.11 0.05
0.25 1.27 1.74 1.06 0.11 0.04 0.01 0.05 0.03 0.10 0.16 0.05 0.02 0.00 0.00 0.00 0.00 0.00 0.00 0.00 0.00 0.00 0.03 0.14 0.12 0.06 0.07 0.06 0.02 0.01 0.01 0.00 0.00 0.00 0.00 0.00 0.00 0.00 0.00 0.00 0.00 0.01 0.01 0.00 0.00 0.00 0.00 0.05 0.10
0.39 0.44 0.58 0.62 0.02 0.03 0.01 0.04 0.07 0.03 0.04 0.02 0.00 0.00 0.01 0.01 0.00 0.00 0.00 0.00 0.00 0.00 0.03 0.04 0.11 0.07 0.07 0.05 0.01 0.00 0.00 0.00 0.00 0.00 0.00 0.00 0.00 0.00 0.00 0.02 0.00 0.02 0.00 0.00 0.00 0.00 0.00 0.00 0.05
1.03 0.15 0.14 0.02 0.03 0.01 0.03 0.06 0.05 0.01 0.02 0.01 0.00 0.00 0.01 0.00 0.00 0.00 0.00 0.00 0.01 0.00 0.01 0.01 0.05 0.09 0.04 0.01 0.01 0.00 0.00 0.00 0.00 0.00 0.00 0.00 0.01 0.00 0.03 0.02 0.03 0.01 0.00 0.01 0.02 0.02 0.00 0.01 0.04
0.14 0.01 0.02 0.01 0.03 0.00 0.02 0.02 0.01 0.00 0.00 0.01 0.00 0.00 0.01 0.00 0.00 0.00 0.00 0.00 0.01 0.00 0.00 0.00 0.01 0.04 0.02 0.01 0.00 0.00 0.00 0.00 0.00 0.00 0.00 0.00 0.03 0.05 0.09 0.11 0.08 0.05 0.03 0.03 0.09 0.05 0.01 0.02 0.06
0.04 0.01 0.08 0.06 0.02 0.01 0.02 0.01 0.00 0.00 0.00 0.00 0.02 0.00 0.00 0.00 0.00 0.00 0.00 0.00 0.01 0.00 0.00 0.01 0.04 0.06 0.03 0.00 0.00 0.00 0.00 0.00 0.00 0.00 0.00 0.01 0.02 0.03 0.04 0.07 0.04 0.01 0.02 0.04 0.07 0.07 0.03 0.06 0.06
0.14 0.01 0.07 0.01 0.00 0.00 0.00 0.00 0.00 0.00 0.00 0.02 0.05 0.01 0.00 0.00 0.00 0.00 0.00 0.00 0.02 0.01 0.00 0.00 0.00 0.04 0.04 0.00 0.00 0.00 0.00 0.00 0.00 0.00 0.00 0.02 0.02 0.04 0.06 0.16 0.08 0.00 0.02 0.00 0.01 0.06 0.07 0.08 0.06
0.03 0.02 0.01 0.00 0.00 0.00 0.00 0.00 0.00 0.00 0.00 0.00 0.00 0.00 0.00 0.00 0.00 0.00 0.00 0.00 0.01 0.01 0.01 0.00 0.00 0.01 0.00 0.00 0.00 0.00 0.00 0.00 0.00 0.00 0.00 0.00 0.10 0.07 0.10 0.16 0.06 0.06 0.06 0.04 0.04 0.10 0.09 0.03 0.00
0.00 0.02 0.00 0.00 0.00 0.01 0.00 0.00 0.00 0.00 0.00 0.00 0.00 0.00 0.00 0.00 0.00 0.00 0.00 0.00 0.00 0.00 0.00 0.00 0.00 0.00 0.00 0.01 0.00 0.00 0.00 0.00 0.00 0.00 0.00 0.02 0.07 0.16 0.21 0.22 0.22 0.14 0.46 0.51 0.11 0.07 0.02 0.01 0.00
0.00 0.00 0.00 0.00 0.00 0.00 0.00 0.00 0.00 0.00 0.00 0.00 0.00 0.00 0.00 0.00 0.00 0.00 0.00 0.00 0.00 0.00 0.00 0.00 0.00 0.00 0.01 0.01 0.00 0.00 0.00 0.00 0.00 0.00 0.00 0.00 0.05 0.06 0.12 0.28 0.14 0.34 0.20 0.41 0.12 0.06 0.01 0.00 0.00
0.00 0.00 0.00 0.00 0.00 0.00 0.01 0.00 0.00 0.00 0.00 0.00 0.00 0.00 0.00 0.00 0.00 0.00 0.00 0.00 0.00 0.00 0.00 0.00 0.00 0.00 0.00 0.00 0.00 0.00 0.00 0.00 0.00 0.00 0.00 0.01 0.01 0.12 0.13 0.16 0.15 0.16 0.10 0.07 0.04 0.08 0.02 0.00 0.00
0.00 0.00 0.00 0.00 0.00 0.00 0.00 0.00 0.00 0.00 0.00 0.00 0.00 0.00 0.00 0.00 0.00 0.00 0.00 0.00 0.00 0.00 0.00 0.00 0.00 0.00 0.01 0.00 0.00 0.01 0.00 0.00 0.00 0.00 0.00 0.00 0.03 0.18 0.08 0.12 0.12 0.07 0.05 0.03 0.09 0.05 0.02 0.00 0.00
0.00 0.00 0.00 0.00 0.00 0.00 0.00 0.01 0.00 0.00 0.00 0.00 0.00 0.00 0.00 0.00 0.00 0.00 0.00 0.00 0.00 0.00 0.00 0.00 0.00 0.00 0.01 0.02 0.00 0.00 0.00 0.00 0.00 0.00 0.00 0.03 0.13 0.15 0.03 0.08 0.09 0.06 0.07 0.07 0.07 0.05 0.04 0.00 0.00
0.00 0.00 0.00 0.00 0.00 0.00 0.00 0.00 0.00 0.00 0.00 0.00 0.00 0.00 0.00 0.00 0.00 0.00 0.00 0.00 0.00 0.00 0.00 0.00 0.00 0.00 0.00 0.01 0.02 0.00 0.00 0.00 0.01 0.03 0.04 0.14 0.08 0.04 0.04 0.12 0.12 0.08 0.06 0.07 0.05 0.08 0.05 0.00 0.00
0.00 0.00 0.00 0.00 0.00 0.00 0.00 0.03 0.02 0.00 0.00 0.00 0.00 0.00 0.00 0.00 0.00 0.00 0.00 0.00 0.00 0.00 0.00 0.00 0.00 0.00 0.00 0.00 0.01 0.01 0.04 0.10 0.11 0.05 0.05 0.04 0.08 0.10 0.14 0.06 0.06 0.08 0.07 0.13 0.09 0.03 0.01 0.00 0.00
0.00 0.00 0.00 0.00 0.00 0.00 0.00 0.09 0.08 0.00 0.00 0.00 0.00 0.00 0.00 0.00 0.00 0.00 0.00 0.00 0.00 0.00 0.00 0.00 0.00 0.01 0.06 0.17 0.18 0.07 0.05 0.03 0.01 0.00 0.06 0.07 0.14 0.05 0.12 0.08 0.08 0.06 0.09 0.06 0.09 0.02 0.00 0.00 0.00
0.00 0.00 0.00 0.00 0.00 0.00 0.00 0.03 0.12 0.00 0.00 0.00 0.00 0.00 0.00 0.00 0.00 0.00 0.00 0.00 0.00 0.00 0.00 0.00 0.00 0.02 0.10 0.09 0.06 0.00 0.00 0.00 0.01 0.03 0.05 0.06 0.05 0.08 0.11 0.05 0.08 0.05 0.03 0.01 0.01 0.00 0.00 0.00 0.00
0.00 0.00 0.00 0.00 0.00 0.00 0.00 0.00 0.00 0.00 0.00 0.00 0.00 0.00 0.00 0.00 0.00 0.00 0.00 0.00 0.00 0.00 0.00 0.00 0.00 0.00 0.06 0.02 0.02 0.02 0.00 0.00 0.01 0.01 0.03 0.01 0.01 0.05 0.05 0.05 0.03 0.01 0.01 0.00 0.00 0.00 0.00 0.00 0.00
0.00 0.00 0.00 0.00 0.00 0.00 0.00 0.00 0.00 0.00 0.00 0.00 0.00 0.00 0.00 0.00 0.00 0.00 0.00 0.00 0.00 0.00 0.00 0.00 0.00 0.00 0.05 0.04 0.05 0.08 0.06 0.02 0.01 0.01 0.02 0.02 0.02 0.03 0.05 0.05 0.02 0.01 0.00 0.00 0.00 0.00 0.00 0.00 0.01
0.00 0.00 0.00 0.00 0.00 0.00 0.00 0.00 0.00 0.02 0.08 0.01 0.00 0.00 0.00 0.00 0.00 0.00 0.00 0.00 0.00 0.00 0.00 0.00 0.00 0.00 0.01 0.04 0.01 0.05 0.01 0.00 0.00 0.00 0.00 0.01 0.01 0.01 0.00 0.00 0.00 0.00 0.00 0.00 0.00 0.00 0.00 0.00 0.00
0.00 0.00 0.00 0.00 0.00 0.00 0.00 0.00 0.00 0.00 0.02 0.01 0.00 0.00 0.00 0.00 0.00 0.00 0.00 0.00 0.00 0.00 0.00 0.00 0.00 0.00 0.00 0.02 0.01 0.03 0.01 0.00 0.00 0.00 0.00 0.01 0.02 0.00 0.00 0.00 0.00 0.00 0.00 0.00 0.00 0.00 0.00 0.00 0.00
0.00 0.00 0.00 0.00 0.00 0.00 0.00 0.01 0.00 0.00 0.00 0.00 0.01 0.00 0.00 0.00 0.00 0.00 0.00 0.00 0.00 0.00 0.00 0.00 0.00 0.00 0.00 0.01 0.00 0.02 0.01 0.00 0.00 0.00 0.00 0.00 0.00 0.00 0.00 0.00 0.00 0.00 0.00 0.00 0.00 0.00 0.00 0.00 0.00
0.00 0.00 0.00 0.00 0.00 0.00 0.00 0.00 0.00 0.00 0.00 0.00 0.01 0.01 0.00 0.00 0.00 0.00 0.00 0.00 0.00 0.00 0.00 0.00 0.00 0.00 0.00 0.00 0.00 0.00 0.01 0.00 0.00 0.00 0.00 0.00 0.00 0.00 0.00 0.00 0.00 0.00 0.00 0.00 0.00 0.00 0.00 0.00 0.00
0.00 0.00 0.00 0.00 0.00 0.00 0.00 0.00 0.00 0.00 0.00 0.00 0.00 0.00 0.00 0.00 0.00 0.00 0.00 0.00 0.00 0.00 0.00 0.00 0.00 0.00 0.00 0.00 0.00 0.00 0.00 0.00 0.00 0.00 0.00 0.00 0.00 0.00 0.00 0.00 0.00 0.00 0.00 0.00 0.00 0.00 0.00 0.00 0.00
0.00 0.00 0.00 0.00 0.00 0.00 0.00 0.00 0.00 0.00 0.00 0.00 0.00 0.00 0.00 0.00 0.00 0.00 0.00 0.00 0.00 0.00 0.00 0.00 0.00 0.00 0.00 0.00 0.00 0.00 0.00 0.00 0.00 0.00 0.00 0.00 0.00 0.00 0.00 0.00 0.00 0.00 0.00 0.00 0.00 0.00 0.00 0.00 0.00
0.00 0.00 0.00 0.00 0.00 0.00 0.00 0.00 0.00 0.00 0.00 0.00 0.00 0.00 0.00 0.00 0.00 0.00 0.00 0.00 0.00 0.00 0.00 0.00 0.00 0.00 0.00 0.00 0.00 0.00 0.00 0.00 0.00 0.00 0.00 0.00 0.00 0.00 0.00 0.00 0.00 0.00 0.00 0.00 0.00 0.00 0.00 0.00 0.00
0.00 0.00 0.00 0.00 0.00 0.00 0.00 0.00 0.00 0.00 0.00 0.00 0.00 0.00 0.00 0.00 0.00 0.00 0.00 0.00 0.00 0.00 0.00 0.00 0.00 0.00 0.00 0.00 0.00 0.00 0.00 0.00 0.00 0.00 0.00 0.00 0.00 0.00 0.00 0.00 0.00 0.00 0.00 0.00 0.00 0.00 0.00 0.00 0.00
0.00 0.00 0.00 0.00 0.00 0.00 0.00 0.00 0.00 0.00 0.00 0.00 0.00 0.00 0.00 0.00 0.00 0.00 0.00 0.00 0.00 0.00 0.00 0.00 0.00 0.00 0.00 0.00 0.00 0.00 0.00 0.00 0.00 0.00 0.00 0.00 0.00 0.00 0.00 0.00 0.00 0.00 0.00 0.00 0.00 0.00 0.00 0.00 0.00

GFSSGP_prec_precacc24_030.txt.gz
Total_Precipitation_Accumulation
0.01 0.03 0.16 0.49 0.93 0.41 0.47 0.31 0.10 0.08 0.02 0.00 0.00 0.01 0.06 0.11 0.18 0.19 0.12 0.08 0.01 0.03 0.11 0.43 0.79 0.50 0.18 0.10 0.05 0.01 0.00 0.00 0.00 0.00 0.00 0.00 0.00 0.00 0.00 0.00 0.01 0.00 0.01 0.05 0.05 0.03 0.01 0.04 0.09
0.01 0.12 0.67 1.81 0.87 0.37 0.28 0.17 0.10 0.02 0.02 0.01 0.01 0.03 0.00 0.01 0.01 0.04 0.11 0.06 0.00 0.00 0.02 0.24 0.64 0.20 0.07 0.03 0.01 0.00 0.00 0.00 0.00 0.00 0.00 0.00 0.00 0.00 0.00 0.00 0.01 0.01 0.03 0.05 0.05 0.06 0.05 0.09 0.13
0.04 0.62 1.75 1.25 0.29 0.27 0.11 0.07 0.05 0.05 0.10 0.04 0.05 0.08 0.00 0.01 0.01 0.00 0.00 0.00 0.01 0.00 0.01 0.17 0.24 0.07 0.01 0.00 0.01 0.01 0.00 0.00 0.00 0.00 0.00 0.00 0.00 0.00 0.00 0.00 0.02 0.02 0.01 0.01 0.01 0.01 0.03 0.11 0.07
0.26 1.27 1.74 1.11 0.13 0.05 0.01 0.05 0.03 0.10 0.16 0.05 0.02 0.00 0.00 0.00 0.00 0.00 0.00 0.00 0.00 0.01 0.03 0.13 0.07 0.00 0.00 0.00 0.01 0.01 0.01 0.00 0.00 0.00 0.00 0.00 0.00 0.00 0.00 0.01 0.04 0.04 0.01 0.00 0.00 0.00 0.00 0.05 0.15
0.39 0.44 0.59 0.64 0.02 0.03 0.01 0.04 0.07 0.03 0.04 0.02 0.00 0.00 0.02 0.02 0.00 0.00 0.00 0.00 0.00 0.01 0.03 0.02 0.04 0.00 0.00 0.00 0.00 0.00 0.00 0.00 0.00 0.00 0.00 0.00 0.00 0.00 0.00 0.00 0.03 0.03 0.00 0.00 0.00 0.00 0.00 0.00 0.05
1.03 0.15 0.14 0.03 0.03 0.01 0.03 0.06 0.05 0.01 0.02 0.01 0.00 0.00 0.03 0.01 0.00 0.00 0.00 0.00 0.01 0.01 0.00 0.00 0.01 0.00 0.00 0.00 0.00 0.00 0.00 0.00 0.00 0.00 0.00 0.00 0.01 0.00 0.00 0.00 0.00 0.00 0.00 0.00 0.00 0.01 0.00 0.01 0.04
0.14 0.01 0.02 0.01 0.03 0.00 0.02 0.02 0.01 0.00 0.00 0.01 0.00 0.00 0.02 0.01 0.00 0.00 0.00 0.00 0.01 0.00 0.00 0.00 0.00 0.00 0.01 0.01 0.00 0.00 0.00 0.00 0.00 0.00 0.00 0.00 0.02 0.01 0.00 0.00 0.00 0.01 0.00 0.01 0.01 0.01 0.01 0.02 0.07
0.04 0.01 0.08 0.06 0.02 0.01 0.02 0.01 0.00 0.00 0.00 0.00 0.02 0.00 0.00 0.00 0.00 0.00 0.00 0.00 0.01 0.00 0.00 0.00 0.00 0.00 0.00 0.00 0.00 0.00 0.00 0.00 0.00 0.00 0.00 0.01 0.01 0.01 0.01 0.04 0.04 0.00 0.00 0.01 0.02 0.05 0.03 0.05 0.06
0.14 0.01 0.07 0.01 0.00 0.00 0.00 0.00 0.00 0.00 0.00 0.02 0.05 0.01 0.00 0.00 0.00 0.00 0.00 0.00 0.02 0.01 0.00 0.00 0.00 0.01 0.01 0.00 0.00 0.00 0.00 0.00 0.00 0.00 0.00 0.02 0.04 0.05 0.05 0.16 0.08 0.02 0.03 0.00 0.00 0.03 0.06 0.08 0.06
0.03 0.02 0.01 0.00 0.00 0.00 0.00 0.00 0.00 0.00 0.00 0.00 0.00 0.00 0.00 0.00 0.00 0.00 0.00 0.00 0.01 0.00 0.00 0.00 0.00 0.00 0.00 0.00 0.00 0.00 0.00 0.00 0.00 0.00 0.00 0.00 0.10 0.07 0.10 0.16 0.06 0.08 0.06 0.04 0.04 0.08 0.08 0.03 0.00
0.00 0.02 0.00 0.00 0.00 0.01 0.00 0.00 0.00 0.00 0.00 0.00 0.00 0.00 0.00 0.00 0.00 0.00 0.00 0.00 0.00 0.00 0.00 0.00 0.00 0.00 0.00 0.00 0.00 0.00 0.00 0.00 0.00 0.00 0.00 0.02 0.07 0.16 0.21 0.22 0.22 0.14 0.46 0.51 0.11 0.07 0.02 0.01 0.00
0.00 0.00 0.00 0.00 0.00 0.00 0.00 0.00 0.00 0.00 0.00 0.00 0.00 0.00 0.00 0.00 0.00 0.00 0.00 0.00 0.00 0.00 0.00 0.00 0.00 0.00 0.01 0.00 0.00 0.00 0.00 0.00 0.00 0.00 0.00 0.00 0.05 0.06 0.12 0.28 0.14 0.34 0.20 0.41 0.12 0.08 0.04 0.00 0.00
0.00 0.00 0.00 0.00 0.00 0.00 0.01 0.00 0.00 0.00 0.00 0.00 0.00 0.00 0.00 0.00 0.00 0.00 0.00 0.00 0.00 0.00 0.00 0.00 0.00 0.00 0.00 0.00 0.00 0.00 0.00 0.00 0.00 0.00 0.00 0.01 0.01 0.05 0.09 0.10 0.08 0.12 0.10 0.07 0.07 0.12 0.07 0.05 0.00
0.00 0.00 0.00 0.00 0.00 0.00 0.00 0.00 0.00 0.00 0.00 0.00 0.00 0.00 0.00 0.00 0.00 0.00 0.00 0.00 0.00 0.00 0.00 0.00 0.00 0.00 0.00 0.00 0.00 0.01 0.00 0.00 0.00 0.00 0.00 0.00 0.03 0.06 0.04 0.06 0.05 0.03 0.05 0.04 0.16 0.13 0.06 0.00 0.00
0.00 0.00 0.00 0.00 0.00 0.00 0.00 0.01 0.00 0.00 0.00 0.00 0.00 0.00 0.00 0.00 0.00 0.00 0.00 0.00 0.00 0.00 0.00 0.00 0.00 0.00 0.00 0.02 0.00 0.00 0.00 0.00 0.00 0.00 0.00 0.00 0.03 0.01 0.02 0.11 0.08 0.04 0.08 0.15 0.12 0.10 0.06 0.00 0.00
0.00 0.00 0.00 0.00 0.00 0.00 0.00 0.00 0.00 0.00 0.00 0.00 0.00 0.00 0.00 0.00 0.00 0.00 0.00 0.00 0.00 0.00 0.00 0.00 0.00 0.00 0.00 0.00 0.01 0.00 0.00 0.00 0.00 0.00 0.00 0.00 0.01 0.01 0.04 0.20 0.18 0.06 0.07 0.11 0.08 0.11 0.07 0.00 0.00
0.00 0.00 0.00 0.00 0.00 0.00 0.00 0.03 0.02 0.00 0.00 0.00 0.00 0.00 0.00 0.00 0.00 0.00 0.00 0.00 0.00 0.00 0.00 0.00 0.00 0.00 0.00 0.00 0.00 0.00 0.01 0.02 0.01 0.00 0.00 0.01 0.02 0.05 0.09 0.05 0.07 0.04 0.03 0.08 0.10 0.06 0.02 0.00 0.00
0.00 0.00 0.00 0.00 0.00 0.00 0.00 0.09 0.08 0.00 0.00 0.00 0.00 0.00 0.00 0.00 0.00 0.00 0.00 0.00 0.00 0.00 0.00 0.00 0.00 0.00 0.00 0.07 0.10 0.03 0.02 0.00 0.00 0.00 0.00 0.03 0.04 0.02 0.04 0.04 0.14 0.04 0.02 0.06 0.12 0.05 0.00 0.00 0.00
0.00 0.00 0.00 0.00 0.00 0.00 0.00 0.03 0.12 0.00 0.00 0.00 0.00 0.00 0.00 0.00 0.00 0.00 0.00 0.00 0.00 0.00 0.00 0.00 0.00 0.00 0.04 0.06 0.06 0.00 0.00 0.00 0.00 0.00 0.00 0.02 0.02 0.06 0.09 0.05 0.11 0.04 0.03 0.08 0.05 0.02 0.00 0.00 0.00
0.00 0.00 0.00 0.00 0.00 0.00 0.00 0.00 0.00 0.00 0.00 0.00 0.00 0.00 0.00 0.00 0.00 0.00 0.00 0.00 0.00 0.00 0.00 0.00 0.00 0.00 0.02 0.01 0.00 0.00 0.00 0.00 0.00 0.00 0.00 0.00 0.00 0.03 0.03 0.08 0.08 0.04 0.02 0.03 0.03 0.03 0.00 0.00 0.00
0.00 0.00 0.00 0.00 0.00 0.00 0.00 0.00 0.00 0.00 0.00 0.00 0.00 0.00 0.00 0.00 0.00 0.00 0.00 0.00 0.00 0.00 0.00 0.00 0.00 0.00 0.02 0.02 0.02 0.07 0.05 0.01 0.00 0.00 0.01 0.01 0.01 0.02 0.03 0.12 0.05 0.03 0.01 0.03 0.04 0.01 0.00 0.00 0.00
0.00 0.00 0.00 0.00 0.00 0.00 0.00 0.00 0.00 0.02 0.08 0.01 0.00 0.00 0.00 0.00 0.00 0.00 0.00 0.00 0.00 0.00 0.00 0.00 0.00 0.00 0.01 0.03 0.01 0.05 0.01 0.00 0.00 0.00 0.00 0.00 0.00 0.00 0.00 0.03 0.02 0.00 0.00 0.02 0.04 0.00 0.00 0.00 0.00
0.00 0.00 0.00 0.00 0.00 0.00 0.00 0.00 0.00 0.00 0.02 0.01 0.00 0.00 0.00 0.00 0.00 0.00 0.00 0.00 0.00 0.00 0.00 0.00 0.00 0.00 0.00 0.02 0.01 0.03 0.00 0.00 0.00 0.00 0.00 0.01 0.01 0.00 0.00 0.00 0.00 0.00 0.00 0.00 0.00 0.00 0.00 0.00 0.00
0.00 0.00 0.00 0.00 0.00 0.00 0.00 0.01 0.00 0.00 0.00 0.00 0.01 0.00 0.00 0.00 0.00 0.00 0.00 0.00 0.00 0.00 0.00 0.00 0.00 0.00 0.00 0.01 0.00 0.02 0.01 0.00 0.00 0.00 0.00 0.00 0.00 0.00 0.00 0.00 0.00 0.00 0.00 0.00 0.00 0.00 0.00 0.00 0.00
0.00 0.00 0.00 0.00 0.00 0.00 0.00 0.00 0.00 0.00 0.00 0.00 0.01 0.01 0.00 0.00 0.00 0.00 0.00 0.00 0.00 0.00 0.00 0.00 0.00 0.00 0.00 0.00 0.00 0.00 0.01 0.00 0.00 0.00 0.00 0.00 0.00 0.00 0.00 0.00 0.00 0.00 0.00 0.00 0.00 0.00 0.00 0.00 0.00
0.00 0.00 0.00 0.00 0.00 0.00 0.00 0.00 0.00 0.00 0.00 0.00 0.00 0.00 0.00 0.00 0.00 0.00 0.00 0.00 0.00 0.00 0.00 0.00 0.00 0.00 0.00 0.00 0.00 0.00 0.00 0.00 0.00 0.00 0.00 0.00 0.00 0.00 0.00 0.00 0.00 0.00 0.00 0.00 0.00 0.00 0.00 0.00 0.00
0.00 0.00 0.00 0.00 0.00 0.00 0.00 0.00 0.00 0.00 0.00 0.00 0.00 0.00 0.00 0.00 0.00 0.00 0.00 0.00 0.00 0.00 0.00 0.00 0.00 0.00 0.00 0.00 0.00 0.00 0.00 0.00 0.00 0.00 0.00 0.00 0.00 0.00 0.00 0.00 0.00 0.00 0.00 0.00 0.00 0.00 0.00 0.00 0.00
0.00 0.00 0.00 0.00 0.00 0.00 0.00 0.00 0.00 0.00 0.00 0.00 0.00 0.00 0.00 0.00 0.00 0.00 0.00 0.00 0.00 0.00 0.00 0.00 0.00 0.00 0.00 0.00 0.00 0.00 0.00 0.00 0.00 0.00 0.00 0.00 0.00 0.00 0.00 0.00 0.00 0.00 0.00 0.00 0.00 0.00 0.00 0.00 0.00
0.00 0.00 0.00 0.00 0.00 0.00 0.00 0.00 0.00 0.00 0.00 0.00 0.00 0.00 0.00 0.00 0.00 0.00 0.00 0.00 0.00 0.00 0.00 0.00 0.00 0.00 0.00 0.00 0.00 0.00 0.00 0.00 0.00 0.00 0.00 0.00 0.00 0.00 0.00 0.00 0.00 0.00 0.00 0.00 0.00 0.00 0.00 0.00 0.00
0.00 0.00 0.00 0.00 0.00 0.00 0.00 0.00 0.00 0.00 0.00 0.00 0.00 0.00 0.00 0.00 0.00 0.00 0.00 0.00 0.00 0.00 0.00 0.00 0.00 0.00 0.00 0.00 0.00 0.00 0.00 0.00 0.00 0.00 0.00 0.00 0.00 0.00 0.00 0.00 0.00 0.00 0.00 0.00 0.00 0.00 0.00 0.00 0.00

GFSSGP_prec_precacc24_033.txt.gz
Total_Precipitation_Accumulation
0.01 0.03 0.25 0.55 0.73 0.48 0.57 0.35 0.10 0.07 0.02 0.00 0.00 0.01 0.07 0.13 0.16 0.16 0.13 0.09 0.01 0.08 0.16 0.43 0.76 0.39 0.09 0.08 0.02 0.01 0.00 0.00 0.00 0.00 0.00 0.00 0.01 0.00 0.00 0.01 0.02 0.01 0.01 0.06 0.05 0.03 0.01 0.04 0.09
0.01 0.13 0.73 1.87 1.06 0.51 0.32 0.18 0.10 0.02 0.02 0.02 0.01 0.02 0.01 0.00 0.01 0.05 0.13 0.06 0.00 0.01 0.04 0.25 0.63 0.17 0.05 0.02 0.00 0.00 0.00 0.00 0.00 0.00 0.00 0.00 0.01 0.00 0.00 0.01 0.01 0.01 0.03 0.05 0.05 0.06 0.05 0.09 0.13
0.04 0.62 1.64 1.32 0.38 0.38 0.16 0.08 0.05 0.05 0.10 0.05 0.04 0.09 0.01 0.01 0.01 0.03 0.02 0.00 0.01 0.02 0.02 0.19 0.24 0.07 0.01 0.00 0.00 0.00 0.00 0.00 0.00 0.00 0.00 0.00 0.00 0.00 0.00 0.00 0.02 0.02 0.01 0.01 0.01 0.01 0.03 0.11 0.07
0.26 1.27 1.76 1.25 0.19 0.05 0.03 0.07 0.03 0.10 0.16 0.05 0.02 0.00 0.00 0.00 0.01 0.01 0.00 0.01 0.03 0.01 0.04 0.13 0.08 0.01 0.00 0.00 0.01 0.01 0.01 0.00 0.00 0.00 0.00 0.00 0.00 0.00 0.00 0.01 0.04 0.04 0.01 0.00 0.00 0.00 0.00 0.05 0.15
0.39 0.45 0.73 0.73 0.02 0.03 0.02 0.04 0.07 0.04 0.04 0.02 0.00 0.00 0.02 0.03 0.00 0.00 0.00 0.01 0.01 0.02 0.03 0.02 0.07 0.02 0.00 0.00 0.00 0.00 0.00 0.00 0.00 0.00 0.00 0.00 0.00 0.00 0.00 0.00 0.03 0.03 0.00 0.00 0.00 0.00 0.00 0.00 0.05
1.04 0.23 0.29 0.03 0.03 0.01 0.03 0.06 0.06 0.01 0.02 0.01 0.00 0.00 0.05 0.02 0.00 0.00 0.00 0.00 0.01 0.01 0.00 0.00 0.01 0.00 0.00 0.00 0.00 0.00 0.00 0.00 0.00 0.00 0.00 0.00 0.01 0.00 0.00 0.00 0.00 0.00 0.00 0.00 0.00 0.01 0.00 0.01 0.04
0.14 0.11 0.08 0.01 0.03 0.00 0.02 0.02 0.02 0.00 0.00 0.01 0.00 0.00 0.03 0.02 0.00 0.00 0.00 0.00 0.00 0.00 0.00 0.00 0.00 0.00 0.01 0.01 0.00 0.00 0.00 0.00 0.00 0.00 0.00 0.00 0.02 0.01 0.00 0.00 0.00 0.00 0.00 0.01 0.01 0.01 0.01 0.02 0.07
0.04 0.02 0.08 0.06 0.04 0.01 0.02 0.01 0.00 0.00 0.00 0.00 0.02 0.00 0.01 0.01 0.00 0.00 0.00 0.00 0.01 0.00 0.00 0.00 0.00 0.00 0.00 0.00 0.00 0.00 0.00 0.00 0.00 0.00 0.00 0.01 0.01 0.01 0.01 0.03 0.02 0.00 0.00 0.01 0.02 0.05 0.03 0.05 0.06
0.14 0.02 0.08 0.01 0.01 0.00 0.00 0.00 0.00 0.00 0.00 0.02 0.05 0.01 0.00 0.00 0.00 0.00 0.00 0.00 0.02 0.00 0.00 0.00 0.00 0.00 0.00 0.00 0.00 0.00 0.00 0.00 0.00 0.00 0.00 0.10 0.09 0.08 0.05 0.15 0.07 0.02 0.03 0.00 0.00 0.03 0.06 0.08 0.06
0.03 0.19 0.03 0.00 0.00 0.00 0.00 0.00 0.00 0.00 0.00 0.00 0.00 0.00 0.00 0.00 0.00 0.00 0.00 0.00 0.01 0.00 0.00 0.00 0.00 0.00 0.00 0.00 0.00 0.00 0.00 0.00 0.00 0.00 0.00 0.17 0.11 0.08 0.10 0.15 0.06 0.08 0.06 0.04 0.04 0.08 0.09 0.04 0.00
0.00 0.10 0.02 0.00 0.00 0.01 0.00 0.00 0.00 0.00 0.00 0.00 0.00 0.00 0.00 0.00 0.00 0.00 0.00 0.00 0.00 0.00 0.00 0.00 0.00 0.00 0.00 0.00 0.00 0.00 0.00 0.00 0.00 0.00 0.03 0.13 0.08 0.17 0.30 0.22 0.22 0.14 0.46 0.46 0.21 0.14 0.03 0.01 0.00
0.00 0.00 0.00 0.00 0.00 0.00 0.00 0.00 0.00 0.00 0.00 0.00 0.00 0.00 0.00 0.00 0.00 0.00 0.00 0.00 0.00 0.00 0.00 0.00 0.00 0.00 0.01 0.00 0.00 0.00 0.00 0.00 0.00 0.00 0.00 0.00 0.09 0.07 0.15 0.28 0.14 0.30 0.19 0.41 0.20 0.14 0.04 0.01 0.00
0.00 0.00 0.00 0.00 0.00 0.00 0.01 0.00 0.00 0.00 0.00 0.00 0.00 0.00 0.00 0.00 0.00 0.00 0.00 0.00 0.00 0.00 0.00 0.00 0.00 0.00 0.00 0.00 0.00 0.00 0.00 0.00 0.00 0.00 0.00 0.01 0.03 0.04 0.09 0.10 0.08 0.12 0.10 0.07 0.07 0.12 0.07 0.05 0.00
0.00 0.00 0.00 0.00 0.00 0.00 0.00 0.00 0.00 0.00 0.00 0.00 0.00 0.00 0.00 0.00 0.00 0.00 0.00 0.00 0.00 0.00 0.00 0.00 0.00 0.00 0.00 0.00 0.00 0.01 0.00 0.00 0.00 0.00 0.00 0.00 0.03 0.01 0.04 0.06 0.05 0.04 0.05 0.06 0.16 0.13 0.07 0.00 0.00
0.00 0.00 0.00 0.00 0.00 0.00 0.00 0.01 0.00 0.00 0.00 0.00 0.00 0.00 0.00 0.00 0.00 0.00 0.00 0.00 0.00 0.00 0.00 0.00 0.00 0.00 0.00 0.00 0.00 0.00 0.00 0.00 0.00 0.00 0.00 0.00 0.01 0.00 0.05 0.11 0.08 0.04 0.08 0.15 0.11 0.08 0.06 0.00 0.00
0.00 0.00 0.00 0.00 0.00 0.00 0.00 0.00 0.00 0.00 0.00 0.00 0.00 0.00 0.00 0.00 0.00 0.00 0.00 0.00 0.00 0.00 0.00 0.00 0.00 0.00 0.00 0.00 0.01 0.00 0.00 0.00 0.00 0.00 0.00 0.00 0.00 0.01 0.08 0.21 0.18 0.06 0.07 0.11 0.07 0.11 0.07 0.00 0.00
0.00 0.00 0.00 0.00 0.00 0.00 0.00 0.02 0.02 0.00 0.00 0.00 0.00 0.00 0.00 0.00 0.00 0.00 0.00 0.00 0.00 0.00 0.00 0.00 0.00 0.00 0.00 0.00 0.00 0.00 0.00 0.00 0.00 0.00 0.00 0.00 0.01 0.04 0.10 0.14 0.14 0.04 0.02 0.04 0.07 0.05 0.02 0.00 0.00
0.00 0.00 0.00 0.00 0.00 0.00 0.00 0.08 0.08 0.00 0.00 0.00 0.00 0.00 0.00 0.00 0.00 0.00 0.00 0.00 0.00 0.00 0.00 0.00 0.00 0.00 0.00 0.01 0.02 0.01 0.00 0.00 0.00 0.00 0.00 0.01 0.02 0.02 0.03 0.03 0.13 0.03 0.01 0.04 0.08 0.04 0.00 0.00 0.00
0.00 0.00 0.00 0.00 0.00 0.00 0.00 0.03 0.12 0.00 0.00 0.00 0.00 0.00 0.00 0.00 0.00 0.00 0.00 0.00 0.00 0.00 0.00 0.00 0.00 0.00 0.00 0.00 0.00 0.00 0.00 0.00 0.00 0.00 0.00 0.00 0.01 0.03 0.06 0.05 0.11 0.02 0.03 0.08 0.05 0.02 0.00 0.00 0.00
0.00 0.00 0.00 0.00 0.00 0.00 0.00 0.00 0.00 0.00 0.00 0.00 0.00 0.00 0.00 0.00 0.00 0.00 0.00 0.00 0.00 0.00 0.00 0.00 0.00 0.00 0.00 0.00 0.00 0.00 0.00 0.00 0.00 0.00 0.00 0.00 0.00 0.02 0.02 0.13 0.11 0.04 0.06 0.05 0.06 0.03 0.01 0.00 0.00
0.00 0.00 0.00 0.00 0.00 0.00 0.00 0.00 0.00 0.00 0.00 0.00 0.00 0.00 0.00 0.00 0.00 0.00 0.00 0.00 0.00 0.00 0.00 0.00 0.00 0.00 0.00 0.00 0.00 0.03 0.03 0.00 0.00 0.00 0.00 0.00 0.00 0.00 0.05 0.16 0.05 0.03 0.01 0.09 0.05 0.01 0.00 0.00 0.00
0.00 0.00 0.00 0.00 0.00 0.00 0.00 0.00 0.00 0.02 0.08 0.01 0.00 0.00 0.00 0.00 0.00 0.00 0.00 0.00 0.00 0.00 0.00 0.00 0.00 0.00 0.00 0.00 0.00 0.01 0.00 0.00 0.00 0.00 0.00 0.00 0.00 0.00 0.02 0.06 0.03 0.01 0.00 0.08 0.08 0.00 0.00 0.00 0.00
0.00 0.00 0.00 0.00 0.00 0.00 0.00 0.00 0.00 0.00 0.02 0.01 0.00 0.00 0.00 0.00 0.00 0.00 0.00 0.00 0.00 0.00 0.00 0.00 0.00 0.00 0.00 0.00 0.00 0.01 0.00 0.00 0.00 0.00 0.00 0.01 0.03 0.00 0.00 0.00 0.02 0.01 0.00 0.02 0.08 0.02 0.00 0.00 0.00
0.00 0.00 0.00 0.00 0.00 0.00 0.00 0.00 0.00 0.00 0.00 0.00 0.01 0.00 0.00 0.00 0.00 0.00 0.00 0.00 0.00 0.00 0.00 0.00 0.00 0.00 0.00 0.01 0.00 0.01 0.01 0.00 0.00 0.00 0.00 0.00 0.00 0.00 0.00 0.00 0.02 0.02 0.00 0.00 0.01 0.00 0.00 0.00 0.00
0.00 0.00 0.00 0.00 0.00 0.00 0.00 0.00 0.00 0.00 0.00 0.00 0.01 0.01 0.00 0.00 0.00 0.00 0.00 0.00 0.00 0.00 0.00 0.00 0.00 0.00 0.00 0.00 0.00 0.00 0.00 0.00 0.00 0.00 0.00 0.00 0.00 0.00 0.00 0.00 0.02 0.00 0.00 0.00 0.00 0.00 0.00 0.00 0.00
0.00 0.00 0.00 0.00 0.00 0.00 0.00 0.00 0.00 0.00 0.00 0.00 0.00 0.00 0.00 0.00 0.00 0.00 0.00 0.00 0.00 0.00 0.00 0.00 0.00 0.00 0.00 0.00 0.00 0.00 0.00 0.00 0.00 0.00 0.00 0.00 0.00 0.00 0.00 0.00 0.00 0.00 0.00 0.00 0.00 0.00 0.00 0.00 0.00
0.00 0.00 0.00 0.00 0.00 0.00 0.00 0.00 0.00 0.00 0.00 0.00 0.00 0.00 0.00 0.00 0.00 0.00 0.00 0.00 0.00 0.00 0.00 0.00 0.00 0.00 0.00 0.00 0.00 0.00 0.00 0.00 0.00 0.00 0.00 0.00 0.00 0.00 0.00 0.00 0.00 0.00 0.00 0.00 0.00 0.00 0.00 0.00 0.00
0.00 0.00 0.00 0.00 0.00 0.00 0.00 0.00 0.00 0.00 0.00 0.00 0.00 0.00 0.00 0.00 0.00 0.00 0.00 0.00 0.00 0.00 0.00 0.00 0.00 0.00 0.00 0.00 0.00 0.00 0.00 0.00 0.00 0.00 0.00 0.00 0.00 0.00 0.00 0.00 0.00 0.00 0.00 0.00 0.00 0.00 0.00 0.00 0.00
0.00 0.00 0.00 0.00 0.00 0.00 0.00 0.00 0.00 0.00 0.00 0.00 0.00 0.00 0.00 0.00 0.00 0.00 0.00 0.00 0.00 0.00 0.00 0.00 0.00 0.00 0.00 0.00 0.00 0.00 0.00 0.00 0.00 0.00 0.00 0.00 0.00 0.00 0.00 0.00 0.00 0.00 0.00 0.00 0.00 0.00 0.00 0.00 0.00
0.00 0.00 0.00 0.00 0.00 0.00 0.00 0.00 0.00 0.00 0.00 0.00 0.00 0.00 0.00 0.00 0.00 0.00 0.00 0.00 0.00 0.00 0.00 0.00 0.00 0.00 0.00 0.00 0.00 0.00 0.00 0.00 0.00 0.00 0.00 0.00 0.00 0.00 0.00 0.00 0.00 0.00 0.00 0.00 0.00 0.00 0.00 0.00 0.00

GFSSGP_prec_precacc24_036.txt.gz
Total_Precipitation_Accumulation
0.01 0.04 0.30 0.48 0.49 0.53 0.77 0.46 0.12 0.05 0.03 0.00 0.01 0.02 0.16 0.13 0.16 0.14 0.11 0.07 0.00 0.08 0.16 0.41 0.72 0.40 0.09 0.07 0.03 0.01 0.00 0.00 0.00 0.00 0.00 0.01 0.01 0.00 0.00 0.01 0.02 0.01 0.02 0.06 0.05 0.03 0.01 0.04 0.09
0.01 0.16 0.72 0.85 1.00 0.71 0.35 0.17 0.06 0.03 0.02 0.01 0.01 0.03 0.00 0.00 0.01 0.05 0.09 0.03 0.00 0.01 0.04 0.25 0.63 0.17 0.05 0.03 0.01 0.00 0.00 0.00 0.00 0.00 0.01 0.01 0.01 0.00 0.00 0.01 0.01 0.01 0.03 0.05 0.05 0.06 0.05 0.09 0.13
0.04 0.62 1.51 1.31 0.59 0.47 0.18 0.10 0.07 0.05 0.08 0.03 0.01 0.04 0.01 0.01 0.02 0.04 0.02 0.00 0.01 0.02 0.02 0.19 0.24 0.08 0.04 0.02 0.00 0.00 0.00 0.00 0.00 0.00 0.00 0.00 0.00 0.00 0.00 0.00 0.02 0.02 0.01 0.01 0.01 0.01 0.03 0.11 0.07
0.13 0.85 1.71 1.33 0.29 0.07 0.05 0.14 0.04 0.10 0.16 0.03 0.01 0.00 0.00 0.01 0.01 0.01 0.00 0.01 0.02 0.01 0.04 0.13 0.08 0.02 0.01 0.00 0.00 0.00 0.00 0.00 0.00 0.00 0.00 0.00 0.00 0.00 0.00 0.01 0.04 0.04 0.01 0.00 0.00 0.00 0.00 0.05 0.15
0.30 0.48 1.00 1.08 0.08 0.05 0.04 0.04 0.07 0.03 0.04 0.02 0.00 0.00 0.03 0.03 0.00 0.00 0.00 0.01 0.01 0.02 0.04 0.02 0.08 0.03 0.00 0.00 0.00 0.00 0.00 0.00 0.00 0.00 0.00 0.00 0.00 0.00 0.00 0.00 0.03 0.03 0.00 0.00 0.00 0.00 0.00 0.00 0.05
0.93 0.94 0.56 0.12 0.04 0.02 0.03 0.06 0.05 0.03 0.01 0.00 0.00 0.00 0.05 0.02 0.00 0.00 0.01 0.01 0.03 0.01 0.00 0.00 0.02 0.01 0.00 0.00 0.00 0.00 0.00 0.00 0.00 0.00 0.00 0.00 0.01 0.00 0.00 0.00 0.00 0.00 0.00 0.00 0.00 0.01 0.00 0.01 0.04
0.12 1.75 0.31 0.03 0.03 0.00 0.02 0.03 0.04 0.00 0.00 0.00 0.00 0.01 0.04 0.02 0.00 0.00 0.00 0.01 0.01 0.00 0.00 0.00 0.00 0.00 0.01 0.00 0.00 0.00 0.00 0.00 0.00 0.00 0.00 0.00 0.02 0.01 0.00 0.00 0.00 0.00 0.00 0.01 0.01 0.01 0.01 0.02 0.07
0.05 0.73 0.51 0.17 0.04 0.01 0.02 0.01 0.01 0.00 0.00 0.00 0.00 0.00 0.02 0.01 0.00 0.00 0.01 0.01 0.00 0.00 0.00 0.00 0.00 0.00 0.00 0.00 0.00 0.00 0.00 0.00 0.00 0.00 0.00 0.02 0.02 0.01 0.01 0.01 0.02 0.00 0.00 0.01 0.02 0.05 0.03 0.05 0.06
0.15 0.18 0.14 0.02 0.01 0.00 0.00 0.00 0.00 0.00 0.00 0.00 0.02 0.00 0.00 0.00 0.00 0.00 0.00 0.01 0.02 0.00 0.00 0.00 0.00 0.00 0.00 0.00 0.00 0.00 0.00 0.00 0.00 0.02 0.06 0.25 0.23 0.15 0.06 0.13 0.07 0.02 0.03 0.00 0.00 0.03 0.06 0.08 0.07
0.03 0.37 0.08 0.00 0.00 0.01 0.00 0.00 0.00 0.00 0.00 0.00 0.00 0.00 0.00 0.00 0.00 0.00 0.00 0.00 0.00 0.00 0.00 0.00 0.00 0.00 0.00 0.00 0.00 0.00 0.00 0.00 0.00 0.05 0.37 0.59 0.18 0.14 0.11 0.12 0.05 0.07 0.04 0.00 0.04 0.06 0.09 0.04 0.00
0.00 0.21 0.06 0.00 0.00 0.00 0.00 0.00 0.00 0.00 0.00 0.00 0.00 0.00 0.00 0.00 0.00 0.00 0.00 0.00 0.00 0.00 0.00 0.00 0.00 0.00 0.00 0.00 0.00 0.00 0.00 0.00 0.00 0.07 0.64 0.75 0.34 0.20 0.23 0.06 0.01 0.04 0.11 0.10 0.42 0.19 0.03 0.01 0.00
0.00 0.03 0.01 0.00 0.00 0.00 0.01 0.01 0.00 0.00 0.00 0.00 0.00 0.00 0.00 0.00 0.00 0.00 0.00 0.00 0.00 0.00 0.00 0.00 0.00 0.00 0.00 0.00 0.00 0.00 0.00 0.00 0.00 0.01 0.09 0.21 0.31 0.24 0.30 0.14 0.06 0.12 0.10 0.33 0.24 0.15 0.05 0.01 0.00
0.00 0.00 0.00 0.00 0.00 0.00 0.01 0.04 0.01 0.00 0.00 0.00 0.00 0.00 0.00 0.00 0.00 0.00 0.00 0.00 0.00 0.00 0.00 0.00 0.00 0.00 0.00 0.00 0.00 0.00 0.00 0.00 0.00 0.00 0.00 0.13 0.13 0.08 0.07 0.11 0.11 0.10 0.12 0.15 0.08 0.12 0.07 0.05 0.00
0.00 0.00 0.00 0.00 0.00 0.00 0.00 0.01 0.01 0.00 0.00 0.00 0.00 0.00 0.00 0.00 0.00 0.00 0.00 0.00 0.00 0.00 0.00 0.00 0.00 0.00 0.00 0.00 0.00 0.00 0.00 0.00 0.00 0.00 0.00 0.01 0.04 0.03 0.05 0.07 0.06 0.04 0.05 0.12 0.18 0.13 0.08 0.02 0.00
0.00 0.00 0.00 0.00 0.00 0.00 0.00 0.01 0.00 0.00 0.00 0.00 0.00 0.00 0.00 0.00 0.00 0.00 0.00 0.00 0.00 0.00 0.00 0.00 0.00 0.00 0.00 0.00 0.00 0.00 0.00 0.00 0.00 0.00 0.00 0.00 0.01 0.02 0.06 0.11 0.07 0.04 0.09 0.15 0.10 0.09 0.06 0.00 0.00
0.00 0.00 0.00 0.00 0.00 0.00 0.00 0.00 0.00 0.00 0.00 0.00 0.00 0.00 0.00 0.00 0.00 0.00 0.00 0.00 0.00 0.00 0.00 0.00 0.00 0.00 0.00 0.00 0.00 0.00 0.00 0.00 0.00 0.00 0.00 0.00 0.00 0.00 0.08 0.21 0.17 0.06 0.06 0.09 0.05 0.08 0.06 0.00 0.00
0.00 0.00 0.00 0.00 0.00 0.00 0.00 0.00 0.00 0.00 0.00 0.00 0.00 0.00 0.00 0.00 0.00 0.00 0.00 0.00 0.00 0.00 0.00 0.00 0.00 0.00 0.00 0.00 0.00 0.00 0.00 0.00 0.00 0.00 0.00 0.00 0.00 0.00 0.11 0.21 0.22 0.04 0.02 0.04 0.06 0.03 0.01 0.00 0.00
0.00 0.00 0.00 0.00 0.00 0.00 0.00 0.00 0.00 0.00 0.00 0.00 0.00 0.00 0.00 0.00 0.00 0.00 0.00 0.00 0.00 0.00 0.00 0.00 0.00 0.00 0.00 0.00 0.00 0.00 0.00 0.00 0.00 0.00 0.00 0.00 0.00 0.01 0.02 0.08 0.14 0.04 0.01 0.03 0.04 0.03 0.00 0.00 0.00
0.00 0.00 0.00 0.00 0.00 0.00 0.00 0.00 0.00 0.00 0.01 0.00 0.00 0.00 0.00 0.00 0.00 0.00 0.00 0.00 0.00 0.00 0.00 0.00 0.00 0.00 0.00 0.00 0.00 0.00 0.00 0.00 0.00 0.00 0.00 0.00 0.00 0.01 0.05 0.14 0.14 0.04 0.03 0.09 0.05 0.02 0.00 0.00 0.00
0.00 0.00 0.00 0.00 0.00 0.00 0.00 0.00 0.00 0.00 0.00 0.00 0.00 0.00 0.00 0.00 0.00 0.00 0.00 0.00 0.00 0.00 0.00 0.00 0.00 0.00 0.00 0.00 0.00 0.00 0.00 0.00 0.00 0.00 0.00 0.00 0.00 0.01 0.03 0.16 0.12 0.05 0.07 0.07 0.07 0.03 0.02 0.00 0.00
0.00 0.00 0.00 0.00 0.00 0.00 0.00 0.00 0.00 0.00 0.00 0.00 0.00 0.00 0.00 0.00 0.00 0.00 0.00 0.00 0.00 0.00 0.00 0.00 0.00 0.00 0.00 0.00 0.00 0.00 0.00 0.00 0.00 0.00 0.00 0.00 0.00 0.00 0.10 0.20 0.07 0.07 0.03 0.19 0.11 0.01 0.00 0.00 0.00
0.00 0.00 0.00 0.00 0.00 0.00 0.00 0.00 0.00 0.01 0.08 0.01 0.00 0.00 0.00 0.00 0.00 0.00 0.00 0.00 0.00 0.00 0.00 0.00 0.00 0.00 0.00 0.00 0.00 0.00 0.00 0.00 0.00 0.00 0.00 0.00 0.00 0.00 0.03 0.07 0.03 0.03 0.03 0.12 0.12 0.00 0.00 0.00 0.00
0.00 0.00 0.00 0.00 0.00 0.00 0.00 0.00 0.00 0.00 0.02 0.01 0.00 0.00 0.00 0.00 0.00 0.00 0.00 0.00 0.00 0.00 0.00 0.00 0.00 0.00 0.00 0.00 0.00 0.00 0.00 0.00 0.00 0.00 0.00 0.00 0.03 0.01 0.00 0.00 0.02 0.02 0.01 0.07 0.11 0.03 0.00 0.00 0.00
0.00 0.00 0.00 0.00 0.00 0.00 0.00 0.00 0.00 0.00 0.00 0.00 0.01 0.00 0.00 0.00 0.00 0.00 0.00 0.00 0.00 0.00 0.00 0.00 0.00 0.00 0.00 0.00 0.00 0.00 0.00 0.00 0.00 0.00 0.00 0.00 0.00 0.00 0.00 0.01 0.03 0.04 0.01 0.02 0.04 0.03 0.00 0.00 0.00
0.00 0.00 0.00 0.00 0.00 0.00 0.00 0.00 0.00 0.00 0.00 0.00 0.01 0.01 0.00 0.00 0.00 0.00 0.00 0.00 0.00 0.00 0.00 0.00 0.00 0.00 0.00 0.00 0.00 0.00 0.00 0.00 0.00 0.00 0.00 0.00 0.00 0.00 0.00 0.01 0.04 0.01 0.01 0.01 0.00 0.01 0.00 0.00 0.00
0.00 0.00 0.00 0.00 0.00 0.00 0.00 0.00 0.00 0.00 0.00 0.00 0.00 0.00 0.00 0.00 0.00 0.00 0.00 0.00 0.00 0.00 0.00 0.00 0.00 0.00 0.00 0.00 0.00 0.00 0.00 0.00 0.00 0.00 0.00 0.00 0.00 0.00 0.00 0.00 0.00 0.00 0.00 0.00 0.00 0.00 0.00 0.00 0.00
0.00 0.00 0.00 0.00 0.00 0.00 0.00 0.00 0.00 0.00 0.00 0.00 0.00 0.00 0.00 0.00 0.00 0.00 0.00 0.00 0.00 0.00 0.00 0.00 0.00 0.00 0.00 0.00 0.00 0.00 0.00 0.00 0.00 0.00 0.00 0.00 0.00 0.00 0.00 0.00 0.00 0.00 0.00 0.00 0.00 0.00 0.00 0.00 0.00
0.00 0.00 0.00 0.00 0.00 0.00 0.00 0.00 0.00 0.00 0.00 0.00 0.00 0.00 0.00 0.00 0.00 0.00 0.00 0.00 0.00 0.00 0.00 0.00 0.00 0.00 0.00 0.00 0.00 0.00 0.00 0.00 0.00 0.00 0.00 0.00 0.00 0.00 0.00 0.00 0.00 0.00 0.00 0.00 0.00 0.00 0.00 0.00 0.00
0.00 0.00 0.00 0.00 0.00 0.00 0.00 0.00 0.00 0.00 0.00 0.00 0.00 0.00 0.00 0.00 0.00 0.00 0.00 0.00 0.00 0.00 0.00 0.00 0.00 0.00 0.00 0.00 0.00 0.00 0.00 0.00 0.00 0.00 0.00 0.00 0.00 0.00 0.00 0.00 0.00 0.00 0.00 0.00 0.00 0.00 0.00 0.00 0.00
0.00 0.00 0.00 0.00 0.00 0.00 0.00 0.00 0.00 0.00 0.00 0.00 0.00 0.00 0.00 0.00 0.00 0.00 0.00 0.00 0.00 0.00 0.00 0.00 0.00 0.00 0.00 0.00 0.00 0.00 0.00 0.00 0.00 0.00 0.00 0.00 0.00 0.00 0.00 0.00 0.00 0.00 0.00 0.00 0.00 0.00 0.00 0.00 0.00

GFSSGP_prec_precacc24_042.txt.gz
Total_Precipitation_Accumulation
0.01 0.03 0.30 0.43 0.41 0.37 0.91 0.42 0.14 0.29 0.18 0.02 0.04 0.03 0.26 0.15 0.14 0.14 0.07 0.06 0.00 0.07 0.13 0.31 0.63 0.40 0.08 0.07 0.02 0.02 0.01 0.00 0.00 0.00 0.00 0.01 0.01 0.01 0.01 0.01 0.03 0.01 0.02 0.06 0.05 0.03 0.01 0.04 0.09
0.01 0.09 0.41 0.41 1.06 0.87 0.85 0.27 0.22 0.33 0.07 0.03 0.01 0.03 0.01 0.01 0.01 0.05 0.06 0.03 0.00 0.01 0.04 0.21 0.61 0.18 0.05 0.03 0.01 0.00 0.00 0.01 0.00 0.01 0.01 0.01 0.01 0.01 0.01 0.01 0.01 0.01 0.03 0.05 0.05 0.06 0.05 0.09 0.13
0.01 0.17 0.68 1.16 0.98 0.59 0.59 0.17 0.16 0.07 0.07 0.02 0.01 0.03 0.01 0.01 0.02 0.04 0.02 0.00 0.01 0.02 0.02 0.19 0.24 0.08 0.04 0.03 0.01 0.00 0.01 0.00 0.00 0.00 0.00 0.00 0.00 0.01 0.01 0.01 0.02 0.02 0.01 0.01 0.01 0.01 0.03 0.11 0.07
0.01 0.22 0.55 0.50 0.48 0.22 0.54 0.26 0.07 0.08 0.16 0.07 0.05 0.01 0.00 0.01 0.01 0.01 0.00 0.01 0.02 0.01 0.04 0.13 0.08 0.02 0.02 0.01 0.00 0.00 0.00 0.00 0.00 0.00 0.00 0.00 0.00 0.00 0.00 0.01 0.04 0.04 0.01 0.00 0.00 0.00 0.00 0.05 0.15
0.09 0.35 0.98 0.68 0.42 0.17 0.20 0.18 0.10 0.08 0.10 0.05 0.01 0.00 0.03 0.03 0.00 0.00 0.00 0.01 0.01 0.02 0.05 0.03 0.08 0.04 0.01 0.00 0.00 0.00 0.00 0.00 0.00 0.00 0.00 0.00 0.00 0.00 0.00 0.00 0.03 0.03 0.00 0.00 0.00 0.00 0.00 0.00 0.05
0.31 1.07 0.61 0.27 0.19 0.45 0.19 0.15 0.17 0.11 0.09 0.02 0.00 0.00 0.05 0.02 0.00 0.00 0.01 0.01 0.03 0.01 0.00 0.00 0.02 0.02 0.01 0.00 0.00 0.00 0.00 0.00 0.00 0.00 0.00 0.00 0.01 0.00 0.03 0.00 0.00 0.00 0.00 0.00 0.00 0.01 0.01 0.02 0.02
0.14 1.99 0.60 0.49 0.24 0.18 0.41 0.31 0.20 0.10 0.04 0.01 0.00 0.01 0.04 0.02 0.00 0.00 0.00 0.01 0.01 0.00 0.00 0.00 0.00 0.00 0.01 0.00 0.00 0.00 0.00 0.00 0.00 0.00 0.00 0.00 0.02 0.02 0.01 0.02 0.00 0.00 0.00 0.01 0.01 0.01 0.04 0.05 0.06
0.07 1.75 1.69 0.58 0.40 0.31 0.14 0.14 0.14 0.08 0.01 0.00 0.00 0.00 0.02 0.01 0.00 0.00 0.01 0.01 0.00 0.00 0.00 0.00 0.00 0.00 0.00 0.00 0.00 0.00 0.00 0.00 0.00 0.00 0.00 0.02 0.02 0.01 0.01 0.02 0.01 0.00 0.00 0.01 0.02 0.05 0.03 0.06 0.08
0.16 1.54 0.61 0.12 0.05 0.09 0.17 0.09 0.05 0.04 0.01 0.03 0.02 0.00 0.00 0.00 0.00 0.00 0.00 0.01 0.00 0.00 0.00 0.00 0.00 0.00 0.00 0.00 0.00 0.00 0.00 0.00 0.00 0.04 0.08 0.27 0.24 0.15 0.06 0.01 0.00 0.01 0.03 0.00 0.00 0.02 0.06 0.07 0.08
0.25 0.64 0.24 0.09 0.02 0.04 0.12 0.15 0.02 0.01 0.00 0.02 0.01 0.00 0.00 0.00 0.00 0.00 0.00 0.00 0.00 0.00 0.00 0.00 0.00 0.00 0.00 0.00 0.00 0.00 0.00 0.00 0.03 0.09 0.38 0.68 0.20 0.14 0.05 0.01 0.01 0.02 0.02 0.00 0.01 0.04 0.10 0.05 0.06
0.08 0.26 0.06 0.00 0.00 0.01 0.00 0.07 0.03 0.00 0.00 0.00 0.00 0.00 0.00 0.00 0.00 0.00 0.00 0.00 0.00 0.00 0.00 0.00 0.00 0.00 0.00 0.00 0.00 0.00 0.00 0.00 0.04 0.11 0.65 1.11 0.43 0.18 0.14 0.01 0.00 0.00 0.02 0.03 0.37 0.19 0.03 0.01 0.01
0.01 0.04 0.01 0.00 0.00 0.01 0.04 0.01 0.01 0.00 0.00 0.00 0.00 0.00 0.00 0.00 0.00 0.00 0.00 0.00 0.00 0.00 0.00 0.00 0.00 0.00 0.00 0.00 0.00 0.00 0.00 0.00 0.00 0.04 0.13 0.30 0.58 0.29 0.30 0.08 0.04 0.10 0.06 0.16 0.20 0.13 0.04 0.01 0.00
0.00 0.00 0.00 0.01 0.00 0.00 0.02 0.05 0.01 0.00 0.00 0.00 0.00 0.00 0.00 0.00 0.00 0.00 0.00 0.00 0.00 0.00 0.00 0.00 0.00 0.00 0.00 0.00 0.00 0.00 0.00 0.00 0.00 0.02 0.04 0.23 0.19 0.10 0.05 0.08 0.08 0.03 0.06 0.13 0.08 0.12 0.06 0.05 0.00
0.00 0.00 0.00 0.01 0.00 0.00 0.00 0.01 0.01 0.00 0.00 0.00 0.00 0.00 0.00 0.00 0.00 0.00 0.00 0.00 0.00 0.00 0.00 0.00 0.00 0.00 0.00 0.00 0.00 0.00 0.00 0.00 0.00 0.00 0.00 0.07 0.12 0.04 0.05 0.07 0.04 0.02 0.06 0.12 0.17 0.14 0.08 0.02 0.00
0.00 0.00 0.00 0.01 0.00 0.00 0.00 0.00 0.00 0.02 0.02 0.00 0.00 0.00 0.00 0.00 0.00 0.00 0.00 0.00 0.00 0.00 0.00 0.00 0.00 0.00 0.00 0.00 0.00 0.00 0.00 0.00 0.00 0.00 0.00 0.00 0.02 0.07 0.18 0.16 0.06 0.02 0.07 0.10 0.06 0.08 0.05 0.00 0.00
0.00 0.00 0.00 0.00 0.00 0.00 0.00 0.00 0.00 0.00 0.01 0.00 0.00 0.00 0.00 0.00 0.00 0.00 0.00 0.00 0.00 0.00 0.00 0.00 0.00 0.00 0.00 0.00 0.00 0.00 0.00 0.00 0.00 0.00 0.00 0.00 0.00 0.03 0.21 0.31 0.17 0.03 0.05 0.11 0.07 0.10 0.06 0.00 0.00
0.00 0.00 0.00 0.00 0.00 0.00 0.00 0.00 0.00 0.00 0.04 0.03 0.00 0.00 0.00 0.00 0.00 0.00 0.00 0.00 0.00 0.00 0.00 0.00 0.00 0.00 0.00 0.00 0.00 0.00 0.00 0.00 0.00 0.00 0.00 0.00 0.00 0.01 0.14 0.23 0.22 0.07 0.02 0.04 0.06 0.03 0.02 0.00 0.00
0.00 0.00 0.00 0.00 0.00 0.00 0.00 0.00 0.00 0.00 0.02 0.12 0.07 0.01 0.00 0.00 0.00 0.00 0.00 0.00 0.00 0.00 0.00 0.00 0.00 0.00 0.00 0.00 0.00 0.00 0.00 0.00 0.00 0.00 0.00 0.00 0.00 0.00 0.03 0.12 0.14 0.05 0.02 0.04 0.04 0.03 0.00 0.00 0.00
0.00 0.00 0.00 0.00 0.00 0.00 0.00 0.00 0.00 0.00 0.03 0.21 0.09 0.07 0.03 0.00 0.00 0.00 0.00 0.00 0.00 0.00 0.00 0.00 0.00 0.00 0.00 0.00 0.00 0.00 0.00 0.00 0.00 0.00 0.00 0.00 0.00 0.00 0.06 0.16 0.19 0.04 0.05 0.09 0.05 0.02 0.00 0.00 0.00
0.00 0.00 0.00 0.00 0.00 0.00 0.00 0.00 0.00 0.00 0.00 0.02 0.20 0.16 0.09 0.00 0.00 0.00 0.00 0.00 0.00 0.00 0.00 0.00 0.00 0.00 0.00 0.00 0.00 0.00 0.00 0.00 0.00 0.00 0.00 0.00 0.00 0.01 0.04 0.19 0.15 0.08 0.09 0.09 0.07 0.03 0.02 0.00 0.00
0.00 0.00 0.00 0.00 0.00 0.00 0.00 0.00 0.00 0.00 0.00 0.00 0.06 0.28 0.05 0.01 0.00 0.00 0.00 0.00 0.00 0.00 0.00 0.00 0.00 0.00 0.00 0.00 0.00 0.00 0.00 0.00 0.00 0.00 0.00 0.00 0.00 0.00 0.10 0.20 0.08 0.09 0.04 0.20 0.11 0.01 0.00 0.00 0.00
0.00 0.00 0.00 0.00 0.00 0.00 0.00 0.00 0.00 0.00 0.00 0.00 0.00 0.00 0.01 0.01 0.00 0.00 0.00 0.00 0.00 0.00 0.00 0.00 0.00 0.00 0.00 0.00 0.00 0.00 0.00 0.00 0.00 0.00 0.00 0.00 0.00 0.00 0.03 0.07 0.03 0.03 0.03 0.13 0.13 0.00 0.00 0.00 0.00
0.00 0.00 0.00 0.00 0.00 0.00 0.00 0.00 0.00 0.00 0.00 0.00 0.00 0.00 0.00 0.00 0.01 0.00 0.00 0.00 0.00 0.00 0.00 0.00 0.00 0.00 0.00 0.00 0.00 0.00 0.00 0.00 0.00 0.00 0.00 0.00 0.02 0.01 0.00 0.00 0.03 0.02 0.02 0.07 0.11 0.03 0.00 0.00 0.00
0.00 0.00 0.00 0.00 0.00 0.00 0.00 0.00 0.00 0.00 0.00 0.00 0.00 0.00 0.00 0.00 0.00 0.00 0.00 0.00 0.00 0.00 0.00 0.00 0.00 0.00 0.00 0.00 0.00 0.00 0.00 0.00 0.00 0.00 0.00 0.00 0.00 0.00 0.00 0.01 0.03 0.04 0.02 0.02 0.04 0.03 0.00 0.00 0.00
0.00 0.00 0.00 0.00 0.00 0.00 0.00 0.00 0.00 0.00 0.00 0.00 0.00 0.00 0.00 0.00 0.00 0.00 0.00 0.00 0.00 0.00 0.00 0.00 0.00 0.00 0.00 0.00 0.00 0.00 0.00 0.00 0.00 0.00 0.00 0.00 0.00 0.00 0.00 0.01 0.04 0.01 0.01 0.01 0.00 0.01 0.00 0.00 0.00
0.00 0.00 0.00 0.00 0.00 0.00 0.00 0.00 0.00 0.00 0.00 0.00 0.00 0.00 0.00 0.00 0.00 0.00 0.00 0.00 0.00 0.00 0.00 0.00 0.00 0.00 0.00 0.00 0.00 0.00 0.00 0.00 0.00 0.00 0.00 0.00 0.00 0.00 0.00 0.00 0.00 0.00 0.00 0.00 0.00 0.00 0.00 0.00 0.00
0.00 0.00 0.00 0.00 0.00 0.00 0.00 0.00 0.00 0.00 0.00 0.00 0.00 0.00 0.00 0.00 0.00 0.00 0.00 0.00 0.00 0.00 0.00 0.00 0.00 0.00 0.00 0.00 0.00 0.00 0.00 0.00 0.00 0.00 0.00 0.00 0.00 0.00 0.00 0.00 0.00 0.00 0.00 0.00 0.00 0.00 0.00 0.00 0.00
0.00 0.00 0.00 0.00 0.00 0.00 0.00 0.00 0.00 0.00 0.00 0.00 0.00 0.00 0.00 0.00 0.00 0.00 0.00 0.00 0.00 0.00 0.00 0.00 0.00 0.00 0.00 0.00 0.00 0.00 0.00 0.00 0.00 0.00 0.00 0.00 0.00 0.00 0.00 0.00 0.00 0.00 0.00 0.00 0.00 0.00 0.00 0.00 0.00
0.00 0.00 0.00 0.00 0.00 0.00 0.00 0.00 0.00 0.00 0.00 0.00 0.00 0.00 0.00 0.00 0.00 0.00 0.00 0.00 0.00 0.00 0.00 0.00 0.00 0.00 0.00 0.00 0.00 0.00 0.00 0.00 0.00 0.00 0.00 0.00 0.00 0.00 0.00 0.00 0.00 0.00 0.00 0.00 0.00 0.00 0.00 0.00 0.00
0.00 0.00 0.00 0.00 0.00 0.00 0.00 0.00 0.00 0.00 0.00 0.00 0.00 0.00 0.00 0.00 0.00 0.00 0.00 0.00 0.00 0.00 0.00 0.00 0.00 0.00 0.00 0.00 0.00 0.00 0.00 0.00 0.00 0.00 0.00 0.00 0.00 0.00 0.00 0.00 0.00 0.00 0.00 0.00 0.00 0.00 0.00 0.00 0.00

GFSSGP_prec_precacc24_048.txt.gz
Total_Precipitation_Accumulation
0.00 0.03 0.28 0.38 0.43 0.37 0.90 0.42 0.18 0.31 0.19 0.02 0.04 0.03 0.26 0.15 0.14 0.14 0.07 0.06 0.00 0.08 0.11 0.16 0.31 0.20 0.08 0.07 0.03 0.03 0.02 0.01 0.02 0.02 0.06 0.08 0.13 0.18 0.09 0.08 0.04 0.04 0.07 0.04 0.02 0.02 0.01 0.01 0.05
0.01 0.09 0.47 0.77 1.29 0.94 0.90 0.31 0.26 0.38 0.08 0.04 0.01 0.04 0.01 0.01 0.00 0.05 0.06 0.03 0.00 0.01 0.03 0.08 0.31 0.13 0.05 0.03 0.02 0.01 0.01 0.02 0.01 0.07 0.14 0.11 0.17 0.12 0.05 0.03 0.03 0.16 0.30 0.26 0.13 0.07 0.02 0.04 0.08
0.01 0.23 1.06 1.51 1.16 0.66 0.76 0.35 0.22 0.17 0.13 0.06 0.02 0.04 0.01 0.00 0.02 0.04 0.02 0.00 0.01 0.02 0.01 0.08 0.15 0.07 0.04 0.03 0.03 0.02 0.02 0.01 0.02 0.08 0.07 0.10 0.06 0.04 0.03 0.01 0.05 0.11 0.08 0.09 0.08 0.08 0.07 0.04 0.07
0.01 0.30 0.79 0.58 0.52 0.33 0.83 0.65 0.20 0.18 0.21 0.08 0.09 0.01 0.01 0.01 0.01 0.01 0.00 0.01 0.02 0.01 0.02 0.03 0.06 0.02 0.02 0.01 0.02 0.01 0.00 0.01 0.05 0.07 0.06 0.06 0.04 0.01 0.01 0.01 0.06 0.06 0.01 0.00 0.00 0.02 0.05 0.08 0.18
0.10 0.41 1.00 0.71 0.46 0.20 0.36 0.32 0.27 0.43 0.30 0.18 0.04 0.02 0.03 0.03 0.00 0.00 0.01 0.01 0.01 0.02 0.02 0.01 0.08 0.05 0.02 0.01 0.01 0.00 0.00 0.02 0.07 0.07 0.02 0.01 0.01 0.01 0.01 0.01 0.03 0.03 0.00 0.01 0.03 0.05 0.07 0.06 0.12
0.31 1.08 0.61 0.27 0.21 0.45 0.40 0.63 0.56 0.43 0.45 0.25 0.09 0.04 0.05 0.02 0.00 0.00 0.01 0.01 0.03 0.01 0.00 0.01 0.02 0.02 0.01 0.00 0.00 0.00 0.00 0.01 0.02 0.03 0.01 0.00 0.00 0.01 0.04 0.00 0.01 0.01 0.02 0.03 0.03 0.03 0.10 0.08 0.13
0.15 1.99 0.60 0.49 0.27 0.26 0.46 0.83 0.77 0.32 0.31 0.12 0.07 0.01 0.04 0.03 0.00 0.00 0.00 0.01 0.01 0.00 0.00 0.01 0.01 0.00 0.01 0.01 0.00 0.00 0.00 0.00 0.00 0.01 0.00 0.00 0.00 0.00 0.02 0.03 0.03 0.01 0.04 0.02 0.02 0.02 0.06 0.07 0.15
0.06 1.75 1.68 0.55 0.44 0.35 0.20 0.23 0.33 0.28 0.15 0.08 0.02 0.00 0.03 0.01 0.00 0.00 0.01 0.01 0.00 0.00 0.00 0.00 0.00 0.00 0.00 0.00 0.00 0.00 0.00 0.00 0.00 0.00 0.00 0.02 0.02 0.01 0.05 0.11 0.08 0.02 0.04 0.03 0.04 0.04 0.05 0.06 0.08
0.06 1.54 0.61 0.13 0.10 0.17 0.29 0.21 0.16 0.23 0.07 0.03 0.02 0.00 0.00 0.00 0.00 0.00 0.01 0.02 0.01 0.01 0.00 0.00 0.00 0.00 0.00 0.00 0.00 0.00 0.00 0.00 0.00 0.04 0.09 0.27 0.24 0.14 0.06 0.04 0.02 0.05 0.09 0.06 0.06 0.05 0.05 0.04 0.06
0.22 0.64 0.24 0.09 0.04 0.15 0.25 0.24 0.12 0.10 0.04 0.02 0.01 0.00 0.00 0.00 0.00 0.00 0.00 0.01 0.01 0.00 0.00 0.00 0.00 0.00 0.00 0.00 0.00 0.00 0.00 0.00 0.03 0.09 0.38 0.68 0.20 0.12 0.04 0.01 0.01 0.02 0.03 0.01 0.01 0.03 0.07 0.03 0.07
0.11 0.28 0.06 0.00 0.00 0.07 0.01 0.09 0.08 0.01 0.00 0.00 0.00 0.00 0.00 0.00 0.00 0.00 0.00 0.00 0.00 0.00 0.00 0.00 0.00 0.00 0.00 0.00 0.00 0.00 0.00 0.00 0.04 0.11 0.65 1.11 0.43 0.13 0.14 0.01 0.01 0.02 0.02 0.03 0.36 0.19 0.03 0.01 0.01
0.03 0.04 0.01 0.00 0.00 0.01 0.04 0.02 0.02 0.00 0.00 0.00 0.00 0.00 0.00 0.00 0.00 0.00 0.00 0.00 0.00 0.00 0.00 0.00 0.00 0.00 0.00 0.00 0.00 0.00 0.00 0.00 0.00 0.04 0.13 0.30 0.58 0.28 0.30 0.08 0.04 0.10 0.06 0.16 0.20 0.13 0.04 0.01 0.00
0.00 0.00 0.00 0.01 0.00 0.00 0.02 0.05 0.01 0.00 0.00 0.00 0.00 0.00 0.00 0.00 0.00 0.00 0.00 0.00 0.00 0.00 0.00 0.00 0.00 0.00 0.00 0.00 0.00 0.00 0.00 0.00 0.00 0.02 0.04 0.21 0.18 0.10 0.05 0.08 0.12 0.04 0.06 0.15 0.12 0.13 0.06 0.05 0.00
0.00 0.00 0.00 0.01 0.00 0.00 0.00 0.01 0.01 0.00 0.00 0.00 0.00 0.00 0.00 0.00 0.00 0.00 0.00 0.00 0.00 0.00 0.00 0.00 0.00 0.00 0.00 0.00 0.00 0.00 0.00 0.00 0.00 0.00 0.00 0.06 0.10 0.04 0.08 0.09 0.05 0.02 0.04 0.11 0.14 0.14 0.08 0.02 0.00
0.00 0.00 0.00 0.01 0.00 0.00 0.00 0.00 0.00 0.02 0.02 0.00 0.00 0.00 0.00 0.00 0.00 0.00 0.00 0.00 0.00 0.00 0.00 0.00 0.00 0.00 0.00 0.00 0.00 0.00 0.00 0.00 0.00 0.00 0.00 0.00 0.02 0.06 0.18 0.16 0.06 0.01 0.04 0.09 0.06 0.09 0.05 0.00 0.00
0.00 0.00 0.00 0.00 0.00 0.00 0.00 0.00 0.00 0.00 0.01 0.00 0.00 0.00 0.00 0.00 0.00 0.00 0.00 0.00 0.00 0.00 0.00 0.00 0.00 0.00 0.00 0.00 0.00 0.00 0.00 0.00 0.00 0.00 0.00 0.00 0.01 0.05 0.19 0.30 0.16 0.03 0.05 0.12 0.10 0.11 0.06 0.00 0.00
0.00 0.00 0.00 0.00 0.00 0.00 0.00 0.00 0.00 0.00 0.04 0.03 0.00 0.00 0.00 0.00 0.00 0.00 0.00 0.00 0.00 0.00 0.00 0.00 0.00 0.00 0.00 0.00 0.00 0.00 0.00 0.00 0.00 0.00 0.00 0.00 0.00 0.01 0.08 0.25 0.23 0.07 0.03 0.09 0.10 0.04 0.02 0.00 0.00
0.00 0.00 0.00 0.00 0.00 0.00 0.00 0.00 0.00 0.00 0.02 0.12 0.07 0.01 0.00 0.00 0.00 0.00 0.00 0.00 0.00 0.00 0.00 0.00 0.00 0.00 0.00 0.00 0.00 0.00 0.00 0.00 0.00 0.00 0.00 0.00 0.00 0.00 0.03 0.12 0.15 0.05 0.03 0.06 0.04 0.03 0.00 0.00 0.00
0.00 0.00 0.00 0.00 0.00 0.00 0.00 0.00 0.00 0.00 0.03 0.21 0.09 0.07 0.03 0.00 0.00 0.00 0.00 0.00 0.00 0.00 0.00 0.00 0.00 0.00 0.00 0.00 0.00 0.00 0.00 0.00 0.00 0.00 0.00 0.00 0.00 0.00 0.06 0.15 0.19 0.05 0.08 0.09 0.05 0.02 0.00 0.00 0.00
0.00 0.00 0.00 0.00 0.00 0.00 0.00 0.00 0.00 0.00 0.00 0.02 0.20 0.16 0.09 0.00 0.00 0.00 0.00 0.00 0.00 0.00 0.00 0.00 0.00 0.00 0.00 0.00 0.00 0.00 0.00 0.00 0.00 0.00 0.00 0.00 0.00 0.01 0.04 0.19 0.15 0.09 0.10 0.11 0.08 0.03 0.02 0.00 0.00
0.00 0.00 0.00 0.00 0.00 0.00 0.00 0.00 0.00 0.00 0.00 0.00 0.06 0.28 0.05 0.01 0.00 0.00 0.00 0.00 0.00 0.00 0.00 0.00 0.00 0.00 0.00 0.00 0.00 0.00 0.00 0.00 0.00 0.00 0.00 0.00 0.00 0.00 0.10 0.20 0.08 0.10 0.12 0.24 0.11 0.01 0.00 0.00 0.00
0.00 0.00 0.00 0.00 0.00 0.00 0.00 0.00 0.00 0.00 0.00 0.00 0.00 0.00 0.01 0.01 0.00 0.00 0.00 0.00 0.00 0.00 0.00 0.00 0.00 0.00 0.00 0.00 0.00 0.00 0.00 0.00 0.00 0.00 0.00 0.00 0.00 0.00 0.03 0.07 0.03 0.03 0.07 0.16 0.13 0.00 0.00 0.00 0.00
0.00 0.00 0.00 0.00 0.00 0.00 0.00 0.00 0.00 0.00 0.00 0.00 0.00 0.00 0.00 0.00 0.01 0.00 0.00 0.00 0.00 0.00 0.00 0.00 0.00 0.00 0.00 0.00 0.00 0.00 0.00 0.00 0.00 0.00 0.00 0.00 0.02 0.01 0.00 0.00 0.03 0.02 0.03 0.09 0.13 0.03 0.00 0.00 0.00
0.00 0.00 0.00 0.00 0.00 0.00 0.00 0.00 0.00 0.00 0.00 0.00 0.00 0.00 0.00 0.00 0.00 0.00 0.00 0.00 0.00 0.00 0.00 0.00 0.00 0.00 0.00 0.00 0.00 0.00 0.00 0.00 0.00 0.00 0.00 0.00 0.00 0.00 0.00 0.01 0.03 0.04 0.02 0.03 0.05 0.03 0.00 0.00 0.00
0.00 0.00 0.00 0.00 0.00 0.00 0.00 0.00 0.00 0.00 0.00 0.00 0.00 0.00 0.00 0.00 0.00 0.00 0.00 0.00 0.00 0.00 0.00 0.00 0.00 0.00 0.00 0.00 0.00 0.00 0.00 0.00 0.00 0.00 0.00 0.00 0.00 0.00 0.00 0.01 0.04 0.01 0.01 0.01 0.00 0.01 0.00 0.00 0.00
0.00 0.00 0.00 0.00 0.00 0.00 0.00 0.00 0.00 0.00 0.00 0.00 0.00 0.00 0.00 0.00 0.00 0.00 0.00 0.00 0.00 0.00 0.00 0.00 0.00 0.00 0.00 0.00 0.00 0.00 0.00 0.00 0.00 0.00 0.00 0.00 0.00 0.00 0.00 0.00 0.00 0.00 0.00 0.00 0.00 0.00 0.00 0.00 0.00
0.00 0.00 0.00 0.00 0.00 0.00 0.00 0.00 0.00 0.00 0.00 0.00 0.00 0.00 0.00 0.00 0.00 0.00 0.00 0.00 0.00 0.00 0.00 0.00 0.00 0.00 0.00 0.00 0.00 0.00 0.00 0.00 0.00 0.00 0.00 0.00 0.00 0.00 0.00 0.00 0.00 0.00 0.00 0.00 0.00 0.00 0.00 0.00 0.00
0.00 0.00 0.00 0.00 0.00 0.00 0.00 0.00 0.00 0.00 0.00 0.00 0.00 0.00 0.00 0.00 0.00 0.00 0.00 0.00 0.00 0.00 0.00 0.00 0.00 0.00 0.00 0.00 0.00 0.00 0.00 0.00 0.00 0.00 0.00 0.00 0.00 0.00 0.00 0.00 0.00 0.00 0.00 0.00 0.00 0.00 0.00 0.00 0.00
0.00 0.00 0.00 0.00 0.00 0.00 0.00 0.00 0.00 0.00 0.00 0.00 0.00 0.00 0.00 0.00 0.00 0.00 0.00 0.00 0.00 0.00 0.00 0.00 0.00 0.00 0.00 0.00 0.00 0.00 0.00 0.00 0.00 0.00 0.00 0.00 0.00 0.00 0.00 0.00 0.00 0.00 0.00 0.00 0.00 0.00 0.00 0.00 0.00
0.00 0.00 0.00 0.00 0.00 0.00 0.00 0.00 0.00 0.00 0.00 0.00 0.00 0.00 0.00 0.00 0.00 0.00 0.00 0.00 0.00 0.00 0.00 0.00 0.00 0.00 0.00 0.00 0.00 0.00 0.00 0.00 0.00 0.00 0.00 0.00 0.00 0.00 0.00 0.00 0.00 0.00 0.00 0.00 0.00 0.00 0.00 0.00 0.00

GFSSGP_prec_precacc24_051.txt.gz
Total_Precipitation_Accumulation
0.00 0.03 0.28 0.37 0.43 0.37 0.86 0.38 0.20 0.32 0.19 0.02 0.04 0.03 0.26 0.15 0.14 0.13 0.06 0.06 0.00 0.08 0.11 0.12 0.15 0.13 0.06 0.05 0.01 0.02 0.02 0.01 0.02 0.03 0.06 0.08 0.15 0.20 0.09 0.09 0.08 0.11 0.07 0.02 0.00 0.03 0.01 0.01 0.03
0.01 0.08 0.48 1.08 1.37 0.96 0.91 0.29 0.30 0.42 0.09 0.04 0.01 0.04 0.01 0.01 0.00 0.05 0.06 0.03 0.00 0.01 0.03 0.05 0.17 0.11 0.04 0.04 0.02 0.01 0.01 0.02 0.02 0.08 0.16 0.14 0.24 0.14 0.09 0.14 0.19 0.31 0.37 0.22 0.11 0.07 0.01 0.03 0.07
0.01 0.23 1.36 1.86 1.23 0.70 0.83 0.37 0.34 0.24 0.15 0.06 0.02 0.04 0.01 0.00 0.01 0.04 0.02 0.00 0.01 0.02 0.01 0.05 0.11 0.08 0.05 0.04 0.03 0.03 0.02 0.02 0.02 0.10 0.12 0.17 0.17 0.07 0.07 0.09 0.11 0.12 0.07 0.08 0.08 0.08 0.07 0.04 0.09
0.01 0.32 0.89 0.61 0.59 0.45 0.95 0.68 0.23 0.21 0.17 0.07 0.09 0.01 0.01 0.00 0.01 0.01 0.00 0.01 0.02 0.01 0.02 0.02 0.05 0.02 0.03 0.03 0.03 0.01 0.01 0.02 0.06 0.14 0.13 0.13 0.09 0.06 0.06 0.06 0.08 0.06 0.01 0.00 0.00 0.02 0.06 0.12 0.22
0.10 0.45 1.06 0.73 0.50 0.26 0.42 0.37 0.32 0.52 0.35 0.20 0.04 0.02 0.03 0.02 0.00 0.00 0.01 0.01 0.01 0.02 0.02 0.01 0.07 0.05 0.04 0.03 0.01 0.00 0.00 0.02 0.10 0.14 0.05 0.03 0.02 0.02 0.03 0.05 0.05 0.02 0.00 0.01 0.03 0.05 0.07 0.09 0.16
0.32 1.09 0.62 0.28 0.24 0.47 0.41 0.64 0.65 0.47 0.66 0.34 0.09 0.04 0.05 0.03 0.00 0.01 0.01 0.01 0.03 0.01 0.00 0.01 0.02 0.03 0.04 0.01 0.00 0.00 0.01 0.01 0.05 0.12 0.04 0.01 0.02 0.03 0.04 0.01 0.02 0.01 0.03 0.03 0.03 0.03 0.10 0.09 0.18
0.16 1.99 0.60 0.49 0.28 0.27 0.46 0.85 0.92 0.37 0.40 0.17 0.07 0.02 0.05 0.05 0.01 0.00 0.01 0.01 0.01 0.00 0.00 0.01 0.02 0.01 0.01 0.01 0.00 0.00 0.01 0.02 0.05 0.07 0.03 0.00 0.00 0.01 0.04 0.05 0.07 0.04 0.08 0.03 0.02 0.02 0.06 0.07 0.16
0.07 1.75 1.67 0.55 0.47 0.41 0.21 0.23 0.34 0.30 0.21 0.09 0.02 0.00 0.03 0.02 0.01 0.00 0.01 0.01 0.01 0.00 0.00 0.00 0.01 0.00 0.00 0.00 0.01 0.01 0.00 0.00 0.02 0.00 0.00 0.01 0.02 0.03 0.07 0.15 0.17 0.07 0.06 0.03 0.04 0.04 0.05 0.06 0.10
0.06 1.54 0.61 0.14 0.12 0.20 0.31 0.21 0.16 0.26 0.12 0.03 0.02 0.00 0.00 0.00 0.00 0.01 0.01 0.02 0.01 0.01 0.00 0.00 0.00 0.00 0.00 0.00 0.00 0.00 0.00 0.00 0.00 0.04 0.10 0.26 0.25 0.14 0.07 0.08 0.09 0.10 0.09 0.07 0.07 0.04 0.05 0.04 0.06
0.22 0.64 0.24 0.09 0.04 0.16 0.25 0.24 0.13 0.15 0.05 0.02 0.01 0.00 0.00 0.00 0.00 0.00 0.00 0.01 0.01 0.00 0.00 0.00 0.00 0.00 0.00 0.00 0.00 0.00 0.00 0.00 0.03 0.09 0.38 0.68 0.20 0.12 0.05 0.08 0.04 0.03 0.04 0.02 0.00 0.01 0.06 0.03 0.07
0.11 0.28 0.06 0.00 0.01 0.07 0.02 0.10 0.10 0.02 0.00 0.00 0.00 0.00 0.00 0.00 0.00 0.00 0.00 0.00 0.00 0.00 0.00 0.00 0.00 0.00 0.00 0.00 0.00 0.00 0.00 0.00 0.04 0.11 0.65 1.11 0.43 0.13 0.14 0.02 0.03 0.03 0.02 0.03 0.36 0.19 0.03 0.01 0.01
0.04 0.04 0.01 0.00 0.00 0.01 0.04 0.02 0.02 0.00 0.00 0.00 0.00 0.00 0.00 0.00 0.00 0.00 0.00 0.00 0.00 0.00 0.00 0.00 0.00 0.00 0.00 0.00 0.00 0.00 0.00 0.00 0.00 0.04 0.13 0.30 0.58 0.28 0.30 0.08 0.04 0.10 0.06 0.16 0.20 0.13 0.03 0.01 0.00
0.00 0.00 0.00 0.01 0.00 0.00 0.02 0.05 0.01 0.00 0.00 0.00 0.00 0.00 0.00 0.00 0.00 0.00 0.00 0.00 0.00 0.00 0.00 0.00 0.00 0.00 0.00 0.00 0.00 0.00 0.00 0.00 0.00 0.02 0.04 0.21 0.18 0.10 0.05 0.08 0.12 0.04 0.07 0.15 0.11 0.08 0.04 0.05 0.00
0.00 0.01 0.01 0.01 0.00 0.00 0.00 0.01 0.01 0.00 0.00 0.00 0.00 0.00 0.00 0.00 0.00 0.00 0.00 0.00 0.00 0.00 0.00 0.00 0.00 0.00 0.00 0.00 0.00 0.00 0.00 0.00 0.00 0.00 0.00 0.06 0.10 0.04 0.09 0.10 0.05 0.03 0.04 0.11 0.14 0.11 0.06 0.02 0.00
0.00 0.00 0.00 0.01 0.00 0.00 0.00 0.00 0.00 0.02 0.02 0.00 0.00 0.00 0.00 0.00 0.00 0.00 0.00 0.00 0.00 0.00 0.00 0.00 0.00 0.00 0.00 0.00 0.00 0.00 0.00 0.00 0.00 0.00 0.00 0.00 0.02 0.06 0.18 0.16 0.06 0.02 0.04 0.09 0.06 0.08 0.03 0.00 0.00
0.00 0.00 0.00 0.00 0.00 0.00 0.00 0.00 0.00 0.00 0.01 0.00 0.00 0.00 0.00 0.00 0.00 0.00 0.00 0.00 0.00 0.00 0.00 0.00 0.00 0.00 0.00 0.00 0.00 0.00 0.00 0.00 0.00 0.00 0.00 0.00 0.01 0.05 0.18 0.29 0.16 0.03 0.05 0.10 0.09 0.07 0.02 0.00 0.00
0.00 0.00 0.00 0.00 0.00 0.00 0.00 0.00 0.00 0.00 0.04 0.03 0.00 0.00 0.00 0.00 0.00 0.00 0.00 0.00 0.00 0.00 0.00 0.00 0.00 0.00 0.00 0.00 0.00 0.00 0.00 0.00 0.00 0.00 0.00 0.00 0.00 0.01 0.08 0.33 0.26 0.07 0.03 0.08 0.08 0.04 0.02 0.00 0.00
0.00 0.00 0.00 0.00 0.00 0.00 0.00 0.00 0.00 0.00 0.02 0.12 0.07 0.01 0.00 0.00 0.00 0.00 0.00 0.00 0.00 0.00 0.00 0.00 0.00 0.00 0.00 0.00 0.00 0.00 0.00 0.00 0.00 0.00 0.00 0.00 0.00 0.00 0.04 0.19 0.17 0.06 0.05 0.08 0.04 0.03 0.00 0.00 0.00
0.00 0.00 0.00 0.00 0.00 0.01 0.00 0.00 0.00 0.00 0.03 0.21 0.09 0.07 0.03 0.00 0.00 0.00 0.00 0.00 0.00 0.00 0.00 0.00 0.00 0.00 0.00 0.00 0.00 0.00 0.00 0.00 0.00 0.00 0.00 0.00 0.00 0.00 0.06 0.16 0.20 0.06 0.13 0.14 0.05 0.02 0.00 0.00 0.00
0.00 0.00 0.00 0.00 0.00 0.00 0.01 0.00 0.00 0.00 0.00 0.02 0.20 0.16 0.09 0.00 0.00 0.00 0.00 0.00 0.00 0.00 0.00 0.00 0.00 0.00 0.00 0.00 0.00 0.00 0.00 0.00 0.00 0.00 0.00 0.00 0.00 0.01 0.04 0.19 0.15 0.16 0.14 0.13 0.08 0.03 0.02 0.00 0.00
0.00 0.00 0.00 0.00 0.00 0.00 0.00 0.00 0.00 0.00 0.00 0.00 0.06 0.28 0.05 0.01 0.00 0.00 0.00 0.00 0.00 0.00 0.00 0.00 0.00 0.00 0.00 0.00 0.00 0.00 0.00 0.00 0.00 0.00 0.00 0.00 0.00 0.00 0.10 0.20 0.08 0.15 0.18 0.24 0.11 0.01 0.00 0.00 0.00
0.00 0.00 0.00 0.00 0.00 0.00 0.00 0.00 0.00 0.00 0.00 0.00 0.00 0.00 0.01 0.01 0.00 0.00 0.00 0.00 0.00 0.00 0.00 0.00 0.00 0.00 0.00 0.00 0.00 0.00 0.00 0.00 0.00 0.00 0.00 0.00 0.00 0.00 0.03 0.07 0.03 0.03 0.09 0.19 0.14 0.00 0.00 0.00 0.00
0.00 0.00 0.00 0.00 0.00 0.00 0.00 0.00 0.00 0.00 0.00 0.00 0.00 0.00 0.00 0.00 0.01 0.00 0.00 0.00 0.00 0.00 0.00 0.00 0.00 0.00 0.00 0.00 0.00 0.00 0.00 0.00 0.00 0.00 0.00 0.00 0.02 0.01 0.00 0.00 0.03 0.02 0.03 0.12 0.14 0.05 0.00 0.00 0.00
0.00 0.00 0.00 0.00 0.00 0.00 0.00 0.00 0.00 0.00 0.00 0.00 0.00 0.00 0.00 0.00 0.00 0.00 0.00 0.00 0.00 0.00 0.00 0.00 0.00 0.00 0.00 0.00 0.00 0.00 0.00 0.00 0.00 0.00 0.00 0.00 0.00 0.00 0.00 0.01 0.03 0.04 0.02 0.03 0.05 0.04 0.01 0.00 0.00
0.00 0.00 0.00 0.00 0.00 0.00 0.00 0.00 0.00 0.00 0.00 0.00 0.00 0.00 0.00 0.00 0.00 0.00 0.00 0.00 0.00 0.00 0.00 0.00 0.00 0.00 0.00 0.00 0.00 0.00 0.00 0.00 0.00 0.00 0.00 0.00 0.00 0.00 0.00 0.01 0.04 0.01 0.01 0.01 0.00 0.01 0.00 0.00 0.00
0.00 0.00 0.00 0.00 0.00 0.00 0.00 0.00 0.00 0.00 0.00 0.00 0.00 0.00 0.00 0.00 0.00 0.00 0.00 0.00 0.00 0.00 0.00 0.00 0.00 0.00 0.00 0.00 0.00 0.00 0.00 0.00 0.00 0.00 0.00 0.00 0.00 0.00 0.00 0.00 0.00 0.00 0.00 0.00 0.00 0.00 0.00 0.00 0.00
0.00 0.00 0.00 0.00 0.00 0.00 0.00 0.00 0.00 0.00 0.00 0.00 0.00 0.00 0.00 0.00 0.00 0.00 0.00 0.00 0.00 0.00 0.00 0.00 0.00 0.00 0.00 0.00 0.00 0.00 0.00 0.00 0.00 0.00 0.00 0.00 0.00 0.00 0.00 0.00 0.00 0.00 0.00 0.00 0.00 0.00 0.00 0.00 0.00
0.00 0.00 0.00 0.00 0.00 0.00 0.00 0.00 0.00 0.00 0.00 0.00 0.00 0.00 0.00 0.00 0.00 0.00 0.00 0.00 0.00 0.00 0.00 0.00 0.00 0.00 0.00 0.00 0.00 0.00 0.00 0.00 0.00 0.00 0.00 0.00 0.00 0.00 0.00 0.00 0.00 0.00 0.00 0.00 0.00 0.00 0.00 0.00 0.00
0.00 0.00 0.00 0.00 0.00 0.00 0.00 0.00 0.00 0.00 0.00 0.00 0.00 0.00 0.00 0.00 0.00 0.00 0.00 0.00 0.00 0.00 0.00 0.00 0.00 0.00 0.00 0.00 0.00 0.00 0.00 0.00 0.00 0.00 0.00 0.00 0.00 0.00 0.00 0.00 0.00 0.00 0.00 0.00 0.00 0.00 0.00 0.00 0.00
0.00 0.00 0.00 0.00 0.00 0.00 0.00 0.00 0.00 0.00 0.00 0.00 0.00 0.00 0.00 0.00 0.00 0.00 0.00 0.00 0.00 0.00 0.00 0.00 0.00 0.00 0.00 0.00 0.00 0.00 0.00 0.00 0.00 0.00 0.00 0.00 0.00 0.00 0.00 0.00 0.00 0.00 0.00 0.00 0.00 0.00 0.00 0.00 0.00

GFSSGP_prec_precacc24_054.txt.gz
Total_Precipitation_Accumulation
0.00 0.01 0.19 0.32 0.42 0.34 0.80 0.36 0.23 0.39 0.21 0.02 0.04 0.03 0.25 0.13 0.15 0.13 0.05 0.04 0.00 0.05 0.08 0.05 0.08 0.07 0.06 0.05 0.02 0.03 0.02 0.01 0.02 0.03 0.06 0.08 0.14 0.20 0.09 0.09 0.12 0.12 0.07 0.03 0.03 0.01 0.03 0.07 0.05
0.00 0.07 0.48 1.15 1.36 0.93 0.90 0.28 0.32 0.43 0.09 0.04 0.01 0.04 0.01 0.01 0.00 0.04 0.05 0.01 0.00 0.01 0.02 0.02 0.08 0.08 0.04 0.04 0.03 0.02 0.02 0.02 0.02 0.08 0.16 0.14 0.24 0.15 0.13 0.15 0.20 0.33 0.38 0.22 0.12 0.07 0.01 0.06 0.09
0.00 0.24 1.52 2.01 1.17 0.70 0.87 0.37 0.37 0.25 0.15 0.06 0.02 0.04 0.01 0.01 0.01 0.03 0.02 0.00 0.01 0.02 0.01 0.02 0.06 0.06 0.06 0.06 0.05 0.03 0.03 0.02 0.02 0.10 0.12 0.17 0.17 0.10 0.16 0.09 0.09 0.11 0.08 0.08 0.08 0.08 0.08 0.12 0.16
0.01 0.38 0.98 0.60 0.59 0.47 1.02 0.74 0.30 0.22 0.17 0.07 0.09 0.02 0.01 0.00 0.00 0.01 0.00 0.01 0.02 0.01 0.01 0.02 0.04 0.04 0.03 0.03 0.04 0.02 0.01 0.02 0.06 0.14 0.13 0.15 0.11 0.07 0.08 0.07 0.05 0.03 0.01 0.00 0.00 0.06 0.11 0.12 0.17
0.12 0.58 1.15 0.80 0.54 0.34 0.43 0.39 0.37 0.54 0.35 0.20 0.04 0.02 0.02 0.01 0.00 0.00 0.01 0.01 0.01 0.02 0.02 0.01 0.07 0.07 0.04 0.03 0.02 0.01 0.00 0.02 0.10 0.15 0.06 0.07 0.07 0.05 0.04 0.05 0.02 0.01 0.00 0.01 0.03 0.06 0.09 0.09 0.16
0.35 1.12 0.67 0.32 0.28 0.56 0.42 0.65 0.69 0.48 0.70 0.37 0.09 0.04 0.03 0.02 0.00 0.01 0.01 0.01 0.03 0.01 0.00 0.01 0.03 0.04 0.05 0.01 0.01 0.01 0.01 0.01 0.05 0.15 0.11 0.05 0.04 0.05 0.06 0.02 0.02 0.01 0.03 0.03 0.03 0.04 0.12 0.09 0.19
0.19 2.01 0.61 0.51 0.34 0.38 0.47 0.85 0.99 0.40 0.41 0.21 0.07 0.02 0.05 0.05 0.01 0.00 0.01 0.01 0.01 0.00 0.00 0.01 0.02 0.03 0.02 0.01 0.01 0.01 0.01 0.02 0.05 0.10 0.12 0.02 0.00 0.01 0.04 0.06 0.07 0.04 0.08 0.03 0.02 0.03 0.07 0.08 0.17
0.12 1.75 1.68 0.56 0.53 0.47 0.21 0.24 0.36 0.32 0.22 0.12 0.03 0.01 0.03 0.02 0.01 0.00 0.01 0.01 0.01 0.00 0.00 0.01 0.02 0.00 0.00 0.00 0.02 0.02 0.01 0.01 0.06 0.05 0.01 0.01 0.01 0.02 0.06 0.15 0.17 0.08 0.06 0.03 0.04 0.04 0.07 0.06 0.11
0.06 1.54 0.62 0.15 0.19 0.22 0.31 0.21 0.16 0.29 0.20 0.07 0.02 0.00 0.00 0.01 0.01 0.01 0.01 0.02 0.01 0.01 0.00 0.00 0.01 0.00 0.00 0.00 0.00 0.01 0.01 0.01 0.01 0.05 0.13 0.28 0.22 0.13 0.06 0.08 0.10 0.10 0.10 0.07 0.07 0.04 0.06 0.04 0.06
0.23 0.65 0.25 0.09 0.04 0.16 0.25 0.24 0.13 0.15 0.06 0.02 0.01 0.00 0.00 0.01 0.01 0.00 0.00 0.01 0.00 0.00 0.00 0.00 0.00 0.00 0.00 0.00 0.00 0.00 0.00 0.00 0.03 0.09 0.38 0.68 0.20 0.12 0.04 0.09 0.06 0.02 0.04 0.03 0.01 0.01 0.06 0.03 0.07
0.11 0.27 0.06 0.00 0.01 0.07 0.02 0.10 0.10 0.03 0.02 0.00 0.00 0.00 0.00 0.00 0.00 0.00 0.00 0.00 0.00 0.00 0.00 0.00 0.00 0.00 0.00 0.00 0.00 0.00 0.00 0.00 0.04 0.11 0.65 1.11 0.43 0.13 0.14 0.02 0.03 0.03 0.02 0.03 0.36 0.19 0.03 0.01 0.01
0.04 0.04 0.01 0.00 0.00 0.01 0.04 0.02 0.02 0.00 0.02 0.00 0.00 0.00 0.00 0.00 0.00 0.00 0.00 0.00 0.00 0.00 0.00 0.00 0.00 0.00 0.00 0.00 0.00 0.00 0.00 0.00 0.00 0.04 0.13 0.30 0.58 0.28 0.30 0.08 0.04 0.10 0.06 0.16 0.20 0.11 0.01 0.00 0.00
0.00 0.00 0.00 0.01 0.00 0.00 0.02 0.05 0.01 0.00 0.00 0.00 0.00 0.00 0.00 0.00 0.00 0.00 0.00 0.00 0.00 0.00 0.00 0.00 0.00 0.00 0.00 0.00 0.00 0.00 0.00 0.00 0.00 0.02 0.04 0.21 0.18 0.10 0.05 0.08 0.12 0.04 0.07 0.15 0.09 0.04 0.00 0.00 0.00
0.00 0.01 0.01 0.01 0.01 0.00 0.00 0.01 0.01 0.00 0.00 0.00 0.00 0.00 0.00 0.00 0.00 0.00 0.00 0.00 0.00 0.00 0.00 0.00 0.00 0.00 0.00 0.00 0.00 0.00 0.00 0.00 0.00 0.00 0.00 0.06 0.10 0.04 0.09 0.14 0.07 0.03 0.04 0.11 0.07 0.03 0.01 0.01 0.00
0.00 0.00 0.00 0.02 0.00 0.00 0.00 0.00 0.00 0.02 0.02 0.00 0.00 0.00 0.00 0.00 0.00 0.00 0.00 0.00 0.00 0.00 0.00 0.00 0.00 0.00 0.00 0.00 0.00 0.00 0.00 0.00 0.00 0.00 0.00 0.00 0.02 0.07 0.19 0.09 0.05 0.02 0.02 0.02 0.01 0.03 0.01 0.00 0.00
0.00 0.00 0.00 0.00 0.00 0.00 0.00 0.00 0.00 0.00 0.01 0.00 0.00 0.00 0.00 0.00 0.00 0.00 0.00 0.00 0.00 0.00 0.00 0.00 0.00 0.00 0.00 0.00 0.00 0.00 0.00 0.00 0.00 0.00 0.00 0.00 0.01 0.08 0.29 0.23 0.09 0.03 0.02 0.04 0.06 0.03 0.00 0.00 0.00
0.00 0.00 0.00 0.00 0.00 0.00 0.00 0.00 0.00 0.00 0.04 0.03 0.00 0.00 0.00 0.00 0.00 0.00 0.00 0.00 0.00 0.00 0.00 0.00 0.00 0.00 0.00 0.00 0.00 0.00 0.00 0.00 0.00 0.00 0.00 0.00 0.00 0.10 0.19 0.34 0.30 0.10 0.03 0.05 0.04 0.01 0.00 0.00 0.00
0.00 0.00 0.00 0.00 0.00 0.00 0.00 0.00 0.00 0.00 0.02 0.12 0.07 0.01 0.00 0.00 0.00 0.00 0.00 0.00 0.00 0.00 0.00 0.00 0.00 0.00 0.00 0.00 0.00 0.00 0.00 0.00 0.00 0.00 0.00 0.00 0.00 0.06 0.13 0.22 0.17 0.13 0.05 0.05 0.00 0.00 0.00 0.00 0.00
0.00 0.00 0.00 0.00 0.01 0.01 0.00 0.00 0.00 0.00 0.03 0.21 0.09 0.07 0.03 0.00 0.00 0.00 0.00 0.00 0.00 0.00 0.00 0.00 0.00 0.00 0.00 0.00 0.00 0.00 0.00 0.00 0.00 0.00 0.00 0.00 0.00 0.03 0.11 0.18 0.24 0.14 0.14 0.08 0.02 0.00 0.00 0.00 0.00
0.00 0.00 0.00 0.00 0.00 0.00 0.02 0.00 0.00 0.00 0.00 0.02 0.20 0.16 0.09 0.00 0.00 0.00 0.00 0.00 0.00 0.00 0.00 0.00 0.00 0.00 0.00 0.00 0.00 0.00 0.00 0.00 0.00 0.00 0.00 0.00 0.00 0.01 0.04 0.19 0.16 0.19 0.18 0.16 0.11 0.02 0.01 0.00 0.00
0.00 0.00 0.00 0.00 0.00 0.00 0.00 0.00 0.00 0.00 0.00 0.00 0.06 0.28 0.05 0.01 0.00 0.00 0.00 0.00 0.00 0.00 0.00 0.00 0.00 0.00 0.00 0.00 0.00 0.00 0.00 0.00 0.00 0.00 0.00 0.00 0.00 0.00 0.10 0.16 0.13 0.19 0.21 0.27 0.14 0.03 0.00 0.00 0.00
0.00 0.00 0.00 0.00 0.00 0.00 0.00 0.00 0.00 0.00 0.00 0.00 0.00 0.00 0.01 0.01 0.00 0.00 0.00 0.00 0.00 0.00 0.00 0.00 0.00 0.00 0.00 0.00 0.00 0.00 0.00 0.00 0.00 0.00 0.00 0.00 0.00 0.00 0.03 0.06 0.08 0.11 0.16 0.25 0.15 0.02 0.00 0.00 0.00
0.00 0.00 0.00 0.00 0.00 0.00 0.00 0.00 0.00 0.00 0.00 0.00 0.00 0.00 0.00 0.00 0.01 0.00 0.00 0.00 0.00 0.00 0.00 0.00 0.00 0.00 0.00 0.00 0.00 0.00 0.00 0.00 0.00 0.00 0.00 0.00 0.02 0.01 0.00 0.00 0.05 0.09 0.12 0.20 0.21 0.15 0.03 0.00 0.00
0.00 0.00 0.00 0.00 0.00 0.00 0.00 0.00 0.00 0.00 0.00 0.00 0.00 0.00 0.00 0.00 0.00 0.00 0.00 0.00 0.00 0.00 0.00 0.00 0.00 0.00 0.00 0.00 0.00 0.00 0.00 0.00 0.00 0.00 0.00 0.00 0.00 0.00 0.00 0.01 0.03 0.06 0.04 0.07 0.13 0.12 0.05 0.00 0.00
0.00 0.00 0.00 0.00 0.00 0.00 0.00 0.00 0.00 0.00 0.00 0.00 0.00 0.00 0.00 0.00 0.00 0.00 0.00 0.00 0.00 0.00 0.00 0.00 0.00 0.00 0.00 0.00 0.00 0.00 0.00 0.00 0.00 0.00 0.00 0.00 0.00 0.00 0.00 0.01 0.04 0.01 0.01 0.01 0.05 0.10 0.04 0.00 0.00
0.00 0.00 0.00 0.00 0.00 0.00 0.00 0.00 0.00 0.00 0.00 0.00 0.00 0.00 0.00 0.00 0.00 0.00 0.00 0.00 0.00 0.00 0.00 0.00 0.00 0.00 0.00 0.00 0.00 0.00 0.00 0.00 0.00 0.00 0.00 0.00 0.00 0.00 0.00 0.00 0.00 0.00 0.01 0.00 0.00 0.02 0.01 0.00 0.00
0.00 0.00 0.00 0.00 0.00 0.00 0.00 0.00 0.00 0.00 0.00 0.00 0.00 0.00 0.00 0.00 0.00 0.00 0.00 0.00 0.00 0.00 0.00 0.00 0.00 0.00 0.00 0.00 0.00 0.00 0.00 0.00 0.00 0.00 0.00 0.00 0.00 0.00 0.00 0.00 0.00 0.00 0.00 0.00 0.00 0.00 0.00 0.00 0.01
0.00 0.00 0.00 0.00 0.00 0.00 0.00 0.00 0.00 0.00 0.00 0.00 0.00 0.00 0.00 0.00 0.00 0.00 0.00 0.00 0.00 0.00 0.00 0.00 0.00 0.00 0.00 0.00 0.00 0.00 0.00 0.00 0.00 0.00 0.00 0.00 0.00 0.00 0.00 0.00 0.00 0.00 0.00 0.00 0.00 0.00 0.00 0.00 0.00
0.00 0.00 0.00 0.00 0.00 0.00 0.00 0.00 0.00 0.00 0.00 0.00 0.00 0.00 0.00 0.00 0.00 0.00 0.00 0.00 0.00 0.00 0.00 0.00 0.00 0.00 0.00 0.00 0.00 0.00 0.00 0.00 0.00 0.00 0.00 0.00 0.00 0.00 0.00 0.00 0.00 0.00 0.00 0.00 0.00 0.00 0.00 0.00 0.00
0.00 0.00 0.00 0.00 0.00 0.00 0.00 0.00 0.00 0.00 0.00 0.00 0.00 0.00 0.00 0.00 0.00 0.00 0.00 0.00 0.00 0.00 0.00 0.00 0.00 0.00 0.00 0.00 0.00 0.00 0.00 0.00 0.00 0.00 0.00 0.00 0.00 0.00 0.00 0.00 0.00 0.00 0.00 0.00 0.00 0.00 0.00 0.00 0.00

GFSSGP_prec_precacc24_057.txt.gz
Total_Precipitation_Accumulation
0.00 0.01 0.08 0.21 0.39 0.27 0.78 0.41 0.26 0.44 0.21 0.03 0.03 0.02 0.22 0.12 0.15 0.15 0.00 0.00 0.00 0.00 0.02 0.04 0.07 0.07 0.06 0.04 0.02 0.03 0.02 0.01 0.02 0.03 0.06 0.08 0.14 0.19 0.09 0.11 0.14 0.12 0.09 0.02 0.03 0.02 0.16 0.13 0.06
0.00 0.06 0.39 1.16 1.23 0.84 1.00 0.27 0.38 0.45 0.10 0.04 0.01 0.03 0.02 0.01 0.00 0.02 0.00 0.00 0.00 0.00 0.00 0.00 0.07 0.08 0.03 0.04 0.04 0.05 0.02 0.02 0.02 0.07 0.16 0.13 0.23 0.15 0.13 0.14 0.28 0.39 0.38 0.23 0.12 0.07 0.02 0.07 0.11
0.00 0.24 1.55 1.96 1.10 0.70 1.02 0.39 0.40 0.26 0.15 0.05 0.01 0.03 0.01 0.02 0.01 0.00 0.00 0.00 0.00 0.00 0.00 0.00 0.04 0.05 0.06 0.07 0.06 0.08 0.05 0.03 0.02 0.10 0.12 0.17 0.18 0.09 0.16 0.09 0.10 0.12 0.08 0.08 0.08 0.08 0.09 0.12 0.17
0.01 0.41 1.02 0.51 0.56 0.51 1.07 0.85 0.35 0.23 0.17 0.07 0.09 0.03 0.01 0.00 0.00 0.00 0.00 0.00 0.00 0.00 0.01 0.01 0.02 0.04 0.05 0.04 0.05 0.04 0.01 0.02 0.06 0.14 0.13 0.15 0.11 0.07 0.08 0.07 0.05 0.03 0.01 0.00 0.01 0.06 0.12 0.12 0.17
0.12 0.66 1.09 0.79 0.62 0.37 0.45 0.46 0.43 0.57 0.35 0.22 0.07 0.03 0.02 0.00 0.00 0.00 0.01 0.00 0.00 0.01 0.02 0.01 0.05 0.06 0.04 0.04 0.03 0.01 0.00 0.02 0.10 0.15 0.06 0.07 0.08 0.06 0.05 0.05 0.03 0.01 0.00 0.02 0.06 0.08 0.09 0.09 0.16
0.38 1.12 0.62 0.43 0.36 0.64 0.43 0.66 0.74 0.50 0.70 0.37 0.10 0.04 0.02 0.02 0.00 0.01 0.01 0.00 0.02 0.00 0.00 0.01 0.03 0.05 0.05 0.02 0.01 0.01 0.01 0.01 0.05 0.15 0.11 0.05 0.05 0.05 0.06 0.02 0.02 0.01 0.03 0.05 0.05 0.04 0.12 0.10 0.20
0.24 2.02 0.62 0.59 0.37 0.46 0.47 0.86 1.03 0.42 0.42 0.21 0.08 0.06 0.05 0.05 0.01 0.00 0.01 0.01 0.01 0.00 0.00 0.01 0.03 0.04 0.02 0.03 0.02 0.01 0.01 0.02 0.05 0.10 0.13 0.04 0.00 0.01 0.04 0.06 0.07 0.04 0.08 0.03 0.05 0.04 0.07 0.08 0.17
0.18 1.79 1.70 0.60 0.58 0.59 0.21 0.24 0.40 0.39 0.24 0.13 0.04 0.05 0.03 0.02 0.01 0.00 0.01 0.01 0.00 0.00 0.00 0.01 0.02 0.00 0.00 0.01 0.04 0.03 0.01 0.01 0.06 0.05 0.02 0.02 0.01 0.02 0.06 0.15 0.17 0.08 0.06 0.03 0.06 0.06 0.08 0.07 0.12
0.08 1.55 0.64 0.21 0.21 0.28 0.31 0.21 0.17 0.33 0.20 0.07 0.02 0.01 0.00 0.01 0.01 0.01 0.01 0.02 0.01 0.01 0.00 0.00 0.01 0.00 0.00 0.00 0.03 0.04 0.02 0.01 0.01 0.05 0.14 0.21 0.17 0.09 0.05 0.08 0.10 0.10 0.10 0.07 0.07 0.04 0.06 0.04 0.06
0.25 0.51 0.28 0.11 0.06 0.16 0.25 0.25 0.14 0.16 0.06 0.02 0.01 0.00 0.00 0.01 0.01 0.00 0.00 0.01 0.00 0.00 0.00 0.00 0.00 0.00 0.00 0.00 0.00 0.01 0.01 0.00 0.03 0.09 0.38 0.52 0.19 0.11 0.04 0.09 0.06 0.02 0.04 0.03 0.01 0.00 0.06 0.03 0.07
0.11 0.19 0.05 0.01 0.01 0.07 0.03 0.21 0.14 0.04 0.03 0.00 0.00 0.00 0.00 0.00 0.00 0.00 0.00 0.00 0.00 0.00 0.00 0.00 0.00 0.00 0.00 0.00 0.00 0.00 0.00 0.00 0.04 0.11 0.62 1.00 0.42 0.12 0.04 0.02 0.04 0.03 0.03 0.02 0.26 0.14 0.02 0.02 0.02
0.04 0.05 0.03 0.03 0.00 0.01 0.05 0.06 0.04 0.02 0.08 0.01 0.00 0.00 0.00 0.00 0.00 0.00 0.00 0.00 0.00 0.00 0.00 0.00 0.00 0.00 0.00 0.00 0.00 0.00 0.00 0.00 0.00 0.04 0.13 0.30 0.54 0.27 0.28 0.08 0.05 0.11 0.07 0.16 0.15 0.11 0.01 0.00 0.02
0.00 0.02 0.01 0.01 0.02 0.04 0.02 0.05 0.10 0.02 0.02 0.00 0.00 0.00 0.00 0.00 0.00 0.00 0.00 0.00 0.00 0.00 0.00 0.00 0.00 0.00 0.00 0.00 0.00 0.00 0.00 0.00 0.00 0.02 0.04 0.21 0.17 0.10 0.05 0.08 0.14 0.05 0.08 0.15 0.10 0.04 0.00 0.00 0.00
0.00 0.01 0.03 0.01 0.01 0.01 0.00 0.02 0.01 0.00 0.00 0.00 0.00 0.00 0.00 0.00 0.00 0.00 0.00 0.00 0.00 0.00 0.00 0.00 0.00 0.00 0.00 0.00 0.00 0.00 0.00 0.00 0.00 0.00 0.00 0.06 0.10 0.05 0.10 0.14 0.07 0.03 0.03 0.08 0.07 0.03 0.00 0.01 0.00
0.00 0.00 0.00 0.02 0.00 0.00 0.00 0.00 0.00 0.02 0.02 0.00 0.00 0.00 0.00 0.00 0.00 0.00 0.00 0.00 0.00 0.00 0.00 0.00 0.00 0.00 0.00 0.00 0.00 0.00 0.00 0.00 0.00 0.00 0.00 0.00 0.02 0.08 0.21 0.10 0.05 0.02 0.02 0.02 0.01 0.02 0.01 0.00 0.00
0.00 0.00 0.00 0.00 0.00 0.00 0.00 0.00 0.00 0.00 0.01 0.00 0.00 0.00 0.00 0.00 0.00 0.00 0.00 0.00 0.00 0.00 0.00 0.00 0.00 0.00 0.00 0.00 0.00 0.00 0.00 0.00 0.00 0.00 0.00 0.00 0.04 0.13 0.27 0.22 0.09 0.02 0.02 0.05 0.06 0.03 0.00 0.00 0.00
0.00 0.00 0.00 0.01 0.00 0.00 0.00 0.11 0.07 0.00 0.04 0.03 0.00 0.00 0.00 0.00 0.00 0.00 0.00 0.00 0.00 0.00 0.00 0.00 0.00 0.00 0.00 0.00 0.00 0.00 0.00 0.00 0.00 0.00 0.00 0.00 0.03 0.12 0.18 0.26 0.25 0.10 0.03 0.05 0.04 0.01 0.00 0.00 0.00
0.00 0.00 0.00 0.00 0.00 0.00 0.00 0.06 0.22 0.00 0.02 0.12 0.07 0.01 0.00 0.00 0.00 0.00 0.00 0.00 0.00 0.00 0.00 0.00 0.00 0.00 0.00 0.00 0.00 0.00 0.00 0.00 0.00 0.00 0.00 0.00 0.03 0.10 0.13 0.22 0.16 0.13 0.05 0.05 0.00 0.00 0.00 0.00 0.00
0.00 0.00 0.00 0.00 0.02 0.02 0.01 0.02 0.16 0.00 0.03 0.21 0.09 0.07 0.03 0.00 0.00 0.00 0.00 0.00 0.00 0.00 0.00 0.00 0.00 0.00 0.00 0.00 0.00 0.00 0.00 0.00 0.00 0.00 0.00 0.00 0.00 0.05 0.08 0.18 0.23 0.14 0.15 0.11 0.02 0.00 0.00 0.00 0.00
0.00 0.00 0.00 0.00 0.00 0.01 0.05 0.02 0.00 0.00 0.00 0.02 0.20 0.16 0.09 0.00 0.00 0.00 0.00 0.00 0.00 0.00 0.00 0.00 0.00 0.00 0.00 0.00 0.00 0.00 0.00 0.00 0.00 0.00 0.00 0.00 0.00 0.01 0.04 0.17 0.14 0.18 0.14 0.15 0.09 0.02 0.01 0.00 0.00
0.00 0.00 0.00 0.00 0.00 0.00 0.02 0.02 0.01 0.01 0.00 0.00 0.06 0.28 0.05 0.01 0.00 0.00 0.00 0.00 0.00 0.00 0.00 0.00 0.00 0.00 0.00 0.00 0.00 0.00 0.00 0.00 0.00 0.00 0.00 0.00 0.00 0.00 0.06 0.12 0.16 0.18 0.21 0.21 0.13 0.03 0.00 0.00 0.00
0.00 0.00 0.00 0.00 0.00 0.00 0.00 0.00 0.01 0.04 0.01 0.00 0.00 0.00 0.01 0.01 0.00 0.00 0.00 0.00 0.00 0.00 0.00 0.00 0.00 0.00 0.00 0.00 0.00 0.00 0.00 0.00 0.00 0.00 0.00 0.00 0.00 0.00 0.02 0.05 0.08 0.10 0.17 0.21 0.12 0.02 0.00 0.00 0.00
0.00 0.00 0.00 0.00 0.00 0.00 0.00 0.00 0.00 0.00 0.00 0.00 0.00 0.00 0.00 0.00 0.01 0.00 0.00 0.00 0.00 0.00 0.00 0.00 0.00 0.00 0.00 0.00 0.00 0.00 0.00 0.00 0.00 0.00 0.00 0.00 0.01 0.01 0.00 0.01 0.07 0.09 0.12 0.18 0.15 0.15 0.03 0.01 0.00
0.00 0.00 0.00 0.00 0.00 0.00 0.00 0.00 0.00 0.00 0.00 0.00 0.00 0.00 0.00 0.00 0.00 0.00 0.00 0.00 0.00 0.00 0.00 0.00 0.00 0.00 0.00 0.00 0.00 0.00 0.00 0.00 0.00 0.00 0.00 0.00 0.00 0.00 0.00 0.01 0.05 0.05 0.03 0.06 0.12 0.11 0.05 0.00 0.00
0.00 0.00 0.00 0.00 0.00 0.00 0.00 0.00 0.00 0.00 0.00 0.00 0.00 0.00 0.00 0.00 0.00 0.00 0.00 0.00 0.00 0.00 0.00 0.00 0.00 0.00 0.00 0.00 0.00 0.00 0.00 0.00 0.00 0.00 0.00 0.00 0.00 0.00 0.00 0.00 0.02 0.01 0.01 0.01 0.06 0.09 0.09 0.01 0.00
0.00 0.00 0.00 0.00 0.00 0.00 0.00 0.00 0.00 0.00 0.00 0.00 0.01 0.00 0.00 0.00 0.00 0.00 0.00 0.00 0.00 0.00 0.00 0.00 0.00 0.00 0.00 0.00 0.00 0.00 0.00 0.00 0.00 0.00 0.00 0.00 0.00 0.00 0.00 0.00 0.00 0.00 0.01 0.00 0.01 0.02 0.01 0.01 0.00
0.00 0.00 0.00 0.00 0.00 0.00 0.00 0.00 0.00 0.00 0.00 0.00 0.00 0.00 0.00 0.00 0.00 0.00 0.00 0.00 0.00 0.00 0.00 0.00 0.00 0.00 0.00 0.00 0.00 0.00 0.00 0.00 0.00 0.00 0.00 0.00 0.00 0.00 0.00 0.00 0.00 0.00 0.00 0.00 0.00 0.00 0.01 0.02 0.01
0.00 0.00 0.00 0.00 0.00 0.00 0.00 0.00 0.00 0.00 0.00 0.00 0.00 0.00 0.00 0.02 0.00 0.00 0.00 0.00 0.00 0.00 0.00 0.00 0.00 0.00 0.00 0.00 0.00 0.00 0.00 0.00 0.00 0.00 0.00 0.00 0.00 0.00 0.00 0.00 0.00 0.00 0.00 0.00 0.00 0.00 0.00 0.00 0.00
0.00 0.00 0.00 0.00 0.00 0.00 0.00 0.00 0.00 0.00 0.00 0.00 0.00 0.00 0.00 0.00 0.00 0.00 0.00 0.00 0.00 0.00 0.00 0.00 0.00 0.00 0.00 0.00 0.00 0.00 0.00 0.00 0.00 0.00 0.00 0.00 0.00 0.00 0.00 0.00 0.00 0.00 0.00 0.00 0.00 0.00 0.00 0.00 0.00
0.00 0.00 0.00 0.00 0.00 0.00 0.00 0.00 0.00 0.00 0.00 0.00 0.00 0.00 0.00 0.00 0.00 0.00 0.00 0.00 0.00 0.00 0.00 0.00 0.00 0.00 0.00 0.00 0.00 0.00 0.00 0.00 0.00 0.00 0.00 0.00 0.00 0.00 0.00 0.00 0.00 0.00 0.00 0.00 0.00 0.00 0.00 0.00 0.00

GFSSGP_prec_precacc24_060.txt.gz
Total_Precipitation_Accumulation
0.00 0.00 0.02 0.13 0.31 0.20 0.61 0.47 0.36 0.45 0.20 0.03 0.02 0.01 0.13 0.13 0.19 0.19 0.00 0.00 0.00 0.00 0.02 0.05 0.09 0.06 0.06 0.04 0.01 0.03 0.04 0.02 0.02 0.02 0.06 0.08 0.14 0.19 0.10 0.16 0.16 0.14 0.14 0.02 0.03 0.02 0.16 0.14 0.06
0.00 0.02 0.24 1.09 0.76 0.63 1.12 0.48 0.42 0.45 0.10 0.03 0.01 0.04 0.07 0.02 0.00 0.01 0.00 0.00 0.00 0.00 0.00 0.00 0.06 0.07 0.02 0.03 0.03 0.05 0.02 0.02 0.02 0.07 0.15 0.14 0.23 0.15 0.13 0.20 0.36 0.41 0.40 0.23 0.12 0.08 0.03 0.07 0.11
0.00 0.21 1.47 1.86 0.92 0.85 2.33 0.61 0.40 0.26 0.16 0.05 0.02 0.04 0.02 0.01 0.00 0.00 0.00 0.00 0.00 0.00 0.00 0.00 0.04 0.03 0.03 0.08 0.08 0.08 0.05 0.03 0.02 0.10 0.12 0.18 0.18 0.10 0.17 0.10 0.11 0.13 0.08 0.08 0.08 0.09 0.10 0.12 0.17
0.01 0.39 1.06 0.47 0.48 0.60 1.23 0.97 0.35 0.25 0.17 0.07 0.09 0.05 0.00 0.00 0.00 0.00 0.00 0.00 0.00 0.00 0.00 0.01 0.02 0.04 0.04 0.04 0.06 0.04 0.03 0.05 0.07 0.14 0.14 0.15 0.11 0.07 0.08 0.08 0.05 0.03 0.01 0.00 0.01 0.06 0.12 0.12 0.18
0.09 0.62 0.87 0.54 0.72 0.43 0.43 0.53 0.44 0.61 0.34 0.25 0.11 0.05 0.01 0.00 0.00 0.00 0.01 0.00 0.00 0.00 0.01 0.01 0.05 0.07 0.04 0.05 0.04 0.02 0.00 0.02 0.10 0.15 0.07 0.08 0.08 0.07 0.06 0.07 0.03 0.01 0.01 0.03 0.06 0.08 0.09 0.09 0.16
0.27 0.47 0.40 0.44 0.46 0.71 0.47 0.68 0.76 0.56 0.70 0.59 0.17 0.03 0.01 0.02 0.00 0.01 0.00 0.00 0.00 0.00 0.00 0.01 0.04 0.07 0.07 0.03 0.01 0.01 0.01 0.02 0.06 0.16 0.12 0.05 0.05 0.05 0.06 0.02 0.02 0.01 0.03 0.08 0.05 0.04 0.12 0.10 0.20
0.15 0.46 0.43 0.62 0.44 0.57 0.51 0.86 1.03 0.42 0.43 0.24 0.10 0.05 0.04 0.04 0.01 0.00 0.00 0.00 0.00 0.00 0.00 0.01 0.03 0.04 0.03 0.04 0.02 0.01 0.01 0.02 0.06 0.10 0.13 0.04 0.00 0.01 0.04 0.06 0.07 0.04 0.08 0.07 0.05 0.04 0.07 0.08 0.17
0.19 1.18 1.31 0.52 0.66 1.12 0.23 0.24 0.60 0.50 0.26 0.16 0.07 0.05 0.02 0.02 0.01 0.00 0.00 0.00 0.00 0.00 0.00 0.01 0.02 0.01 0.00 0.01 0.04 0.03 0.01 0.01 0.06 0.05 0.02 0.01 0.00 0.02 0.06 0.16 0.17 0.08 0.06 0.03 0.06 0.06 0.08 0.07 0.12
0.10 1.48 0.64 0.24 0.27 0.71 0.31 0.21 0.28 0.54 0.21 0.08 0.03 0.02 0.01 0.01 0.01 0.01 0.01 0.01 0.01 0.01 0.00 0.00 0.01 0.00 0.01 0.00 0.04 0.04 0.02 0.01 0.01 0.03 0.09 0.10 0.04 0.02 0.04 0.08 0.10 0.10 0.10 0.07 0.07 0.04 0.06 0.04 0.06
0.25 0.43 0.55 0.13 0.08 0.19 0.25 0.25 0.15 0.16 0.06 0.04 0.02 0.01 0.00 0.01 0.01 0.00 0.00 0.01 0.00 0.00 0.00 0.00 0.00 0.00 0.00 0.00 0.01 0.01 0.01 0.00 0.03 0.04 0.02 0.11 0.07 0.04 0.03 0.09 0.06 0.02 0.04 0.03 0.00 0.02 0.12 0.14 0.10
0.11 0.11 0.06 0.02 0.01 0.08 0.09 0.29 0.30 0.07 0.03 0.01 0.00 0.00 0.00 0.00 0.00 0.00 0.00 0.00 0.00 0.00 0.00 0.00 0.00 0.00 0.00 0.00 0.00 0.00 0.01 0.01 0.04 0.04 0.04 0.39 0.15 0.09 0.06 0.03 0.06 0.03 0.03 0.01 0.01 0.07 0.10 0.06 0.06
0.04 0.02 0.03 0.03 0.01 0.00 0.05 0.29 0.87 0.43 0.19 0.03 0.00 0.00 0.00 0.00 0.00 0.00 0.00 0.00 0.00 0.00 0.00 0.00 0.00 0.00 0.00 0.00 0.00 0.02 0.07 0.01 0.00 0.03 0.04 0.09 0.32 0.12 0.27 0.13 0.09 0.12 0.05 0.07 0.09 0.14 0.07 0.10 0.11
0.00 0.02 0.01 0.02 0.04 0.04 0.02 0.08 0.69 0.26 0.39 0.06 0.00 0.00 0.00 0.00 0.00 0.00 0.00 0.00 0.00 0.00 0.00 0.00 0.00 0.00 0.01 0.00 0.01 0.00 0.01 0.00 0.00 0.02 0.04 0.15 0.09 0.10 0.06 0.14 0.16 0.07 0.07 0.08 0.09 0.04 0.00 0.02 0.00
0.00 0.01 0.03 0.02 0.02 0.04 0.01 0.01 0.03 0.15 0.03 0.00 0.00 0.00 0.00 0.00 0.00 0.00 0.00 0.00 0.00 0.00 0.00 0.00 0.00 0.00 0.01 0.00 0.01 0.01 0.00 0.00 0.00 0.00 0.00 0.13 0.11 0.13 0.13 0.16 0.09 0.08 0.06 0.02 0.05 0.03 0.00 0.01 0.00
0.00 0.00 0.00 0.03 0.01 0.03 0.01 0.06 0.01 0.11 0.06 0.00 0.00 0.00 0.00 0.00 0.00 0.00 0.00 0.00 0.00 0.00 0.00 0.00 0.00 0.00 0.00 0.00 0.00 0.00 0.00 0.00 0.00 0.00 0.00 0.00 0.05 0.11 0.26 0.13 0.06 0.02 0.03 0.02 0.01 0.01 0.00 0.00 0.00
0.00 0.00 0.00 0.00 0.01 0.00 0.01 0.01 0.02 0.10 0.11 0.00 0.00 0.00 0.00 0.00 0.00 0.00 0.00 0.00 0.00 0.00 0.00 0.00 0.00 0.00 0.00 0.00 0.00 0.00 0.00 0.00 0.00 0.00 0.00 0.00 0.04 0.16 0.35 0.29 0.11 0.01 0.02 0.05 0.06 0.03 0.00 0.00 0.00
0.00 0.00 0.00 0.01 0.01 0.00 0.00 0.12 0.17 0.08 0.05 0.03 0.00 0.00 0.00 0.00 0.00 0.00 0.00 0.00 0.00 0.00 0.00 0.00 0.00 0.00 0.00 0.00 0.00 0.00 0.00 0.00 0.00 0.00 0.00 0.00 0.03 0.12 0.25 0.28 0.28 0.08 0.05 0.05 0.04 0.01 0.00 0.00 0.00
0.00 0.00 0.00 0.00 0.01 0.00 0.01 0.07 0.44 0.12 0.05 0.12 0.07 0.01 0.00 0.00 0.00 0.00 0.00 0.00 0.00 0.00 0.00 0.00 0.00 0.00 0.00 0.00 0.00 0.00 0.00 0.00 0.00 0.00 0.00 0.00 0.03 0.10 0.14 0.19 0.14 0.12 0.06 0.05 0.00 0.00 0.00 0.00 0.00
0.00 0.00 0.00 0.00 0.02 0.02 0.02 0.04 0.49 0.08 0.04 0.22 0.09 0.07 0.03 0.00 0.00 0.00 0.00 0.00 0.00 0.00 0.00 0.00 0.00 0.00 0.00 0.00 0.00 0.00 0.00 0.00 0.01 0.00 0.02 0.02 0.01 0.05 0.09 0.12 0.17 0.12 0.16 0.14 0.02 0.00 0.00 0.00 0.00
0.00 0.00 0.00 0.00 0.00 0.01 0.05 0.05 0.13 0.14 0.01 0.03 0.20 0.16 0.09 0.00 0.00 0.00 0.00 0.00 0.00 0.00 0.00 0.00 0.00 0.00 0.00 0.00 0.00 0.00 0.00 0.00 0.02 0.00 0.01 0.00 0.00 0.00 0.02 0.11 0.11 0.17 0.16 0.13 0.08 0.05 0.00 0.00 0.00
0.00 0.00 0.00 0.00 0.00 0.00 0.03 0.06 0.04 0.17 0.19 0.05 0.06 0.28 0.05 0.01 0.00 0.00 0.00 0.00 0.00 0.00 0.00 0.00 0.00 0.00 0.00 0.00 0.00 0.00 0.00 0.00 0.00 0.00 0.00 0.00 0.00 0.00 0.02 0.06 0.13 0.15 0.22 0.11 0.07 0.04 0.01 0.00 0.00
0.00 0.00 0.00 0.00 0.00 0.00 0.00 0.01 0.01 0.09 0.30 0.33 0.02 0.00 0.01 0.01 0.00 0.00 0.00 0.00 0.00 0.00 0.00 0.00 0.00 0.00 0.00 0.00 0.00 0.00 0.00 0.00 0.00 0.00 0.00 0.00 0.00 0.00 0.01 0.05 0.09 0.13 0.20 0.18 0.08 0.02 0.02 0.01 0.00
0.00 0.00 0.00 0.00 0.00 0.00 0.00 0.00 0.00 0.01 0.24 0.31 0.02 0.00 0.00 0.00 0.01 0.00 0.00 0.00 0.00 0.00 0.00 0.00 0.00 0.00 0.00 0.00 0.00 0.00 0.00 0.00 0.00 0.00 0.00 0.01 0.00 0.00 0.00 0.01 0.06 0.10 0.14 0.16 0.13 0.15 0.05 0.02 0.00
0.00 0.00 0.00 0.00 0.00 0.00 0.00 0.00 0.00 0.00 0.00 0.09 0.11 0.02 0.00 0.00 0.00 0.00 0.00 0.00 0.00 0.00 0.00 0.00 0.00 0.00 0.00 0.00 0.00 0.00 0.00 0.00 0.00 0.00 0.00 0.00 0.00 0.00 0.00 0.03 0.06 0.05 0.04 0.07 0.12 0.10 0.05 0.01 0.01
0.00 0.00 0.00 0.00 0.00 0.00 0.00 0.00 0.00 0.00 0.00 0.01 0.10 0.14 0.00 0.00 0.00 0.00 0.00 0.00 0.00 0.00 0.00 0.00 0.00 0.00 0.00 0.00 0.00 0.00 0.00 0.00 0.00 0.00 0.00 0.00 0.00 0.00 0.00 0.00 0.03 0.02 0.03 0.05 0.09 0.11 0.10 0.01 0.00
0.00 0.00 0.00 0.00 0.00 0.00 0.00 0.00 0.00 0.00 0.00 0.00 0.02 0.04 0.04 0.00 0.00 0.00 0.00 0.00 0.00 0.00 0.00 0.00 0.00 0.00 0.00 0.00 0.00 0.00 0.00 0.00 0.00 0.00 0.00 0.00 0.00 0.00 0.00 0.00 0.00 0.01 0.03 0.04 0.06 0.03 0.02 0.02 0.00
0.00 0.00 0.00 0.00 0.00 0.00 0.00 0.00 0.00 0.00 0.00 0.00 0.00 0.08 0.12 0.06 0.01 0.00 0.00 0.00 0.00 0.00 0.00 0.00 0.00 0.00 0.00 0.00 0.00 0.00 0.00 0.00 0.00 0.00 0.00 0.00 0.00 0.00 0.00 0.00 0.00 0.00 0.00 0.01 0.03 0.01 0.04 0.07 0.03
0.00 0.00 0.00 0.00 0.00 0.00 0.00 0.00 0.00 0.00 0.00 0.00 0.00 0.00 0.06 0.08 0.09 0.02 0.00 0.00 0.00 0.00 0.00 0.00 0.00 0.00 0.00 0.00 0.00 0.00 0.00 0.00 0.00 0.00 0.00 0.00 0.00 0.00 0.00 0.00 0.00 0.00 0.00 0.00 0.01 0.00 0.01 0.02 0.02
0.00 0.00 0.00 0.00 0.00 0.00 0.00 0.00 0.00 0.00 0.00 0.00 0.00 0.00 0.01 0.07 0.26 0.27 0.04 0.00 0.00 0.00 0.00 0.00 0.00 0.00 0.00 0.00 0.00 0.00 0.00 0.00 0.00 0.00 0.00 0.00 0.00 0.00 0.00 0.00 0.00 0.00 0.00 0.00 0.00 0.00 0.01 0.01 0.01
0.00 0.00 0.00 0.00 0.00 0.00 0.00 0.00 0.00 0.00 0.00 0.00 0.00 0.00 0.00 0.01 0.09 0.20 0.13 0.01 0.00 0.00 0.00 0.00 0.00 0.00 0.00 0.00 0.00 0.00 0.00 0.00 0.00 0.00 0.00 0.00 0.00 0.00 0.00 0.00 0.00 0.00 0.00 0.00 0.00 0.00 0.00 0.00 0.00

GFSSGP_prec_precacc24_063.txt.gz
Total_Precipitation_Accumulation
0.00 0.00 0.00 0.06 0.25 0.13 0.36 1.19 0.47 0.44 0.11 0.02 0.01 0.01 0.02 0.09 0.20 0.20 0.00 0.00 0.00 0.00 0.02 0.06 0.13 0.11 0.14 0.08 0.03 0.03 0.07 0.03 0.04 0.03 0.06 0.08 0.14 0.19 0.10 0.16 0.16 0.14 0.14 0.02 0.03 0.03 0.17 0.14 0.08
0.00 0.00 0.14 1.00 0.60 0.48 0.69 1.25 0.62 0.43 0.09 0.03 0.01 0.05 0.08 0.02 0.00 0.01 0.00 0.00 0.00 0.00 0.00 0.00 0.08 0.08 0.03 0.03 0.03 0.05 0.02 0.02 0.02 0.07 0.16 0.14 0.23 0.14 0.14 0.20 0.36 0.41 0.40 0.24 0.14 0.09 0.03 0.08 0.12
0.00 0.12 1.32 1.66 0.62 0.96 2.72 1.65 0.48 0.24 0.15 0.04 0.03 0.05 0.04 0.01 0.00 0.00 0.00 0.00 0.00 0.00 0.00 0.00 0.05 0.03 0.03 0.07 0.08 0.08 0.04 0.03 0.03 0.11 0.14 0.18 0.18 0.10 0.17 0.10 0.11 0.13 0.08 0.09 0.10 0.09 0.10 0.12 0.17
0.00 0.29 0.94 0.43 0.35 0.98 1.55 1.31 0.45 0.24 0.16 0.07 0.10 0.05 0.00 0.00 0.00 0.00 0.00 0.00 0.00 0.00 0.00 0.01 0.02 0.04 0.04 0.05 0.09 0.07 0.05 0.06 0.08 0.15 0.15 0.16 0.11 0.07 0.08 0.08 0.06 0.05 0.01 0.00 0.01 0.06 0.12 0.12 0.18
0.04 0.47 0.56 0.41 0.69 0.53 0.56 0.63 0.72 0.60 0.36 0.29 0.12 0.05 0.01 0.00 0.00 0.00 0.01 0.00 0.00 0.00 0.00 0.01 0.05 0.07 0.04 0.06 0.05 0.03 0.00 0.02 0.11 0.17 0.07 0.08 0.08 0.08 0.07 0.07 0.03 0.02 0.01 0.03 0.06 0.08 0.09 0.09 0.16
0.13 0.26 0.33 0.39 0.58 1.09 0.49 0.72 0.77 0.58 0.72 0.73 0.18 0.03 0.01 0.02 0.00 0.01 0.00 0.00 0.00 0.00 0.00 0.01 0.03 0.08 0.08 0.05 0.02 0.03 0.01 0.02 0.06 0.16 0.12 0.05 0.05 0.05 0.03 0.02 0.02 0.01 0.03 0.08 0.05 0.04 0.12 0.10 0.20
0.13 0.33 0.25 0.39 0.44 0.79 0.73 0.82 1.00 0.40 0.46 0.28 0.10 0.05 0.03 0.04 0.01 0.00 0.00 0.00 0.00 0.00 0.00 0.01 0.03 0.05 0.03 0.04 0.02 0.02 0.01 0.02 0.06 0.10 0.13 0.04 0.00 0.01 0.03 0.04 0.07 0.04 0.08 0.07 0.05 0.04 0.07 0.08 0.17
0.15 0.21 0.25 0.30 0.63 1.17 0.31 0.29 0.62 0.53 0.35 0.27 0.12 0.08 0.02 0.02 0.01 0.00 0.00 0.00 0.00 0.00 0.00 0.01 0.02 0.01 0.00 0.01 0.05 0.03 0.01 0.01 0.06 0.05 0.02 0.05 0.01 0.02 0.06 0.15 0.16 0.08 0.06 0.03 0.06 0.06 0.08 0.07 0.12
0.05 0.35 0.30 0.19 0.31 0.72 0.30 0.25 0.31 0.63 0.28 0.09 0.10 0.12 0.01 0.01 0.01 0.01 0.01 0.01 0.01 0.01 0.00 0.00 0.01 0.00 0.01 0.00 0.04 0.04 0.02 0.01 0.01 0.03 0.09 0.09 0.01 0.01 0.03 0.08 0.09 0.10 0.10 0.07 0.07 0.04 0.05 0.04 0.05
0.14 0.41 0.56 0.10 0.10 0.26 0.25 0.26 0.18 0.17 0.08 0.20 0.06 0.08 0.00 0.01 0.01 0.00 0.00 0.00 0.00 0.00 0.00 0.00 0.00 0.00 0.00 0.00 0.01 0.01 0.01 0.00 0.03 0.03 0.02 0.03 0.06 0.00 0.01 0.09 0.06 0.02 0.04 0.03 0.01 0.02 0.11 0.15 0.06
0.09 0.11 0.11 0.03 0.04 0.16 0.45 0.44 0.35 0.08 0.06 0.07 0.09 0.06 0.00 0.00 0.00 0.00 0.00 0.00 0.00 0.00 0.00 0.00 0.00 0.00 0.00 0.00 0.00 0.00 0.01 0.02 0.00 0.03 0.04 0.03 0.01 0.01 0.04 0.03 0.05 0.02 0.03 0.00 0.01 0.07 0.15 0.14 0.18
0.04 0.01 0.04 0.04 0.01 0.02 0.19 0.49 0.96 0.60 0.50 0.14 0.09 0.03 0.00 0.00 0.00 0.00 0.00 0.00 0.00 0.00 0.00 0.00 0.00 0.00 0.00 0.00 0.00 0.02 0.08 0.01 0.00 0.00 0.02 0.07 0.04 0.05 0.25 0.13 0.08 0.08 0.03 0.05 0.10 0.16 0.14 0.12 0.19
0.00 0.02 0.01 0.04 0.06 0.07 0.06 0.20 1.05 0.54 0.86 0.28 0.07 0.01 0.00 0.00 0.00 0.00 0.00 0.00 0.00 0.00 0.00 0.00 0.00 0.00 0.01 0.00 0.01 0.00 0.01 0.00 0.00 0.00 0.02 0.13 0.16 0.13 0.13 0.13 0.16 0.09 0.08 0.07 0.07 0.04 0.00 0.06 0.01
0.00 0.01 0.03 0.02 0.05 0.10 0.04 0.03 0.06 0.23 0.27 0.24 0.02 0.00 0.00 0.00 0.00 0.00 0.00 0.00 0.00 0.00 0.00 0.00 0.00 0.01 0.02 0.00 0.01 0.01 0.00 0.00 0.00 0.00 0.00 0.16 0.11 0.17 0.17 0.16 0.15 0.12 0.07 0.03 0.05 0.02 0.00 0.01 0.00
0.00 0.00 0.00 0.03 0.01 0.09 0.08 0.07 0.03 0.31 0.31 0.07 0.01 0.00 0.00 0.00 0.00 0.00 0.00 0.00 0.00 0.00 0.00 0.00 0.00 0.00 0.00 0.00 0.00 0.00 0.00 0.00 0.00 0.00 0.00 0.04 0.07 0.10 0.22 0.11 0.09 0.05 0.06 0.02 0.01 0.01 0.00 0.00 0.00
0.00 0.00 0.00 0.00 0.01 0.01 0.09 0.11 0.12 0.28 0.34 0.01 0.00 0.00 0.00 0.00 0.00 0.00 0.00 0.00 0.00 0.00 0.00 0.00 0.00 0.00 0.00 0.00 0.00 0.00 0.00 0.00 0.00 0.00 0.00 0.00 0.05 0.18 0.24 0.18 0.10 0.02 0.01 0.05 0.06 0.03 0.00 0.00 0.00
0.00 0.00 0.00 0.01 0.01 0.00 0.02 0.16 0.24 0.23 0.14 0.01 0.00 0.00 0.00 0.00 0.00 0.00 0.00 0.00 0.00 0.00 0.00 0.00 0.00 0.00 0.00 0.00 0.00 0.00 0.00 0.00 0.00 0.00 0.00 0.00 0.04 0.16 0.25 0.26 0.29 0.07 0.06 0.05 0.04 0.01 0.00 0.00 0.00
0.00 0.00 0.00 0.00 0.01 0.01 0.03 0.07 0.45 0.42 0.94 0.19 0.02 0.01 0.00 0.00 0.00 0.00 0.00 0.00 0.00 0.00 0.00 0.00 0.00 0.00 0.00 0.00 0.00 0.00 0.00 0.00 0.00 0.00 0.00 0.01 0.03 0.10 0.19 0.17 0.17 0.15 0.07 0.05 0.00 0.00 0.00 0.00 0.00
0.00 0.00 0.00 0.00 0.02 0.02 0.04 0.04 0.49 0.15 0.63 0.56 0.05 0.01 0.03 0.00 0.00 0.00 0.00 0.00 0.00 0.00 0.00 0.00 0.00 0.00 0.00 0.00 0.00 0.00 0.00 0.00 0.01 0.00 0.02 0.02 0.01 0.05 0.10 0.12 0.12 0.14 0.18 0.14 0.02 0.00 0.00 0.00 0.00
0.00 0.00 0.00 0.00 0.00 0.01 0.06 0.06 0.14 0.17 0.06 0.18 0.10 0.03 0.04 0.00 0.00 0.00 0.00 0.00 0.00 0.00 0.00 0.00 0.00 0.00 0.00 0.00 0.00 0.00 0.00 0.00 0.02 0.00 0.02 0.01 0.00 0.00 0.01 0.08 0.10 0.15 0.14 0.12 0.08 0.05 0.00 0.00 0.00
0.00 0.00 0.00 0.00 0.00 0.01 0.03 0.07 0.06 0.20 0.20 0.16 0.17 0.02 0.01 0.00 0.00 0.00 0.00 0.00 0.00 0.00 0.00 0.00 0.00 0.00 0.00 0.00 0.00 0.01 0.01 0.01 0.00 0.03 0.01 0.00 0.00 0.00 0.02 0.06 0.13 0.15 0.22 0.11 0.07 0.04 0.01 0.00 0.00
0.00 0.00 0.00 0.00 0.00 0.00 0.00 0.01 0.01 0.09 0.32 0.56 0.29 0.05 0.01 0.00 0.00 0.00 0.00 0.00 0.00 0.00 0.00 0.00 0.00 0.00 0.00 0.00 0.00 0.00 0.00 0.00 0.00 0.00 0.00 0.00 0.00 0.00 0.00 0.05 0.09 0.13 0.20 0.17 0.07 0.02 0.02 0.01 0.00
0.00 0.00 0.00 0.00 0.00 0.00 0.00 0.00 0.00 0.01 0.24 0.60 0.42 0.14 0.00 0.00 0.00 0.00 0.00 0.00 0.00 0.00 0.00 0.00 0.00 0.00 0.00 0.00 0.00 0.00 0.00 0.00 0.00 0.00 0.00 0.01 0.01 0.00 0.00 0.01 0.06 0.10 0.14 0.16 0.14 0.15 0.05 0.02 0.00
0.00 0.00 0.00 0.00 0.00 0.00 0.00 0.00 0.00 0.00 0.00 0.11 0.17 0.08 0.00 0.00 0.00 0.00 0.00 0.00 0.00 0.00 0.00 0.00 0.00 0.00 0.00 0.00 0.00 0.00 0.00 0.00 0.00 0.00 0.00 0.00 0.01 0.00 0.01 0.03 0.06 0.06 0.04 0.08 0.12 0.11 0.05 0.01 0.01
0.00 0.00 0.00 0.00 0.00 0.00 0.00 0.00 0.00 0.00 0.00 0.01 0.10 0.23 0.02 0.00 0.00 0.00 0.00 0.00 0.00 0.00 0.00 0.00 0.00 0.00 0.00 0.00 0.00 0.00 0.00 0.00 0.00 0.01 0.00 0.00 0.00 0.00 0.00 0.00 0.03 0.03 0.03 0.05 0.09 0.11 0.10 0.01 0.00
0.00 0.00 0.00 0.00 0.00 0.00 0.00 0.00 0.00 0.00 0.00 0.00 0.03 0.13 0.12 0.04 0.00 0.00 0.00 0.00 0.00 0.00 0.00 0.00 0.00 0.00 0.00 0.00 0.00 0.00 0.00 0.00 0.00 0.00 0.00 0.00 0.00 0.00 0.00 0.00 0.00 0.01 0.03 0.04 0.06 0.03 0.02 0.02 0.00
0.00 0.00 0.00 0.00 0.00 0.00 0.00 0.00 0.00 0.00 0.00 0.00 0.00 0.08 0.16 0.19 0.08 0.02 0.00 0.00 0.00 0.00 0.00 0.00 0.00 0.00 0.00 0.00 0.00 0.00 0.00 0.00 0.00 0.00 0.00 0.00 0.00 0.00 0.00 0.00 0.00 0.00 0.00 0.01 0.03 0.01 0.04 0.07 0.03
0.00 0.00 0.00 0.00 0.00 0.00 0.00 0.00 0.00 0.00 0.00 0.00 0.00 0.00 0.06 0.28 0.47 0.18 0.09 0.02 0.01 0.00 0.00 0.00 0.00 0.00 0.00 0.00 0.00 0.00 0.00 0.00 0.00 0.00 0.00 0.00 0.00 0.00 0.00 0.00 0.00 0.00 0.00 0.00 0.01 0.00 0.01 0.02 0.02
0.00 0.00 0.00 0.00 0.00 0.00 0.00 0.00 0.00 0.00 0.00 0.00 0.00 0.00 0.01 0.07 0.34 0.51 0.33 0.04 0.02 0.00 0.00 0.00 0.00 0.00 0.00 0.00 0.00 0.00 0.00 0.00 0.00 0.00 0.00 0.00 0.00 0.00 0.00 0.00 0.00 0.00 0.00 0.00 0.00 0.00 0.01 0.01 0.01
0.00 0.00 0.00 0.00 0.00 0.00 0.00 0.00 0.00 0.00 0.00 0.00 0.00 0.00 0.00 0.01 0.09 0.31 0.51 0.12 0.02 0.00 0.00 0.00 0.00 0.00 0.00 0.00 0.00 0.00 0.00 0.00 0.00 0.00 0.00 0.00 0.00 0.00 0.00 0.00 0.00 0.00 0.00 0.00 0.00 0.00 0.00 0.00 0.00

GFSSGP_prec_precacc24_066.txt.gz
Total_Precipitation_Accumulation
0.00 0.00 0.00 0.05 0.23 0.11 0.37 1.50 0.88 0.49 0.09 0.01 0.00 0.01 0.02 0.09 0.20 0.20 0.00 0.00 0.00 0.00 0.02 0.08 0.14 0.12 0.14 0.11 0.05 0.03 0.07 0.03 0.04 0.03 0.06 0.08 0.16 0.21 0.10 0.15 0.15 0.14 0.14 0.02 0.04 0.04 0.17 0.14 0.08
0.00 0.00 0.10 0.96 0.55 0.39 0.65 1.31 0.78 0.22 0.05 0.01 0.01 0.05 0.08 0.02 0.00 0.01 0.00 0.00 0.00 0.00 0.00 0.00 0.08 0.08 0.04 0.08 0.04 0.05 0.02 0.02 0.04 0.08 0.16 0.14 0.25 0.14 0.14 0.20 0.37 0.42 0.41 0.26 0.15 0.09 0.03 0.08 0.13
0.00 0.09 0.99 1.05 0.42 0.96 2.48 1.85 0.88 0.28 0.12 0.04 0.04 0.08 0.05 0.02 0.00 0.00 0.00 0.00 0.00 0.00 0.00 0.00 0.05 0.04 0.04 0.08 0.08 0.08 0.05 0.03 0.03 0.11 0.14 0.18 0.18 0.12 0.17 0.10 0.13 0.14 0.09 0.09 0.10 0.09 0.10 0.13 0.19
0.00 0.20 0.62 0.37 0.45 1.34 1.47 1.66 1.26 0.32 0.20 0.07 0.15 0.07 0.01 0.00 0.00 0.00 0.00 0.00 0.00 0.00 0.00 0.01 0.03 0.05 0.04 0.05 0.09 0.07 0.08 0.09 0.09 0.16 0.15 0.17 0.12 0.09 0.09 0.08 0.06 0.05 0.01 0.01 0.01 0.06 0.12 0.12 0.18
0.03 0.41 0.42 0.38 0.99 1.09 0.58 0.60 0.93 0.62 0.32 0.36 0.15 0.05 0.01 0.00 0.00 0.00 0.01 0.00 0.00 0.00 0.00 0.01 0.05 0.07 0.04 0.06 0.06 0.04 0.05 0.02 0.11 0.17 0.08 0.08 0.10 0.09 0.07 0.07 0.03 0.02 0.01 0.03 0.06 0.08 0.09 0.09 0.20
0.12 0.24 0.25 0.36 0.75 1.53 0.62 0.71 0.70 0.52 0.66 0.76 0.18 0.03 0.01 0.02 0.00 0.01 0.00 0.00 0.00 0.00 0.00 0.01 0.03 0.08 0.08 0.05 0.02 0.04 0.01 0.02 0.06 0.16 0.12 0.06 0.07 0.06 0.03 0.02 0.02 0.01 0.03 0.08 0.05 0.03 0.11 0.10 0.21
0.13 0.25 0.19 0.32 0.50 1.18 0.83 0.82 0.97 0.36 0.43 0.27 0.10 0.05 0.03 0.04 0.01 0.00 0.00 0.00 0.00 0.00 0.00 0.01 0.03 0.05 0.04 0.05 0.02 0.02 0.01 0.02 0.06 0.10 0.13 0.05 0.00 0.01 0.03 0.04 0.07 0.04 0.08 0.07 0.05 0.04 0.04 0.06 0.14
0.15 0.20 0.24 0.19 0.36 1.01 0.32 0.26 0.61 0.49 0.35 0.29 0.12 0.08 0.02 0.02 0.01 0.00 0.00 0.00 0.00 0.00 0.00 0.01 0.02 0.01 0.00 0.02 0.05 0.03 0.01 0.01 0.06 0.06 0.03 0.07 0.02 0.02 0.06 0.15 0.16 0.08 0.06 0.03 0.06 0.06 0.07 0.04 0.08
0.04 0.19 0.25 0.19 0.32 0.66 0.27 0.25 0.31 0.62 0.32 0.09 0.14 0.12 0.01 0.01 0.01 0.01 0.01 0.01 0.01 0.01 0.00 0.00 0.01 0.00 0.01 0.00 0.04 0.04 0.02 0.02 0.05 0.04 0.09 0.10 0.01 0.01 0.02 0.08 0.09 0.10 0.10 0.07 0.07 0.04 0.06 0.06 0.02
0.04 0.29 0.56 0.11 0.13 0.28 0.18 0.15 0.18 0.25 0.19 0.34 0.16 0.09 0.00 0.01 0.01 0.00 0.00 0.00 0.00 0.00 0.00 0.00 0.00 0.00 0.00 0.00 0.01 0.01 0.01 0.02 0.06 0.03 0.02 0.03 0.06 0.00 0.01 0.09 0.06 0.02 0.04 0.03 0.01 0.02 0.12 0.15 0.06
0.04 0.09 0.11 0.04 0.04 0.21 0.52 0.52 0.33 0.13 0.21 0.82 0.37 0.07 0.00 0.00 0.00 0.00 0.00 0.00 0.00 0.00 0.00 0.00 0.00 0.00 0.00 0.00 0.00 0.00 0.01 0.02 0.00 0.04 0.05 0.03 0.01 0.01 0.04 0.03 0.05 0.02 0.02 0.00 0.01 0.07 0.15 0.14 0.18
0.04 0.01 0.04 0.04 0.01 0.06 0.43 0.81 0.98 0.65 0.60 0.32 0.21 0.05 0.00 0.00 0.00 0.00 0.00 0.00 0.00 0.00 0.00 0.00 0.00 0.00 0.00 0.00 0.00 0.02 0.08 0.01 0.00 0.00 0.02 0.08 0.05 0.05 0.25 0.11 0.08 0.08 0.03 0.05 0.10 0.16 0.14 0.12 0.19
0.00 0.02 0.01 0.04 0.07 0.13 0.16 0.31 1.08 0.57 1.19 0.53 0.16 0.03 0.00 0.00 0.00 0.00 0.00 0.00 0.00 0.00 0.00 0.00 0.00 0.00 0.01 0.00 0.01 0.01 0.01 0.00 0.00 0.00 0.02 0.13 0.16 0.14 0.13 0.10 0.16 0.08 0.09 0.07 0.07 0.06 0.00 0.07 0.01
0.00 0.01 0.03 0.01 0.04 0.11 0.12 0.06 0.08 0.24 0.33 0.32 0.08 0.00 0.00 0.00 0.00 0.00 0.00 0.00 0.00 0.00 0.00 0.00 0.00 0.01 0.02 0.00 0.02 0.01 0.00 0.00 0.00 0.00 0.00 0.16 0.11 0.19 0.17 0.13 0.13 0.13 0.07 0.04 0.04 0.02 0.00 0.02 0.00
0.00 0.00 0.00 0.02 0.01 0.08 0.11 0.08 0.05 0.32 0.39 0.15 0.04 0.00 0.00 0.00 0.00 0.00 0.00 0.00 0.00 0.00 0.00 0.00 0.00 0.00 0.00 0.01 0.00 0.00 0.00 0.00 0.00 0.00 0.00 0.04 0.06 0.08 0.14 0.10 0.08 0.06 0.06 0.02 0.01 0.01 0.00 0.00 0.00
0.00 0.00 0.00 0.00 0.02 0.02 0.11 0.13 0.14 0.31 0.36 0.03 0.01 0.00 0.00 0.00 0.00 0.00 0.00 0.00 0.00 0.00 0.00 0.00 0.00 0.00 0.00 0.00 0.00 0.00 0.00 0.00 0.00 0.00 0.00 0.02 0.07 0.17 0.24 0.19 0.12 0.02 0.01 0.03 0.04 0.01 0.00 0.00 0.00
0.00 0.00 0.00 0.01 0.01 0.01 0.03 0.16 0.27 0.25 0.24 0.10 0.00 0.00 0.00 0.00 0.00 0.00 0.00 0.00 0.00 0.00 0.00 0.00 0.00 0.00 0.00 0.00 0.00 0.00 0.00 0.00 0.00 0.00 0.00 0.00 0.06 0.16 0.25 0.26 0.28 0.08 0.05 0.05 0.04 0.01 0.00 0.00 0.00
0.00 0.00 0.00 0.00 0.01 0.01 0.07 0.08 0.50 0.45 1.45 0.52 0.08 0.00 0.00 0.00 0.00 0.00 0.00 0.00 0.00 0.00 0.00 0.00 0.00 0.00 0.00 0.00 0.00 0.00 0.00 0.00 0.00 0.00 0.00 0.01 0.03 0.11 0.19 0.16 0.18 0.15 0.05 0.03 0.00 0.00 0.00 0.00 0.00
0.00 0.00 0.00 0.00 0.02 0.02 0.07 0.04 0.51 0.16 0.70 0.70 0.06 0.01 0.00 0.00 0.00 0.00 0.00 0.00 0.00 0.00 0.00 0.00 0.00 0.00 0.00 0.00 0.00 0.00 0.00 0.00 0.01 0.00 0.03 0.03 0.01 0.06 0.10 0.12 0.12 0.13 0.16 0.14 0.02 0.00 0.00 0.00 0.00
0.00 0.00 0.00 0.00 0.00 0.01 0.06 0.09 0.23 0.22 0.07 0.20 0.12 0.02 0.03 0.00 0.00 0.00 0.00 0.00 0.00 0.00 0.00 0.00 0.00 0.00 0.00 0.00 0.00 0.00 0.00 0.00 0.02 0.00 0.02 0.01 0.00 0.00 0.01 0.08 0.10 0.16 0.14 0.12 0.08 0.05 0.00 0.00 0.00
0.00 0.00 0.00 0.00 0.00 0.02 0.16 0.27 0.15 0.26 0.21 0.18 0.37 0.13 0.04 0.00 0.00 0.00 0.00 0.00 0.00 0.00 0.00 0.00 0.00 0.00 0.00 0.00 0.00 0.01 0.01 0.01 0.00 0.03 0.01 0.00 0.00 0.00 0.02 0.06 0.13 0.14 0.22 0.10 0.07 0.04 0.01 0.00 0.00
0.00 0.00 0.00 0.00 0.00 0.00 0.04 0.17 0.18 0.17 0.33 0.56 0.54 0.42 0.07 0.00 0.00 0.00 0.00 0.00 0.00 0.00 0.00 0.00 0.00 0.00 0.00 0.00 0.00 0.00 0.00 0.00 0.00 0.00 0.00 0.00 0.00 0.00 0.00 0.05 0.09 0.13 0.20 0.17 0.07 0.02 0.02 0.01 0.00
0.00 0.00 0.00 0.00 0.00 0.00 0.00 0.01 0.01 0.03 0.25 0.60 0.43 0.24 0.04 0.01 0.00 0.00 0.00 0.00 0.00 0.00 0.00 0.00 0.00 0.00 0.00 0.00 0.00 0.00 0.00 0.00 0.00 0.00 0.00 0.01 0.01 0.00 0.00 0.01 0.06 0.10 0.14 0.16 0.14 0.15 0.05 0.02 0.00
0.00 0.00 0.00 0.00 0.00 0.00 0.00 0.00 0.00 0.00 0.00 0.11 0.17 0.09 0.01 0.00 0.00 0.00 0.00 0.00 0.00 0.00 0.00 0.00 0.00 0.00 0.00 0.00 0.00 0.00 0.00 0.00 0.00 0.00 0.00 0.00 0.01 0.00 0.01 0.03 0.06 0.06 0.04 0.08 0.12 0.11 0.05 0.01 0.01
0.00 0.00 0.00 0.00 0.00 0.00 0.00 0.00 0.00 0.00 0.00 0.01 0.10 0.23 0.02 0.00 0.00 0.00 0.00 0.00 0.00 0.00 0.00 0.00 0.00 0.00 0.00 0.00 0.00 0.00 0.00 0.00 0.00 0.01 0.00 0.00 0.00 0.00 0.00 0.00 0.03 0.03 0.03 0.05 0.09 0.11 0.10 0.01 0.00
0.00 0.00 0.00 0.00 0.00 0.00 0.00 0.00 0.00 0.00 0.00 0.00 0.03 0.14 0.12 0.04 0.00 0.00 0.00 0.00 0.00 0.00 0.00 0.00 0.00 0.00 0.00 0.00 0.00 0.00 0.00 0.00 0.00 0.00 0.00 0.00 0.00 0.00 0.00 0.00 0.00 0.01 0.03 0.04 0.06 0.03 0.02 0.02 0.00
0.00 0.00 0.00 0.00 0.00 0.00 0.00 0.00 0.00 0.00 0.00 0.00 0.00 0.08 0.16 0.19 0.08 0.02 0.00 0.00 0.00 0.00 0.00 0.00 0.00 0.00 0.00 0.00 0.00 0.00 0.00 0.00 0.00 0.00 0.00 0.00 0.00 0.00 0.00 0.00 0.00 0.00 0.00 0.01 0.03 0.01 0.04 0.07 0.03
0.00 0.00 0.00 0.00 0.00 0.00 0.00 0.00 0.00 0.00 0.00 0.00 0.00 0.00 0.06 0.28 0.47 0.18 0.09 0.03 0.02 0.01 0.00 0.00 0.00 0.00 0.00 0.00 0.00 0.00 0.00 0.00 0.00 0.00 0.00 0.00 0.00 0.00 0.00 0.00 0.00 0.00 0.00 0.00 0.01 0.00 0.01 0.02 0.02
0.00 0.00 0.00 0.00 0.00 0.00 0.00 0.00 0.00 0.00 0.00 0.00 0.00 0.00 0.01 0.07 0.35 0.51 0.35 0.06 0.02 0.00 0.00 0.00 0.00 0.00 0.00 0.00 0.00 0.00 0.00 0.00 0.00 0.00 0.00 0.00 0.00 0.00 0.00 0.00 0.00 0.00 0.00 0.00 0.00 0.00 0.01 0.01 0.01
0.00 0.00 0.00 0.00 0.00 0.00 0.00 0.00 0.00 0.00 0.00 0.00 0.00 0.00 0.00 0.01 0.10 0.31 0.51 0.12 0.02 0.00 0.00 0.00 0.00 0.00 0.00 0.00 0.00 0.00 0.00 0.00 0.00 0.00 0.00 0.00 0.00 0.00 0.00 0.00 0.00 0.00 0.00 0.00 0.00 0.00 0.00 0.00 0.00

GFSSGP_prec_precacc24_072.txt.gz
Total_Precipitation_Accumulation
0.00 0.00 0.00 0.04 0.14 0.08 0.35 1.56 0.98 0.65 0.12 0.01 0.00 0.00 0.02 0.09 0.20 0.20 0.00 0.00 0.00 0.00 0.00 0.07 0.13 0.10 0.13 0.11 0.04 0.02 0.06 0.02 0.03 0.02 0.00 0.01 0.05 0.04 0.02 0.09 0.14 0.11 0.10 0.02 0.05 0.07 0.21 0.16 0.08
0.00 0.00 0.03 0.60 0.31 0.46 0.72 1.23 0.92 0.37 0.08 0.00 0.01 0.04 0.07 0.02 0.00 0.00 0.00 0.00 0.00 0.00 0.00 0.07 0.10 0.08 0.04 0.08 0.04 0.05 0.02 0.02 0.03 0.02 0.05 0.05 0.09 0.04 0.13 0.22 0.36 0.29 0.20 0.10 0.06 0.04 0.05 0.05 0.10
0.00 0.03 0.61 0.71 0.31 1.51 2.80 1.80 1.06 0.28 0.05 0.01 0.07 0.07 0.08 0.03 0.00 0.00 0.00 0.00 0.00 0.00 0.00 0.02 0.07 0.04 0.04 0.09 0.07 0.07 0.04 0.05 0.03 0.04 0.08 0.09 0.15 0.11 0.21 0.14 0.13 0.08 0.12 0.08 0.07 0.07 0.05 0.11 0.31
0.00 0.12 0.35 0.27 0.63 1.66 1.26 1.46 1.37 0.30 0.12 0.17 0.24 0.17 0.09 0.01 0.00 0.00 0.00 0.00 0.00 0.00 0.00 0.01 0.03 0.04 0.04 0.06 0.11 0.07 0.09 0.10 0.06 0.11 0.15 0.14 0.09 0.09 0.10 0.08 0.07 0.09 0.11 0.08 0.05 0.06 0.14 0.17 0.15
0.02 0.35 0.39 0.49 1.20 1.32 0.47 0.52 0.94 0.36 0.21 0.37 0.23 0.13 0.08 0.01 0.00 0.00 0.00 0.00 0.00 0.00 0.00 0.01 0.06 0.07 0.06 0.06 0.05 0.06 0.11 0.06 0.05 0.13 0.09 0.10 0.12 0.10 0.09 0.08 0.04 0.04 0.04 0.03 0.06 0.11 0.15 0.15 0.18
0.11 0.23 0.25 0.41 0.96 1.79 0.82 0.45 0.48 0.44 0.46 0.66 0.22 0.06 0.03 0.02 0.00 0.00 0.00 0.00 0.00 0.00 0.00 0.01 0.04 0.09 0.10 0.08 0.07 0.08 0.04 0.04 0.07 0.16 0.14 0.08 0.09 0.09 0.09 0.02 0.02 0.01 0.02 0.05 0.02 0.03 0.15 0.15 0.13
0.12 0.25 0.19 0.35 0.67 2.71 1.96 1.01 0.67 0.35 0.25 0.24 0.11 0.05 0.06 0.04 0.01 0.00 0.00 0.00 0.00 0.00 0.00 0.01 0.03 0.08 0.14 0.13 0.12 0.06 0.03 0.05 0.07 0.11 0.19 0.10 0.04 0.06 0.04 0.05 0.06 0.03 0.05 0.06 0.03 0.04 0.07 0.04 0.07
0.14 0.20 0.24 0.19 0.40 1.26 0.67 0.48 0.62 0.38 0.22 0.21 0.11 0.08 0.03 0.02 0.01 0.00 0.00 0.00 0.00 0.00 0.00 0.00 0.03 0.02 0.03 0.04 0.08 0.05 0.02 0.03 0.07 0.08 0.04 0.08 0.05 0.08 0.07 0.09 0.11 0.06 0.03 0.00 0.01 0.03 0.04 0.01 0.05
0.04 0.19 0.24 0.18 0.28 0.69 0.35 0.39 0.60 0.60 0.28 0.10 0.16 0.12 0.01 0.01 0.01 0.01 0.01 0.01 0.01 0.00 0.00 0.00 0.01 0.00 0.01 0.00 0.05 0.05 0.03 0.02 0.07 0.05 0.11 0.14 0.08 0.03 0.03 0.05 0.07 0.07 0.03 0.01 0.01 0.00 0.04 0.03 0.02
0.08 0.31 0.56 0.11 0.11 0.26 0.14 0.26 0.28 0.20 0.25 0.41 0.21 0.09 0.00 0.01 0.01 0.00 0.00 0.00 0.00 0.00 0.00 0.00 0.00 0.00 0.00 0.00 0.01 0.01 0.01 0.04 0.07 0.03 0.02 0.03 0.06 0.01 0.01 0.09 0.06 0.02 0.02 0.02 0.04 0.03 0.12 0.15 0.05
0.14 0.11 0.11 0.04 0.06 0.26 0.59 0.60 0.47 0.18 0.35 1.01 0.77 0.08 0.00 0.00 0.00 0.00 0.00 0.00 0.00 0.00 0.00 0.00 0.00 0.00 0.00 0.00 0.00 0.00 0.01 0.02 0.01 0.04 0.05 0.03 0.01 0.01 0.04 0.03 0.05 0.01 0.04 0.06 0.03 0.08 0.15 0.14 0.18
0.06 0.01 0.04 0.04 0.02 0.12 0.75 0.95 1.11 0.72 0.76 0.40 0.27 0.05 0.00 0.00 0.00 0.00 0.00 0.00 0.00 0.00 0.00 0.00 0.00 0.00 0.00 0.00 0.00 0.02 0.08 0.01 0.00 0.00 0.02 0.08 0.05 0.05 0.25 0.11 0.08 0.08 0.03 0.05 0.10 0.16 0.14 0.12 0.19
0.00 0.02 0.01 0.04 0.07 0.19 0.33 0.37 1.18 0.73 1.37 0.72 0.22 0.04 0.00 0.00 0.00 0.00 0.00 0.00 0.00 0.00 0.00 0.00 0.00 0.00 0.01 0.00 0.01 0.01 0.01 0.00 0.00 0.01 0.02 0.13 0.16 0.14 0.13 0.10 0.12 0.07 0.08 0.04 0.03 0.03 0.00 0.07 0.01
0.00 0.01 0.03 0.01 0.04 0.13 0.17 0.09 0.09 0.25 0.41 0.61 0.27 0.03 0.00 0.00 0.00 0.00 0.00 0.00 0.00 0.00 0.00 0.00 0.00 0.01 0.02 0.00 0.02 0.01 0.00 0.00 0.00 0.03 0.02 0.16 0.11 0.18 0.15 0.11 0.11 0.12 0.07 0.03 0.01 0.01 0.01 0.02 0.00
0.00 0.00 0.00 0.02 0.01 0.09 0.18 0.12 0.08 0.35 0.48 0.45 0.24 0.04 0.00 0.00 0.00 0.00 0.00 0.00 0.00 0.00 0.00 0.00 0.00 0.00 0.00 0.02 0.01 0.00 0.00 0.00 0.00 0.00 0.00 0.04 0.06 0.08 0.14 0.10 0.08 0.06 0.06 0.02 0.00 0.01 0.00 0.00 0.00
0.00 0.00 0.00 0.00 0.05 0.10 0.18 0.22 0.16 0.32 0.45 0.18 0.08 0.01 0.00 0.00 0.00 0.00 0.00 0.00 0.00 0.00 0.00 0.00 0.00 0.00 0.00 0.00 0.00 0.01 0.00 0.00 0.00 0.00 0.00 0.03 0.06 0.17 0.25 0.19 0.12 0.02 0.01 0.01 0.00 0.00 0.00 0.00 0.00
0.00 0.00 0.00 0.03 0.11 0.08 0.14 0.20 0.28 0.26 0.25 0.11 0.00 0.00 0.00 0.00 0.00 0.00 0.00 0.00 0.00 0.00 0.00 0.00 0.00 0.00 0.00 0.00 0.00 0.00 0.00 0.00 0.00 0.00 0.02 0.06 0.06 0.17 0.31 0.24 0.28 0.08 0.04 0.00 0.00 0.00 0.00 0.00 0.00
0.00 0.00 0.00 0.00 0.03 0.03 0.08 0.09 0.54 0.50 1.46 0.53 0.08 0.00 0.00 0.00 0.00 0.00 0.00 0.00 0.00 0.00 0.00 0.00 0.00 0.00 0.00 0.04 0.01 0.00 0.00 0.00 0.01 0.01 0.05 0.07 0.04 0.11 0.22 0.16 0.17 0.16 0.05 0.02 0.00 0.00 0.00 0.00 0.00
0.00 0.00 0.00 0.00 0.02 0.02 0.07 0.04 0.52 0.19 0.72 0.70 0.06 0.01 0.00 0.00 0.00 0.00 0.00 0.00 0.00 0.00 0.00 0.00 0.00 0.00 0.00 0.01 0.00 0.00 0.00 0.00 0.01 0.00 0.07 0.13 0.08 0.07 0.10 0.14 0.13 0.13 0.13 0.14 0.01 0.00 0.00 0.00 0.00
0.00 0.00 0.00 0.00 0.00 0.01 0.06 0.11 0.30 0.25 0.14 0.20 0.12 0.02 0.03 0.00 0.00 0.00 0.00 0.00 0.00 0.00 0.00 0.00 0.00 0.00 0.00 0.00 0.00 0.00 0.00 0.00 0.02 0.01 0.06 0.13 0.09 0.11 0.03 0.09 0.13 0.14 0.12 0.09 0.07 0.05 0.00 0.00 0.00
0.00 0.00 0.00 0.00 0.00 0.02 0.18 0.37 0.26 0.30 0.24 0.19 0.43 0.13 0.04 0.00 0.01 0.00 0.00 0.00 0.00 0.00 0.00 0.00 0.00 0.00 0.00 0.00 0.00 0.01 0.01 0.01 0.00 0.03 0.03 0.02 0.06 0.06 0.08 0.07 0.15 0.14 0.14 0.07 0.07 0.04 0.01 0.00 0.00
0.00 0.00 0.00 0.00 0.00 0.00 0.05 0.21 0.28 0.32 0.36 0.58 0.57 0.42 0.07 0.00 0.00 0.00 0.00 0.00 0.00 0.00 0.00 0.00 0.00 0.00 0.00 0.00 0.00 0.00 0.00 0.00 0.00 0.00 0.01 0.00 0.00 0.02 0.07 0.09 0.11 0.14 0.16 0.14 0.07 0.02 0.02 0.01 0.00
0.00 0.00 0.00 0.00 0.00 0.00 0.00 0.02 0.03 0.09 0.27 0.61 0.43 0.24 0.05 0.01 0.00 0.00 0.00 0.00 0.00 0.00 0.00 0.00 0.00 0.00 0.00 0.00 0.00 0.00 0.00 0.00 0.00 0.00 0.01 0.01 0.01 0.00 0.04 0.04 0.08 0.11 0.13 0.14 0.12 0.15 0.05 0.02 0.00
0.00 0.00 0.00 0.00 0.00 0.00 0.00 0.00 0.00 0.00 0.01 0.11 0.17 0.09 0.01 0.00 0.00 0.00 0.00 0.00 0.00 0.00 0.00 0.00 0.00 0.00 0.00 0.00 0.00 0.00 0.00 0.00 0.00 0.00 0.00 0.00 0.01 0.00 0.01 0.04 0.08 0.07 0.04 0.07 0.11 0.11 0.05 0.01 0.01
0.00 0.00 0.00 0.00 0.00 0.00 0.00 0.00 0.00 0.00 0.00 0.01 0.10 0.23 0.02 0.00 0.00 0.00 0.00 0.00 0.00 0.00 0.00 0.00 0.00 0.00 0.00 0.00 0.00 0.00 0.00 0.00 0.00 0.01 0.00 0.00 0.00 0.00 0.00 0.00 0.03 0.07 0.04 0.05 0.09 0.11 0.10 0.01 0.00
0.00 0.00 0.00 0.00 0.00 0.00 0.00 0.00 0.00 0.00 0.00 0.00 0.03 0.14 0.12 0.04 0.00 0.00 0.00 0.00 0.00 0.00 0.00 0.00 0.00 0.00 0.00 0.00 0.00 0.00 0.00 0.00 0.00 0.00 0.00 0.00 0.00 0.00 0.00 0.00 0.00 0.02 0.05 0.04 0.06 0.03 0.02 0.02 0.00
0.00 0.00 0.00 0.00 0.00 0.00 0.00 0.00 0.00 0.00 0.00 0.00 0.00 0.08 0.16 0.19 0.08 0.02 0.00 0.00 0.00 0.00 0.00 0.00 0.00 0.00 0.00 0.00 0.00 0.00 0.00 0.00 0.00 0.00 0.00 0.00 0.00 0.00 0.00 0.01 0.00 0.00 0.03 0.02 0.03 0.01 0.04 0.08 0.03
0.00 0.00 0.00 0.00 0.00 0.00 0.00 0.00 0.00 0.00 0.00 0.00 0.00 0.00 0.06 0.28 0.47 0.18 0.09 0.03 0.02 0.01 0.00 0.00 0.00 0.00 0.00 0.00 0.00 0.00 0.00 0.00 0.00 0.00 0.00 0.00 0.00 0.00 0.00 0.01 0.04 0.04 0.03 0.00 0.01 0.00 0.01 0.02 0.02
0.00 0.00 0.00 0.00 0.00 0.00 0.00 0.00 0.00 0.00 0.00 0.00 0.00 0.00 0.01 0.07 0.35 0.51 0.36 0.07 0.02 0.00 0.00 0.00 0.00 0.00 0.00 0.00 0.00 0.00 0.00 0.00 0.00 0.00 0.00 0.00 0.00 0.00 0.00 0.00 0.00 0.01 0.02 0.02 0.04 0.01 0.01 0.01 0.01
0.00 0.00 0.00 0.00 0.00 0.00 0.00 0.00 0.00 0.00 0.00 0.00 0.00 0.00 0.00 0.01 0.10 0.33 0.58 0.24 0.15 0.05 0.01 0.02 0.00 0.00 0.00 0.00 0.00 0.00 0.00 0.00 0.00 0.00 0.00 0.00 0.00 0.00 0.00 0.00 0.00 0.00 0.00 0.00 0.00 0.00 0.00 0.00 0.00

GFSSGP_prec_precacc24_075.txt.gz
Total_Precipitation_Accumulation
0.00 0.00 0.00 0.03 0.11 0.08 0.35 1.58 1.02 0.70 0.15 0.01 0.00 0.00 0.02 0.09 0.20 0.20 0.00 0.00 0.00 0.00 0.00 0.06 0.11 0.10 0.13 0.10 0.04 0.02 0.06 0.03 0.02 0.01 0.00 0.01 0.03 0.03 0.03 0.08 0.12 0.06 0.09 0.03 0.05 0.07 0.21 0.17 0.08
0.00 0.00 0.02 0.29 0.23 0.46 0.79 1.25 0.97 0.45 0.10 0.00 0.01 0.04 0.07 0.02 0.00 0.00 0.00 0.00 0.00 0.00 0.00 0.07 0.09 0.07 0.04 0.07 0.03 0.05 0.01 0.01 0.02 0.02 0.07 0.06 0.03 0.04 0.11 0.11 0.21 0.14 0.10 0.10 0.07 0.05 0.06 0.11 0.17
0.00 0.02 0.30 0.36 0.23 1.53 2.80 1.86 1.09 0.28 0.01 0.01 0.07 0.07 0.08 0.03 0.00 0.00 0.00 0.00 0.00 0.00 0.00 0.02 0.05 0.03 0.03 0.08 0.07 0.07 0.04 0.04 0.08 0.09 0.23 0.14 0.10 0.19 0.20 0.07 0.08 0.07 0.13 0.09 0.07 0.07 0.07 0.21 0.42
0.00 0.10 0.25 0.23 0.59 1.64 1.29 1.51 1.41 0.24 0.10 0.18 0.25 0.17 0.09 0.01 0.00 0.00 0.00 0.00 0.00 0.00 0.00 0.01 0.02 0.04 0.03 0.04 0.10 0.07 0.09 0.10 0.06 0.05 0.13 0.09 0.07 0.08 0.06 0.04 0.06 0.10 0.12 0.08 0.06 0.09 0.23 0.29 0.31
0.02 0.31 0.33 0.47 1.26 1.52 0.45 0.48 0.91 0.29 0.18 0.37 0.23 0.13 0.08 0.01 0.00 0.00 0.00 0.00 0.00 0.00 0.00 0.01 0.05 0.07 0.04 0.04 0.05 0.06 0.11 0.07 0.06 0.10 0.09 0.09 0.12 0.10 0.09 0.06 0.03 0.04 0.06 0.05 0.07 0.16 0.26 0.27 0.28
0.11 0.22 0.24 0.41 1.01 1.97 0.85 0.45 0.43 0.47 0.36 0.65 0.23 0.06 0.04 0.01 0.00 0.00 0.00 0.00 0.00 0.00 0.00 0.00 0.04 0.08 0.08 0.07 0.07 0.08 0.05 0.05 0.05 0.09 0.11 0.09 0.09 0.10 0.10 0.02 0.01 0.01 0.01 0.05 0.02 0.04 0.31 0.27 0.18
0.11 0.26 0.19 0.36 0.66 2.81 2.00 1.01 0.61 0.40 0.23 0.26 0.14 0.06 0.06 0.03 0.00 0.00 0.00 0.00 0.00 0.00 0.00 0.00 0.02 0.08 0.14 0.15 0.14 0.07 0.03 0.04 0.04 0.07 0.17 0.10 0.08 0.11 0.05 0.05 0.03 0.01 0.01 0.04 0.06 0.12 0.15 0.11 0.14
0.13 0.20 0.25 0.20 0.38 1.22 0.68 0.58 0.86 0.42 0.20 0.24 0.12 0.08 0.03 0.02 0.00 0.00 0.00 0.00 0.00 0.00 0.00 0.00 0.02 0.02 0.03 0.05 0.09 0.06 0.02 0.02 0.07 0.07 0.04 0.08 0.06 0.07 0.09 0.08 0.02 0.02 0.00 0.00 0.02 0.03 0.04 0.04 0.08
0.04 0.19 0.24 0.18 0.27 0.68 0.38 0.55 1.16 0.73 0.23 0.10 0.16 0.12 0.01 0.01 0.01 0.00 0.00 0.01 0.00 0.00 0.00 0.00 0.01 0.00 0.01 0.01 0.06 0.05 0.03 0.03 0.08 0.05 0.10 0.14 0.08 0.04 0.04 0.04 0.01 0.01 0.02 0.01 0.05 0.00 0.04 0.03 0.07
0.08 0.31 0.56 0.11 0.11 0.34 0.23 0.67 0.40 0.16 0.24 0.41 0.21 0.09 0.01 0.01 0.00 0.00 0.00 0.00 0.00 0.00 0.00 0.00 0.00 0.00 0.00 0.01 0.02 0.01 0.01 0.05 0.07 0.03 0.02 0.03 0.06 0.01 0.01 0.03 0.03 0.00 0.01 0.03 0.05 0.03 0.13 0.15 0.05
0.15 0.11 0.11 0.04 0.06 0.31 0.74 0.77 0.47 0.18 0.39 1.02 0.77 0.08 0.01 0.00 0.00 0.00 0.00 0.00 0.00 0.00 0.00 0.00 0.00 0.00 0.00 0.00 0.00 0.00 0.01 0.02 0.01 0.04 0.05 0.03 0.01 0.01 0.04 0.02 0.03 0.00 0.04 0.06 0.03 0.10 0.15 0.14 0.18
0.08 0.01 0.04 0.04 0.03 0.14 0.87 1.06 1.19 0.75 0.81 0.41 0.28 0.05 0.00 0.00 0.00 0.00 0.00 0.00 0.00 0.00 0.00 0.00 0.00 0.00 0.00 0.00 0.00 0.02 0.08 0.01 0.00 0.00 0.02 0.08 0.05 0.05 0.25 0.11 0.08 0.08 0.03 0.05 0.10 0.16 0.14 0.12 0.19
0.00 0.02 0.01 0.04 0.07 0.19 0.33 0.42 1.24 0.78 1.38 0.73 0.22 0.04 0.00 0.00 0.00 0.00 0.00 0.00 0.00 0.00 0.00 0.00 0.00 0.00 0.01 0.00 0.01 0.01 0.01 0.00 0.00 0.01 0.02 0.13 0.16 0.14 0.13 0.10 0.12 0.07 0.08 0.04 0.03 0.03 0.00 0.07 0.01
0.00 0.00 0.03 0.01 0.04 0.13 0.18 0.13 0.09 0.28 0.43 0.61 0.27 0.03 0.00 0.00 0.00 0.00 0.00 0.00 0.00 0.00 0.00 0.00 0.00 0.01 0.02 0.00 0.02 0.01 0.00 0.00 0.00 0.03 0.02 0.16 0.11 0.18 0.14 0.10 0.11 0.11 0.07 0.03 0.01 0.01 0.01 0.02 0.00
0.00 0.00 0.00 0.02 0.01 0.09 0.21 0.22 0.08 0.38 0.53 0.47 0.25 0.05 0.00 0.00 0.00 0.00 0.00 0.00 0.00 0.00 0.00 0.00 0.00 0.00 0.00 0.02 0.01 0.00 0.00 0.00 0.00 0.00 0.00 0.04 0.06 0.08 0.14 0.10 0.08 0.05 0.06 0.01 0.00 0.01 0.00 0.00 0.00
0.00 0.00 0.00 0.00 0.05 0.10 0.22 0.28 0.16 0.43 0.66 0.23 0.11 0.04 0.00 0.00 0.00 0.00 0.00 0.00 0.00 0.00 0.00 0.00 0.00 0.00 0.00 0.00 0.00 0.01 0.00 0.00 0.00 0.00 0.00 0.03 0.07 0.17 0.25 0.18 0.12 0.02 0.01 0.01 0.00 0.00 0.00 0.00 0.00
0.00 0.00 0.00 0.03 0.11 0.09 0.19 0.31 0.30 0.26 0.29 0.14 0.01 0.01 0.00 0.00 0.00 0.00 0.00 0.00 0.00 0.00 0.00 0.00 0.00 0.00 0.00 0.00 0.00 0.00 0.00 0.00 0.01 0.00 0.02 0.06 0.06 0.17 0.31 0.16 0.24 0.08 0.03 0.00 0.00 0.00 0.00 0.00 0.00
0.00 0.00 0.00 0.00 0.03 0.03 0.08 0.12 0.54 0.51 1.47 0.53 0.09 0.01 0.00 0.00 0.00 0.00 0.00 0.00 0.00 0.00 0.00 0.00 0.00 0.00 0.00 0.04 0.01 0.00 0.00 0.00 0.02 0.01 0.05 0.07 0.04 0.11 0.21 0.10 0.15 0.15 0.03 0.00 0.00 0.00 0.00 0.00 0.00
0.00 0.00 0.00 0.00 0.02 0.02 0.06 0.04 0.52 0.20 0.74 0.70 0.06 0.01 0.00 0.00 0.00 0.00 0.00 0.00 0.00 0.00 0.00 0.00 0.00 0.00 0.00 0.01 0.00 0.00 0.00 0.00 0.01 0.00 0.07 0.13 0.08 0.07 0.11 0.14 0.12 0.12 0.08 0.08 0.01 0.00 0.00 0.00 0.00
0.00 0.00 0.00 0.00 0.00 0.01 0.05 0.10 0.30 0.26 0.20 0.25 0.12 0.02 0.03 0.00 0.00 0.00 0.00 0.00 0.00 0.00 0.00 0.00 0.00 0.00 0.00 0.00 0.00 0.00 0.00 0.00 0.02 0.02 0.06 0.13 0.09 0.11 0.03 0.09 0.13 0.08 0.09 0.08 0.07 0.05 0.00 0.00 0.00
0.00 0.00 0.00 0.00 0.00 0.02 0.18 0.36 0.26 0.30 0.24 0.23 0.44 0.13 0.04 0.00 0.01 0.00 0.00 0.00 0.00 0.00 0.00 0.00 0.00 0.00 0.00 0.00 0.00 0.01 0.01 0.01 0.00 0.03 0.03 0.02 0.06 0.06 0.08 0.07 0.15 0.09 0.08 0.06 0.07 0.04 0.01 0.00 0.00
0.00 0.00 0.00 0.00 0.00 0.00 0.05 0.21 0.28 0.32 0.36 0.58 0.58 0.42 0.07 0.00 0.00 0.00 0.00 0.00 0.00 0.00 0.00 0.00 0.00 0.00 0.00 0.00 0.00 0.00 0.00 0.00 0.00 0.00 0.01 0.00 0.00 0.02 0.07 0.09 0.12 0.13 0.15 0.11 0.06 0.02 0.02 0.01 0.00
0.00 0.00 0.00 0.00 0.00 0.00 0.00 0.02 0.03 0.09 0.28 0.61 0.43 0.27 0.11 0.01 0.00 0.00 0.00 0.00 0.00 0.00 0.00 0.00 0.00 0.00 0.00 0.00 0.00 0.00 0.00 0.00 0.00 0.00 0.01 0.01 0.02 0.00 0.04 0.06 0.09 0.11 0.13 0.11 0.10 0.13 0.05 0.02 0.00
0.00 0.00 0.00 0.00 0.00 0.00 0.00 0.00 0.00 0.00 0.01 0.11 0.17 0.09 0.03 0.00 0.00 0.00 0.00 0.00 0.00 0.00 0.00 0.00 0.00 0.00 0.00 0.00 0.00 0.00 0.00 0.00 0.00 0.00 0.00 0.00 0.01 0.00 0.01 0.06 0.08 0.07 0.04 0.07 0.11 0.09 0.05 0.01 0.02
0.00 0.00 0.00 0.00 0.00 0.00 0.00 0.00 0.00 0.00 0.00 0.01 0.10 0.23 0.02 0.00 0.00 0.00 0.00 0.00 0.00 0.00 0.00 0.00 0.00 0.00 0.00 0.00 0.00 0.00 0.00 0.00 0.00 0.01 0.00 0.00 0.00 0.00 0.00 0.01 0.10 0.12 0.04 0.05 0.09 0.11 0.10 0.01 0.01
0.00 0.00 0.00 0.00 0.00 0.00 0.00 0.00 0.00 0.00 0.00 0.00 0.03 0.14 0.12 0.04 0.00 0.00 0.00 0.00 0.00 0.00 0.00 0.00 0.00 0.00 0.00 0.00 0.00 0.00 0.00 0.00 0.00 0.00 0.00 0.00 0.00 0.00 0.00 0.00 0.01 0.06 0.08 0.04 0.06 0.03 0.02 0.03 0.01
0.00 0.00 0.00 0.00 0.00 0.00 0.00 0.00 0.00 0.00 0.00 0.00 0.00 0.08 0.16 0.19 0.08 0.02 0.00 0.00 0.00 0.00 0.00 0.00 0.00 0.00 0.00 0.00 0.00 0.00 0.00 0.00 0.00 0.00 0.00 0.00 0.00 0.00 0.00 0.01 0.00 0.01 0.04 0.03 0.03 0.02 0.07 0.11 0.04
0.00 0.00 0.00 0.00 0.00 0.00 0.00 0.00 0.00 0.00 0.00 0.00 0.00 0.00 0.07 0.28 0.47 0.18 0.09 0.03 0.02 0.01 0.00 0.00 0.00 0.00 0.00 0.00 0.00 0.00 0.00 0.00 0.00 0.00 0.00 0.00 0.00 0.00 0.00 0.01 0.04 0.07 0.05 0.01 0.02 0.00 0.01 0.03 0.02
0.00 0.00 0.00 0.00 0.00 0.00 0.00 0.00 0.00 0.00 0.00 0.00 0.01 0.00 0.01 0.07 0.35 0.51 0.36 0.07 0.05 0.02 0.00 0.00 0.00 0.00 0.00 0.00 0.00 0.00 0.00 0.00 0.00 0.00 0.00 0.00 0.00 0.00 0.00 0.00 0.00 0.01 0.03 0.02 0.05 0.02 0.01 0.01 0.01
0.00 0.00 0.00 0.00 0.00 0.00 0.00 0.00 0.00 0.00 0.00 0.00 0.01 0.01 0.00 0.01 0.10 0.33 0.58 0.24 0.16 0.06 0.03 0.03 0.02 0.00 0.00 0.00 0.00 0.00 0.00 0.00 0.00 0.00 0.00 0.00 0.00 0.00 0.00 0.00 0.00 0.00 0.00 0.00 0.00 0.01 0.02 0.03 0.01

GFSSGP_prec_precacc24_078.txt.gz
Total_Precipitation_Accumulation
0.00 0.00 0.00 0.01 0.06 0.08 0.37 1.59 1.00 0.64 0.14 0.01 0.00 0.00 0.02 0.09 0.19 0.16 0.00 0.00 0.00 0.00 0.00 0.06 0.10 0.08 0.08 0.08 0.04 0.02 0.08 0.04 0.02 0.01 0.00 0.02 0.04 0.03 0.03 0.08 0.06 0.04 0.09 0.03 0.05 0.10 0.23 0.15 0.14
0.00 0.00 0.01 0.24 0.18 0.45 0.78 1.32 1.03 0.53 0.10 0.00 0.01 0.04 0.07 0.02 0.00 0.00 0.00 0.00 0.00 0.00 0.00 0.07 0.07 0.06 0.03 0.07 0.02 0.04 0.01 0.02 0.03 0.03 0.07 0.06 0.03 0.05 0.08 0.14 0.24 0.15 0.10 0.11 0.09 0.07 0.10 0.16 0.21
0.00 0.02 0.18 0.30 0.29 1.51 2.74 1.95 1.17 0.33 0.01 0.01 0.07 0.07 0.07 0.02 0.00 0.00 0.00 0.00 0.00 0.00 0.00 0.02 0.05 0.03 0.02 0.06 0.05 0.06 0.04 0.04 0.08 0.10 0.24 0.15 0.16 0.28 0.14 0.09 0.13 0.09 0.16 0.16 0.09 0.08 0.10 0.17 0.40
0.00 0.05 0.17 0.23 0.62 1.90 1.25 1.51 1.35 0.23 0.10 0.18 0.25 0.17 0.09 0.01 0.00 0.00 0.00 0.00 0.00 0.00 0.00 0.00 0.02 0.03 0.03 0.04 0.10 0.06 0.09 0.10 0.06 0.08 0.16 0.13 0.10 0.11 0.06 0.04 0.06 0.12 0.14 0.10 0.06 0.08 0.24 0.35 0.39
0.00 0.20 0.29 0.47 1.45 1.79 0.46 0.49 0.87 0.28 0.19 0.37 0.23 0.13 0.08 0.01 0.00 0.00 0.00 0.00 0.00 0.00 0.00 0.01 0.05 0.05 0.04 0.04 0.05 0.07 0.11 0.08 0.08 0.18 0.13 0.09 0.09 0.08 0.08 0.06 0.03 0.05 0.06 0.05 0.11 0.24 0.34 0.44 0.32
0.09 0.24 0.24 0.43 1.04 1.94 0.86 0.45 0.45 0.53 0.32 0.62 0.23 0.06 0.05 0.01 0.00 0.00 0.00 0.00 0.00 0.00 0.00 0.00 0.03 0.07 0.09 0.09 0.07 0.09 0.05 0.07 0.10 0.09 0.07 0.07 0.07 0.10 0.08 0.01 0.01 0.01 0.01 0.06 0.07 0.12 0.41 0.38 0.21
0.10 0.30 0.23 0.39 0.63 2.75 2.02 1.02 0.63 0.43 0.23 0.23 0.14 0.06 0.06 0.02 0.00 0.00 0.00 0.00 0.00 0.00 0.00 0.00 0.02 0.09 0.16 0.18 0.15 0.06 0.04 0.06 0.06 0.07 0.10 0.09 0.08 0.12 0.05 0.06 0.03 0.01 0.04 0.10 0.19 0.29 0.26 0.17 0.14
0.10 0.22 0.27 0.24 0.32 1.17 0.71 0.62 0.89 0.42 0.20 0.23 0.11 0.08 0.02 0.01 0.00 0.00 0.00 0.00 0.00 0.00 0.00 0.00 0.01 0.03 0.04 0.06 0.10 0.05 0.02 0.03 0.05 0.03 0.04 0.10 0.06 0.07 0.10 0.09 0.02 0.01 0.06 0.13 0.17 0.14 0.07 0.10 0.09
0.04 0.22 0.26 0.22 0.24 0.67 0.38 0.71 1.34 0.74 0.17 0.07 0.15 0.12 0.01 0.01 0.00 0.00 0.00 0.01 0.00 0.01 0.00 0.00 0.00 0.00 0.02 0.02 0.07 0.06 0.05 0.03 0.11 0.09 0.14 0.15 0.08 0.04 0.05 0.04 0.01 0.00 0.04 0.02 0.07 0.05 0.10 0.13 0.11
0.11 0.38 0.56 0.13 0.18 0.40 0.27 0.80 0.46 0.18 0.23 0.42 0.21 0.09 0.01 0.00 0.00 0.00 0.00 0.00 0.00 0.01 0.00 0.00 0.00 0.01 0.00 0.01 0.03 0.05 0.03 0.11 0.11 0.05 0.03 0.03 0.06 0.01 0.01 0.02 0.01 0.00 0.00 0.02 0.04 0.05 0.16 0.16 0.07
0.17 0.19 0.12 0.04 0.07 0.39 0.81 0.83 0.47 0.18 0.39 1.02 0.77 0.08 0.01 0.00 0.00 0.00 0.00 0.00 0.00 0.00 0.00 0.00 0.00 0.00 0.00 0.00 0.00 0.00 0.01 0.02 0.01 0.05 0.05 0.03 0.01 0.01 0.04 0.02 0.02 0.00 0.04 0.06 0.03 0.10 0.15 0.14 0.18
0.13 0.02 0.03 0.04 0.03 0.25 1.03 1.09 1.23 0.76 0.81 0.41 0.28 0.05 0.00 0.00 0.00 0.00 0.00 0.00 0.00 0.00 0.00 0.00 0.00 0.00 0.00 0.00 0.00 0.02 0.08 0.01 0.00 0.00 0.02 0.08 0.05 0.05 0.25 0.11 0.08 0.08 0.03 0.05 0.10 0.16 0.14 0.12 0.19
0.01 0.02 0.01 0.04 0.07 0.20 0.42 0.52 1.33 0.79 1.38 0.73 0.22 0.04 0.00 0.00 0.00 0.00 0.00 0.00 0.00 0.00 0.00 0.00 0.00 0.00 0.02 0.00 0.01 0.01 0.01 0.00 0.00 0.01 0.02 0.13 0.16 0.14 0.13 0.10 0.12 0.07 0.08 0.04 0.03 0.03 0.00 0.07 0.01
0.00 0.00 0.03 0.01 0.04 0.13 0.22 0.19 0.11 0.29 0.43 0.61 0.27 0.03 0.00 0.00 0.00 0.00 0.00 0.00 0.00 0.00 0.00 0.00 0.00 0.01 0.02 0.00 0.02 0.01 0.00 0.00 0.00 0.03 0.02 0.16 0.11 0.18 0.13 0.06 0.09 0.11 0.07 0.03 0.01 0.01 0.01 0.02 0.00
0.00 0.00 0.00 0.01 0.01 0.09 0.23 0.32 0.17 0.38 0.54 0.47 0.25 0.05 0.00 0.00 0.00 0.00 0.00 0.00 0.00 0.00 0.00 0.00 0.00 0.00 0.00 0.02 0.01 0.00 0.00 0.00 0.00 0.00 0.00 0.04 0.06 0.08 0.14 0.09 0.05 0.05 0.06 0.01 0.00 0.01 0.00 0.00 0.00
0.00 0.00 0.00 0.00 0.04 0.10 0.26 0.43 0.24 0.43 0.66 0.24 0.11 0.04 0.00 0.00 0.00 0.00 0.00 0.00 0.00 0.00 0.00 0.00 0.00 0.00 0.00 0.00 0.00 0.01 0.00 0.00 0.00 0.00 0.00 0.03 0.07 0.14 0.14 0.12 0.11 0.02 0.01 0.01 0.00 0.00 0.00 0.00 0.00
0.00 0.00 0.00 0.03 0.11 0.09 0.23 0.43 0.41 0.28 0.35 0.20 0.01 0.01 0.00 0.00 0.00 0.00 0.00 0.00 0.00 0.00 0.00 0.00 0.00 0.00 0.00 0.00 0.00 0.00 0.00 0.00 0.01 0.00 0.02 0.06 0.06 0.08 0.19 0.13 0.18 0.04 0.03 0.00 0.00 0.00 0.00 0.00 0.00
0.00 0.00 0.00 0.01 0.05 0.04 0.16 0.17 0.55 0.51 1.55 0.59 0.10 0.01 0.00 0.00 0.00 0.00 0.00 0.00 0.00 0.00 0.00 0.00 0.00 0.00 0.00 0.04 0.01 0.00 0.00 0.00 0.02 0.01 0.05 0.07 0.04 0.05 0.13 0.05 0.05 0.06 0.02 0.00 0.00 0.00 0.00 0.00 0.00
0.00 0.00 0.00 0.00 0.01 0.01 0.06 0.05 0.52 0.20 0.75 0.72 0.06 0.03 0.00 0.00 0.00 0.00 0.00 0.00 0.00 0.00 0.00 0.00 0.00 0.00 0.00 0.01 0.00 0.00 0.00 0.00 0.01 0.00 0.07 0.13 0.08 0.04 0.05 0.10 0.02 0.03 0.06 0.08 0.00 0.00 0.00 0.00 0.00
0.00 0.00 0.00 0.00 0.00 0.00 0.04 0.10 0.30 0.26 0.20 0.25 0.12 0.04 0.03 0.00 0.00 0.00 0.00 0.00 0.00 0.00 0.00 0.00 0.00 0.00 0.00 0.00 0.00 0.00 0.00 0.00 0.02 0.02 0.06 0.13 0.09 0.11 0.03 0.05 0.05 0.02 0.04 0.01 0.01 0.04 0.00 0.00 0.00
0.00 0.00 0.00 0.00 0.00 0.02 0.18 0.37 0.26 0.30 0.24 0.24 0.44 0.14 0.04 0.00 0.01 0.00 0.00 0.00 0.00 0.00 0.00 0.00 0.00 0.00 0.00 0.00 0.00 0.01 0.02 0.01 0.00 0.03 0.03 0.02 0.06 0.06 0.08 0.04 0.07 0.03 0.04 0.01 0.00 0.01 0.01 0.00 0.00
0.00 0.00 0.00 0.00 0.00 0.00 0.05 0.22 0.28 0.32 0.36 0.60 0.59 0.42 0.07 0.00 0.00 0.00 0.00 0.00 0.00 0.00 0.00 0.00 0.00 0.00 0.00 0.00 0.00 0.00 0.01 0.00 0.00 0.00 0.01 0.00 0.01 0.06 0.11 0.08 0.05 0.06 0.07 0.03 0.01 0.01 0.02 0.01 0.00
0.00 0.00 0.00 0.00 0.00 0.00 0.00 0.02 0.03 0.09 0.33 0.68 0.44 0.27 0.11 0.01 0.00 0.00 0.00 0.00 0.00 0.00 0.00 0.00 0.00 0.00 0.00 0.00 0.00 0.00 0.00 0.00 0.00 0.00 0.01 0.02 0.05 0.07 0.12 0.11 0.08 0.05 0.04 0.03 0.03 0.03 0.02 0.02 0.00
0.00 0.00 0.00 0.00 0.00 0.00 0.00 0.00 0.00 0.01 0.02 0.12 0.17 0.09 0.03 0.00 0.00 0.00 0.00 0.00 0.00 0.00 0.00 0.00 0.00 0.00 0.00 0.00 0.00 0.00 0.00 0.00 0.00 0.00 0.01 0.00 0.01 0.02 0.06 0.10 0.14 0.09 0.04 0.03 0.04 0.04 0.01 0.02 0.02
0.00 0.00 0.00 0.00 0.00 0.00 0.00 0.00 0.00 0.00 0.00 0.01 0.10 0.23 0.02 0.00 0.00 0.00 0.00 0.00 0.00 0.00 0.00 0.00 0.00 0.00 0.00 0.00 0.00 0.00 0.00 0.00 0.01 0.05 0.01 0.00 0.00 0.00 0.00 0.04 0.17 0.14 0.07 0.07 0.05 0.05 0.06 0.04 0.05
0.00 0.00 0.00 0.00 0.00 0.00 0.00 0.00 0.00 0.00 0.00 0.00 0.03 0.14 0.12 0.04 0.00 0.00 0.00 0.00 0.00 0.00 0.00 0.00 0.00 0.00 0.00 0.00 0.00 0.00 0.00 0.00 0.00 0.00 0.00 0.00 0.00 0.00 0.00 0.00 0.02 0.08 0.11 0.04 0.07 0.04 0.03 0.06 0.03
0.00 0.00 0.00 0.00 0.00 0.00 0.00 0.00 0.00 0.00 0.00 0.00 0.00 0.08 0.16 0.19 0.08 0.02 0.00 0.00 0.00 0.00 0.00 0.00 0.00 0.00 0.00 0.00 0.00 0.00 0.00 0.00 0.00 0.00 0.00 0.00 0.00 0.00 0.00 0.01 0.02 0.03 0.06 0.05 0.04 0.03 0.10 0.15 0.04
0.00 0.00 0.00 0.00 0.00 0.00 0.00 0.00 0.00 0.00 0.00 0.00 0.00 0.01 0.07 0.28 0.47 0.18 0.09 0.03 0.02 0.01 0.00 0.00 0.00 0.00 0.00 0.00 0.00 0.00 0.00 0.00 0.00 0.00 0.00 0.00 0.00 0.00 0.00 0.01 0.06 0.10 0.05 0.01 0.05 0.01 0.01 0.06 0.04
0.00 0.00 0.00 0.00 0.00 0.00 0.00 0.00 0.00 0.00 0.00 0.00 0.01 0.01 0.01 0.08 0.35 0.52 0.36 0.07 0.05 0.03 0.00 0.00 0.00 0.00 0.00 0.00 0.00 0.00 0.00 0.00 0.00 0.00 0.00 0.00 0.00 0.00 0.00 0.00 0.07 0.10 0.04 0.02 0.05 0.02 0.01 0.03 0.02
0.00 0.00 0.00 0.00 0.00 0.00 0.00 0.00 0.00 0.00 0.00 0.01 0.01 0.01 0.00 0.01 0.11 0.38 0.66 0.27 0.17 0.06 0.03 0.03 0.02 0.00 0.00 0.00 0.00 0.00 0.00 0.00 0.00 0.00 0.00 0.00 0.00 0.00 0.00 0.00 0.11 0.07 0.03 0.03 0.02 0.01 0.03 0.07 0.02

GFSSGP_prec_precacc24_081.txt.gz
Total_Precipitation_Accumulation
0.00 0.00 0.00 0.00 0.04 0.07 0.28 1.55 0.99 0.60 0.14 0.01 0.00 0.00 0.01 0.06 0.14 0.11 0.00 0.00 0.00 0.00 0.00 0.05 0.09 0.08 0.08 0.09 0.04 0.24 0.19 0.04 0.02 0.01 0.04 0.03 0.04 0.04 0.03 0.05 0.04 0.05 0.07 0.05 0.09 0.14 0.15 0.14 0.12
0.00 0.00 0.01 0.18 0.15 0.50 0.67 1.42 1.05 0.55 0.10 0.00 0.01 0.04 0.06 0.02 0.00 0.00 0.00 0.00 0.00 0.00 0.00 0.07 0.06 0.04 0.03 0.08 0.02 0.04 0.02 0.05 0.11 0.05 0.10 0.09 0.04 0.05 0.08 0.14 0.16 0.09 0.10 0.12 0.12 0.10 0.15 0.19 0.21
0.00 0.01 0.19 0.39 0.36 1.49 2.60 2.03 1.28 0.35 0.01 0.01 0.07 0.07 0.07 0.02 0.00 0.00 0.00 0.00 0.00 0.00 0.00 0.02 0.04 0.02 0.01 0.06 0.08 0.05 0.06 0.04 0.10 0.14 0.24 0.15 0.16 0.29 0.14 0.09 0.13 0.08 0.16 0.18 0.13 0.13 0.18 0.19 0.41
0.00 0.03 0.18 0.34 0.78 1.94 1.23 1.42 1.34 0.23 0.10 0.18 0.24 0.15 0.09 0.01 0.00 0.00 0.00 0.00 0.00 0.00 0.00 0.01 0.02 0.01 0.01 0.06 0.14 0.08 0.10 0.10 0.07 0.09 0.16 0.12 0.10 0.11 0.06 0.04 0.06 0.13 0.15 0.10 0.09 0.14 0.28 0.42 0.39
0.00 0.16 0.33 0.61 1.62 1.89 0.49 0.46 0.81 0.26 0.20 0.35 0.20 0.12 0.08 0.01 0.00 0.00 0.00 0.00 0.00 0.00 0.00 0.01 0.06 0.04 0.03 0.03 0.08 0.08 0.11 0.08 0.08 0.18 0.13 0.09 0.09 0.07 0.08 0.06 0.04 0.06 0.07 0.06 0.09 0.23 0.41 0.45 0.32
0.09 0.28 0.31 0.36 1.02 1.91 0.93 0.47 0.45 0.55 0.33 0.62 0.22 0.06 0.04 0.01 0.00 0.00 0.00 0.00 0.00 0.00 0.00 0.00 0.08 0.09 0.11 0.10 0.09 0.11 0.06 0.09 0.12 0.10 0.07 0.07 0.07 0.09 0.09 0.02 0.01 0.02 0.04 0.12 0.07 0.12 0.41 0.38 0.20
0.10 0.35 0.33 0.37 0.62 2.75 2.09 1.10 0.73 0.47 0.24 0.24 0.13 0.01 0.05 0.01 0.00 0.00 0.00 0.00 0.01 0.00 0.00 0.00 0.02 0.12 0.18 0.19 0.17 0.07 0.04 0.07 0.07 0.08 0.09 0.06 0.09 0.12 0.05 0.07 0.05 0.04 0.08 0.17 0.22 0.30 0.29 0.17 0.14
0.09 0.34 0.43 0.27 0.29 1.08 0.74 0.65 0.86 0.39 0.20 0.22 0.11 0.05 0.02 0.01 0.00 0.00 0.00 0.00 0.01 0.00 0.00 0.00 0.01 0.04 0.04 0.07 0.13 0.04 0.02 0.03 0.05 0.03 0.06 0.09 0.06 0.07 0.10 0.09 0.04 0.03 0.09 0.23 0.26 0.22 0.08 0.10 0.08
0.05 0.35 0.36 0.25 0.21 0.61 0.38 0.71 1.33 0.71 0.17 0.07 0.15 0.11 0.00 0.01 0.00 0.00 0.00 0.01 0.01 0.01 0.00 0.00 0.01 0.01 0.03 0.03 0.05 0.03 0.04 0.03 0.13 0.09 0.16 0.16 0.08 0.04 0.06 0.05 0.02 0.04 0.09 0.07 0.14 0.07 0.10 0.15 0.12
0.17 0.54 0.57 0.16 0.17 0.40 0.27 0.80 0.45 0.18 0.24 0.42 0.22 0.09 0.01 0.00 0.00 0.00 0.00 0.00 0.00 0.01 0.00 0.00 0.00 0.01 0.00 0.01 0.04 0.05 0.04 0.24 0.15 0.06 0.03 0.03 0.06 0.01 0.01 0.02 0.01 0.00 0.02 0.02 0.05 0.05 0.16 0.17 0.06
0.22 0.27 0.13 0.05 0.09 0.39 0.79 0.73 0.44 0.17 0.43 1.04 0.77 0.08 0.00 0.00 0.00 0.00 0.00 0.00 0.00 0.00 0.00 0.00 0.00 0.00 0.00 0.00 0.00 0.00 0.01 0.03 0.01 0.05 0.05 0.03 0.01 0.01 0.03 0.02 0.02 0.00 0.03 0.06 0.03 0.08 0.15 0.13 0.17
0.16 0.03 0.02 0.03 0.03 0.28 1.05 1.05 1.22 0.79 0.84 0.42 0.28 0.05 0.00 0.00 0.00 0.00 0.00 0.00 0.00 0.00 0.00 0.00 0.00 0.00 0.00 0.00 0.00 0.02 0.07 0.01 0.00 0.00 0.02 0.08 0.05 0.05 0.24 0.10 0.07 0.07 0.03 0.05 0.08 0.10 0.14 0.12 0.17
0.02 0.01 0.01 0.04 0.05 0.18 0.44 0.55 1.27 0.79 1.36 0.75 0.22 0.04 0.00 0.00 0.00 0.00 0.00 0.00 0.00 0.00 0.00 0.00 0.00 0.00 0.02 0.00 0.01 0.01 0.01 0.00 0.00 0.01 0.02 0.13 0.16 0.14 0.13 0.09 0.10 0.06 0.07 0.04 0.01 0.03 0.00 0.08 0.01
0.01 0.00 0.00 0.01 0.04 0.13 0.24 0.22 0.13 0.29 0.43 0.61 0.27 0.03 0.00 0.00 0.00 0.00 0.00 0.00 0.00 0.00 0.00 0.00 0.00 0.01 0.02 0.00 0.02 0.01 0.00 0.00 0.00 0.03 0.02 0.16 0.11 0.17 0.12 0.06 0.09 0.11 0.06 0.03 0.01 0.03 0.01 0.02 0.01
0.00 0.00 0.00 0.00 0.01 0.09 0.26 0.45 0.27 0.38 0.54 0.47 0.25 0.05 0.00 0.00 0.00 0.00 0.00 0.00 0.00 0.00 0.00 0.00 0.00 0.00 0.00 0.02 0.01 0.00 0.00 0.00 0.00 0.00 0.00 0.04 0.06 0.06 0.09 0.08 0.06 0.05 0.06 0.01 0.00 0.01 0.01 0.00 0.00
0.00 0.00 0.00 0.00 0.04 0.10 0.33 0.69 0.39 0.43 0.66 0.24 0.11 0.04 0.00 0.00 0.00 0.00 0.00 0.00 0.00 0.00 0.00 0.00 0.00 0.00 0.00 0.00 0.00 0.01 0.00 0.01 0.01 0.00 0.00 0.03 0.05 0.09 0.12 0.10 0.10 0.02 0.01 0.01 0.00 0.00 0.00 0.00 0.00
0.00 0.00 0.00 0.02 0.12 0.10 0.27 0.50 0.55 0.28 0.36 0.21 0.01 0.01 0.00 0.00 0.00 0.00 0.00 0.00 0.00 0.00 0.00 0.00 0.00 0.00 0.00 0.00 0.00 0.01 0.00 0.00 0.01 0.00 0.02 0.06 0.03 0.06 0.19 0.13 0.16 0.04 0.03 0.01 0.00 0.00 0.00 0.00 0.00
0.00 0.00 0.00 0.00 0.05 0.04 0.19 0.14 0.34 0.51 1.60 0.62 0.10 0.01 0.00 0.00 0.00 0.00 0.00 0.00 0.00 0.00 0.00 0.00 0.00 0.00 0.00 0.04 0.01 0.00 0.00 0.00 0.02 0.01 0.05 0.07 0.01 0.01 0.12 0.05 0.05 0.08 0.02 0.00 0.00 0.00 0.00 0.00 0.00
0.00 0.00 0.01 0.00 0.00 0.02 0.07 0.04 0.36 0.20 0.82 0.78 0.08 0.03 0.00 0.00 0.00 0.00 0.00 0.00 0.00 0.00 0.00 0.00 0.00 0.00 0.00 0.01 0.00 0.00 0.00 0.00 0.01 0.00 0.07 0.13 0.08 0.02 0.05 0.09 0.01 0.04 0.05 0.06 0.00 0.00 0.00 0.00 0.00
0.00 0.00 0.00 0.00 0.01 0.01 0.05 0.09 0.29 0.26 0.23 0.30 0.18 0.05 0.03 0.01 0.00 0.00 0.00 0.00 0.00 0.00 0.00 0.00 0.00 0.00 0.00 0.00 0.00 0.00 0.00 0.00 0.02 0.02 0.06 0.13 0.09 0.11 0.03 0.01 0.04 0.03 0.06 0.01 0.01 0.05 0.00 0.00 0.00
0.00 0.00 0.00 0.00 0.00 0.02 0.16 0.35 0.25 0.31 0.29 0.48 0.51 0.16 0.05 0.01 0.01 0.00 0.00 0.00 0.00 0.00 0.00 0.00 0.00 0.00 0.00 0.00 0.00 0.01 0.04 0.01 0.00 0.03 0.03 0.02 0.06 0.06 0.08 0.03 0.04 0.03 0.04 0.02 0.00 0.01 0.01 0.00 0.00
0.00 0.00 0.00 0.00 0.00 0.00 0.05 0.26 0.28 0.30 0.37 0.85 0.76 0.51 0.09 0.01 0.00 0.00 0.00 0.00 0.00 0.00 0.00 0.00 0.00 0.00 0.00 0.00 0.00 0.01 0.01 0.00 0.00 0.00 0.01 0.00 0.01 0.06 0.13 0.05 0.04 0.06 0.07 0.03 0.00 0.01 0.02 0.01 0.00
0.00 0.00 0.00 0.00 0.00 0.00 0.00 0.04 0.21 0.11 0.36 0.78 0.51 0.34 0.18 0.03 0.01 0.00 0.00 0.00 0.00 0.00 0.00 0.00 0.00 0.00 0.00 0.00 0.01 0.00 0.00 0.00 0.00 0.00 0.01 0.08 0.06 0.07 0.12 0.10 0.05 0.08 0.06 0.05 0.02 0.01 0.02 0.02 0.00
0.00 0.00 0.00 0.00 0.00 0.00 0.00 0.00 0.09 0.06 0.02 0.13 0.19 0.10 0.09 0.03 0.01 0.00 0.00 0.00 0.00 0.00 0.00 0.00 0.00 0.00 0.00 0.00 0.00 0.00 0.00 0.00 0.01 0.00 0.01 0.00 0.02 0.02 0.06 0.10 0.11 0.08 0.06 0.06 0.04 0.04 0.01 0.01 0.02
0.00 0.00 0.00 0.00 0.00 0.00 0.00 0.00 0.01 0.01 0.00 0.00 0.10 0.24 0.06 0.01 0.01 0.01 0.00 0.00 0.00 0.00 0.00 0.00 0.00 0.00 0.00 0.00 0.00 0.00 0.00 0.00 0.02 0.06 0.01 0.00 0.01 0.00 0.00 0.04 0.16 0.13 0.06 0.08 0.06 0.05 0.02 0.04 0.05
0.00 0.00 0.00 0.00 0.00 0.00 0.00 0.00 0.00 0.00 0.00 0.00 0.02 0.14 0.12 0.04 0.01 0.01 0.00 0.00 0.00 0.00 0.00 0.00 0.00 0.00 0.00 0.00 0.00 0.00 0.00 0.00 0.00 0.00 0.00 0.00 0.00 0.00 0.01 0.00 0.02 0.08 0.11 0.04 0.08 0.05 0.03 0.06 0.03
0.00 0.00 0.00 0.00 0.00 0.00 0.00 0.00 0.00 0.00 0.00 0.00 0.01 0.08 0.16 0.19 0.09 0.05 0.00 0.01 0.00 0.00 0.00 0.00 0.00 0.00 0.00 0.00 0.00 0.00 0.00 0.00 0.00 0.00 0.00 0.00 0.00 0.01 0.00 0.01 0.02 0.03 0.06 0.05 0.06 0.03 0.10 0.14 0.04
0.00 0.00 0.00 0.00 0.00 0.00 0.00 0.00 0.00 0.00 0.00 0.00 0.00 0.01 0.07 0.26 0.52 0.38 0.16 0.04 0.02 0.01 0.00 0.00 0.00 0.00 0.00 0.00 0.00 0.00 0.00 0.00 0.00 0.00 0.00 0.00 0.00 0.00 0.03 0.02 0.06 0.10 0.05 0.01 0.05 0.01 0.01 0.06 0.04
0.00 0.00 0.00 0.00 0.00 0.00 0.00 0.00 0.00 0.00 0.00 0.00 0.01 0.01 0.02 0.09 0.44 0.75 0.54 0.15 0.08 0.03 0.00 0.00 0.00 0.00 0.00 0.00 0.00 0.00 0.00 0.00 0.00 0.00 0.00 0.00 0.00 0.00 0.00 0.00 0.12 0.10 0.04 0.02 0.07 0.02 0.03 0.04 0.02
0.00 0.00 0.00 0.00 0.00 0.00 0.00 0.03 0.00 0.00 0.00 0.01 0.02 0.01 0.00 0.02 0.16 0.56 0.91 0.49 0.32 0.12 0.05 0.04 0.02 0.00 0.00 0.00 0.00 0.00 0.00 0.00 0.00 0.00 0.00 0.00 0.00 0.00 0.00 0.02 0.15 0.07 0.03 0.03 0.02 0.01 0.03 0.07 0.02

GFSSGP_prec_precacc24_084.txt.gz
Total_Precipitation_Accumulation
0.00 0.00 0.00 0.00 0.06 0.16 0.22 1.46 0.92 0.58 0.14 0.00 0.00 0.00 0.00 0.01 0.04 0.07 0.00 0.00 0.00 0.00 0.00 0.05 0.07 0.06 0.08 0.08 0.12 0.38 0.16 0.03 0.02 0.02 0.05 0.02 0.05 0.07 0.02 0.01 0.05 0.04 0.03 0.07 0.09 0.14 0.15 0.14 0.13
0.00 0.00 0.00 0.13 0.16 0.56 0.49 1.26 1.13 0.55 0.09 0.00 0.00 0.01 0.01 0.00 0.00 0.00 0.00 0.00 0.00 0.00 0.00 0.07 0.06 0.05 0.07 0.08 0.11 0.10 0.03 0.05 0.11 0.06 0.12 0.09 0.05 0.11 0.10 0.10 0.10 0.09 0.15 0.13 0.12 0.10 0.15 0.22 0.20
0.00 0.00 0.16 0.41 0.45 1.24 1.41 1.95 1.39 0.35 0.01 0.01 0.06 0.05 0.05 0.02 0.00 0.00 0.00 0.00 0.00 0.01 0.00 0.02 0.04 0.03 0.03 0.06 0.07 0.06 0.06 0.05 0.11 0.13 0.26 0.18 0.16 0.28 0.15 0.10 0.14 0.10 0.21 0.22 0.15 0.15 0.18 0.19 0.41
0.00 0.02 0.17 0.59 1.50 1.91 1.16 1.35 1.34 0.21 0.10 0.18 0.24 0.14 0.09 0.00 0.00 0.00 0.00 0.00 0.01 0.02 0.00 0.01 0.02 0.01 0.04 0.07 0.13 0.10 0.10 0.08 0.09 0.10 0.18 0.13 0.11 0.11 0.07 0.05 0.08 0.14 0.16 0.11 0.12 0.24 0.30 0.43 0.39
0.00 0.12 0.52 0.98 1.83 2.01 0.60 0.43 0.80 0.23 0.20 0.31 0.16 0.10 0.08 0.01 0.00 0.00 0.00 0.01 0.00 0.00 0.00 0.01 0.08 0.04 0.06 0.03 0.08 0.11 0.13 0.11 0.12 0.21 0.16 0.09 0.09 0.06 0.08 0.05 0.04 0.06 0.12 0.08 0.09 0.24 0.44 0.45 0.32
0.09 0.36 0.54 0.35 0.92 1.95 0.94 0.45 0.43 0.48 0.33 0.40 0.15 0.06 0.04 0.01 0.00 0.00 0.00 0.00 0.00 0.00 0.00 0.00 0.12 0.10 0.11 0.10 0.09 0.10 0.06 0.09 0.13 0.09 0.06 0.07 0.07 0.09 0.09 0.02 0.02 0.05 0.12 0.16 0.07 0.12 0.41 0.38 0.20
0.10 0.49 0.52 0.38 0.57 2.72 2.15 1.13 0.74 0.47 0.24 0.22 0.12 0.01 0.05 0.01 0.00 0.00 0.00 0.02 0.02 0.00 0.00 0.00 0.02 0.13 0.19 0.19 0.17 0.07 0.04 0.06 0.06 0.08 0.09 0.06 0.09 0.12 0.06 0.08 0.07 0.06 0.12 0.15 0.22 0.30 0.29 0.17 0.14
0.10 0.49 0.63 0.32 0.27 0.61 0.79 0.67 0.69 0.30 0.20 0.22 0.09 0.04 0.02 0.01 0.00 0.00 0.00 0.03 0.03 0.01 0.00 0.00 0.01 0.04 0.05 0.07 0.13 0.04 0.02 0.03 0.05 0.03 0.07 0.13 0.06 0.07 0.11 0.10 0.04 0.04 0.10 0.23 0.26 0.22 0.08 0.10 0.08
0.11 0.53 0.54 0.42 0.20 0.20 0.38 0.72 1.28 0.53 0.16 0.09 0.15 0.10 0.00 0.01 0.00 0.00 0.01 0.01 0.02 0.01 0.00 0.01 0.01 0.03 0.04 0.03 0.04 0.03 0.05 0.06 0.13 0.10 0.18 0.21 0.10 0.05 0.09 0.07 0.03 0.07 0.09 0.07 0.16 0.12 0.11 0.15 0.12
0.37 0.72 0.42 0.18 0.16 0.37 0.27 0.80 0.45 0.18 0.24 0.41 0.22 0.07 0.00 0.00 0.00 0.00 0.00 0.00 0.00 0.01 0.00 0.07 0.01 0.01 0.00 0.01 0.04 0.05 0.10 0.28 0.16 0.09 0.06 0.07 0.06 0.01 0.01 0.02 0.01 0.00 0.02 0.03 0.07 0.10 0.26 0.12 0.04
0.26 0.30 0.10 0.06 0.11 0.38 0.74 0.65 0.28 0.16 0.49 1.03 0.77 0.08 0.00 0.00 0.00 0.00 0.00 0.00 0.00 0.00 0.00 0.00 0.00 0.02 0.01 0.00 0.01 0.02 0.02 0.02 0.02 0.05 0.03 0.02 0.01 0.00 0.01 0.01 0.00 0.01 0.05 0.08 0.06 0.04 0.05 0.09 0.13
0.28 0.04 0.02 0.03 0.03 0.28 1.04 0.81 0.39 0.42 0.86 0.41 0.28 0.05 0.00 0.00 0.00 0.00 0.00 0.00 0.00 0.00 0.00 0.00 0.00 0.08 0.03 0.00 0.00 0.00 0.00 0.00 0.00 0.00 0.02 0.09 0.04 0.02 0.04 0.03 0.08 0.06 0.07 0.30 0.14 0.04 0.07 0.02 0.08
0.05 0.02 0.01 0.04 0.05 0.19 0.44 0.48 0.68 0.63 1.33 0.71 0.23 0.04 0.00 0.00 0.00 0.00 0.00 0.00 0.00 0.00 0.00 0.00 0.00 0.01 0.00 0.00 0.00 0.00 0.00 0.00 0.00 0.02 0.02 0.08 0.14 0.09 0.09 0.07 0.09 0.08 0.05 0.09 0.07 0.14 0.01 0.06 0.01
0.02 0.02 0.01 0.02 0.04 0.10 0.25 0.27 0.13 0.19 0.53 0.63 0.28 0.03 0.00 0.00 0.00 0.00 0.00 0.00 0.00 0.00 0.00 0.00 0.00 0.01 0.01 0.00 0.01 0.00 0.00 0.00 0.00 0.03 0.02 0.09 0.09 0.09 0.18 0.11 0.15 0.10 0.04 0.03 0.05 0.17 0.01 0.00 0.00
0.01 0.02 0.00 0.00 0.01 0.07 0.27 0.54 0.30 0.30 0.50 0.48 0.25 0.05 0.00 0.00 0.00 0.00 0.00 0.00 0.00 0.00 0.00 0.00 0.00 0.00 0.00 0.02 0.01 0.00 0.00 0.00 0.00 0.00 0.00 0.04 0.03 0.04 0.15 0.14 0.23 0.06 0.03 0.02 0.05 0.03 0.01 0.00 0.00
0.00 0.01 0.00 0.01 0.04 0.11 0.37 1.01 0.47 0.33 0.56 0.24 0.11 0.04 0.00 0.00 0.00 0.00 0.00 0.00 0.00 0.00 0.00 0.00 0.00 0.00 0.00 0.00 0.01 0.02 0.11 0.06 0.01 0.00 0.00 0.03 0.05 0.07 0.05 0.04 0.06 0.02 0.07 0.03 0.07 0.01 0.00 0.00 0.00
0.00 0.00 0.00 0.02 0.12 0.10 0.31 0.83 0.79 0.24 0.36 0.21 0.01 0.01 0.00 0.00 0.00 0.00 0.00 0.00 0.00 0.00 0.00 0.00 0.00 0.00 0.00 0.00 0.00 0.01 0.01 0.01 0.01 0.00 0.02 0.06 0.03 0.05 0.11 0.03 0.03 0.04 0.07 0.01 0.00 0.00 0.00 0.00 0.00
0.00 0.00 0.00 0.01 0.05 0.05 0.23 0.17 0.16 0.41 1.57 0.62 0.11 0.01 0.00 0.00 0.00 0.00 0.00 0.00 0.00 0.00 0.00 0.00 0.00 0.00 0.00 0.04 0.01 0.00 0.01 0.01 0.02 0.01 0.05 0.08 0.02 0.01 0.09 0.04 0.05 0.09 0.02 0.00 0.00 0.00 0.01 0.00 0.00
0.00 0.00 0.02 0.02 0.02 0.02 0.08 0.05 0.04 0.12 0.82 0.77 0.08 0.03 0.00 0.00 0.00 0.00 0.00 0.00 0.00 0.00 0.00 0.00 0.00 0.00 0.00 0.01 0.00 0.00 0.00 0.00 0.00 0.01 0.05 0.13 0.08 0.02 0.03 0.07 0.02 0.04 0.03 0.01 0.00 0.01 0.00 0.00 0.00
0.00 0.00 0.00 0.01 0.09 0.15 0.11 0.26 0.45 0.13 0.23 0.31 0.21 0.05 0.03 0.01 0.00 0.00 0.00 0.00 0.00 0.00 0.00 0.00 0.00 0.00 0.00 0.00 0.00 0.00 0.00 0.00 0.00 0.02 0.05 0.12 0.08 0.11 0.03 0.02 0.06 0.05 0.07 0.01 0.00 0.02 0.00 0.00 0.00
0.00 0.00 0.00 0.00 0.02 0.31 0.19 0.42 0.73 0.19 0.14 0.53 0.59 0.18 0.05 0.01 0.01 0.00 0.00 0.00 0.00 0.00 0.00 0.00 0.00 0.00 0.00 0.00 0.00 0.01 0.03 0.02 0.00 0.03 0.03 0.02 0.06 0.06 0.08 0.02 0.06 0.06 0.03 0.02 0.01 0.00 0.00 0.00 0.00
0.00 0.00 0.00 0.00 0.00 0.01 0.05 0.31 0.41 0.29 0.10 0.93 0.90 0.60 0.11 0.01 0.00 0.00 0.01 0.00 0.00 0.00 0.00 0.00 0.00 0.00 0.00 0.00 0.00 0.01 0.01 0.00 0.00 0.00 0.02 0.01 0.01 0.06 0.12 0.05 0.06 0.05 0.05 0.09 0.01 0.00 0.00 0.00 0.00
0.00 0.00 0.00 0.00 0.00 0.00 0.00 0.05 0.29 0.24 0.21 0.50 0.58 0.97 0.28 0.03 0.01 0.00 0.00 0.00 0.00 0.00 0.00 0.00 0.00 0.00 0.00 0.00 0.04 0.02 0.00 0.05 0.03 0.03 0.05 0.14 0.09 0.08 0.12 0.10 0.05 0.08 0.08 0.06 0.02 0.01 0.00 0.00 0.00
0.00 0.00 0.00 0.00 0.00 0.00 0.00 0.00 0.15 0.42 0.24 0.13 0.11 0.67 1.05 0.48 0.03 0.01 0.00 0.00 0.00 0.00 0.00 0.00 0.00 0.00 0.00 0.00 0.02 0.01 0.03 0.04 0.06 0.05 0.05 0.03 0.07 0.02 0.05 0.07 0.10 0.09 0.10 0.10 0.01 0.03 0.00 0.01 0.01
0.00 0.00 0.00 0.00 0.00 0.00 0.00 0.00 0.02 0.42 0.46 0.11 0.02 0.35 0.70 0.75 0.22 0.02 0.01 0.00 0.00 0.00 0.00 0.00 0.00 0.00 0.00 0.00 0.00 0.00 0.02 0.04 0.05 0.09 0.04 0.05 0.16 0.01 0.02 0.04 0.14 0.13 0.07 0.07 0.05 0.04 0.01 0.04 0.05
0.00 0.00 0.00 0.00 0.00 0.00 0.00 0.00 0.00 0.01 0.05 0.03 0.01 0.11 0.13 0.10 0.31 0.05 0.01 0.00 0.01 0.00 0.00 0.00 0.00 0.00 0.00 0.00 0.00 0.00 0.00 0.01 0.00 0.00 0.00 0.00 0.04 0.05 0.14 0.06 0.02 0.07 0.10 0.02 0.04 0.05 0.03 0.05 0.03
0.00 0.00 0.00 0.00 0.00 0.00 0.00 0.00 0.00 0.00 0.01 0.01 0.01 0.03 0.07 0.15 0.10 0.07 0.04 0.01 0.00 0.00 0.00 0.00 0.00 0.00 0.00 0.00 0.00 0.00 0.00 0.00 0.00 0.00 0.00 0.00 0.00 0.07 0.18 0.13 0.03 0.03 0.06 0.06 0.09 0.03 0.09 0.10 0.03
0.00 0.00 0.00 0.00 0.00 0.00 0.00 0.00 0.00 0.00 0.00 0.00 0.00 0.01 0.03 0.23 0.69 0.56 0.29 0.14 0.04 0.01 0.00 0.00 0.00 0.00 0.00 0.00 0.00 0.00 0.00 0.00 0.00 0.00 0.00 0.00 0.01 0.03 0.22 0.30 0.10 0.11 0.06 0.02 0.05 0.02 0.03 0.06 0.04
0.00 0.00 0.00 0.00 0.00 0.00 0.00 0.07 0.00 0.00 0.00 0.01 0.01 0.01 0.03 0.05 0.31 1.23 1.41 0.68 0.17 0.07 0.02 0.01 0.00 0.00 0.00 0.00 0.00 0.00 0.00 0.00 0.00 0.00 0.00 0.00 0.00 0.03 0.06 0.28 0.16 0.12 0.05 0.04 0.10 0.05 0.05 0.09 0.03
0.00 0.00 0.00 0.00 0.00 0.00 0.01 0.12 0.00 0.00 0.00 0.01 0.02 0.01 0.01 0.03 0.13 0.52 1.43 1.86 0.87 0.25 0.17 0.09 0.07 0.00 0.00 0.00 0.00 0.00 0.00 0.00 0.00 0.00 0.00 0.00 0.00 0.00 0.01 0.03 0.18 0.11 0.06 0.07 0.09 0.02 0.04 0.12 0.05

GFSSGP_prec_precacc24_087.txt.gz
Total_Precipitation_Accumulation
0.00 0.00 0.00 0.00 0.08 0.23 0.18 0.90 1.00 0.52 0.14 0.00 0.00 0.00 0.00 0.01 0.04 0.07 0.00 0.00 0.00 0.00 0.00 0.05 0.04 0.01 0.00 0.03 0.11 0.36 0.13 0.02 0.01 0.02 0.05 0.02 0.05 0.07 0.02 0.02 0.07 0.08 0.06 0.07 0.09 0.13 0.14 0.14 0.11
0.00 0.00 0.00 0.12 0.20 0.84 0.43 0.51 1.03 0.56 0.09 0.00 0.00 0.00 0.00 0.01 0.00 0.00 0.00 0.01 0.00 0.00 0.00 0.07 0.04 0.04 0.05 0.08 0.12 0.10 0.03 0.05 0.10 0.05 0.11 0.09 0.05 0.11 0.11 0.10 0.13 0.12 0.15 0.13 0.11 0.09 0.14 0.21 0.19
0.00 0.00 0.15 0.41 0.67 1.24 1.10 0.99 1.37 0.35 0.01 0.01 0.05 0.03 0.04 0.02 0.00 0.00 0.00 0.01 0.00 0.01 0.00 0.02 0.04 0.03 0.03 0.06 0.07 0.06 0.07 0.05 0.11 0.12 0.24 0.17 0.16 0.29 0.18 0.12 0.14 0.11 0.22 0.22 0.13 0.15 0.18 0.19 0.41
0.00 0.03 0.20 1.09 2.08 1.56 0.77 0.91 1.22 0.21 0.10 0.16 0.21 0.13 0.09 0.00 0.00 0.00 0.00 0.00 0.01 0.02 0.00 0.01 0.03 0.01 0.04 0.06 0.10 0.07 0.08 0.07 0.08 0.09 0.17 0.14 0.11 0.12 0.08 0.06 0.08 0.13 0.15 0.11 0.12 0.24 0.29 0.43 0.39
0.00 0.24 1.41 1.33 1.70 2.01 0.74 0.32 0.49 0.22 0.17 0.26 0.15 0.10 0.08 0.01 0.00 0.00 0.00 0.01 0.00 0.00 0.00 0.01 0.10 0.04 0.06 0.03 0.06 0.10 0.13 0.10 0.11 0.19 0.16 0.10 0.10 0.06 0.08 0.06 0.04 0.05 0.12 0.08 0.09 0.24 0.44 0.45 0.32
0.09 0.50 1.15 0.37 0.77 1.93 1.20 0.41 0.42 0.46 0.31 0.26 0.14 0.06 0.04 0.01 0.00 0.00 0.00 0.01 0.00 0.00 0.00 0.00 0.13 0.10 0.11 0.10 0.08 0.09 0.05 0.09 0.13 0.09 0.06 0.07 0.07 0.10 0.09 0.02 0.02 0.05 0.12 0.16 0.07 0.12 0.41 0.38 0.20
0.11 0.63 0.62 0.31 0.46 2.61 1.98 1.13 0.73 0.45 0.21 0.19 0.12 0.01 0.05 0.01 0.00 0.00 0.00 0.03 0.02 0.00 0.00 0.00 0.02 0.13 0.19 0.20 0.16 0.07 0.04 0.06 0.06 0.08 0.09 0.06 0.09 0.12 0.06 0.08 0.07 0.06 0.12 0.15 0.22 0.30 0.29 0.17 0.14
0.12 0.58 0.88 0.33 0.32 0.78 0.79 0.62 0.62 0.25 0.12 0.11 0.04 0.02 0.02 0.01 0.00 0.00 0.05 0.04 0.03 0.01 0.00 0.00 0.01 0.04 0.05 0.07 0.12 0.04 0.02 0.03 0.06 0.06 0.07 0.09 0.05 0.07 0.11 0.11 0.04 0.04 0.10 0.23 0.26 0.22 0.08 0.10 0.08
0.17 0.64 0.74 0.77 0.20 0.23 0.37 0.69 1.28 0.44 0.11 0.09 0.09 0.01 0.00 0.01 0.00 0.01 0.02 0.05 0.02 0.02 0.01 0.01 0.01 0.03 0.04 0.03 0.04 0.03 0.05 0.12 0.21 0.14 0.18 0.20 0.10 0.04 0.08 0.08 0.03 0.07 0.09 0.08 0.18 0.12 0.11 0.14 0.12
0.69 0.77 0.70 0.46 0.15 0.29 0.26 0.80 0.46 0.18 0.23 0.25 0.17 0.01 0.00 0.00 0.00 0.00 0.00 0.01 0.00 0.02 0.01 0.09 0.01 0.01 0.00 0.01 0.04 0.05 0.10 0.28 0.17 0.10 0.05 0.06 0.02 0.00 0.00 0.03 0.02 0.01 0.11 0.15 0.10 0.12 0.28 0.12 0.02
0.63 0.39 0.15 0.12 0.09 0.30 0.38 0.51 0.24 0.14 0.47 0.98 0.68 0.02 0.00 0.00 0.00 0.00 0.00 0.00 0.00 0.00 0.00 0.00 0.00 0.02 0.01 0.00 0.01 0.03 0.02 0.01 0.02 0.03 0.02 0.01 0.00 0.00 0.00 0.01 0.00 0.02 0.14 0.36 0.15 0.06 0.03 0.04 0.01
0.46 0.11 0.13 0.09 0.03 0.26 0.88 0.61 0.31 0.27 0.59 0.31 0.19 0.02 0.00 0.00 0.00 0.00 0.00 0.00 0.00 0.02 0.00 0.00 0.01 0.09 0.03 0.00 0.00 0.00 0.00 0.00 0.00 0.00 0.00 0.02 0.01 0.01 0.01 0.11 0.20 0.07 0.11 0.36 0.18 0.04 0.01 0.01 0.01
0.19 0.08 0.11 0.07 0.05 0.16 0.39 0.36 0.32 0.44 1.35 0.50 0.16 0.03 0.00 0.00 0.00 0.00 0.00 0.00 0.00 0.00 0.00 0.00 0.00 0.02 0.00 0.00 0.00 0.00 0.00 0.00 0.00 0.02 0.00 0.00 0.03 0.07 0.07 0.17 0.11 0.15 0.14 0.16 0.12 0.18 0.03 0.06 0.00
0.08 0.04 0.03 0.03 0.08 0.05 0.25 0.35 0.12 0.16 0.49 0.42 0.26 0.03 0.00 0.00 0.00 0.00 0.00 0.00 0.00 0.00 0.00 0.00 0.00 0.00 0.00 0.00 0.01 0.00 0.00 0.00 0.00 0.03 0.02 0.00 0.01 0.07 0.15 0.10 0.11 0.23 0.07 0.06 0.12 0.25 0.02 0.01 0.00
0.02 0.04 0.00 0.01 0.07 0.02 0.25 0.78 0.39 0.10 0.28 0.42 0.25 0.05 0.00 0.00 0.00 0.00 0.00 0.00 0.00 0.00 0.00 0.00 0.00 0.00 0.00 0.02 0.01 0.00 0.00 0.00 0.00 0.00 0.02 0.02 0.02 0.03 0.14 0.12 0.25 0.12 0.07 0.11 0.15 0.08 0.01 0.00 0.00
0.00 0.04 0.03 0.01 0.06 0.11 0.32 1.27 0.57 0.22 0.35 0.25 0.11 0.04 0.00 0.00 0.00 0.00 0.00 0.00 0.00 0.00 0.00 0.00 0.00 0.00 0.00 0.00 0.01 0.02 0.12 0.07 0.01 0.00 0.00 0.03 0.04 0.06 0.07 0.05 0.05 0.06 0.13 0.07 0.11 0.03 0.00 0.00 0.00
0.00 0.01 0.00 0.02 0.12 0.11 0.33 1.36 1.05 0.16 0.27 0.20 0.02 0.01 0.00 0.00 0.00 0.00 0.00 0.00 0.00 0.00 0.00 0.00 0.00 0.00 0.00 0.00 0.00 0.01 0.02 0.02 0.01 0.00 0.02 0.06 0.03 0.03 0.10 0.02 0.02 0.05 0.08 0.02 0.01 0.01 0.01 0.00 0.00
0.00 0.01 0.03 0.02 0.07 0.06 0.24 0.18 0.17 0.12 0.71 0.45 0.10 0.01 0.00 0.00 0.00 0.00 0.00 0.00 0.00 0.00 0.00 0.00 0.00 0.00 0.00 0.04 0.02 0.01 0.02 0.03 0.02 0.01 0.05 0.09 0.02 0.02 0.07 0.03 0.02 0.08 0.01 0.00 0.01 0.00 0.01 0.00 0.00
0.00 0.00 0.03 0.04 0.10 0.16 0.17 0.10 0.05 0.06 0.21 0.24 0.03 0.03 0.00 0.00 0.00 0.00 0.00 0.00 0.00 0.00 0.00 0.00 0.00 0.00 0.00 0.01 0.00 0.00 0.00 0.01 0.00 0.01 0.05 0.14 0.10 0.03 0.04 0.06 0.01 0.02 0.01 0.03 0.01 0.01 0.00 0.00 0.00
0.00 0.00 0.01 0.02 0.13 0.59 1.08 0.59 0.58 0.12 0.20 0.16 0.11 0.04 0.04 0.01 0.00 0.00 0.00 0.00 0.00 0.00 0.00 0.00 0.00 0.00 0.00 0.00 0.00 0.00 0.00 0.00 0.00 0.03 0.05 0.12 0.09 0.12 0.05 0.02 0.06 0.05 0.07 0.01 0.01 0.03 0.01 0.00 0.00
0.00 0.00 0.00 0.00 0.02 0.38 0.81 1.04 0.84 0.21 0.14 0.43 0.44 0.17 0.04 0.01 0.01 0.00 0.00 0.00 0.00 0.00 0.00 0.00 0.00 0.00 0.00 0.00 0.00 0.02 0.03 0.01 0.01 0.01 0.02 0.02 0.06 0.07 0.13 0.03 0.06 0.05 0.02 0.02 0.01 0.00 0.00 0.00 0.00
0.00 0.00 0.00 0.00 0.00 0.01 0.07 0.39 0.44 0.33 0.09 0.70 0.63 0.58 0.11 0.01 0.00 0.00 0.01 0.00 0.00 0.00 0.00 0.00 0.00 0.00 0.00 0.01 0.00 0.01 0.01 0.01 0.00 0.03 0.02 0.01 0.01 0.06 0.12 0.05 0.07 0.05 0.05 0.09 0.01 0.00 0.00 0.00 0.00
0.00 0.00 0.00 0.00 0.00 0.00 0.00 0.08 0.37 0.43 0.27 0.22 0.19 0.85 0.33 0.03 0.01 0.01 0.01 0.00 0.00 0.00 0.00 0.00 0.00 0.00 0.00 0.00 0.04 0.02 0.00 0.07 0.06 0.08 0.10 0.15 0.09 0.08 0.12 0.11 0.08 0.09 0.09 0.06 0.01 0.01 0.00 0.00 0.01
0.00 0.00 0.00 0.00 0.00 0.00 0.00 0.01 0.24 0.54 0.42 0.42 0.08 0.65 1.10 0.51 0.10 0.05 0.01 0.00 0.00 0.00 0.00 0.00 0.00 0.00 0.00 0.00 0.02 0.02 0.04 0.06 0.07 0.08 0.09 0.03 0.08 0.03 0.05 0.07 0.11 0.09 0.10 0.10 0.03 0.04 0.00 0.01 0.01
0.00 0.00 0.00 0.00 0.00 0.00 0.00 0.00 0.05 0.48 0.49 0.39 0.34 0.47 0.92 1.06 0.39 0.11 0.08 0.01 0.01 0.00 0.00 0.00 0.00 0.00 0.00 0.00 0.00 0.01 0.03 0.05 0.10 0.09 0.05 0.07 0.22 0.03 0.04 0.07 0.16 0.13 0.06 0.07 0.06 0.04 0.01 0.04 0.05
0.00 0.00 0.00 0.00 0.00 0.00 0.00 0.00 0.00 0.01 0.05 0.06 0.16 0.13 0.15 0.23 0.58 0.16 0.04 0.02 0.04 0.00 0.00 0.00 0.00 0.00 0.00 0.00 0.00 0.01 0.02 0.02 0.02 0.01 0.02 0.01 0.06 0.06 0.16 0.09 0.06 0.09 0.10 0.02 0.05 0.05 0.03 0.05 0.03
0.00 0.00 0.00 0.00 0.00 0.00 0.00 0.01 0.01 0.00 0.04 0.04 0.03 0.09 0.12 0.11 0.10 0.13 0.10 0.06 0.09 0.03 0.00 0.00 0.00 0.00 0.00 0.00 0.00 0.00 0.00 0.01 0.01 0.01 0.02 0.01 0.02 0.07 0.19 0.19 0.05 0.03 0.06 0.06 0.09 0.04 0.10 0.10 0.03
0.00 0.00 0.00 0.00 0.00 0.00 0.05 0.05 0.06 0.04 0.05 0.04 0.02 0.02 0.05 0.12 0.37 0.46 0.31 0.28 0.21 0.11 0.01 0.00 0.00 0.00 0.01 0.01 0.01 0.01 0.03 0.01 0.01 0.01 0.00 0.01 0.03 0.03 0.22 0.30 0.11 0.12 0.07 0.02 0.05 0.05 0.04 0.07 0.04
0.00 0.00 0.00 0.00 0.00 0.00 0.07 0.27 0.10 0.05 0.00 0.01 0.02 0.02 0.04 0.09 0.36 1.30 1.32 1.05 0.73 0.35 0.11 0.13 0.06 0.02 0.00 0.00 0.01 0.01 0.00 0.01 0.01 0.00 0.00 0.00 0.01 0.04 0.07 0.29 0.16 0.13 0.06 0.04 0.10 0.06 0.05 0.09 0.03
0.00 0.00 0.00 0.00 0.00 0.00 0.01 0.22 0.13 0.10 0.01 0.01 0.02 0.02 0.02 0.06 0.16 0.58 1.29 2.06 2.09 1.37 0.52 0.41 0.42 0.19 0.11 0.03 0.00 0.00 0.00 0.00 0.00 0.00 0.00 0.00 0.00 0.00 0.01 0.04 0.19 0.12 0.06 0.07 0.09 0.03 0.05 0.12 0.05

GFSSGP_prec_precacc24_090.txt.gz
Total_Precipitation_Accumulation
0.00 0.00 0.00 0.00 0.12 0.38 0.19 0.63 0.69 0.34 0.10 0.00 0.01 0.00 0.01 0.01 0.04 0.08 0.00 0.00 0.00 0.00 0.00 0.04 0.04 0.00 0.00 0.01 0.09 0.36 0.13 0.02 0.00 0.02 0.05 0.03 0.03 0.05 0.02 0.02 0.07 0.08 0.07 0.07 0.08 0.13 0.15 0.14 0.12
0.00 0.00 0.00 0.12 0.34 1.13 0.45 0.42 0.83 0.54 0.08 0.00 0.00 0.00 0.01 0.01 0.00 0.00 0.00 0.01 0.00 0.00 0.00 0.07 0.04 0.03 0.04 0.03 0.11 0.09 0.03 0.05 0.08 0.05 0.11 0.09 0.04 0.11 0.11 0.11 0.12 0.14 0.16 0.11 0.10 0.09 0.15 0.22 0.19
0.00 0.00 0.14 0.46 1.02 1.76 1.21 0.79 0.99 0.30 0.01 0.01 0.05 0.01 0.02 0.01 0.00 0.00 0.00 0.01 0.00 0.01 0.00 0.02 0.03 0.02 0.03 0.05 0.06 0.05 0.06 0.04 0.10 0.12 0.24 0.17 0.16 0.27 0.18 0.12 0.13 0.11 0.22 0.22 0.13 0.15 0.18 0.19 0.40
0.00 0.03 0.20 1.17 2.34 1.21 0.62 0.56 0.42 0.16 0.06 0.14 0.15 0.11 0.08 0.00 0.00 0.00 0.00 0.00 0.01 0.02 0.00 0.01 0.02 0.01 0.04 0.06 0.10 0.07 0.06 0.05 0.07 0.08 0.17 0.12 0.11 0.11 0.08 0.07 0.09 0.13 0.15 0.11 0.11 0.24 0.29 0.44 0.40
0.00 0.35 1.64 1.45 1.30 1.44 0.71 0.28 0.24 0.16 0.14 0.17 0.11 0.10 0.08 0.01 0.00 0.00 0.00 0.01 0.00 0.00 0.00 0.01 0.11 0.04 0.06 0.03 0.06 0.09 0.08 0.10 0.11 0.19 0.16 0.10 0.09 0.06 0.10 0.07 0.05 0.05 0.12 0.08 0.09 0.24 0.44 0.48 0.32
0.09 0.76 1.40 0.36 0.60 1.24 1.07 0.35 0.35 0.44 0.29 0.22 0.14 0.06 0.04 0.01 0.00 0.00 0.00 0.01 0.00 0.00 0.00 0.00 0.13 0.10 0.11 0.10 0.08 0.08 0.05 0.09 0.13 0.09 0.06 0.06 0.06 0.10 0.10 0.02 0.02 0.05 0.12 0.16 0.07 0.12 0.42 0.42 0.22
0.12 1.47 0.85 0.25 0.36 2.19 1.66 0.93 0.64 0.44 0.20 0.18 0.12 0.01 0.06 0.01 0.00 0.00 0.00 0.03 0.02 0.00 0.00 0.00 0.02 0.13 0.19 0.19 0.16 0.07 0.04 0.06 0.06 0.08 0.09 0.06 0.09 0.12 0.06 0.08 0.07 0.06 0.12 0.15 0.22 0.30 0.29 0.17 0.13
0.15 0.98 1.66 0.36 0.43 0.83 0.84 0.59 0.56 0.23 0.11 0.09 0.04 0.02 0.03 0.01 0.01 0.04 0.05 0.05 0.03 0.01 0.00 0.00 0.01 0.04 0.05 0.07 0.12 0.04 0.02 0.04 0.06 0.06 0.07 0.08 0.05 0.08 0.12 0.11 0.04 0.04 0.10 0.23 0.26 0.22 0.08 0.10 0.07
0.20 0.82 1.11 0.85 0.32 0.49 0.40 0.62 1.24 0.41 0.05 0.08 0.04 0.00 0.00 0.01 0.00 0.01 0.03 0.05 0.02 0.03 0.07 0.01 0.01 0.03 0.04 0.03 0.04 0.03 0.05 0.13 0.21 0.12 0.18 0.19 0.10 0.04 0.08 0.08 0.04 0.07 0.09 0.08 0.18 0.12 0.10 0.12 0.10
0.82 1.00 1.23 0.55 0.14 0.26 0.22 0.78 0.50 0.13 0.14 0.10 0.06 0.00 0.00 0.00 0.00 0.00 0.01 0.01 0.00 0.02 0.02 0.09 0.01 0.01 0.00 0.01 0.04 0.05 0.10 0.26 0.15 0.10 0.05 0.06 0.02 0.00 0.00 0.02 0.02 0.01 0.11 0.15 0.10 0.12 0.28 0.12 0.03
0.74 0.89 0.28 0.33 0.12 0.24 0.31 0.40 0.27 0.14 0.34 0.23 0.40 0.01 0.00 0.00 0.00 0.00 0.00 0.00 0.01 0.02 0.04 0.00 0.00 0.02 0.01 0.00 0.01 0.03 0.02 0.01 0.02 0.01 0.01 0.01 0.00 0.00 0.00 0.01 0.00 0.02 0.14 0.38 0.15 0.07 0.06 0.05 0.08
0.61 0.42 0.25 0.20 0.16 0.25 0.64 0.29 0.30 0.24 0.50 0.13 0.06 0.00 0.00 0.00 0.00 0.00 0.00 0.00 0.00 0.02 0.01 0.00 0.01 0.09 0.03 0.00 0.00 0.00 0.00 0.00 0.00 0.00 0.00 0.01 0.00 0.01 0.01 0.11 0.20 0.08 0.10 0.34 0.17 0.06 0.02 0.02 0.01
0.22 0.21 0.20 0.18 0.09 0.13 0.30 0.25 0.31 0.44 1.02 0.25 0.07 0.01 0.00 0.00 0.00 0.00 0.00 0.00 0.00 0.01 0.00 0.00 0.01 0.02 0.00 0.00 0.00 0.00 0.00 0.00 0.00 0.02 0.00 0.00 0.03 0.06 0.07 0.16 0.11 0.15 0.15 0.16 0.13 0.18 0.03 0.05 0.00
0.13 0.12 0.14 0.13 0.13 0.10 0.18 0.33 0.14 0.19 0.43 0.34 0.20 0.03 0.00 0.00 0.00 0.00 0.00 0.00 0.00 0.01 0.00 0.00 0.00 0.00 0.00 0.00 0.00 0.00 0.00 0.00 0.00 0.03 0.02 0.00 0.02 0.05 0.14 0.10 0.11 0.22 0.07 0.06 0.12 0.24 0.02 0.00 0.00
0.04 0.11 0.13 0.08 0.10 0.02 0.22 0.79 0.41 0.10 0.21 0.34 0.22 0.05 0.00 0.00 0.00 0.00 0.00 0.00 0.00 0.00 0.00 0.00 0.00 0.00 0.00 0.01 0.01 0.00 0.00 0.00 0.00 0.00 0.02 0.03 0.02 0.03 0.14 0.12 0.25 0.12 0.11 0.12 0.15 0.08 0.01 0.00 0.00
0.00 0.07 0.07 0.06 0.12 0.14 0.34 1.86 0.74 0.20 0.34 0.24 0.10 0.04 0.00 0.00 0.00 0.00 0.00 0.00 0.00 0.00 0.00 0.00 0.00 0.00 0.00 0.00 0.01 0.02 0.12 0.07 0.01 0.00 0.00 0.02 0.05 0.07 0.07 0.04 0.03 0.05 0.14 0.07 0.11 0.03 0.00 0.00 0.00
0.00 0.01 0.02 0.12 0.15 0.18 0.43 1.77 1.33 0.24 0.21 0.12 0.02 0.01 0.00 0.00 0.00 0.00 0.00 0.00 0.00 0.00 0.00 0.00 0.00 0.00 0.00 0.00 0.00 0.01 0.02 0.02 0.01 0.01 0.04 0.10 0.03 0.04 0.10 0.02 0.02 0.05 0.08 0.03 0.01 0.01 0.01 0.00 0.00
0.00 0.01 0.06 0.07 0.27 0.28 0.39 0.19 0.15 0.14 0.29 0.14 0.03 0.01 0.00 0.00 0.00 0.00 0.00 0.00 0.00 0.00 0.00 0.00 0.00 0.00 0.00 0.04 0.02 0.02 0.02 0.04 0.02 0.01 0.05 0.09 0.02 0.02 0.08 0.04 0.02 0.08 0.01 0.00 0.04 0.00 0.01 0.00 0.00
0.00 0.01 0.04 0.08 0.27 0.47 0.34 0.19 0.14 0.09 0.33 0.17 0.03 0.02 0.00 0.00 0.00 0.00 0.00 0.00 0.00 0.00 0.00 0.00 0.00 0.00 0.00 0.01 0.01 0.00 0.02 0.02 0.00 0.01 0.05 0.14 0.12 0.06 0.03 0.06 0.03 0.02 0.01 0.03 0.01 0.01 0.00 0.00 0.00
0.00 0.00 0.01 0.06 0.27 0.98 1.54 0.85 0.65 0.23 0.37 0.22 0.10 0.03 0.01 0.00 0.00 0.00 0.00 0.00 0.00 0.00 0.00 0.00 0.00 0.00 0.00 0.00 0.00 0.01 0.00 0.00 0.01 0.03 0.05 0.13 0.10 0.15 0.05 0.02 0.06 0.04 0.07 0.01 0.02 0.03 0.01 0.00 0.00
0.00 0.00 0.00 0.03 0.12 0.60 1.15 1.27 0.94 0.37 0.35 0.52 0.24 0.06 0.01 0.00 0.00 0.00 0.00 0.00 0.00 0.00 0.00 0.00 0.00 0.00 0.00 0.00 0.00 0.03 0.03 0.02 0.07 0.08 0.02 0.03 0.07 0.08 0.13 0.03 0.06 0.05 0.02 0.02 0.03 0.03 0.00 0.00 0.00
0.00 0.00 0.00 0.00 0.01 0.04 0.10 0.33 0.33 0.45 0.30 0.84 0.38 0.20 0.05 0.01 0.00 0.00 0.01 0.00 0.00 0.00 0.00 0.00 0.00 0.00 0.00 0.01 0.00 0.02 0.01 0.01 0.03 0.05 0.08 0.05 0.01 0.06 0.12 0.05 0.07 0.05 0.05 0.09 0.01 0.02 0.01 0.00 0.00
0.00 0.00 0.00 0.00 0.02 0.02 0.01 0.10 0.37 0.47 0.42 0.38 0.24 0.75 0.31 0.03 0.01 0.01 0.01 0.00 0.00 0.00 0.00 0.00 0.00 0.00 0.00 0.00 0.04 0.02 0.01 0.07 0.06 0.09 0.11 0.20 0.17 0.10 0.12 0.11 0.09 0.10 0.09 0.06 0.01 0.02 0.00 0.01 0.01
0.00 0.00 0.00 0.01 0.04 0.03 0.00 0.02 0.27 0.54 0.46 0.50 0.14 0.65 1.11 0.52 0.11 0.05 0.01 0.00 0.00 0.00 0.00 0.00 0.00 0.00 0.00 0.00 0.03 0.03 0.04 0.06 0.08 0.10 0.12 0.11 0.17 0.08 0.07 0.09 0.11 0.09 0.10 0.10 0.03 0.04 0.00 0.01 0.01
0.00 0.00 0.00 0.00 0.00 0.00 0.00 0.00 0.08 0.49 0.49 0.39 0.34 0.47 0.92 1.06 0.40 0.15 0.09 0.02 0.01 0.00 0.00 0.00 0.00 0.00 0.00 0.00 0.01 0.01 0.03 0.05 0.10 0.12 0.07 0.08 0.23 0.04 0.04 0.07 0.16 0.13 0.06 0.07 0.06 0.04 0.01 0.05 0.05
0.00 0.00 0.00 0.00 0.00 0.00 0.00 0.01 0.01 0.02 0.05 0.06 0.17 0.12 0.15 0.23 0.59 0.18 0.12 0.11 0.05 0.00 0.00 0.00 0.00 0.00 0.00 0.00 0.00 0.01 0.03 0.02 0.02 0.01 0.03 0.01 0.07 0.07 0.19 0.10 0.06 0.09 0.10 0.02 0.06 0.05 0.03 0.05 0.03
0.00 0.00 0.00 0.00 0.00 0.00 0.04 0.02 0.02 0.00 0.04 0.04 0.03 0.09 0.12 0.11 0.10 0.15 0.19 0.17 0.12 0.04 0.00 0.00 0.00 0.00 0.00 0.00 0.00 0.00 0.00 0.01 0.01 0.01 0.05 0.01 0.03 0.11 0.20 0.19 0.05 0.03 0.06 0.06 0.10 0.04 0.10 0.10 0.03
0.00 0.00 0.00 0.00 0.00 0.00 0.11 0.13 0.11 0.06 0.06 0.04 0.02 0.02 0.05 0.12 0.37 0.46 0.33 0.31 0.25 0.11 0.02 0.01 0.00 0.00 0.01 0.01 0.01 0.01 0.03 0.01 0.01 0.02 0.01 0.01 0.03 0.03 0.22 0.30 0.11 0.12 0.07 0.02 0.05 0.05 0.04 0.07 0.04
0.00 0.00 0.00 0.00 0.00 0.00 0.10 0.30 0.19 0.14 0.03 0.03 0.04 0.03 0.04 0.09 0.38 1.30 1.30 1.03 0.74 0.44 0.17 0.28 0.24 0.14 0.05 0.01 0.01 0.01 0.01 0.02 0.01 0.01 0.02 0.00 0.01 0.04 0.08 0.29 0.16 0.13 0.06 0.04 0.10 0.06 0.05 0.09 0.03
0.00 0.00 0.00 0.00 0.00 0.00 0.02 0.26 0.23 0.25 0.12 0.07 0.06 0.04 0.04 0.10 0.21 0.62 1.34 2.08 2.14 1.62 1.29 0.66 0.65 0.44 0.24 0.14 0.08 0.04 0.05 0.05 0.01 0.00 0.00 0.00 0.00 0.00 0.02 0.04 0.19 0.12 0.06 0.07 0.09 0.03 0.05 0.12 0.05

GFSSGP_prec_precacc24_096.txt.gz
Total_Precipitation_Accumulation
0.00 0.00 0.00 0.00 0.17 0.39 0.21 0.63 0.56 0.15 0.06 0.00 0.01 0.00 0.01 0.01 0.04 0.08 0.00 0.00 0.00 0.00 0.06 0.20 0.14 0.05 0.01 0.00 0.09 0.37 0.14 0.05 0.01 0.03 0.06 0.03 0.06 0.09 0.05 0.09 0.18 0.19 0.07 0.08 0.07 0.10 0.11 0.12 0.12
0.00 0.00 0.00 0.12 0.41 1.03 0.32 0.42 0.65 0.34 0.04 0.00 0.00 0.00 0.01 0.01 0.00 0.00 0.00 0.01 0.00 0.00 0.00 0.00 0.02 0.02 0.04 0.03 0.11 0.10 0.04 0.07 0.11 0.07 0.12 0.11 0.06 0.15 0.16 0.19 0.23 0.12 0.12 0.10 0.11 0.10 0.14 0.23 0.16
0.00 0.00 0.13 0.50 1.32 1.21 0.72 0.68 0.74 0.19 0.00 0.00 0.01 0.02 0.00 0.00 0.00 0.00 0.00 0.01 0.00 0.01 0.00 0.00 0.01 0.02 0.04 0.06 0.08 0.05 0.06 0.05 0.10 0.16 0.28 0.21 0.16 0.29 0.17 0.14 0.19 0.11 0.16 0.19 0.13 0.13 0.20 0.21 0.23
0.00 0.03 0.24 1.29 2.48 0.80 0.58 0.38 0.18 0.05 0.01 0.01 0.00 0.00 0.00 0.00 0.00 0.00 0.00 0.00 0.01 0.02 0.00 0.00 0.01 0.04 0.11 0.07 0.10 0.12 0.06 0.04 0.06 0.07 0.16 0.17 0.15 0.13 0.08 0.09 0.12 0.09 0.06 0.04 0.09 0.24 0.27 0.34 0.32
0.01 0.43 1.93 1.70 1.29 1.22 0.70 0.24 0.05 0.06 0.04 0.03 0.00 0.00 0.01 0.01 0.00 0.00 0.00 0.01 0.00 0.00 0.00 0.01 0.13 0.11 0.14 0.13 0.16 0.13 0.07 0.08 0.12 0.23 0.21 0.14 0.09 0.04 0.08 0.07 0.06 0.04 0.09 0.06 0.08 0.21 0.35 0.39 0.26
0.15 1.22 1.87 0.40 0.39 1.09 0.83 0.16 0.16 0.20 0.12 0.09 0.01 0.00 0.03 0.00 0.00 0.00 0.00 0.01 0.00 0.00 0.00 0.02 0.18 0.16 0.16 0.17 0.13 0.09 0.14 0.12 0.18 0.11 0.06 0.07 0.06 0.11 0.05 0.02 0.02 0.05 0.12 0.16 0.08 0.14 0.33 0.31 0.19
0.20 2.08 1.24 0.25 0.27 0.92 0.62 0.20 0.38 0.23 0.11 0.11 0.04 0.00 0.04 0.01 0.00 0.00 0.00 0.03 0.02 0.00 0.00 0.00 0.02 0.14 0.14 0.22 0.12 0.04 0.03 0.07 0.13 0.10 0.08 0.05 0.09 0.17 0.09 0.07 0.06 0.06 0.12 0.17 0.26 0.31 0.30 0.29 0.18
0.18 1.12 1.68 0.37 0.94 0.96 0.47 0.26 0.36 0.15 0.09 0.09 0.04 0.02 0.02 0.01 0.01 0.04 0.05 0.05 0.03 0.01 0.00 0.02 0.00 0.03 0.03 0.09 0.16 0.07 0.04 0.06 0.14 0.11 0.14 0.15 0.19 0.09 0.08 0.08 0.04 0.04 0.10 0.24 0.29 0.25 0.11 0.15 0.11
0.29 0.99 1.14 0.96 0.96 0.67 0.24 0.36 0.84 0.25 0.04 0.07 0.02 0.00 0.00 0.01 0.00 0.01 0.03 0.04 0.02 0.03 0.08 0.04 0.01 0.04 0.05 0.03 0.06 0.05 0.05 0.14 0.24 0.19 0.26 0.26 0.22 0.09 0.08 0.08 0.04 0.07 0.09 0.08 0.18 0.12 0.08 0.13 0.11
0.83 1.03 1.31 0.71 0.46 0.27 0.16 0.58 0.30 0.08 0.04 0.02 0.01 0.00 0.00 0.00 0.00 0.00 0.01 0.01 0.00 0.02 0.03 0.10 0.01 0.01 0.00 0.01 0.06 0.14 0.10 0.24 0.14 0.11 0.06 0.07 0.04 0.03 0.05 0.08 0.02 0.02 0.14 0.19 0.09 0.13 0.30 0.12 0.03
0.63 1.26 0.36 0.53 0.21 0.19 0.30 0.36 0.08 0.08 0.20 0.04 0.00 0.00 0.00 0.00 0.00 0.00 0.00 0.00 0.01 0.02 0.04 0.00 0.00 0.02 0.01 0.01 0.02 0.04 0.02 0.01 0.01 0.01 0.01 0.01 0.00 0.04 0.12 0.16 0.05 0.03 0.12 0.32 0.13 0.05 0.07 0.06 0.08
0.58 0.68 0.49 0.36 0.28 0.28 0.39 0.17 0.18 0.18 0.34 0.06 0.00 0.00 0.00 0.00 0.00 0.00 0.00 0.00 0.00 0.02 0.01 0.00 0.01 0.09 0.03 0.00 0.00 0.00 0.00 0.00 0.00 0.00 0.00 0.01 0.00 0.01 0.02 0.12 0.20 0.08 0.10 0.35 0.19 0.08 0.04 0.03 0.01
0.25 0.38 0.59 0.58 0.45 0.34 0.28 0.32 0.27 0.37 0.85 0.05 0.01 0.00 0.00 0.00 0.00 0.00 0.00 0.00 0.00 0.01 0.00 0.00 0.01 0.02 0.00 0.00 0.00 0.00 0.00 0.00 0.00 0.00 0.00 0.00 0.03 0.06 0.07 0.16 0.11 0.15 0.15 0.16 0.13 0.18 0.03 0.05 0.00
0.17 0.34 0.46 0.52 0.60 0.38 0.31 0.48 0.26 0.26 0.36 0.05 0.01 0.00 0.00 0.00 0.00 0.00 0.00 0.00 0.00 0.01 0.00 0.00 0.00 0.00 0.00 0.00 0.00 0.00 0.00 0.00 0.00 0.00 0.00 0.00 0.02 0.05 0.14 0.10 0.11 0.23 0.07 0.06 0.12 0.24 0.01 0.00 0.00
0.08 0.32 0.41 0.24 0.44 0.26 0.36 1.01 0.63 0.24 0.13 0.04 0.02 0.01 0.00 0.00 0.00 0.00 0.00 0.00 0.00 0.00 0.00 0.00 0.00 0.00 0.00 0.00 0.00 0.00 0.00 0.00 0.00 0.03 0.04 0.03 0.02 0.03 0.17 0.14 0.27 0.12 0.11 0.12 0.16 0.07 0.00 0.00 0.00
0.03 0.26 0.38 0.15 0.23 0.30 0.65 2.04 1.07 0.41 0.26 0.09 0.03 0.03 0.00 0.00 0.00 0.00 0.00 0.00 0.00 0.00 0.00 0.00 0.00 0.00 0.00 0.00 0.01 0.01 0.12 0.07 0.01 0.02 0.03 0.01 0.04 0.05 0.06 0.04 0.05 0.05 0.14 0.07 0.11 0.03 0.00 0.00 0.00
0.00 0.16 0.31 0.47 0.16 0.22 0.50 1.97 1.46 0.29 0.24 0.12 0.01 0.01 0.00 0.00 0.00 0.00 0.00 0.00 0.00 0.00 0.00 0.00 0.00 0.00 0.00 0.00 0.00 0.01 0.02 0.02 0.01 0.01 0.04 0.05 0.04 0.04 0.05 0.02 0.03 0.08 0.09 0.03 0.01 0.01 0.01 0.00 0.00
0.00 0.05 0.18 0.34 0.51 0.62 0.61 0.21 0.13 0.11 0.30 0.16 0.03 0.01 0.00 0.00 0.00 0.00 0.00 0.00 0.00 0.00 0.00 0.00 0.00 0.00 0.00 0.00 0.01 0.02 0.02 0.04 0.01 0.02 0.02 0.02 0.05 0.06 0.06 0.05 0.04 0.13 0.02 0.00 0.04 0.00 0.01 0.00 0.00
0.00 0.01 0.06 0.22 0.74 0.86 0.60 0.27 0.29 0.14 0.37 0.31 0.04 0.02 0.00 0.00 0.00 0.00 0.00 0.00 0.00 0.00 0.00 0.00 0.00 0.00 0.00 0.00 0.01 0.01 0.02 0.02 0.00 0.02 0.03 0.07 0.09 0.07 0.04 0.07 0.05 0.04 0.03 0.04 0.02 0.01 0.00 0.00 0.00
0.00 0.00 0.06 0.16 0.57 1.25 2.19 1.14 0.74 0.46 0.37 0.39 0.13 0.04 0.01 0.00 0.00 0.00 0.00 0.00 0.00 0.00 0.00 0.00 0.00 0.00 0.00 0.00 0.00 0.01 0.01 0.01 0.01 0.05 0.03 0.04 0.05 0.07 0.07 0.10 0.05 0.05 0.09 0.05 0.02 0.03 0.01 0.00 0.00
0.00 0.01 0.04 0.08 0.20 0.69 1.41 1.69 0.93 0.45 0.61 0.72 0.24 0.08 0.01 0.00 0.00 0.00 0.00 0.00 0.00 0.00 0.00 0.00 0.00 0.00 0.00 0.00 0.00 0.03 0.03 0.02 0.09 0.10 0.05 0.04 0.03 0.03 0.11 0.07 0.05 0.07 0.03 0.03 0.03 0.03 0.00 0.00 0.00
0.00 0.01 0.00 0.00 0.01 0.04 0.12 0.36 0.30 0.34 0.45 1.07 0.46 0.24 0.05 0.01 0.00 0.00 0.01 0.00 0.00 0.00 0.00 0.00 0.00 0.00 0.00 0.01 0.00 0.02 0.02 0.02 0.04 0.10 0.11 0.14 0.05 0.07 0.09 0.04 0.10 0.07 0.05 0.09 0.02 0.02 0.01 0.00 0.00
0.01 0.01 0.00 0.00 0.02 0.02 0.01 0.10 0.35 0.44 0.49 0.52 0.57 0.78 0.31 0.03 0.01 0.01 0.01 0.00 0.00 0.00 0.00 0.00 0.00 0.00 0.00 0.00 0.04 0.02 0.07 0.08 0.07 0.11 0.14 0.24 0.21 0.18 0.13 0.15 0.13 0.13 0.09 0.06 0.02 0.03 0.00 0.02 0.01
0.00 0.00 0.00 0.01 0.04 0.04 0.00 0.02 0.27 0.54 0.46 0.51 0.27 0.75 1.11 0.52 0.11 0.05 0.02 0.01 0.00 0.00 0.00 0.00 0.00 0.00 0.00 0.00 0.03 0.04 0.04 0.09 0.09 0.10 0.16 0.15 0.17 0.10 0.09 0.10 0.13 0.12 0.11 0.10 0.03 0.06 0.01 0.01 0.01
0.00 0.00 0.00 0.02 0.02 0.00 0.00 0.00 0.08 0.49 0.49 0.39 0.34 0.48 0.92 1.06 0.40 0.16 0.11 0.06 0.03 0.00 0.00 0.00 0.00 0.00 0.00 0.00 0.01 0.01 0.03 0.06 0.15 0.12 0.07 0.08 0.23 0.04 0.04 0.08 0.19 0.10 0.07 0.07 0.06 0.05 0.02 0.05 0.05
0.00 0.00 0.00 0.00 0.00 0.00 0.00 0.01 0.01 0.02 0.05 0.06 0.17 0.14 0.20 0.25 0.61 0.23 0.21 0.16 0.13 0.05 0.00 0.00 0.00 0.00 0.00 0.00 0.00 0.01 0.03 0.03 0.12 0.04 0.03 0.01 0.07 0.07 0.19 0.10 0.07 0.10 0.11 0.03 0.06 0.05 0.03 0.05 0.03
0.00 0.00 0.00 0.00 0.00 0.00 0.04 0.02 0.03 0.01 0.04 0.04 0.03 0.09 0.12 0.11 0.11 0.16 0.26 0.26 0.15 0.04 0.00 0.00 0.00 0.00 0.00 0.00 0.00 0.00 0.00 0.01 0.01 0.01 0.06 0.01 0.03 0.11 0.20 0.20 0.12 0.15 0.08 0.06 0.10 0.04 0.10 0.09 0.02
0.00 0.00 0.00 0.00 0.00 0.00 0.11 0.14 0.12 0.07 0.07 0.04 0.02 0.02 0.05 0.12 0.38 0.47 0.37 0.36 0.31 0.15 0.05 0.01 0.02 0.01 0.02 0.01 0.01 0.01 0.03 0.01 0.01 0.02 0.02 0.06 0.09 0.10 0.26 0.37 0.12 0.12 0.05 0.03 0.05 0.05 0.04 0.07 0.04
0.00 0.00 0.00 0.00 0.00 0.00 0.10 0.31 0.19 0.15 0.04 0.05 0.09 0.09 0.14 0.13 0.40 1.31 1.32 1.10 0.87 0.60 0.21 0.28 0.31 0.24 0.09 0.01 0.01 0.01 0.01 0.02 0.02 0.02 0.02 0.03 0.05 0.14 0.18 0.35 0.24 0.16 0.04 0.02 0.07 0.07 0.06 0.10 0.04
0.00 0.00 0.00 0.00 0.00 0.00 0.02 0.26 0.23 0.25 0.14 0.13 0.16 0.10 0.12 0.18 0.26 0.65 1.31 2.05 2.17 1.83 1.50 0.78 0.91 0.76 0.41 0.20 0.10 0.05 0.05 0.05 0.02 0.06 0.01 0.00 0.03 0.07 0.14 0.11 0.30 0.17 0.08 0.07 0.09 0.05 0.07 0.19 0.07

GFSSGP_prec_precacc24_099.txt.gz
Total_Precipitation_Accumulation
0.00 0.00 0.00 0.00 0.17 0.38 0.20 0.59 0.51 0.09 0.02 0.00 0.01 0.00 0.01 0.01 0.04 0.08 0.00 0.00 0.00 0.00 0.06 0.22 0.26 0.17 0.07 0.01 0.10 0.40 0.15 0.09 0.02 0.03 0.06 0.03 0.06 0.10 0.09 0.12 0.18 0.18 0.07 0.07 0.07 0.08 0.10 0.11 0.11
0.00 0.00 0.00 0.12 0.41 1.00 0.22 0.40 0.56 0.22 0.01 0.00 0.00 0.00 0.01 0.01 0.00 0.00 0.00 0.01 0.00 0.00 0.00 0.02 0.14 0.06 0.04 0.03 0.11 0.16 0.06 0.08 0.12 0.06 0.08 0.07 0.08 0.18 0.21 0.24 0.24 0.12 0.12 0.10 0.11 0.10 0.15 0.18 0.08
0.00 0.00 0.13 0.51 1.35 1.14 0.65 0.58 0.58 0.11 0.00 0.00 0.01 0.02 0.00 0.01 0.00 0.00 0.00 0.01 0.00 0.01 0.00 0.00 0.01 0.02 0.04 0.07 0.08 0.06 0.10 0.05 0.08 0.14 0.11 0.11 0.16 0.28 0.21 0.15 0.19 0.10 0.16 0.19 0.16 0.15 0.21 0.21 0.11
0.00 0.03 0.26 1.34 2.47 0.71 0.45 0.30 0.11 0.04 0.00 0.00 0.00 0.01 0.00 0.00 0.00 0.00 0.00 0.00 0.01 0.02 0.00 0.00 0.01 0.05 0.16 0.16 0.13 0.13 0.07 0.09 0.10 0.12 0.14 0.22 0.23 0.19 0.12 0.12 0.16 0.09 0.07 0.05 0.12 0.21 0.17 0.18 0.11
0.01 0.43 1.94 1.77 1.20 0.95 0.67 0.23 0.03 0.04 0.02 0.01 0.00 0.00 0.01 0.00 0.00 0.00 0.00 0.01 0.00 0.00 0.00 0.01 0.18 0.16 0.15 0.20 0.30 0.15 0.08 0.12 0.11 0.22 0.25 0.21 0.15 0.15 0.23 0.17 0.05 0.04 0.08 0.05 0.09 0.17 0.25 0.26 0.11
0.16 1.25 2.09 0.57 0.32 0.90 0.80 0.16 0.12 0.13 0.02 0.00 0.00 0.00 0.02 0.01 0.00 0.00 0.00 0.01 0.00 0.00 0.00 0.02 0.19 0.16 0.16 0.20 0.25 0.15 0.17 0.16 0.22 0.14 0.13 0.17 0.17 0.16 0.08 0.09 0.03 0.04 0.12 0.16 0.08 0.13 0.17 0.18 0.08
0.23 2.19 1.43 0.27 0.27 0.83 0.58 0.18 0.28 0.13 0.04 0.03 0.01 0.00 0.03 0.01 0.00 0.00 0.00 0.03 0.02 0.00 0.00 0.00 0.04 0.14 0.14 0.23 0.22 0.13 0.09 0.08 0.14 0.10 0.14 0.17 0.16 0.18 0.14 0.11 0.05 0.06 0.12 0.17 0.25 0.23 0.23 0.22 0.11
0.20 1.14 1.71 0.39 0.94 0.99 0.45 0.16 0.11 0.08 0.06 0.05 0.03 0.02 0.01 0.00 0.00 0.04 0.05 0.05 0.03 0.01 0.00 0.02 0.00 0.03 0.05 0.10 0.19 0.07 0.04 0.06 0.14 0.19 0.19 0.29 0.32 0.13 0.06 0.07 0.03 0.04 0.09 0.25 0.28 0.25 0.11 0.12 0.07
0.35 1.04 1.18 0.96 1.02 0.67 0.19 0.20 0.28 0.09 0.04 0.07 0.02 0.00 0.00 0.00 0.00 0.01 0.02 0.04 0.02 0.03 0.08 0.04 0.01 0.04 0.06 0.04 0.07 0.06 0.04 0.14 0.24 0.22 0.31 0.30 0.27 0.09 0.06 0.05 0.04 0.07 0.09 0.07 0.13 0.12 0.09 0.15 0.07
0.85 1.06 1.34 0.73 0.51 0.18 0.06 0.17 0.16 0.07 0.04 0.02 0.01 0.00 0.00 0.00 0.00 0.00 0.01 0.01 0.01 0.02 0.04 0.10 0.01 0.01 0.00 0.01 0.06 0.14 0.10 0.23 0.13 0.11 0.06 0.07 0.04 0.03 0.05 0.09 0.05 0.02 0.13 0.18 0.09 0.13 0.29 0.12 0.02
0.66 1.28 0.36 0.55 0.22 0.16 0.14 0.18 0.06 0.07 0.16 0.04 0.00 0.00 0.00 0.00 0.00 0.00 0.00 0.00 0.01 0.02 0.03 0.00 0.00 0.02 0.01 0.01 0.02 0.04 0.02 0.01 0.01 0.01 0.01 0.01 0.00 0.04 0.12 0.16 0.06 0.03 0.12 0.32 0.13 0.04 0.07 0.06 0.08
0.56 0.73 0.54 0.47 0.28 0.28 0.28 0.06 0.10 0.15 0.29 0.05 0.00 0.00 0.00 0.00 0.00 0.00 0.00 0.00 0.00 0.02 0.01 0.00 0.01 0.09 0.03 0.01 0.00 0.00 0.00 0.00 0.00 0.00 0.00 0.01 0.00 0.01 0.02 0.12 0.20 0.08 0.10 0.36 0.19 0.08 0.04 0.03 0.01
0.26 0.49 0.77 0.63 0.45 0.38 0.29 0.28 0.20 0.32 0.84 0.04 0.01 0.00 0.00 0.00 0.00 0.00 0.00 0.00 0.00 0.01 0.00 0.00 0.01 0.02 0.01 0.00 0.00 0.00 0.00 0.00 0.00 0.00 0.00 0.00 0.03 0.06 0.07 0.16 0.11 0.15 0.15 0.16 0.14 0.18 0.03 0.05 0.00
0.20 0.48 0.62 0.67 0.63 0.47 0.38 0.45 0.27 0.25 0.34 0.05 0.01 0.00 0.00 0.00 0.00 0.00 0.00 0.00 0.00 0.01 0.00 0.00 0.00 0.00 0.00 0.00 0.00 0.00 0.00 0.00 0.00 0.00 0.00 0.00 0.02 0.05 0.14 0.10 0.11 0.23 0.07 0.06 0.13 0.24 0.01 0.00 0.00
0.13 0.46 0.54 0.30 0.56 0.34 0.52 1.00 0.70 0.24 0.07 0.02 0.01 0.00 0.00 0.00 0.00 0.00 0.00 0.00 0.00 0.00 0.00 0.00 0.00 0.00 0.00 0.00 0.00 0.00 0.00 0.00 0.00 0.03 0.04 0.03 0.02 0.03 0.18 0.14 0.27 0.12 0.11 0.12 0.16 0.07 0.00 0.00 0.00
0.09 0.30 0.45 0.24 0.58 0.53 1.06 2.35 1.22 0.42 0.05 0.04 0.00 0.00 0.00 0.00 0.00 0.00 0.00 0.00 0.00 0.00 0.00 0.00 0.00 0.00 0.00 0.00 0.01 0.01 0.12 0.07 0.01 0.02 0.04 0.01 0.04 0.05 0.06 0.04 0.05 0.05 0.14 0.07 0.11 0.03 0.00 0.00 0.00
0.04 0.30 0.39 0.59 0.49 0.96 1.69 2.67 1.91 0.41 0.20 0.11 0.01 0.00 0.00 0.00 0.00 0.00 0.00 0.00 0.00 0.00 0.00 0.00 0.00 0.00 0.00 0.00 0.00 0.01 0.02 0.02 0.01 0.01 0.04 0.04 0.04 0.03 0.04 0.02 0.03 0.08 0.09 0.03 0.01 0.01 0.01 0.00 0.00
0.02 0.13 0.26 0.50 0.69 0.84 0.91 0.36 0.36 0.14 0.31 0.18 0.04 0.01 0.00 0.00 0.00 0.00 0.00 0.00 0.00 0.00 0.00 0.00 0.00 0.00 0.00 0.00 0.01 0.02 0.02 0.04 0.00 0.02 0.02 0.02 0.05 0.06 0.06 0.04 0.04 0.13 0.02 0.00 0.04 0.00 0.01 0.00 0.00
0.00 0.03 0.16 0.30 0.83 1.02 0.66 0.31 0.35 0.14 0.36 0.35 0.07 0.03 0.00 0.00 0.00 0.00 0.00 0.00 0.00 0.00 0.00 0.00 0.00 0.00 0.00 0.00 0.01 0.01 0.02 0.02 0.00 0.02 0.03 0.07 0.09 0.07 0.08 0.07 0.05 0.04 0.03 0.04 0.02 0.01 0.00 0.00 0.00
0.00 0.00 0.11 0.18 0.62 1.34 2.33 1.25 0.78 0.46 0.35 0.37 0.15 0.04 0.02 0.01 0.00 0.00 0.00 0.00 0.00 0.00 0.00 0.00 0.00 0.00 0.00 0.00 0.00 0.01 0.01 0.01 0.01 0.05 0.03 0.04 0.05 0.08 0.08 0.11 0.05 0.05 0.09 0.05 0.02 0.03 0.01 0.00 0.00
0.00 0.01 0.10 0.15 0.28 0.74 1.44 1.87 1.06 0.46 0.64 0.72 0.26 0.08 0.01 0.01 0.00 0.00 0.00 0.00 0.00 0.00 0.00 0.00 0.00 0.00 0.00 0.00 0.00 0.03 0.03 0.02 0.09 0.11 0.09 0.10 0.04 0.03 0.13 0.09 0.05 0.07 0.03 0.03 0.03 0.03 0.00 0.00 0.00
0.00 0.01 0.00 0.00 0.01 0.04 0.12 0.37 0.32 0.35 0.45 1.07 0.46 0.24 0.05 0.01 0.00 0.00 0.01 0.00 0.00 0.00 0.00 0.00 0.00 0.00 0.00 0.01 0.00 0.05 0.04 0.05 0.05 0.13 0.19 0.19 0.06 0.07 0.14 0.07 0.10 0.08 0.05 0.09 0.02 0.02 0.01 0.00 0.00
0.01 0.01 0.00 0.00 0.02 0.02 0.01 0.10 0.35 0.44 0.48 0.52 0.57 0.75 0.25 0.03 0.01 0.01 0.01 0.00 0.00 0.00 0.00 0.00 0.00 0.00 0.00 0.00 0.04 0.03 0.07 0.08 0.08 0.11 0.17 0.30 0.23 0.21 0.18 0.18 0.12 0.13 0.09 0.06 0.02 0.03 0.01 0.02 0.01
0.00 0.00 0.00 0.01 0.04 0.04 0.00 0.02 0.27 0.54 0.45 0.51 0.28 0.75 1.09 0.51 0.11 0.05 0.02 0.01 0.00 0.00 0.00 0.00 0.00 0.00 0.00 0.00 0.03 0.04 0.05 0.09 0.10 0.11 0.16 0.15 0.17 0.10 0.10 0.09 0.13 0.11 0.11 0.10 0.03 0.06 0.01 0.01 0.01
0.00 0.00 0.00 0.02 0.02 0.00 0.00 0.00 0.08 0.49 0.49 0.39 0.34 0.48 0.92 1.06 0.40 0.16 0.11 0.06 0.03 0.00 0.00 0.00 0.00 0.00 0.00 0.00 0.01 0.01 0.05 0.06 0.18 0.14 0.07 0.09 0.30 0.09 0.05 0.12 0.18 0.06 0.07 0.07 0.06 0.05 0.02 0.05 0.04
0.00 0.00 0.00 0.00 0.00 0.00 0.00 0.01 0.01 0.02 0.05 0.06 0.17 0.14 0.20 0.25 0.61 0.23 0.21 0.16 0.13 0.05 0.00 0.00 0.00 0.00 0.00 0.00 0.01 0.02 0.05 0.03 0.12 0.04 0.03 0.01 0.09 0.08 0.19 0.11 0.11 0.08 0.08 0.03 0.06 0.05 0.03 0.05 0.02
0.00 0.00 0.00 0.00 0.00 0.00 0.04 0.02 0.03 0.01 0.04 0.04 0.03 0.09 0.12 0.11 0.11 0.16 0.26 0.26 0.16 0.05 0.00 0.00 0.00 0.00 0.00 0.00 0.00 0.01 0.02 0.01 0.02 0.02 0.06 0.01 0.04 0.11 0.20 0.20 0.17 0.20 0.10 0.06 0.10 0.04 0.07 0.06 0.02
0.00 0.00 0.00 0.00 0.00 0.00 0.11 0.14 0.12 0.07 0.07 0.04 0.02 0.02 0.05 0.12 0.38 0.47 0.37 0.37 0.33 0.17 0.05 0.01 0.02 0.01 0.02 0.01 0.01 0.01 0.03 0.02 0.02 0.02 0.02 0.06 0.10 0.11 0.26 0.39 0.13 0.10 0.03 0.08 0.09 0.05 0.04 0.08 0.04
0.00 0.00 0.00 0.00 0.00 0.00 0.10 0.31 0.19 0.15 0.04 0.05 0.08 0.09 0.14 0.14 0.41 1.31 1.32 1.11 0.86 0.62 0.22 0.28 0.33 0.27 0.09 0.01 0.01 0.04 0.02 0.03 0.02 0.03 0.04 0.03 0.11 0.20 0.18 0.38 0.26 0.17 0.04 0.06 0.08 0.09 0.07 0.13 0.05
0.00 0.00 0.00 0.00 0.00 0.00 0.02 0.26 0.23 0.25 0.14 0.12 0.15 0.09 0.13 0.20 0.28 0.66 1.31 2.05 2.17 1.93 1.66 0.83 1.02 0.84 0.46 0.25 0.10 0.06 0.09 0.07 0.03 0.07 0.04 0.00 0.12 0.11 0.15 0.12 0.30 0.19 0.09 0.07 0.10 0.08 0.09 0.21 0.13

GFSSGP_prec_precacc24_102.txt.gz
Total_Precipitation_Accumulation
0.00 0.00 0.00 0.00 0.17 0.37 0.16 0.55 0.49 0.08 0.02 0.00 0.01 0.00 0.01 0.01 0.04 0.07 0.00 0.00 0.00 0.00 0.07 0.22 0.34 0.28 0.11 0.02 0.10 0.39 0.13 0.08 0.02 0.04 0.07 0.03 0.07 0.13 0.11 0.12 0.18 0.18 0.08 0.07 0.05 0.07 0.07 0.08 0.05
0.00 0.00 0.00 0.10 0.40 0.93 0.18 0.32 0.47 0.14 0.01 0.00 0.00 0.00 0.01 0.02 0.00 0.00 0.00 0.01 0.00 0.00 0.01 0.05 0.18 0.11 0.05 0.03 0.11 0.16 0.06 0.08 0.12 0.06 0.09 0.07 0.09 0.19 0.22 0.21 0.19 0.11 0.13 0.14 0.14 0.12 0.11 0.11 0.03
0.00 0.00 0.09 0.42 1.30 1.11 0.64 0.49 0.47 0.04 0.00 0.00 0.01 0.02 0.00 0.01 0.00 0.00 0.00 0.01 0.00 0.02 0.01 0.02 0.01 0.01 0.04 0.07 0.08 0.07 0.11 0.06 0.08 0.14 0.12 0.14 0.13 0.16 0.20 0.15 0.14 0.09 0.15 0.17 0.20 0.18 0.19 0.21 0.04
0.00 0.03 0.24 1.30 2.44 0.45 0.43 0.25 0.10 0.04 0.00 0.00 0.00 0.02 0.00 0.00 0.00 0.00 0.00 0.00 0.01 0.02 0.01 0.00 0.01 0.05 0.19 0.17 0.12 0.12 0.07 0.09 0.10 0.11 0.15 0.20 0.24 0.20 0.13 0.14 0.17 0.09 0.06 0.07 0.12 0.19 0.12 0.13 0.02
0.01 0.41 1.92 1.69 1.00 0.63 0.65 0.20 0.02 0.02 0.00 0.01 0.01 0.03 0.01 0.00 0.00 0.00 0.00 0.01 0.00 0.00 0.00 0.01 0.21 0.18 0.16 0.22 0.30 0.14 0.08 0.11 0.09 0.17 0.29 0.30 0.17 0.19 0.25 0.19 0.06 0.05 0.08 0.05 0.07 0.08 0.16 0.10 0.07
0.15 1.22 2.15 0.52 0.25 0.86 0.79 0.15 0.05 0.06 0.01 0.00 0.00 0.00 0.01 0.01 0.00 0.00 0.00 0.01 0.00 0.00 0.00 0.02 0.23 0.17 0.16 0.21 0.30 0.16 0.22 0.15 0.28 0.26 0.26 0.30 0.30 0.18 0.10 0.10 0.03 0.04 0.12 0.15 0.03 0.05 0.05 0.06 0.04
0.22 2.17 1.45 0.24 0.26 0.80 0.56 0.17 0.19 0.07 0.03 0.03 0.01 0.00 0.03 0.01 0.00 0.00 0.00 0.03 0.02 0.00 0.00 0.01 0.04 0.14 0.13 0.24 0.30 0.21 0.13 0.11 0.25 0.17 0.20 0.28 0.25 0.20 0.15 0.12 0.05 0.06 0.09 0.11 0.12 0.06 0.13 0.16 0.08
0.20 1.22 1.72 0.35 0.95 1.01 0.42 0.11 0.06 0.07 0.05 0.03 0.02 0.01 0.01 0.01 0.01 0.04 0.05 0.05 0.03 0.01 0.01 0.02 0.01 0.04 0.05 0.09 0.19 0.11 0.05 0.06 0.14 0.21 0.20 0.34 0.39 0.14 0.07 0.06 0.03 0.03 0.03 0.12 0.13 0.14 0.08 0.07 0.04
0.37 1.13 1.25 0.94 1.00 0.67 0.19 0.04 0.10 0.04 0.02 0.07 0.02 0.00 0.00 0.00 0.00 0.01 0.03 0.04 0.02 0.03 0.09 0.04 0.01 0.05 0.06 0.03 0.07 0.04 0.02 0.14 0.22 0.20 0.33 0.43 0.31 0.09 0.05 0.05 0.04 0.06 0.06 0.06 0.11 0.07 0.02 0.07 0.04
0.89 1.09 1.40 0.72 0.46 0.11 0.02 0.04 0.10 0.05 0.03 0.02 0.01 0.00 0.00 0.00 0.00 0.00 0.01 0.01 0.01 0.02 0.04 0.10 0.00 0.01 0.00 0.00 0.05 0.10 0.08 0.18 0.11 0.12 0.06 0.07 0.04 0.03 0.06 0.09 0.07 0.02 0.13 0.18 0.09 0.10 0.25 0.11 0.01
0.74 1.28 0.40 0.57 0.22 0.08 0.07 0.12 0.05 0.06 0.14 0.03 0.00 0.00 0.00 0.00 0.00 0.00 0.00 0.00 0.01 0.02 0.04 0.00 0.00 0.02 0.01 0.01 0.02 0.04 0.02 0.01 0.01 0.01 0.01 0.01 0.00 0.04 0.12 0.16 0.06 0.03 0.12 0.32 0.13 0.04 0.07 0.06 0.08
0.56 0.75 0.55 0.47 0.28 0.18 0.12 0.03 0.06 0.14 0.27 0.04 0.00 0.00 0.00 0.00 0.00 0.00 0.00 0.00 0.00 0.02 0.01 0.00 0.01 0.09 0.03 0.01 0.00 0.00 0.00 0.00 0.00 0.00 0.00 0.01 0.00 0.01 0.02 0.12 0.20 0.08 0.10 0.36 0.19 0.08 0.04 0.03 0.01
0.29 0.58 0.78 0.65 0.45 0.37 0.21 0.17 0.12 0.31 0.84 0.04 0.01 0.00 0.00 0.00 0.00 0.00 0.00 0.00 0.00 0.01 0.00 0.00 0.00 0.01 0.02 0.01 0.00 0.00 0.00 0.00 0.00 0.00 0.00 0.00 0.03 0.06 0.07 0.16 0.11 0.15 0.15 0.16 0.14 0.18 0.03 0.05 0.00
0.23 0.60 0.68 0.70 0.66 0.49 0.34 0.39 0.26 0.24 0.34 0.05 0.01 0.00 0.00 0.00 0.00 0.00 0.00 0.00 0.00 0.01 0.00 0.00 0.00 0.00 0.00 0.00 0.00 0.00 0.00 0.00 0.00 0.00 0.00 0.00 0.02 0.05 0.14 0.10 0.11 0.23 0.07 0.06 0.13 0.24 0.01 0.00 0.00
0.22 0.57 0.62 0.35 0.58 0.36 0.52 0.90 0.64 0.24 0.07 0.02 0.01 0.00 0.00 0.00 0.00 0.00 0.00 0.00 0.00 0.00 0.00 0.00 0.00 0.00 0.00 0.00 0.00 0.00 0.00 0.00 0.00 0.03 0.04 0.03 0.02 0.03 0.18 0.14 0.27 0.12 0.11 0.12 0.16 0.07 0.00 0.00 0.00
0.28 0.46 0.56 0.35 0.69 0.62 1.14 2.27 1.22 0.44 0.05 0.04 0.00 0.00 0.00 0.00 0.00 0.00 0.00 0.00 0.00 0.00 0.00 0.00 0.00 0.00 0.00 0.00 0.01 0.01 0.12 0.07 0.01 0.02 0.04 0.01 0.04 0.05 0.06 0.04 0.05 0.05 0.14 0.07 0.11 0.03 0.00 0.00 0.00
0.14 0.47 0.54 0.72 0.72 1.70 2.06 2.90 2.00 0.43 0.14 0.05 0.02 0.00 0.00 0.00 0.00 0.00 0.00 0.00 0.00 0.00 0.00 0.00 0.00 0.00 0.00 0.00 0.00 0.01 0.02 0.02 0.01 0.01 0.04 0.04 0.04 0.03 0.04 0.02 0.03 0.08 0.09 0.03 0.01 0.01 0.01 0.00 0.00
0.03 0.26 0.44 0.62 0.94 1.72 1.30 0.69 0.69 0.17 0.24 0.13 0.04 0.00 0.00 0.00 0.00 0.00 0.00 0.00 0.00 0.00 0.00 0.00 0.00 0.00 0.00 0.00 0.01 0.02 0.02 0.04 0.00 0.02 0.02 0.02 0.06 0.08 0.14 0.05 0.04 0.13 0.02 0.00 0.04 0.00 0.01 0.00 0.00
0.00 0.10 0.41 0.49 1.13 1.32 0.85 0.52 0.57 0.17 0.41 0.39 0.08 0.02 0.00 0.00 0.00 0.00 0.00 0.00 0.00 0.00 0.00 0.00 0.00 0.00 0.00 0.00 0.01 0.01 0.02 0.02 0.00 0.02 0.03 0.07 0.10 0.11 0.11 0.09 0.05 0.04 0.03 0.04 0.02 0.01 0.00 0.00 0.00
0.00 0.04 0.30 0.47 0.75 1.46 2.70 1.48 0.96 0.51 0.39 0.39 0.15 0.03 0.01 0.01 0.00 0.00 0.00 0.00 0.00 0.00 0.00 0.00 0.02 0.04 0.01 0.01 0.02 0.01 0.01 0.01 0.01 0.05 0.05 0.04 0.05 0.10 0.09 0.11 0.05 0.05 0.09 0.05 0.02 0.03 0.01 0.00 0.00
0.00 0.01 0.17 0.27 0.31 0.80 1.51 2.10 1.20 0.51 0.75 0.78 0.28 0.08 0.01 0.01 0.00 0.00 0.00 0.00 0.00 0.00 0.00 0.00 0.01 0.04 0.01 0.00 0.01 0.04 0.06 0.04 0.09 0.14 0.14 0.12 0.06 0.05 0.15 0.09 0.05 0.07 0.03 0.03 0.03 0.03 0.00 0.00 0.00
0.00 0.02 0.00 0.01 0.04 0.05 0.13 0.42 0.41 0.40 0.55 1.08 0.46 0.25 0.05 0.01 0.00 0.00 0.01 0.00 0.00 0.00 0.00 0.00 0.01 0.05 0.02 0.01 0.01 0.11 0.10 0.08 0.06 0.14 0.19 0.21 0.13 0.05 0.09 0.07 0.10 0.08 0.05 0.09 0.02 0.02 0.01 0.00 0.00
0.01 0.01 0.00 0.00 0.02 0.02 0.01 0.10 0.35 0.44 0.49 0.48 0.57 0.76 0.25 0.03 0.01 0.01 0.01 0.00 0.00 0.00 0.00 0.00 0.00 0.01 0.00 0.00 0.09 0.09 0.09 0.08 0.08 0.11 0.19 0.32 0.28 0.19 0.10 0.14 0.12 0.13 0.09 0.06 0.01 0.03 0.04 0.02 0.01
0.01 0.00 0.00 0.01 0.04 0.04 0.00 0.02 0.27 0.54 0.44 0.50 0.28 0.75 1.09 0.51 0.11 0.05 0.02 0.01 0.00 0.00 0.00 0.00 0.00 0.00 0.00 0.00 0.06 0.09 0.13 0.13 0.13 0.16 0.20 0.17 0.20 0.17 0.12 0.12 0.13 0.13 0.11 0.10 0.02 0.07 0.05 0.02 0.01
0.00 0.00 0.00 0.03 0.02 0.00 0.00 0.00 0.08 0.49 0.49 0.39 0.34 0.48 0.92 1.06 0.40 0.16 0.11 0.06 0.03 0.00 0.00 0.00 0.00 0.00 0.00 0.00 0.02 0.07 0.11 0.14 0.24 0.14 0.09 0.16 0.33 0.11 0.08 0.15 0.15 0.08 0.07 0.05 0.05 0.06 0.05 0.03 0.01
0.00 0.00 0.00 0.00 0.00 0.00 0.00 0.01 0.01 0.02 0.05 0.06 0.17 0.14 0.20 0.25 0.61 0.23 0.21 0.16 0.13 0.05 0.00 0.00 0.00 0.00 0.00 0.00 0.03 0.10 0.12 0.08 0.15 0.08 0.07 0.08 0.14 0.08 0.21 0.14 0.12 0.10 0.09 0.03 0.04 0.03 0.01 0.02 0.00
0.00 0.00 0.00 0.00 0.00 0.00 0.04 0.02 0.03 0.01 0.04 0.04 0.03 0.09 0.12 0.11 0.11 0.16 0.26 0.26 0.16 0.05 0.00 0.00 0.00 0.00 0.00 0.00 0.01 0.03 0.04 0.04 0.07 0.07 0.15 0.06 0.12 0.14 0.23 0.22 0.19 0.19 0.11 0.07 0.10 0.02 0.04 0.02 0.01
0.00 0.00 0.00 0.00 0.00 0.00 0.11 0.14 0.12 0.07 0.07 0.04 0.02 0.02 0.05 0.12 0.38 0.47 0.37 0.37 0.33 0.17 0.05 0.01 0.02 0.01 0.02 0.01 0.01 0.02 0.05 0.04 0.05 0.11 0.11 0.14 0.22 0.21 0.30 0.39 0.12 0.11 0.12 0.12 0.06 0.05 0.04 0.07 0.02
0.00 0.00 0.00 0.00 0.00 0.00 0.10 0.31 0.19 0.15 0.04 0.05 0.08 0.09 0.13 0.14 0.41 1.30 1.32 1.10 0.85 0.62 0.22 0.28 0.33 0.27 0.09 0.01 0.01 0.10 0.06 0.07 0.05 0.09 0.09 0.13 0.24 0.32 0.27 0.47 0.21 0.14 0.13 0.12 0.08 0.09 0.06 0.12 0.04
0.00 0.00 0.00 0.00 0.00 0.00 0.02 0.26 0.23 0.25 0.14 0.12 0.15 0.09 0.12 0.20 0.27 0.61 1.23 2.02 2.16 1.94 1.67 0.83 1.02 0.84 0.47 0.27 0.10 0.16 0.14 0.09 0.04 0.11 0.06 0.09 0.16 0.18 0.24 0.22 0.28 0.23 0.16 0.15 0.15 0.08 0.08 0.19 0.13

GFSSGP_prec_precacc24_105.txt.gz
Total_Precipitation_Accumulation
0.00 0.00 0.00 0.01 0.20 0.34 0.14 0.49 0.46 0.07 0.01 0.00 0.01 0.00 0.01 0.01 0.01 0.03 0.00 0.00 0.00 0.00 0.07 0.22 0.34 0.30 0.12 0.02 0.10 0.19 0.04 0.08 0.02 0.05 0.04 0.03 0.09 0.14 0.10 0.12 0.21 0.21 0.11 0.06 0.04 0.07 0.05 0.04 0.04
0.00 0.00 0.01 0.08 0.42 0.81 0.14 0.20 0.37 0.08 0.00 0.00 0.00 0.01 0.03 0.01 0.00 0.00 0.00 0.01 0.00 0.00 0.01 0.05 0.19 0.14 0.05 0.02 0.11 0.13 0.05 0.05 0.05 0.04 0.06 0.05 0.09 0.21 0.24 0.21 0.22 0.16 0.17 0.15 0.12 0.09 0.06 0.07 0.02
0.00 0.00 0.09 0.34 1.23 1.02 0.58 0.36 0.32 0.02 0.00 0.00 0.01 0.02 0.00 0.00 0.00 0.00 0.00 0.01 0.01 0.02 0.02 0.02 0.01 0.02 0.04 0.06 0.04 0.04 0.07 0.04 0.05 0.10 0.14 0.16 0.16 0.20 0.23 0.18 0.18 0.15 0.18 0.21 0.21 0.17 0.12 0.21 0.03
0.00 0.02 0.21 1.15 2.29 0.36 0.39 0.20 0.06 0.04 0.00 0.00 0.00 0.02 0.00 0.00 0.00 0.00 0.00 0.01 0.03 0.04 0.02 0.00 0.01 0.05 0.19 0.15 0.06 0.09 0.06 0.08 0.09 0.13 0.23 0.27 0.34 0.25 0.16 0.15 0.17 0.09 0.05 0.08 0.11 0.14 0.07 0.08 0.02
0.00 0.37 1.87 1.50 0.78 0.51 0.59 0.17 0.01 0.01 0.00 0.01 0.02 0.04 0.01 0.00 0.00 0.00 0.00 0.02 0.02 0.01 0.00 0.01 0.19 0.18 0.16 0.21 0.27 0.13 0.08 0.12 0.12 0.18 0.34 0.35 0.22 0.22 0.26 0.19 0.06 0.04 0.06 0.04 0.06 0.07 0.08 0.09 0.07
0.12 1.12 2.02 0.54 0.25 0.82 0.70 0.11 0.01 0.01 0.01 0.01 0.00 0.00 0.01 0.01 0.00 0.01 0.00 0.01 0.00 0.00 0.00 0.02 0.17 0.14 0.13 0.19 0.28 0.14 0.22 0.18 0.35 0.26 0.29 0.38 0.32 0.18 0.10 0.09 0.02 0.04 0.11 0.08 0.02 0.05 0.05 0.06 0.04
0.18 2.06 1.33 0.24 0.29 0.79 0.49 0.08 0.05 0.01 0.01 0.02 0.01 0.00 0.03 0.01 0.00 0.00 0.00 0.03 0.02 0.00 0.00 0.01 0.04 0.10 0.10 0.20 0.26 0.20 0.13 0.12 0.28 0.24 0.25 0.30 0.24 0.20 0.15 0.11 0.02 0.03 0.05 0.04 0.06 0.04 0.09 0.16 0.08
0.21 1.18 1.58 0.31 0.99 1.08 0.39 0.09 0.04 0.03 0.03 0.03 0.02 0.00 0.01 0.01 0.01 0.04 0.05 0.04 0.03 0.01 0.01 0.02 0.01 0.04 0.05 0.08 0.15 0.10 0.04 0.06 0.15 0.22 0.18 0.34 0.39 0.14 0.07 0.06 0.01 0.01 0.00 0.01 0.03 0.04 0.06 0.07 0.04
0.36 1.14 1.24 0.90 1.03 0.70 0.19 0.04 0.11 0.04 0.01 0.07 0.02 0.00 0.00 0.00 0.00 0.01 0.03 0.04 0.02 0.03 0.09 0.04 0.01 0.06 0.06 0.02 0.06 0.04 0.02 0.17 0.23 0.21 0.29 0.41 0.31 0.09 0.05 0.05 0.03 0.03 0.01 0.01 0.04 0.05 0.02 0.05 0.03
0.92 1.16 1.59 0.71 0.46 0.11 0.02 0.03 0.10 0.04 0.03 0.02 0.01 0.00 0.00 0.00 0.00 0.00 0.01 0.01 0.01 0.02 0.04 0.10 0.00 0.00 0.01 0.01 0.04 0.09 0.08 0.06 0.08 0.12 0.06 0.07 0.04 0.03 0.06 0.09 0.07 0.02 0.12 0.17 0.08 0.10 0.25 0.10 0.01
0.82 1.44 0.54 0.56 0.21 0.09 0.07 0.11 0.05 0.05 0.10 0.01 0.00 0.00 0.00 0.00 0.00 0.00 0.00 0.00 0.01 0.02 0.04 0.00 0.00 0.02 0.00 0.01 0.02 0.04 0.02 0.00 0.01 0.01 0.01 0.01 0.00 0.04 0.12 0.16 0.06 0.03 0.12 0.32 0.13 0.04 0.07 0.06 0.08
0.61 0.83 0.57 0.46 0.29 0.16 0.08 0.03 0.05 0.09 0.18 0.02 0.00 0.00 0.00 0.00 0.00 0.00 0.00 0.00 0.00 0.02 0.01 0.00 0.01 0.09 0.03 0.01 0.00 0.00 0.00 0.00 0.00 0.00 0.00 0.01 0.00 0.01 0.02 0.12 0.20 0.08 0.10 0.36 0.19 0.08 0.04 0.03 0.01
0.35 0.67 0.78 0.64 0.46 0.37 0.18 0.15 0.08 0.29 0.83 0.02 0.01 0.00 0.00 0.00 0.00 0.00 0.00 0.00 0.00 0.01 0.00 0.00 0.00 0.02 0.03 0.01 0.00 0.00 0.00 0.00 0.00 0.00 0.00 0.00 0.03 0.06 0.07 0.16 0.11 0.15 0.15 0.16 0.14 0.18 0.03 0.05 0.00
0.27 0.63 0.68 0.70 0.67 0.50 0.32 0.35 0.24 0.23 0.34 0.04 0.01 0.00 0.00 0.00 0.00 0.00 0.00 0.00 0.00 0.01 0.00 0.00 0.00 0.00 0.00 0.00 0.00 0.00 0.00 0.00 0.00 0.00 0.00 0.00 0.02 0.05 0.14 0.09 0.11 0.23 0.06 0.06 0.13 0.21 0.01 0.00 0.00
0.29 0.65 0.65 0.39 0.66 0.41 0.51 0.79 0.54 0.24 0.07 0.02 0.01 0.00 0.00 0.00 0.00 0.00 0.00 0.00 0.00 0.00 0.00 0.00 0.00 0.00 0.00 0.00 0.00 0.00 0.00 0.00 0.00 0.03 0.04 0.03 0.02 0.03 0.18 0.13 0.25 0.12 0.11 0.12 0.16 0.07 0.00 0.00 0.00
0.48 0.65 0.65 0.46 0.85 0.68 1.11 2.13 1.09 0.44 0.05 0.04 0.00 0.00 0.00 0.00 0.00 0.00 0.00 0.00 0.00 0.00 0.00 0.00 0.00 0.00 0.00 0.00 0.01 0.01 0.11 0.06 0.00 0.02 0.04 0.01 0.04 0.05 0.06 0.04 0.05 0.05 0.14 0.06 0.11 0.03 0.00 0.00 0.00
0.45 0.71 0.69 0.88 0.88 1.77 2.10 2.83 1.86 0.43 0.13 0.05 0.01 0.00 0.00 0.00 0.00 0.00 0.00 0.00 0.00 0.00 0.00 0.00 0.00 0.00 0.00 0.00 0.00 0.01 0.02 0.02 0.00 0.00 0.04 0.04 0.04 0.03 0.04 0.02 0.02 0.08 0.09 0.02 0.01 0.01 0.01 0.00 0.00
0.26 0.48 0.62 0.75 1.02 1.92 1.55 0.81 0.72 0.18 0.19 0.10 0.03 0.00 0.00 0.00 0.00 0.00 0.00 0.00 0.00 0.00 0.00 0.00 0.00 0.00 0.00 0.00 0.01 0.02 0.02 0.03 0.00 0.01 0.02 0.02 0.06 0.08 0.14 0.05 0.04 0.11 0.01 0.00 0.04 0.00 0.01 0.00 0.00
0.04 0.36 0.64 0.78 1.22 1.48 1.14 0.76 0.68 0.19 0.36 0.33 0.07 0.01 0.00 0.00 0.00 0.00 0.00 0.00 0.00 0.00 0.00 0.00 0.00 0.01 0.00 0.00 0.01 0.01 0.02 0.02 0.00 0.02 0.03 0.07 0.10 0.11 0.11 0.09 0.05 0.03 0.03 0.02 0.02 0.01 0.00 0.00 0.00
0.01 0.12 0.52 1.04 0.96 1.54 2.96 1.80 1.19 0.55 0.41 0.35 0.08 0.01 0.01 0.00 0.00 0.00 0.00 0.00 0.00 0.00 0.00 0.00 0.02 0.05 0.02 0.01 0.02 0.01 0.01 0.01 0.01 0.05 0.05 0.04 0.05 0.10 0.09 0.11 0.05 0.04 0.06 0.05 0.02 0.02 0.00 0.00 0.00
0.00 0.08 0.38 0.69 0.60 0.99 1.67 2.49 1.51 0.57 0.74 0.56 0.21 0.06 0.00 0.00 0.00 0.00 0.00 0.00 0.00 0.00 0.00 0.00 0.02 0.05 0.03 0.01 0.02 0.04 0.09 0.06 0.10 0.15 0.14 0.12 0.06 0.05 0.15 0.09 0.05 0.07 0.03 0.03 0.03 0.03 0.00 0.00 0.00
0.00 0.03 0.25 0.23 0.08 0.08 0.16 0.57 0.60 0.51 0.65 0.86 0.30 0.16 0.04 0.00 0.00 0.00 0.00 0.00 0.00 0.00 0.00 0.00 0.01 0.05 0.04 0.04 0.05 0.19 0.12 0.09 0.08 0.14 0.19 0.21 0.13 0.05 0.08 0.07 0.10 0.08 0.04 0.07 0.02 0.02 0.00 0.00 0.00
0.01 0.01 0.14 0.12 0.04 0.02 0.01 0.11 0.22 0.47 0.55 0.47 0.50 0.69 0.18 0.02 0.01 0.00 0.00 0.00 0.00 0.00 0.00 0.00 0.00 0.01 0.00 0.06 0.25 0.13 0.10 0.12 0.13 0.12 0.19 0.26 0.26 0.19 0.10 0.14 0.11 0.12 0.08 0.04 0.02 0.03 0.04 0.01 0.01
0.01 0.01 0.00 0.02 0.05 0.04 0.00 0.03 0.20 0.48 0.44 0.49 0.26 0.75 1.04 0.49 0.10 0.05 0.02 0.01 0.00 0.00 0.00 0.00 0.00 0.00 0.00 0.03 0.08 0.11 0.14 0.15 0.18 0.18 0.21 0.17 0.20 0.17 0.12 0.12 0.13 0.13 0.09 0.07 0.02 0.07 0.05 0.02 0.01
0.00 0.00 0.02 0.05 0.02 0.00 0.00 0.00 0.07 0.47 0.49 0.39 0.34 0.48 0.89 1.05 0.39 0.15 0.12 0.06 0.03 0.01 0.00 0.00 0.00 0.00 0.00 0.00 0.03 0.07 0.11 0.14 0.28 0.15 0.09 0.31 0.35 0.11 0.08 0.15 0.15 0.09 0.08 0.05 0.03 0.05 0.06 0.03 0.03
0.00 0.00 0.02 0.04 0.01 0.00 0.01 0.01 0.01 0.02 0.05 0.06 0.17 0.14 0.20 0.24 0.60 0.22 0.21 0.16 0.12 0.07 0.02 0.00 0.00 0.00 0.00 0.00 0.04 0.11 0.12 0.08 0.15 0.08 0.18 0.16 0.15 0.10 0.21 0.14 0.12 0.10 0.09 0.03 0.03 0.02 0.01 0.01 0.00
0.00 0.00 0.00 0.00 0.02 0.02 0.06 0.02 0.03 0.01 0.04 0.04 0.03 0.09 0.12 0.11 0.10 0.15 0.26 0.25 0.19 0.05 0.01 0.00 0.00 0.00 0.00 0.00 0.01 0.03 0.04 0.04 0.08 0.23 0.26 0.14 0.13 0.14 0.23 0.22 0.19 0.19 0.11 0.07 0.08 0.02 0.04 0.02 0.01
0.00 0.00 0.00 0.00 0.00 0.01 0.12 0.14 0.12 0.08 0.07 0.04 0.02 0.02 0.05 0.12 0.34 0.28 0.31 0.37 0.33 0.17 0.05 0.01 0.02 0.01 0.02 0.01 0.01 0.02 0.05 0.04 0.05 0.12 0.11 0.39 0.34 0.27 0.38 0.46 0.15 0.11 0.12 0.12 0.06 0.05 0.04 0.07 0.02
0.00 0.00 0.00 0.00 0.00 0.00 0.10 0.30 0.19 0.15 0.04 0.05 0.08 0.08 0.12 0.12 0.32 1.10 1.15 1.07 0.82 0.62 0.22 0.28 0.33 0.27 0.09 0.01 0.01 0.10 0.06 0.07 0.05 0.09 0.09 0.13 0.24 0.34 0.29 0.57 0.28 0.21 0.13 0.13 0.14 0.10 0.07 0.11 0.04
0.00 0.00 0.00 0.00 0.00 0.00 0.02 0.23 0.23 0.25 0.14 0.12 0.15 0.09 0.12 0.19 0.21 0.43 1.00 1.84 2.02 1.88 1.65 0.83 1.02 0.84 0.47 0.27 0.10 0.16 0.14 0.09 0.04 0.11 0.06 0.09 0.16 0.27 0.26 0.22 0.28 0.25 0.16 0.15 0.17 0.09 0.08 0.19 0.13

GFSSGP_prec_precacc24_108.txt.gz
Total_Precipitation_Accumulation
0.00 0.00 0.00 0.02 0.29 0.39 0.11 0.41 0.39 0.05 0.01 0.00 0.01 0.00 0.01 0.02 0.01 0.02 0.01 0.03 0.00 0.00 0.07 0.22 0.34 0.30 0.12 0.02 0.02 0.05 0.08 0.10 0.04 0.06 0.08 0.06 0.08 0.12 0.10 0.13 0.20 0.21 0.10 0.07 0.07 0.08 0.05 0.03 0.05
0.00 0.00 0.01 0.11 0.50 0.67 0.11 0.11 0.24 0.06 0.00 0.00 0.00 0.01 0.02 0.01 0.00 0.00 0.01 0.01 0.01 0.00 0.02 0.05 0.21 0.15 0.01 0.01 0.02 0.09 0.06 0.05 0.05 0.06 0.09 0.09 0.10 0.15 0.22 0.20 0.20 0.16 0.13 0.15 0.13 0.10 0.06 0.05 0.02
0.00 0.00 0.14 0.35 1.23 0.96 0.42 0.20 0.20 0.01 0.00 0.00 0.02 0.04 0.00 0.00 0.00 0.00 0.00 0.01 0.01 0.02 0.02 0.02 0.01 0.01 0.02 0.04 0.04 0.03 0.07 0.04 0.06 0.13 0.16 0.16 0.17 0.20 0.22 0.18 0.20 0.15 0.15 0.19 0.20 0.15 0.11 0.21 0.03
0.00 0.02 0.17 0.98 1.61 0.28 0.27 0.08 0.05 0.03 0.00 0.00 0.00 0.02 0.00 0.00 0.00 0.00 0.00 0.01 0.02 0.07 0.04 0.00 0.01 0.05 0.16 0.13 0.08 0.08 0.06 0.08 0.07 0.14 0.23 0.27 0.34 0.26 0.15 0.15 0.17 0.10 0.06 0.09 0.09 0.04 0.06 0.08 0.02
0.00 0.35 1.62 1.11 0.44 0.32 0.47 0.13 0.01 0.00 0.00 0.01 0.02 0.04 0.01 0.00 0.00 0.00 0.00 0.02 0.02 0.02 0.00 0.01 0.16 0.16 0.13 0.21 0.28 0.11 0.06 0.09 0.09 0.15 0.33 0.38 0.25 0.23 0.27 0.19 0.06 0.04 0.01 0.02 0.06 0.05 0.06 0.09 0.07
0.11 0.98 1.78 0.50 0.24 0.70 0.65 0.11 0.00 0.01 0.01 0.02 0.00 0.00 0.01 0.01 0.00 0.00 0.00 0.00 0.00 0.00 0.00 0.02 0.13 0.11 0.11 0.18 0.28 0.14 0.22 0.17 0.35 0.27 0.30 0.41 0.34 0.19 0.11 0.10 0.02 0.01 0.02 0.01 0.02 0.05 0.05 0.06 0.04
0.19 1.90 1.17 0.22 0.30 0.71 0.39 0.05 0.01 0.01 0.01 0.02 0.00 0.00 0.03 0.01 0.00 0.01 0.00 0.01 0.03 0.01 0.00 0.01 0.03 0.08 0.08 0.20 0.26 0.20 0.13 0.12 0.29 0.24 0.25 0.30 0.25 0.20 0.15 0.10 0.01 0.01 0.00 0.02 0.06 0.04 0.09 0.16 0.08
0.24 1.03 1.47 0.31 1.00 1.02 0.32 0.07 0.02 0.01 0.03 0.00 0.00 0.00 0.01 0.01 0.01 0.04 0.05 0.02 0.04 0.01 0.02 0.03 0.01 0.04 0.04 0.08 0.15 0.10 0.05 0.06 0.15 0.22 0.17 0.31 0.39 0.14 0.06 0.05 0.01 0.00 0.00 0.01 0.03 0.04 0.06 0.07 0.04
0.32 0.93 1.16 0.74 0.99 0.69 0.19 0.03 0.05 0.01 0.02 0.04 0.01 0.00 0.00 0.00 0.00 0.01 0.02 0.05 0.01 0.04 0.11 0.04 0.01 0.04 0.04 0.02 0.06 0.04 0.02 0.14 0.23 0.20 0.27 0.38 0.29 0.09 0.04 0.04 0.02 0.00 0.00 0.01 0.02 0.00 0.00 0.05 0.03
0.87 1.52 1.64 0.68 0.45 0.11 0.02 0.03 0.09 0.05 0.03 0.02 0.00 0.00 0.00 0.00 0.00 0.00 0.01 0.01 0.01 0.02 0.05 0.08 0.00 0.00 0.01 0.01 0.03 0.09 0.07 0.06 0.07 0.12 0.21 0.08 0.03 0.03 0.06 0.09 0.07 0.02 0.12 0.16 0.06 0.04 0.06 0.02 0.01
0.87 2.29 1.20 0.63 0.22 0.09 0.07 0.11 0.05 0.05 0.03 0.00 0.00 0.00 0.00 0.00 0.00 0.00 0.00 0.00 0.01 0.02 0.04 0.01 0.00 0.00 0.00 0.01 0.01 0.02 0.01 0.00 0.01 0.03 0.11 0.00 0.00 0.04 0.12 0.17 0.05 0.02 0.10 0.36 0.12 0.03 0.08 0.08 0.08
0.59 1.28 1.09 0.75 0.30 0.18 0.08 0.03 0.05 0.05 0.05 0.00 0.00 0.00 0.00 0.00 0.00 0.00 0.00 0.00 0.00 0.02 0.01 0.00 0.00 0.01 0.01 0.01 0.00 0.00 0.00 0.00 0.00 0.00 0.00 0.00 0.00 0.01 0.19 0.26 0.18 0.03 0.06 0.33 0.18 0.07 0.04 0.03 0.01
0.43 0.77 0.83 0.72 0.47 0.37 0.18 0.15 0.08 0.21 0.50 0.00 0.00 0.00 0.00 0.00 0.00 0.00 0.00 0.00 0.00 0.01 0.00 0.00 0.00 0.01 0.03 0.01 0.00 0.00 0.00 0.00 0.00 0.08 0.04 0.00 0.03 0.06 0.06 0.25 0.20 0.10 0.16 0.10 0.07 0.07 0.03 0.05 0.00
0.27 0.64 0.67 0.70 0.66 0.53 0.31 0.29 0.21 0.19 0.20 0.02 0.00 0.00 0.00 0.00 0.00 0.00 0.00 0.00 0.00 0.01 0.00 0.00 0.00 0.00 0.00 0.00 0.00 0.00 0.02 0.00 0.00 0.03 0.37 0.24 0.02 0.05 0.05 0.04 0.04 0.23 0.07 0.06 0.08 0.08 0.01 0.00 0.00
0.30 0.67 0.66 0.41 0.67 0.52 0.49 0.65 0.50 0.23 0.06 0.01 0.00 0.00 0.00 0.00 0.00 0.00 0.00 0.00 0.00 0.00 0.00 0.00 0.00 0.00 0.00 0.00 0.00 0.00 0.01 0.00 0.00 0.04 0.14 0.16 0.02 0.01 0.09 0.05 0.09 0.11 0.11 0.11 0.11 0.05 0.00 0.00 0.00
0.61 0.79 0.71 0.50 0.91 0.84 1.09 1.83 0.99 0.44 0.05 0.03 0.00 0.00 0.00 0.00 0.00 0.00 0.00 0.00 0.00 0.00 0.00 0.00 0.00 0.00 0.00 0.00 0.00 0.00 0.01 0.01 0.00 0.02 0.04 0.01 0.04 0.05 0.05 0.03 0.05 0.05 0.08 0.04 0.05 0.02 0.00 0.00 0.00
0.64 1.28 0.90 0.94 0.99 1.88 2.13 2.59 1.53 0.40 0.13 0.05 0.01 0.00 0.00 0.00 0.00 0.00 0.00 0.00 0.00 0.00 0.00 0.00 0.00 0.00 0.00 0.00 0.00 0.00 0.01 0.01 0.00 0.00 0.04 0.05 0.04 0.03 0.03 0.01 0.02 0.07 0.03 0.02 0.01 0.01 0.01 0.00 0.00
0.32 0.71 1.01 0.88 1.18 2.08 1.63 0.94 0.70 0.16 0.19 0.10 0.03 0.00 0.00 0.00 0.00 0.00 0.00 0.00 0.00 0.00 0.00 0.00 0.00 0.00 0.00 0.00 0.01 0.02 0.01 0.03 0.00 0.01 0.02 0.01 0.05 0.08 0.15 0.04 0.03 0.12 0.02 0.01 0.03 0.00 0.00 0.00 0.00
0.05 0.72 1.23 1.17 1.40 1.71 1.26 0.94 0.79 0.20 0.34 0.32 0.06 0.02 0.00 0.00 0.00 0.00 0.00 0.00 0.00 0.00 0.00 0.00 0.00 0.01 0.00 0.00 0.01 0.01 0.02 0.02 0.00 0.02 0.03 0.05 0.10 0.11 0.10 0.08 0.06 0.34 0.07 0.02 0.01 0.00 0.00 0.00 0.00
0.05 0.70 0.95 1.27 1.09 1.63 3.16 1.84 1.17 0.59 0.44 0.33 0.06 0.01 0.01 0.01 0.00 0.00 0.00 0.00 0.00 0.00 0.00 0.00 0.02 0.05 0.02 0.01 0.02 0.01 0.01 0.01 0.01 0.05 0.05 0.04 0.05 0.10 0.09 0.10 0.07 0.06 0.03 0.05 0.02 0.01 0.00 0.00 0.00
0.07 0.23 0.57 0.80 0.87 0.96 1.78 2.65 1.33 0.65 0.74 0.47 0.15 0.04 0.01 0.01 0.00 0.00 0.00 0.00 0.00 0.00 0.00 0.00 0.02 0.05 0.04 0.03 0.02 0.05 0.11 0.07 0.11 0.15 0.14 0.12 0.06 0.05 0.16 0.08 0.06 0.04 0.02 0.02 0.02 0.04 0.00 0.00 0.00
0.10 0.06 0.26 0.27 0.20 0.15 0.19 0.63 0.72 0.64 0.65 0.46 0.15 0.08 0.02 0.01 0.01 0.01 0.00 0.00 0.00 0.00 0.00 0.00 0.01 0.05 0.06 0.12 0.08 0.23 0.15 0.10 0.10 0.14 0.18 0.20 0.13 0.05 0.08 0.06 0.07 0.05 0.08 0.03 0.01 0.02 0.01 0.01 0.00
0.02 0.01 0.15 0.31 0.21 0.05 0.02 0.15 0.25 0.45 0.55 0.48 0.41 0.06 0.08 0.03 0.01 0.01 0.00 0.00 0.00 0.00 0.00 0.00 0.01 0.03 0.04 0.13 0.27 0.15 0.14 0.18 0.32 0.16 0.25 0.22 0.24 0.18 0.10 0.14 0.11 0.09 0.05 0.02 0.01 0.03 0.04 0.02 0.02
0.01 0.03 0.03 0.15 0.34 0.21 0.01 0.06 0.18 0.13 0.23 0.41 0.24 0.15 0.09 0.05 0.11 0.05 0.02 0.01 0.00 0.00 0.00 0.00 0.00 0.03 0.03 0.06 0.11 0.22 0.26 0.27 0.28 0.52 0.32 0.19 0.16 0.16 0.12 0.11 0.12 0.11 0.05 0.03 0.01 0.07 0.05 0.02 0.01
0.00 0.01 0.04 0.06 0.06 0.02 0.00 0.01 0.06 0.07 0.03 0.28 0.33 0.22 0.25 0.32 0.21 0.16 0.11 0.07 0.04 0.02 0.00 0.00 0.00 0.01 0.01 0.02 0.05 0.13 0.17 0.18 0.40 0.21 0.20 0.43 0.25 0.11 0.07 0.14 0.15 0.08 0.05 0.03 0.00 0.05 0.06 0.03 0.03
0.00 0.00 0.04 0.07 0.03 0.06 0.05 0.01 0.00 0.01 0.00 0.03 0.17 0.13 0.15 0.18 0.31 0.20 0.21 0.21 0.13 0.08 0.04 0.00 0.00 0.00 0.00 0.01 0.06 0.12 0.13 0.08 0.16 0.11 0.30 0.73 0.37 0.16 0.11 0.10 0.12 0.10 0.10 0.03 0.03 0.01 0.01 0.01 0.00
0.00 0.00 0.00 0.01 0.03 0.03 0.10 0.06 0.06 0.03 0.03 0.03 0.03 0.06 0.09 0.09 0.09 0.13 0.24 0.29 0.28 0.07 0.04 0.05 0.01 0.00 0.00 0.00 0.02 0.03 0.04 0.05 0.10 0.25 0.33 0.43 0.80 0.37 0.19 0.12 0.18 0.19 0.10 0.05 0.04 0.01 0.03 0.05 0.05
0.00 0.00 0.00 0.00 0.00 0.02 0.15 0.17 0.23 0.10 0.07 0.04 0.02 0.01 0.04 0.09 0.08 0.10 0.18 0.28 0.35 0.20 0.06 0.07 0.09 0.01 0.02 0.01 0.01 0.02 0.05 0.04 0.05 0.14 0.16 0.66 0.77 0.47 0.84 0.22 0.11 0.10 0.14 0.11 0.05 0.05 0.03 0.05 0.02
0.00 0.00 0.00 0.00 0.00 0.00 0.13 0.35 0.26 0.16 0.05 0.05 0.08 0.10 0.13 0.09 0.19 0.35 0.25 0.58 0.79 0.59 0.20 0.28 0.34 0.27 0.09 0.01 0.01 0.10 0.06 0.07 0.05 0.09 0.09 0.16 0.27 0.34 0.36 0.36 0.26 0.19 0.14 0.13 0.13 0.12 0.10 0.08 0.02
0.00 0.00 0.00 0.00 0.00 0.00 0.01 0.17 0.26 0.55 0.22 0.14 0.15 0.09 0.12 0.18 0.17 0.27 0.34 0.57 1.96 2.00 1.67 0.88 0.99 0.86 0.47 0.27 0.10 0.16 0.14 0.09 0.04 0.11 0.06 0.09 0.17 0.29 0.32 0.29 0.32 0.21 0.14 0.14 0.14 0.12 0.10 0.16 0.10

GFSSGP_prec_precacc24_111.txt.gz
Total_Precipitation_Accumulation
0.00 0.00 0.04 0.13 0.51 0.37 0.07 0.16 0.17 0.05 0.01 0.00 0.02 0.01 0.01 0.01 0.00 0.00 0.01 0.05 0.02 0.00 0.07 0.21 0.33 0.30 0.12 0.02 0.02 0.06 0.08 0.12 0.09 0.07 0.08 0.05 0.08 0.12 0.10 0.13 0.19 0.18 0.08 0.06 0.07 0.08 0.05 0.03 0.05
0.00 0.01 0.04 0.16 0.57 0.38 0.07 0.04 0.10 0.04 0.00 0.00 0.00 0.01 0.02 0.01 0.00 0.00 0.03 0.05 0.01 0.00 0.02 0.05 0.21 0.14 0.01 0.01 0.02 0.10 0.06 0.07 0.06 0.07 0.09 0.10 0.10 0.15 0.21 0.20 0.18 0.13 0.12 0.15 0.13 0.09 0.06 0.05 0.02
0.00 0.05 0.17 0.47 1.09 0.71 0.17 0.08 0.10 0.01 0.00 0.00 0.02 0.04 0.00 0.00 0.00 0.00 0.03 0.02 0.02 0.02 0.02 0.02 0.01 0.00 0.01 0.04 0.03 0.03 0.07 0.05 0.06 0.14 0.17 0.16 0.18 0.19 0.18 0.17 0.20 0.15 0.13 0.19 0.20 0.15 0.11 0.21 0.03
0.00 0.04 0.14 0.48 1.01 0.18 0.14 0.04 0.05 0.03 0.00 0.00 0.00 0.02 0.00 0.00 0.00 0.00 0.07 0.12 0.04 0.09 0.04 0.00 0.00 0.05 0.16 0.13 0.08 0.08 0.06 0.08 0.09 0.16 0.24 0.28 0.35 0.26 0.15 0.13 0.16 0.10 0.06 0.09 0.10 0.05 0.06 0.08 0.02
0.00 0.23 0.83 0.81 0.39 0.15 0.14 0.10 0.01 0.00 0.00 0.01 0.02 0.04 0.01 0.00 0.00 0.01 0.03 0.08 0.10 0.09 0.00 0.01 0.13 0.16 0.12 0.20 0.29 0.12 0.07 0.10 0.11 0.18 0.35 0.39 0.26 0.23 0.26 0.19 0.06 0.04 0.02 0.02 0.06 0.05 0.06 0.09 0.07
0.11 0.81 1.15 0.44 0.19 0.25 0.29 0.09 0.01 0.01 0.01 0.02 0.00 0.00 0.01 0.01 0.00 0.02 0.03 0.04 0.01 0.00 0.00 0.02 0.12 0.10 0.10 0.19 0.29 0.15 0.22 0.17 0.36 0.28 0.31 0.42 0.34 0.19 0.11 0.10 0.02 0.01 0.02 0.01 0.02 0.05 0.05 0.06 0.04
0.19 1.76 1.06 0.22 0.27 0.54 0.29 0.01 0.00 0.01 0.01 0.02 0.00 0.00 0.03 0.02 0.02 0.04 0.00 0.00 0.03 0.01 0.00 0.01 0.03 0.07 0.08 0.19 0.26 0.20 0.15 0.14 0.29 0.25 0.25 0.30 0.24 0.20 0.15 0.10 0.01 0.01 0.00 0.02 0.06 0.04 0.09 0.16 0.08
0.28 0.91 1.20 0.37 0.92 0.76 0.23 0.04 0.01 0.00 0.02 0.00 0.00 0.00 0.01 0.01 0.03 0.06 0.00 0.02 0.06 0.01 0.02 0.03 0.01 0.04 0.04 0.07 0.15 0.10 0.05 0.06 0.13 0.19 0.16 0.30 0.40 0.14 0.06 0.07 0.01 0.00 0.00 0.01 0.03 0.04 0.06 0.07 0.04
0.29 0.83 1.24 0.49 0.97 0.63 0.18 0.03 0.01 0.01 0.00 0.00 0.00 0.00 0.00 0.00 0.00 0.01 0.02 0.04 0.01 0.03 0.12 0.05 0.01 0.04 0.04 0.02 0.06 0.04 0.02 0.12 0.23 0.25 0.38 0.46 0.31 0.10 0.04 0.03 0.01 0.00 0.00 0.00 0.00 0.01 0.02 0.05 0.03
0.73 1.52 1.91 0.64 0.45 0.11 0.02 0.02 0.06 0.03 0.01 0.01 0.00 0.00 0.00 0.00 0.00 0.00 0.01 0.00 0.00 0.07 0.08 0.09 0.00 0.00 0.01 0.01 0.03 0.09 0.07 0.12 0.17 0.29 0.35 0.14 0.05 0.07 0.06 0.09 0.05 0.01 0.02 0.05 0.04 0.12 0.12 0.04 0.02
0.64 2.84 1.95 0.96 0.24 0.09 0.07 0.10 0.04 0.05 0.01 0.00 0.00 0.00 0.00 0.00 0.00 0.00 0.00 0.00 0.00 0.02 0.04 0.02 0.00 0.00 0.00 0.01 0.01 0.02 0.01 0.01 0.02 0.16 0.17 0.04 0.07 0.06 0.13 0.17 0.11 0.02 0.02 0.09 0.02 0.18 0.49 0.06 0.09
0.51 1.59 1.68 1.69 0.47 0.19 0.09 0.03 0.04 0.03 0.00 0.00 0.00 0.00 0.00 0.00 0.00 0.00 0.00 0.00 0.00 0.00 0.01 0.00 0.00 0.00 0.01 0.02 0.00 0.01 0.00 0.00 0.01 0.03 0.04 0.09 0.13 0.41 0.37 0.26 0.43 0.16 0.04 0.27 0.11 0.05 0.03 0.01 0.01
0.37 1.31 1.09 1.35 0.62 0.45 0.18 0.15 0.08 0.13 0.01 0.00 0.00 0.00 0.00 0.00 0.00 0.00 0.00 0.00 0.00 0.00 0.00 0.00 0.00 0.00 0.03 0.01 0.03 0.00 0.01 0.01 0.00 0.12 0.09 0.09 0.12 0.12 0.03 0.23 0.26 0.26 0.12 0.02 0.02 0.02 0.00 0.00 0.00
0.27 0.73 0.76 0.77 0.71 0.52 0.29 0.20 0.19 0.14 0.00 0.00 0.00 0.00 0.00 0.00 0.00 0.00 0.00 0.00 0.00 0.01 0.00 0.00 0.00 0.00 0.00 0.00 0.00 0.00 0.02 0.00 0.01 0.08 0.51 0.29 0.04 0.08 0.06 0.09 0.05 0.13 0.06 0.01 0.02 0.00 0.00 0.00 0.00
0.35 0.78 0.79 0.54 0.65 0.53 0.45 0.41 0.39 0.21 0.00 0.00 0.00 0.00 0.00 0.00 0.00 0.00 0.00 0.00 0.00 0.00 0.00 0.00 0.00 0.00 0.00 0.00 0.00 0.00 0.02 0.00 0.02 0.07 0.14 0.16 0.03 0.03 0.13 0.06 0.03 0.01 0.05 0.01 0.01 0.00 0.00 0.02 0.03
1.20 0.99 0.88 0.67 0.98 1.00 1.13 1.49 0.80 0.37 0.02 0.01 0.00 0.00 0.00 0.00 0.00 0.00 0.00 0.00 0.00 0.00 0.00 0.00 0.00 0.00 0.00 0.00 0.00 0.00 0.01 0.00 0.01 0.02 0.05 0.02 0.06 0.01 0.01 0.01 0.03 0.00 0.02 0.05 0.03 0.00 0.00 0.01 0.01
0.75 1.41 1.13 1.17 1.10 1.95 2.20 2.03 1.20 0.31 0.08 0.04 0.01 0.00 0.00 0.00 0.00 0.00 0.00 0.00 0.00 0.00 0.00 0.00 0.00 0.00 0.00 0.00 0.00 0.01 0.00 0.00 0.00 0.00 0.05 0.05 0.04 0.02 0.02 0.03 0.03 0.06 0.03 0.03 0.02 0.01 0.00 0.00 0.00
0.38 0.73 1.17 1.12 1.23 2.15 1.79 0.94 0.68 0.15 0.14 0.08 0.03 0.00 0.00 0.00 0.00 0.00 0.00 0.00 0.00 0.00 0.00 0.00 0.00 0.00 0.00 0.00 0.00 0.01 0.00 0.00 0.00 0.01 0.02 0.00 0.06 0.07 0.11 0.04 0.04 0.10 0.06 0.01 0.03 0.00 0.00 0.00 0.01
0.07 0.73 1.30 1.47 1.55 1.67 1.39 1.07 0.82 0.20 0.33 0.32 0.06 0.02 0.00 0.00 0.00 0.00 0.00 0.00 0.00 0.00 0.00 0.00 0.00 0.01 0.00 0.00 0.01 0.00 0.02 0.01 0.00 0.02 0.03 0.04 0.07 0.10 0.09 0.07 0.07 0.36 0.09 0.02 0.01 0.00 0.00 0.00 0.00
0.09 0.75 1.11 1.70 1.40 1.44 2.49 1.87 1.12 0.57 0.42 0.31 0.06 0.01 0.01 0.01 0.00 0.00 0.00 0.00 0.00 0.00 0.00 0.00 0.02 0.05 0.02 0.01 0.02 0.01 0.01 0.01 0.01 0.04 0.04 0.04 0.05 0.10 0.08 0.11 0.09 0.10 0.05 0.05 0.02 0.00 0.00 0.00 0.00
0.15 0.28 0.62 0.97 1.05 1.00 1.48 2.39 1.45 0.62 0.73 0.47 0.14 0.03 0.01 0.01 0.00 0.00 0.00 0.00 0.00 0.00 0.00 0.00 0.02 0.05 0.04 0.05 0.02 0.05 0.10 0.07 0.14 0.16 0.15 0.12 0.06 0.04 0.13 0.11 0.10 0.05 0.03 0.03 0.03 0.04 0.01 0.00 0.00
0.40 0.26 0.32 0.29 0.25 0.21 0.26 0.76 0.87 0.67 0.66 0.45 0.15 0.05 0.01 0.01 0.01 0.01 0.00 0.00 0.00 0.00 0.00 0.00 0.01 0.05 0.07 0.12 0.11 0.23 0.17 0.12 0.12 0.16 0.22 0.20 0.13 0.05 0.08 0.06 0.08 0.06 0.11 0.04 0.02 0.02 0.01 0.01 0.00
0.07 0.11 0.18 0.37 0.25 0.10 0.06 0.18 0.22 0.31 0.50 0.47 0.40 0.05 0.03 0.03 0.01 0.01 0.00 0.00 0.00 0.00 0.00 0.00 0.01 0.03 0.04 0.13 0.28 0.17 0.17 0.17 0.31 0.15 0.32 0.28 0.25 0.18 0.10 0.13 0.08 0.09 0.05 0.03 0.01 0.03 0.04 0.02 0.02
0.02 0.10 0.14 0.20 0.37 0.25 0.03 0.06 0.08 0.01 0.05 0.10 0.20 0.12 0.03 0.03 0.05 0.02 0.02 0.01 0.00 0.00 0.00 0.00 0.00 0.03 0.03 0.06 0.12 0.24 0.26 0.26 0.29 0.57 0.37 0.31 0.22 0.17 0.11 0.11 0.11 0.11 0.05 0.04 0.00 0.07 0.06 0.02 0.01
0.04 0.11 0.13 0.10 0.08 0.04 0.02 0.02 0.04 0.01 0.00 0.00 0.00 0.02 0.01 0.01 0.04 0.07 0.04 0.05 0.03 0.02 0.00 0.00 0.00 0.01 0.01 0.02 0.11 0.17 0.19 0.20 0.38 0.27 0.43 0.60 0.31 0.18 0.11 0.16 0.13 0.07 0.06 0.03 0.00 0.05 0.06 0.03 0.03
0.00 0.00 0.05 0.10 0.06 0.08 0.12 0.20 0.03 0.01 0.00 0.00 0.01 0.02 0.05 0.02 0.03 0.09 0.18 0.19 0.10 0.08 0.04 0.00 0.00 0.00 0.00 0.02 0.09 0.15 0.17 0.16 0.18 0.12 0.37 0.75 0.40 0.19 0.14 0.10 0.10 0.08 0.10 0.02 0.02 0.01 0.01 0.01 0.00
0.00 0.00 0.00 0.02 0.03 0.04 0.12 0.12 0.18 0.08 0.00 0.00 0.00 0.00 0.00 0.00 0.02 0.05 0.17 0.26 0.20 0.04 0.04 0.07 0.02 0.00 0.00 0.00 0.02 0.04 0.07 0.09 0.11 0.24 0.32 0.43 0.99 0.53 0.27 0.13 0.19 0.19 0.10 0.04 0.04 0.01 0.01 0.05 0.05
0.00 0.00 0.00 0.00 0.00 0.03 0.10 0.12 0.18 0.10 0.05 0.01 0.02 0.00 0.01 0.01 0.02 0.04 0.08 0.14 0.18 0.10 0.07 0.11 0.14 0.02 0.01 0.00 0.00 0.01 0.04 0.05 0.06 0.13 0.17 0.66 0.85 0.81 0.96 0.27 0.14 0.11 0.13 0.11 0.06 0.03 0.02 0.05 0.01
0.00 0.00 0.00 0.00 0.00 0.00 0.06 0.16 0.21 0.13 0.13 0.12 0.16 0.11 0.13 0.06 0.05 0.04 0.05 0.18 0.24 0.32 0.16 0.20 0.31 0.29 0.12 0.01 0.00 0.09 0.06 0.06 0.05 0.09 0.10 0.17 0.28 0.41 0.39 0.41 0.35 0.22 0.14 0.13 0.15 0.13 0.10 0.09 0.03
0.00 0.00 0.00 0.00 0.00 0.00 0.00 0.07 0.14 0.46 0.25 0.24 0.23 0.16 0.20 0.18 0.14 0.11 0.11 0.28 0.79 0.96 1.34 0.62 0.66 0.68 0.38 0.24 0.10 0.18 0.14 0.09 0.05 0.11 0.07 0.09 0.20 0.36 0.37 0.30 0.34 0.22 0.18 0.15 0.23 0.15 0.11 0.16 0.11

GFSSGP_prec_precacc24_114.txt.gz
Total_Precipitation_Accumulation
0.00 0.00 0.09 0.18 0.48 0.22 0.03 0.08 0.02 0.00 0.01 0.01 0.01 0.00 0.00 0.00 0.00 0.00 0.01 0.06 0.03 0.00 0.11 0.20 0.34 0.31 0.13 0.02 0.03 0.07 0.12 0.16 0.12 0.07 0.08 0.06 0.09 0.13 0.12 0.13 0.20 0.17 0.07 0.06 0.07 0.08 0.05 0.03 0.03
0.00 0.03 0.13 0.21 0.44 0.07 0.02 0.01 0.02 0.00 0.00 0.00 0.00 0.01 0.02 0.01 0.00 0.00 0.03 0.07 0.01 0.00 0.02 0.05 0.21 0.14 0.02 0.01 0.02 0.10 0.09 0.09 0.07 0.09 0.13 0.13 0.11 0.16 0.21 0.20 0.17 0.10 0.11 0.15 0.13 0.09 0.06 0.04 0.02
0.00 0.16 0.25 0.44 0.74 0.12 0.02 0.03 0.02 0.00 0.00 0.00 0.02 0.04 0.00 0.00 0.00 0.00 0.03 0.02 0.02 0.02 0.02 0.02 0.01 0.01 0.01 0.03 0.03 0.04 0.08 0.07 0.08 0.14 0.19 0.18 0.18 0.19 0.18 0.17 0.20 0.14 0.12 0.18 0.20 0.15 0.11 0.21 0.03
0.00 0.13 0.15 0.38 0.58 0.06 0.07 0.01 0.01 0.00 0.00 0.00 0.00 0.02 0.00 0.00 0.00 0.00 0.07 0.12 0.04 0.09 0.07 0.00 0.00 0.05 0.16 0.13 0.08 0.08 0.06 0.09 0.09 0.16 0.24 0.28 0.35 0.26 0.15 0.13 0.16 0.10 0.06 0.09 0.10 0.05 0.06 0.07 0.01
0.00 0.13 0.60 0.67 0.34 0.08 0.06 0.02 0.00 0.00 0.00 0.01 0.02 0.04 0.01 0.00 0.00 0.01 0.03 0.08 0.10 0.09 0.00 0.01 0.12 0.15 0.12 0.20 0.29 0.12 0.07 0.10 0.12 0.18 0.36 0.41 0.28 0.25 0.25 0.18 0.06 0.04 0.02 0.02 0.06 0.05 0.05 0.06 0.03
0.10 0.55 0.90 0.41 0.11 0.16 0.20 0.05 0.00 0.01 0.01 0.02 0.00 0.00 0.02 0.02 0.01 0.03 0.04 0.05 0.02 0.00 0.00 0.02 0.12 0.10 0.10 0.19 0.29 0.15 0.22 0.18 0.39 0.31 0.33 0.44 0.36 0.19 0.11 0.10 0.02 0.01 0.02 0.01 0.02 0.05 0.04 0.02 0.01
0.19 1.01 0.91 0.21 0.22 0.46 0.16 0.00 0.00 0.01 0.01 0.02 0.00 0.00 0.05 0.13 0.11 0.10 0.01 0.00 0.03 0.01 0.00 0.01 0.03 0.07 0.08 0.19 0.26 0.20 0.22 0.18 0.32 0.27 0.27 0.31 0.24 0.20 0.15 0.10 0.01 0.01 0.00 0.02 0.06 0.04 0.09 0.14 0.08
0.29 0.60 0.48 0.34 0.79 0.62 0.06 0.01 0.00 0.00 0.02 0.00 0.00 0.00 0.01 0.03 0.07 0.03 0.00 0.03 0.06 0.01 0.02 0.03 0.01 0.04 0.04 0.08 0.16 0.14 0.05 0.06 0.14 0.20 0.16 0.31 0.40 0.14 0.05 0.06 0.01 0.00 0.00 0.01 0.03 0.04 0.06 0.07 0.04
0.30 0.70 0.94 0.48 0.81 0.35 0.05 0.02 0.01 0.01 0.00 0.00 0.00 0.00 0.00 0.00 0.01 0.00 0.01 0.11 0.10 0.02 0.06 0.08 0.02 0.04 0.04 0.03 0.06 0.06 0.04 0.13 0.19 0.24 0.39 0.51 0.37 0.11 0.05 0.04 0.00 0.00 0.00 0.00 0.02 0.03 0.02 0.05 0.03
0.88 1.92 1.65 0.66 0.47 0.12 0.02 0.03 0.00 0.00 0.00 0.01 0.00 0.00 0.00 0.00 0.00 0.00 0.00 0.02 0.06 0.08 0.07 0.10 0.01 0.00 0.01 0.01 0.03 0.09 0.10 0.16 0.18 0.29 0.36 0.17 0.12 0.09 0.10 0.13 0.05 0.02 0.04 0.05 0.04 0.12 0.11 0.03 0.02
0.72 2.62 2.30 1.09 0.30 0.20 0.07 0.05 0.00 0.00 0.00 0.00 0.00 0.00 0.00 0.00 0.00 0.00 0.00 0.01 0.01 0.01 0.01 0.02 0.00 0.00 0.00 0.01 0.01 0.02 0.01 0.01 0.02 0.16 0.17 0.07 0.09 0.10 0.14 0.20 0.12 0.04 0.08 0.10 0.02 0.17 0.46 0.04 0.01
0.42 1.43 1.78 1.77 0.45 0.32 0.12 0.02 0.02 0.01 0.00 0.00 0.00 0.00 0.00 0.00 0.00 0.00 0.00 0.00 0.00 0.01 0.00 0.00 0.00 0.00 0.01 0.02 0.03 0.02 0.01 0.01 0.01 0.03 0.07 0.11 0.13 0.41 0.38 0.31 0.47 0.16 0.04 0.27 0.11 0.03 0.02 0.01 0.00
0.40 1.29 1.09 1.34 0.65 0.49 0.21 0.15 0.07 0.11 0.01 0.00 0.00 0.00 0.00 0.00 0.00 0.00 0.00 0.00 0.00 0.00 0.00 0.00 0.00 0.00 0.03 0.02 0.08 0.02 0.01 0.01 0.00 0.12 0.10 0.10 0.12 0.12 0.04 0.30 0.27 0.28 0.11 0.02 0.01 0.00 0.00 0.00 0.00
0.29 0.78 0.72 0.79 0.85 0.56 0.28 0.20 0.15 0.10 0.00 0.00 0.00 0.00 0.00 0.00 0.00 0.00 0.00 0.00 0.00 0.00 0.00 0.00 0.00 0.00 0.00 0.00 0.00 0.01 0.03 0.00 0.02 0.09 0.51 0.29 0.05 0.09 0.07 0.11 0.05 0.14 0.08 0.02 0.01 0.00 0.00 0.00 0.00
0.45 0.99 0.89 0.81 1.00 0.62 0.46 0.39 0.35 0.21 0.00 0.00 0.00 0.00 0.00 0.00 0.00 0.00 0.00 0.00 0.00 0.00 0.00 0.00 0.00 0.00 0.00 0.00 0.00 0.01 0.02 0.01 0.02 0.07 0.14 0.16 0.09 0.08 0.14 0.08 0.04 0.03 0.05 0.03 0.01 0.00 0.00 0.02 0.05
1.59 1.38 1.32 1.30 1.09 1.00 1.10 0.92 0.61 0.36 0.02 0.00 0.00 0.00 0.00 0.00 0.00 0.00 0.00 0.00 0.00 0.00 0.00 0.00 0.00 0.00 0.00 0.00 0.00 0.00 0.01 0.01 0.02 0.02 0.06 0.03 0.07 0.05 0.04 0.07 0.10 0.14 0.13 0.05 0.03 0.00 0.00 0.02 0.04
1.08 1.86 1.38 1.25 1.13 1.92 2.17 1.68 0.93 0.23 0.04 0.04 0.01 0.00 0.00 0.00 0.00 0.00 0.00 0.00 0.00 0.00 0.00 0.00 0.00 0.00 0.00 0.00 0.00 0.00 0.00 0.00 0.00 0.01 0.03 0.01 0.03 0.05 0.03 0.05 0.06 0.15 0.06 0.03 0.03 0.00 0.00 0.00 0.02
0.41 0.78 1.23 1.24 1.17 2.00 1.78 1.07 0.70 0.12 0.05 0.06 0.02 0.00 0.00 0.00 0.00 0.00 0.00 0.00 0.00 0.00 0.00 0.00 0.00 0.00 0.00 0.00 0.00 0.01 0.00 0.00 0.00 0.01 0.03 0.00 0.06 0.08 0.10 0.04 0.05 0.11 0.07 0.04 0.01 0.00 0.00 0.00 0.01
0.10 0.75 1.30 1.49 1.58 1.53 1.35 1.16 0.75 0.17 0.15 0.24 0.05 0.02 0.00 0.00 0.00 0.00 0.00 0.00 0.00 0.00 0.00 0.00 0.00 0.01 0.00 0.00 0.01 0.01 0.01 0.01 0.00 0.03 0.03 0.03 0.06 0.06 0.09 0.07 0.06 0.37 0.11 0.03 0.01 0.00 0.00 0.00 0.01
0.19 0.82 1.12 1.67 1.40 1.25 2.28 1.78 1.03 0.44 0.25 0.24 0.05 0.01 0.01 0.01 0.00 0.00 0.00 0.00 0.00 0.00 0.00 0.00 0.02 0.05 0.02 0.01 0.02 0.01 0.01 0.01 0.00 0.04 0.04 0.03 0.04 0.08 0.08 0.12 0.09 0.10 0.05 0.06 0.03 0.00 0.00 0.00 0.00
0.18 0.34 0.62 0.95 0.97 0.89 1.33 2.24 1.47 0.45 0.51 0.35 0.13 0.03 0.01 0.01 0.00 0.00 0.00 0.00 0.00 0.00 0.00 0.00 0.02 0.05 0.04 0.05 0.02 0.03 0.10 0.06 0.10 0.13 0.15 0.12 0.06 0.03 0.13 0.12 0.10 0.06 0.03 0.03 0.03 0.01 0.01 0.00 0.00
0.41 0.27 0.33 0.29 0.24 0.19 0.25 0.88 0.89 0.52 0.44 0.31 0.14 0.05 0.01 0.01 0.01 0.01 0.00 0.00 0.00 0.00 0.00 0.00 0.01 0.05 0.07 0.12 0.11 0.23 0.17 0.12 0.10 0.14 0.16 0.17 0.13 0.05 0.08 0.08 0.12 0.07 0.11 0.04 0.03 0.00 0.01 0.01 0.00
0.07 0.12 0.19 0.37 0.23 0.09 0.07 0.21 0.25 0.25 0.35 0.31 0.34 0.04 0.02 0.02 0.01 0.01 0.00 0.00 0.00 0.00 0.00 0.00 0.01 0.03 0.04 0.13 0.28 0.17 0.17 0.19 0.32 0.14 0.31 0.23 0.17 0.17 0.10 0.13 0.07 0.09 0.05 0.03 0.01 0.02 0.04 0.02 0.02
0.02 0.12 0.22 0.22 0.34 0.22 0.03 0.05 0.07 0.01 0.01 0.02 0.15 0.11 0.02 0.02 0.04 0.02 0.02 0.01 0.00 0.00 0.00 0.00 0.00 0.03 0.03 0.06 0.11 0.22 0.27 0.27 0.30 0.55 0.34 0.23 0.14 0.12 0.11 0.11 0.12 0.11 0.05 0.04 0.00 0.09 0.06 0.02 0.01
0.05 0.17 0.18 0.14 0.09 0.05 0.03 0.02 0.02 0.00 0.00 0.00 0.00 0.02 0.01 0.01 0.03 0.03 0.03 0.04 0.03 0.02 0.00 0.00 0.00 0.01 0.01 0.02 0.09 0.17 0.20 0.20 0.39 0.25 0.41 0.60 0.31 0.17 0.11 0.17 0.17 0.08 0.06 0.03 0.00 0.05 0.06 0.02 0.02
0.01 0.00 0.09 0.13 0.09 0.12 0.16 0.22 0.05 0.01 0.00 0.00 0.01 0.02 0.05 0.02 0.03 0.07 0.10 0.11 0.09 0.08 0.04 0.00 0.00 0.00 0.00 0.02 0.09 0.15 0.17 0.17 0.18 0.11 0.36 0.75 0.39 0.19 0.11 0.10 0.10 0.08 0.10 0.03 0.02 0.01 0.01 0.01 0.00
0.00 0.00 0.00 0.02 0.03 0.03 0.08 0.12 0.17 0.08 0.00 0.00 0.00 0.00 0.00 0.00 0.01 0.04 0.09 0.14 0.17 0.03 0.04 0.07 0.02 0.00 0.00 0.00 0.02 0.04 0.11 0.10 0.11 0.23 0.28 0.43 0.98 0.50 0.27 0.13 0.19 0.19 0.10 0.04 0.03 0.01 0.01 0.05 0.05
0.00 0.00 0.00 0.00 0.00 0.03 0.04 0.04 0.13 0.08 0.04 0.01 0.01 0.00 0.01 0.01 0.02 0.03 0.06 0.10 0.14 0.09 0.06 0.12 0.14 0.02 0.01 0.00 0.00 0.01 0.05 0.06 0.06 0.13 0.16 0.66 0.85 0.81 0.96 0.29 0.14 0.12 0.14 0.11 0.06 0.03 0.03 0.05 0.02
0.00 0.00 0.00 0.00 0.00 0.00 0.04 0.12 0.12 0.04 0.10 0.11 0.14 0.10 0.13 0.05 0.03 0.04 0.05 0.18 0.23 0.23 0.10 0.06 0.16 0.18 0.07 0.00 0.00 0.09 0.05 0.06 0.05 0.09 0.08 0.16 0.28 0.41 0.38 0.40 0.35 0.22 0.15 0.16 0.20 0.15 0.10 0.10 0.04
0.00 0.00 0.00 0.00 0.00 0.00 0.00 0.03 0.04 0.31 0.14 0.17 0.20 0.16 0.19 0.14 0.09 0.06 0.06 0.25 0.74 0.72 0.57 0.38 0.45 0.45 0.25 0.13 0.02 0.14 0.09 0.04 0.03 0.11 0.07 0.09 0.20 0.36 0.36 0.30 0.35 0.24 0.18 0.20 0.32 0.18 0.12 0.17 0.13

GFSSGP_prec_precacc24_117.txt.gz
Total_Precipitation_Accumulation
0.00 0.01 0.09 0.22 0.44 0.22 0.00 0.00 0.00 0.00 0.02 0.01 0.01 0.00 0.00 0.00 0.00 0.00 0.01 0.06 0.03 0.00 0.09 0.14 0.33 0.34 0.14 0.03 0.03 0.08 0.11 0.14 0.11 0.07 0.08 0.08 0.12 0.14 0.12 0.14 0.17 0.13 0.06 0.06 0.07 0.09 0.07 0.05 0.05
0.00 0.04 0.15 0.28 0.40 0.04 0.01 0.00 0.00 0.00 0.00 0.00 0.00 0.01 0.01 0.01 0.00 0.00 0.03 0.07 0.01 0.00 0.01 0.05 0.22 0.15 0.03 0.03 0.02 0.10 0.09 0.09 0.06 0.10 0.15 0.15 0.13 0.19 0.22 0.20 0.16 0.10 0.10 0.14 0.13 0.09 0.05 0.03 0.01
0.02 0.19 0.25 0.39 0.47 0.05 0.01 0.01 0.00 0.00 0.00 0.00 0.01 0.03 0.00 0.00 0.00 0.00 0.03 0.02 0.02 0.02 0.02 0.02 0.02 0.01 0.01 0.03 0.02 0.03 0.08 0.08 0.08 0.15 0.22 0.22 0.19 0.19 0.16 0.16 0.21 0.14 0.12 0.18 0.19 0.16 0.12 0.21 0.04
0.01 0.13 0.14 0.30 0.31 0.04 0.04 0.00 0.00 0.00 0.00 0.00 0.00 0.02 0.00 0.00 0.00 0.00 0.07 0.12 0.04 0.09 0.07 0.00 0.02 0.04 0.14 0.12 0.08 0.06 0.05 0.11 0.10 0.16 0.23 0.25 0.33 0.25 0.14 0.13 0.16 0.09 0.06 0.09 0.10 0.05 0.05 0.04 0.04
0.00 0.07 0.52 0.45 0.21 0.05 0.02 0.00 0.00 0.00 0.00 0.01 0.02 0.04 0.01 0.00 0.00 0.01 0.03 0.08 0.11 0.09 0.00 0.01 0.12 0.14 0.12 0.20 0.28 0.11 0.07 0.10 0.12 0.17 0.34 0.40 0.27 0.25 0.26 0.18 0.06 0.04 0.01 0.02 0.05 0.01 0.01 0.04 0.02
0.05 0.15 0.58 0.39 0.09 0.11 0.05 0.01 0.00 0.01 0.01 0.02 0.00 0.00 0.02 0.04 0.01 0.03 0.04 0.05 0.04 0.03 0.00 0.02 0.11 0.10 0.10 0.18 0.29 0.15 0.26 0.19 0.39 0.30 0.32 0.44 0.35 0.19 0.11 0.10 0.02 0.01 0.02 0.01 0.00 0.00 0.01 0.01 0.01
0.16 0.50 0.78 0.19 0.13 0.28 0.09 0.00 0.00 0.01 0.01 0.02 0.00 0.00 0.05 0.17 0.14 0.11 0.02 0.02 0.03 0.01 0.00 0.01 0.03 0.07 0.07 0.17 0.28 0.20 0.24 0.22 0.33 0.26 0.26 0.30 0.23 0.20 0.14 0.10 0.01 0.00 0.00 0.02 0.05 0.03 0.05 0.09 0.07
0.31 0.50 0.48 0.33 0.29 0.30 0.02 0.01 0.01 0.00 0.02 0.00 0.00 0.00 0.01 0.04 0.12 0.05 0.00 0.03 0.06 0.01 0.02 0.02 0.01 0.03 0.05 0.08 0.18 0.16 0.06 0.06 0.13 0.19 0.16 0.31 0.36 0.12 0.05 0.06 0.01 0.00 0.00 0.01 0.02 0.02 0.02 0.05 0.04
0.29 0.65 0.95 0.46 0.50 0.11 0.01 0.02 0.01 0.01 0.00 0.00 0.00 0.00 0.01 0.00 0.03 0.00 0.01 0.11 0.10 0.02 0.04 0.07 0.01 0.06 0.07 0.09 0.07 0.07 0.04 0.13 0.19 0.24 0.40 0.53 0.27 0.05 0.05 0.04 0.00 0.00 0.00 0.00 0.02 0.04 0.04 0.04 0.03
0.94 2.13 1.63 0.62 0.39 0.04 0.00 0.02 0.00 0.00 0.00 0.01 0.00 0.00 0.01 0.02 0.00 0.00 0.00 0.02 0.08 0.08 0.06 0.09 0.01 0.01 0.02 0.04 0.05 0.09 0.16 0.22 0.21 0.30 0.37 0.16 0.10 0.09 0.09 0.11 0.07 0.04 0.02 0.03 0.01 0.12 0.12 0.04 0.02
0.72 2.42 2.33 1.01 0.29 0.16 0.01 0.00 0.00 0.00 0.00 0.00 0.00 0.00 0.00 0.00 0.00 0.01 0.00 0.01 0.03 0.01 0.01 0.02 0.00 0.00 0.02 0.13 0.06 0.03 0.03 0.02 0.03 0.16 0.17 0.07 0.09 0.08 0.08 0.11 0.10 0.05 0.08 0.10 0.02 0.16 0.45 0.03 0.01
0.41 1.22 1.71 1.69 0.35 0.29 0.06 0.00 0.00 0.00 0.00 0.00 0.00 0.00 0.00 0.00 0.00 0.03 0.03 0.01 0.00 0.02 0.01 0.00 0.00 0.00 0.01 0.05 0.10 0.04 0.01 0.02 0.03 0.06 0.09 0.11 0.13 0.41 0.38 0.31 0.47 0.16 0.04 0.27 0.11 0.03 0.01 0.00 0.00
0.38 1.23 0.92 1.16 0.43 0.39 0.14 0.06 0.01 0.02 0.00 0.00 0.00 0.00 0.00 0.00 0.00 0.01 0.04 0.00 0.01 0.00 0.00 0.00 0.00 0.00 0.03 0.05 0.11 0.05 0.02 0.02 0.01 0.13 0.10 0.10 0.12 0.12 0.04 0.30 0.27 0.28 0.11 0.03 0.01 0.00 0.00 0.00 0.00
0.29 0.79 0.59 0.67 0.65 0.47 0.35 0.12 0.06 0.09 0.01 0.00 0.00 0.00 0.00 0.00 0.00 0.00 0.00 0.00 0.00 0.00 0.00 0.00 0.00 0.00 0.01 0.04 0.01 0.03 0.03 0.02 0.04 0.11 0.53 0.29 0.05 0.09 0.07 0.11 0.05 0.16 0.11 0.03 0.01 0.00 0.00 0.00 0.00
0.55 1.01 0.78 0.83 1.04 0.64 0.47 0.31 0.28 0.23 0.00 0.00 0.00 0.00 0.00 0.00 0.00 0.00 0.00 0.00 0.00 0.00 0.00 0.00 0.00 0.00 0.01 0.04 0.01 0.01 0.03 0.01 0.02 0.06 0.14 0.16 0.10 0.07 0.13 0.08 0.04 0.04 0.06 0.03 0.02 0.01 0.00 0.02 0.05
1.63 1.81 1.39 1.73 1.50 1.07 1.11 0.88 0.55 0.35 0.01 0.00 0.00 0.00 0.00 0.00 0.00 0.00 0.00 0.00 0.00 0.00 0.00 0.00 0.00 0.00 0.00 0.00 0.00 0.01 0.01 0.02 0.02 0.02 0.07 0.03 0.08 0.05 0.04 0.07 0.10 0.14 0.13 0.05 0.04 0.00 0.00 0.02 0.04
1.08 1.90 2.11 1.98 1.81 2.03 2.16 1.69 0.85 0.23 0.03 0.03 0.01 0.00 0.00 0.00 0.00 0.00 0.00 0.00 0.00 0.00 0.00 0.00 0.00 0.00 0.00 0.00 0.00 0.00 0.00 0.00 0.00 0.01 0.03 0.01 0.03 0.06 0.06 0.07 0.07 0.13 0.07 0.05 0.03 0.00 0.00 0.00 0.02
0.41 0.84 1.44 1.57 1.46 1.93 1.64 1.10 0.72 0.14 0.05 0.06 0.02 0.00 0.00 0.00 0.00 0.00 0.00 0.00 0.00 0.00 0.00 0.00 0.00 0.00 0.00 0.00 0.00 0.00 0.00 0.01 0.00 0.01 0.01 0.01 0.03 0.07 0.13 0.05 0.05 0.13 0.09 0.04 0.01 0.02 0.00 0.00 0.01
0.11 0.79 1.43 1.54 1.47 1.49 1.31 1.23 0.73 0.11 0.10 0.12 0.05 0.02 0.00 0.00 0.00 0.00 0.00 0.00 0.00 0.00 0.00 0.00 0.00 0.01 0.00 0.00 0.01 0.01 0.00 0.01 0.00 0.03 0.02 0.03 0.05 0.05 0.09 0.07 0.05 0.37 0.10 0.03 0.02 0.00 0.00 0.00 0.01
0.21 0.86 1.13 1.63 1.32 1.20 1.93 1.75 1.01 0.25 0.20 0.09 0.04 0.01 0.01 0.01 0.00 0.00 0.00 0.00 0.00 0.00 0.00 0.00 0.02 0.05 0.02 0.01 0.02 0.01 0.00 0.00 0.01 0.03 0.04 0.03 0.02 0.08 0.08 0.10 0.09 0.10 0.05 0.04 0.04 0.00 0.00 0.00 0.00
0.18 0.34 0.63 0.94 0.96 0.88 1.18 1.93 1.52 0.41 0.29 0.21 0.09 0.01 0.01 0.01 0.00 0.00 0.00 0.00 0.00 0.00 0.00 0.00 0.02 0.05 0.04 0.05 0.02 0.03 0.10 0.06 0.10 0.13 0.15 0.12 0.08 0.04 0.13 0.12 0.10 0.06 0.03 0.03 0.03 0.01 0.01 0.00 0.00
0.41 0.27 0.33 0.29 0.24 0.20 0.24 0.87 0.94 0.56 0.29 0.12 0.05 0.03 0.01 0.01 0.01 0.01 0.00 0.00 0.00 0.00 0.00 0.00 0.01 0.05 0.07 0.12 0.11 0.23 0.16 0.11 0.09 0.11 0.16 0.11 0.14 0.06 0.08 0.07 0.10 0.06 0.11 0.04 0.04 0.00 0.01 0.01 0.00
0.06 0.12 0.19 0.37 0.23 0.08 0.07 0.21 0.27 0.30 0.31 0.19 0.19 0.04 0.02 0.02 0.01 0.01 0.00 0.00 0.00 0.00 0.00 0.00 0.01 0.03 0.04 0.13 0.28 0.17 0.11 0.18 0.31 0.13 0.31 0.19 0.15 0.13 0.08 0.09 0.05 0.09 0.06 0.03 0.01 0.02 0.04 0.01 0.02
0.02 0.12 0.22 0.22 0.33 0.21 0.03 0.05 0.07 0.02 0.03 0.01 0.14 0.11 0.02 0.02 0.04 0.02 0.02 0.01 0.00 0.00 0.00 0.00 0.00 0.03 0.03 0.06 0.11 0.22 0.26 0.24 0.29 0.55 0.30 0.19 0.14 0.11 0.09 0.09 0.10 0.10 0.04 0.04 0.00 0.07 0.05 0.02 0.01
0.05 0.17 0.18 0.13 0.10 0.05 0.04 0.02 0.02 0.00 0.00 0.00 0.00 0.02 0.00 0.01 0.03 0.02 0.03 0.04 0.03 0.02 0.00 0.00 0.00 0.01 0.01 0.02 0.09 0.17 0.20 0.19 0.36 0.25 0.41 0.60 0.31 0.17 0.11 0.17 0.16 0.07 0.06 0.03 0.01 0.04 0.05 0.02 0.02
0.01 0.01 0.09 0.17 0.12 0.12 0.17 0.23 0.05 0.01 0.00 0.00 0.01 0.01 0.01 0.01 0.00 0.02 0.06 0.11 0.09 0.08 0.04 0.00 0.00 0.00 0.00 0.02 0.09 0.15 0.17 0.17 0.15 0.11 0.36 0.75 0.39 0.19 0.11 0.10 0.09 0.07 0.10 0.03 0.03 0.01 0.01 0.01 0.00
0.00 0.00 0.00 0.02 0.03 0.04 0.08 0.12 0.16 0.08 0.00 0.00 0.00 0.00 0.00 0.00 0.00 0.03 0.04 0.13 0.16 0.03 0.04 0.07 0.02 0.00 0.00 0.00 0.02 0.04 0.11 0.10 0.11 0.23 0.28 0.42 0.98 0.50 0.27 0.11 0.13 0.12 0.08 0.04 0.03 0.01 0.01 0.05 0.05
0.00 0.00 0.00 0.00 0.00 0.03 0.04 0.03 0.13 0.07 0.03 0.01 0.01 0.00 0.01 0.00 0.02 0.03 0.03 0.05 0.09 0.06 0.03 0.12 0.12 0.01 0.00 0.00 0.00 0.01 0.05 0.06 0.06 0.13 0.16 0.65 0.84 0.79 0.94 0.28 0.13 0.11 0.13 0.10 0.06 0.03 0.03 0.05 0.02
0.00 0.00 0.00 0.00 0.00 0.00 0.03 0.12 0.12 0.03 0.09 0.09 0.12 0.09 0.10 0.03 0.02 0.03 0.03 0.12 0.15 0.16 0.07 0.05 0.12 0.12 0.03 0.00 0.00 0.09 0.05 0.06 0.05 0.08 0.08 0.16 0.28 0.40 0.38 0.40 0.35 0.22 0.15 0.15 0.20 0.15 0.10 0.10 0.05
0.00 0.00 0.00 0.00 0.00 0.00 0.00 0.03 0.04 0.31 0.13 0.13 0.13 0.16 0.17 0.14 0.08 0.04 0.04 0.19 0.65 0.63 0.46 0.33 0.34 0.38 0.21 0.11 0.01 0.13 0.09 0.04 0.03 0.08 0.06 0.09 0.18 0.33 0.32 0.27 0.31 0.25 0.19 0.28 0.37 0.21 0.15 0.18 0.15

GFSSGP_prec_precacc24_120.txt.gz
Total_Precipitation_Accumulation
0.00 0.01 0.10 0.22 0.44 0.22 0.00 0.00 0.00 0.00 0.02 0.01 0.02 0.01 0.00 0.00 0.00 0.00 0.01 0.06 0.03 0.00 0.05 0.11 0.38 0.37 0.19 0.08 0.04 0.07 0.10 0.13 0.11 0.06 0.08 0.08 0.09 0.11 0.11 0.10 0.12 0.14 0.07 0.07 0.10 0.12 0.14 0.11 0.10
0.00 0.05 0.15 0.27 0.38 0.03 0.01 0.00 0.00 0.01 0.03 0.00 0.00 0.01 0.01 0.01 0.00 0.00 0.03 0.07 0.01 0.00 0.01 0.07 0.29 0.21 0.06 0.05 0.04 0.11 0.08 0.06 0.05 0.08 0.14 0.15 0.12 0.16 0.18 0.09 0.06 0.11 0.09 0.12 0.18 0.16 0.15 0.21 0.14
0.02 0.19 0.25 0.37 0.36 0.04 0.01 0.01 0.00 0.00 0.00 0.00 0.01 0.03 0.00 0.00 0.00 0.00 0.03 0.02 0.02 0.02 0.02 0.04 0.06 0.03 0.01 0.05 0.06 0.04 0.08 0.05 0.07 0.11 0.18 0.20 0.18 0.17 0.13 0.13 0.15 0.12 0.09 0.16 0.17 0.16 0.19 0.27 0.18
0.01 0.13 0.11 0.25 0.17 0.03 0.03 0.00 0.00 0.00 0.00 0.00 0.00 0.02 0.00 0.00 0.00 0.00 0.07 0.12 0.04 0.09 0.07 0.00 0.04 0.03 0.09 0.12 0.07 0.03 0.05 0.10 0.11 0.15 0.21 0.21 0.32 0.25 0.14 0.11 0.10 0.09 0.05 0.09 0.14 0.10 0.08 0.09 0.12
0.00 0.04 0.31 0.29 0.11 0.03 0.00 0.00 0.00 0.00 0.00 0.01 0.02 0.04 0.00 0.00 0.00 0.01 0.03 0.08 0.11 0.09 0.00 0.01 0.12 0.09 0.04 0.10 0.20 0.06 0.05 0.10 0.10 0.14 0.31 0.35 0.26 0.26 0.24 0.17 0.05 0.05 0.02 0.02 0.05 0.01 0.02 0.08 0.05
0.04 0.08 0.43 0.31 0.08 0.04 0.00 0.00 0.00 0.01 0.01 0.02 0.00 0.00 0.02 0.05 0.01 0.03 0.04 0.05 0.04 0.04 0.00 0.01 0.07 0.03 0.04 0.10 0.21 0.10 0.14 0.14 0.32 0.29 0.33 0.47 0.42 0.21 0.10 0.10 0.02 0.02 0.02 0.01 0.00 0.00 0.00 0.00 0.01
0.11 0.40 0.53 0.17 0.10 0.11 0.01 0.00 0.00 0.01 0.01 0.02 0.00 0.00 0.04 0.18 0.16 0.11 0.03 0.02 0.03 0.01 0.00 0.01 0.03 0.04 0.08 0.18 0.25 0.22 0.27 0.19 0.28 0.24 0.25 0.32 0.24 0.10 0.10 0.09 0.00 0.00 0.00 0.00 0.02 0.01 0.02 0.01 0.00
0.28 0.47 0.46 0.31 0.18 0.18 0.01 0.01 0.01 0.00 0.02 0.00 0.00 0.00 0.01 0.04 0.16 0.05 0.02 0.03 0.06 0.01 0.02 0.02 0.11 0.13 0.08 0.11 0.20 0.17 0.06 0.03 0.05 0.14 0.12 0.25 0.22 0.06 0.04 0.06 0.00 0.00 0.00 0.00 0.00 0.00 0.03 0.04 0.00
0.24 0.59 0.93 0.40 0.18 0.08 0.01 0.02 0.01 0.01 0.00 0.00 0.00 0.00 0.01 0.00 0.03 0.00 0.01 0.11 0.10 0.02 0.05 0.10 0.07 0.12 0.12 0.16 0.07 0.06 0.05 0.12 0.15 0.20 0.38 0.48 0.22 0.05 0.05 0.05 0.01 0.00 0.01 0.03 0.06 0.08 0.06 0.05 0.03
0.92 2.11 1.62 0.53 0.17 0.03 0.00 0.02 0.00 0.00 0.00 0.01 0.00 0.00 0.01 0.02 0.00 0.00 0.00 0.02 0.08 0.08 0.06 0.09 0.01 0.01 0.04 0.09 0.09 0.13 0.21 0.22 0.22 0.31 0.38 0.16 0.10 0.07 0.06 0.10 0.10 0.08 0.04 0.01 0.04 0.14 0.13 0.04 0.02
0.72 2.42 2.31 0.90 0.23 0.16 0.01 0.00 0.00 0.00 0.00 0.00 0.00 0.00 0.00 0.00 0.00 0.02 0.00 0.01 0.03 0.01 0.01 0.02 0.00 0.00 0.07 0.19 0.11 0.03 0.05 0.02 0.03 0.16 0.17 0.07 0.09 0.06 0.02 0.04 0.08 0.05 0.07 0.10 0.02 0.16 0.45 0.03 0.01
0.44 1.19 1.63 1.65 0.35 0.25 0.05 0.00 0.00 0.00 0.00 0.00 0.00 0.00 0.00 0.00 0.00 0.03 0.03 0.01 0.00 0.02 0.01 0.00 0.00 0.00 0.02 0.06 0.10 0.04 0.01 0.02 0.03 0.06 0.09 0.11 0.13 0.41 0.38 0.31 0.47 0.16 0.04 0.26 0.09 0.01 0.00 0.00 0.00
0.39 1.19 0.71 0.96 0.35 0.25 0.08 0.02 0.00 0.01 0.00 0.00 0.00 0.00 0.00 0.00 0.00 0.04 0.05 0.00 0.04 0.01 0.00 0.00 0.00 0.00 0.04 0.06 0.11 0.05 0.02 0.02 0.01 0.13 0.10 0.10 0.12 0.12 0.04 0.30 0.27 0.28 0.11 0.02 0.01 0.00 0.00 0.00 0.00
0.30 0.74 0.49 0.45 0.46 0.31 0.26 0.04 0.04 0.05 0.01 0.00 0.00 0.00 0.00 0.00 0.00 0.00 0.01 0.00 0.00 0.01 0.00 0.00 0.00 0.00 0.03 0.04 0.01 0.03 0.03 0.02 0.04 0.11 0.53 0.29 0.05 0.09 0.07 0.11 0.05 0.16 0.11 0.03 0.01 0.00 0.00 0.00 0.00
0.53 0.90 0.69 0.85 0.84 0.52 0.43 0.24 0.17 0.07 0.01 0.00 0.00 0.00 0.00 0.00 0.00 0.00 0.00 0.00 0.00 0.00 0.00 0.00 0.00 0.00 0.03 0.05 0.04 0.05 0.05 0.02 0.02 0.04 0.12 0.16 0.12 0.08 0.11 0.06 0.02 0.03 0.06 0.03 0.01 0.01 0.00 0.02 0.05
1.63 1.80 1.50 1.96 1.47 0.94 0.85 0.72 0.38 0.15 0.01 0.00 0.00 0.00 0.00 0.00 0.00 0.00 0.00 0.00 0.00 0.00 0.00 0.00 0.00 0.00 0.00 0.01 0.03 0.01 0.05 0.02 0.02 0.02 0.07 0.04 0.09 0.05 0.04 0.07 0.07 0.13 0.13 0.05 0.04 0.00 0.00 0.02 0.04
1.08 1.88 2.21 1.99 2.04 2.10 2.08 1.53 0.84 0.22 0.02 0.03 0.01 0.00 0.00 0.00 0.00 0.00 0.00 0.00 0.00 0.00 0.00 0.00 0.00 0.00 0.01 0.00 0.01 0.04 0.00 0.00 0.00 0.01 0.07 0.09 0.05 0.06 0.06 0.07 0.06 0.13 0.07 0.05 0.03 0.00 0.00 0.00 0.02
0.42 0.83 1.45 1.72 1.56 2.09 1.63 1.16 0.76 0.14 0.04 0.03 0.02 0.00 0.00 0.00 0.00 0.00 0.00 0.00 0.00 0.00 0.00 0.00 0.00 0.00 0.00 0.00 0.00 0.01 0.00 0.02 0.01 0.01 0.02 0.05 0.05 0.07 0.12 0.04 0.05 0.13 0.09 0.04 0.01 0.02 0.00 0.00 0.01
0.11 0.81 1.47 1.55 1.46 1.79 1.38 1.28 0.73 0.11 0.09 0.10 0.05 0.01 0.00 0.00 0.00 0.00 0.00 0.00 0.00 0.00 0.00 0.00 0.00 0.01 0.00 0.00 0.01 0.00 0.00 0.02 0.01 0.02 0.01 0.02 0.04 0.05 0.09 0.05 0.04 0.36 0.08 0.02 0.02 0.00 0.00 0.00 0.01
0.21 0.88 1.13 1.64 1.32 1.27 2.08 1.81 1.05 0.24 0.18 0.07 0.02 0.00 0.01 0.01 0.00 0.00 0.00 0.00 0.00 0.00 0.00 0.00 0.02 0.05 0.02 0.01 0.02 0.00 0.00 0.00 0.01 0.01 0.03 0.02 0.03 0.09 0.04 0.04 0.06 0.10 0.04 0.02 0.03 0.00 0.00 0.00 0.00
0.18 0.33 0.60 0.91 0.94 0.89 1.21 1.99 1.60 0.43 0.24 0.14 0.07 0.01 0.01 0.01 0.00 0.00 0.00 0.00 0.00 0.00 0.00 0.00 0.02 0.05 0.04 0.05 0.02 0.03 0.10 0.06 0.08 0.13 0.14 0.12 0.05 0.03 0.10 0.07 0.10 0.03 0.03 0.03 0.03 0.01 0.01 0.00 0.00
0.41 0.26 0.33 0.29 0.24 0.27 0.28 0.87 0.91 0.64 0.29 0.07 0.03 0.01 0.01 0.01 0.01 0.01 0.00 0.00 0.00 0.00 0.00 0.00 0.01 0.05 0.07 0.12 0.11 0.23 0.16 0.11 0.09 0.09 0.12 0.09 0.12 0.05 0.06 0.05 0.07 0.05 0.11 0.04 0.04 0.00 0.01 0.01 0.00
0.06 0.11 0.19 0.37 0.23 0.08 0.07 0.22 0.26 0.33 0.38 0.17 0.01 0.01 0.01 0.02 0.01 0.01 0.00 0.00 0.00 0.00 0.00 0.00 0.01 0.03 0.04 0.13 0.28 0.17 0.11 0.18 0.30 0.12 0.27 0.18 0.13 0.09 0.06 0.06 0.03 0.07 0.06 0.03 0.01 0.02 0.04 0.01 0.02
0.02 0.12 0.22 0.22 0.33 0.21 0.03 0.05 0.07 0.02 0.04 0.01 0.02 0.01 0.02 0.02 0.04 0.01 0.01 0.00 0.00 0.00 0.00 0.00 0.00 0.03 0.03 0.06 0.11 0.22 0.26 0.24 0.29 0.55 0.30 0.19 0.14 0.11 0.09 0.09 0.09 0.09 0.04 0.04 0.00 0.07 0.05 0.02 0.01
0.05 0.17 0.18 0.13 0.10 0.05 0.04 0.02 0.02 0.00 0.00 0.00 0.00 0.00 0.00 0.01 0.03 0.02 0.02 0.00 0.00 0.02 0.00 0.00 0.00 0.01 0.01 0.02 0.09 0.17 0.20 0.19 0.34 0.25 0.41 0.59 0.31 0.17 0.11 0.16 0.14 0.06 0.05 0.03 0.01 0.04 0.05 0.02 0.02
0.01 0.01 0.09 0.17 0.14 0.12 0.18 0.23 0.05 0.01 0.00 0.00 0.00 0.00 0.00 0.00 0.00 0.02 0.01 0.06 0.02 0.03 0.04 0.00 0.00 0.00 0.00 0.02 0.09 0.15 0.17 0.16 0.08 0.09 0.36 0.75 0.39 0.19 0.11 0.09 0.08 0.06 0.07 0.01 0.03 0.01 0.01 0.01 0.00
0.01 0.02 0.01 0.02 0.04 0.04 0.08 0.12 0.16 0.08 0.00 0.00 0.00 0.00 0.00 0.00 0.00 0.03 0.01 0.06 0.14 0.03 0.04 0.07 0.02 0.00 0.00 0.00 0.02 0.04 0.11 0.10 0.11 0.24 0.28 0.42 0.98 0.50 0.27 0.11 0.12 0.08 0.06 0.03 0.03 0.01 0.01 0.05 0.05
0.02 0.05 0.00 0.00 0.00 0.03 0.04 0.03 0.13 0.07 0.03 0.01 0.01 0.00 0.01 0.00 0.02 0.03 0.02 0.05 0.08 0.05 0.03 0.12 0.12 0.01 0.00 0.00 0.00 0.01 0.05 0.06 0.06 0.13 0.16 0.61 0.78 0.74 0.93 0.23 0.11 0.09 0.13 0.10 0.06 0.03 0.02 0.05 0.02
0.02 0.01 0.00 0.00 0.00 0.00 0.03 0.12 0.12 0.03 0.09 0.09 0.08 0.04 0.03 0.01 0.02 0.03 0.02 0.11 0.10 0.10 0.06 0.05 0.09 0.08 0.03 0.00 0.00 0.09 0.05 0.06 0.04 0.07 0.08 0.14 0.24 0.30 0.28 0.35 0.31 0.23 0.14 0.15 0.19 0.13 0.09 0.09 0.05
0.02 0.00 0.00 0.00 0.00 0.00 0.00 0.03 0.04 0.31 0.13 0.12 0.09 0.11 0.11 0.06 0.04 0.02 0.02 0.17 0.58 0.47 0.36 0.24 0.19 0.13 0.10 0.07 0.01 0.13 0.09 0.04 0.03 0.05 0.05 0.09 0.16 0.29 0.24 0.23 0.26 0.24 0.18 0.28 0.42 0.20 0.13 0.11 0.13

GFSSGP_prec_precacc24_123.txt.gz
Total_Precipitation_Accumulation
0.00 0.01 0.10 0.22 0.44 0.22 0.00 0.00 0.00 0.00 0.02 0.01 0.02 0.01 0.00 0.00 0.00 0.00 0.01 0.06 0.03 0.00 0.07 0.18 0.40 0.43 0.34 0.28 0.11 0.06 0.12 0.09 0.10 0.06 0.08 0.09 0.10 0.12 0.10 0.09 0.14 0.16 0.08 0.08 0.14 0.14 0.20 0.16 0.11
0.00 0.05 0.15 0.27 0.38 0.03 0.01 0.00 0.00 0.01 0.03 0.00 0.00 0.01 0.01 0.01 0.00 0.00 0.03 0.07 0.01 0.00 0.03 0.13 0.30 0.33 0.16 0.16 0.07 0.06 0.07 0.06 0.04 0.08 0.14 0.16 0.12 0.11 0.11 0.06 0.06 0.12 0.10 0.18 0.31 0.27 0.22 0.24 0.18
0.02 0.19 0.25 0.34 0.32 0.04 0.01 0.01 0.00 0.00 0.00 0.00 0.01 0.03 0.00 0.00 0.00 0.00 0.03 0.02 0.02 0.02 0.02 0.07 0.13 0.13 0.04 0.09 0.06 0.04 0.04 0.04 0.05 0.06 0.16 0.19 0.12 0.07 0.07 0.12 0.13 0.11 0.09 0.18 0.22 0.24 0.22 0.22 0.19
0.01 0.13 0.09 0.19 0.15 0.03 0.02 0.00 0.00 0.00 0.00 0.00 0.00 0.02 0.00 0.00 0.00 0.00 0.07 0.12 0.04 0.09 0.07 0.00 0.06 0.06 0.06 0.07 0.06 0.03 0.04 0.06 0.06 0.12 0.20 0.15 0.21 0.16 0.11 0.07 0.05 0.06 0.03 0.09 0.13 0.16 0.12 0.11 0.12
0.00 0.04 0.29 0.21 0.09 0.03 0.00 0.00 0.00 0.00 0.00 0.01 0.02 0.03 0.00 0.00 0.00 0.01 0.03 0.08 0.11 0.09 0.00 0.01 0.09 0.04 0.03 0.09 0.08 0.06 0.08 0.06 0.09 0.11 0.24 0.28 0.21 0.14 0.09 0.07 0.06 0.04 0.01 0.01 0.02 0.01 0.01 0.06 0.05
0.03 0.06 0.21 0.14 0.07 0.03 0.00 0.00 0.00 0.01 0.01 0.02 0.00 0.00 0.02 0.04 0.01 0.03 0.04 0.05 0.04 0.04 0.00 0.00 0.06 0.04 0.04 0.08 0.13 0.05 0.11 0.12 0.34 0.28 0.28 0.35 0.31 0.15 0.08 0.04 0.04 0.02 0.02 0.01 0.00 0.00 0.00 0.01 0.02
0.08 0.29 0.34 0.14 0.10 0.09 0.01 0.00 0.00 0.01 0.01 0.02 0.00 0.00 0.04 0.18 0.16 0.11 0.03 0.02 0.03 0.01 0.00 0.00 0.02 0.05 0.12 0.23 0.16 0.15 0.23 0.22 0.32 0.27 0.20 0.23 0.15 0.05 0.02 0.02 0.00 0.00 0.00 0.00 0.00 0.00 0.02 0.01 0.00
0.26 0.45 0.43 0.29 0.16 0.14 0.01 0.01 0.01 0.00 0.02 0.00 0.00 0.00 0.01 0.04 0.16 0.05 0.02 0.03 0.06 0.01 0.02 0.03 0.11 0.17 0.15 0.19 0.21 0.19 0.08 0.04 0.05 0.07 0.08 0.14 0.10 0.03 0.02 0.05 0.00 0.00 0.00 0.00 0.00 0.00 0.03 0.03 0.00
0.18 0.53 0.90 0.39 0.12 0.06 0.01 0.02 0.01 0.01 0.00 0.00 0.00 0.00 0.01 0.00 0.03 0.00 0.01 0.10 0.10 0.02 0.05 0.12 0.07 0.15 0.27 0.28 0.08 0.08 0.07 0.14 0.16 0.18 0.34 0.44 0.16 0.04 0.05 0.05 0.02 0.01 0.01 0.03 0.06 0.08 0.05 0.03 0.01
0.90 2.08 1.63 0.54 0.12 0.03 0.00 0.02 0.00 0.00 0.00 0.01 0.00 0.00 0.01 0.02 0.00 0.00 0.00 0.02 0.08 0.08 0.06 0.09 0.01 0.01 0.10 0.19 0.10 0.15 0.22 0.24 0.22 0.31 0.38 0.16 0.10 0.10 0.05 0.09 0.08 0.08 0.04 0.01 0.04 0.14 0.13 0.04 0.01
0.70 2.41 2.30 0.90 0.22 0.13 0.01 0.00 0.00 0.00 0.00 0.00 0.00 0.00 0.00 0.00 0.00 0.02 0.00 0.01 0.03 0.01 0.01 0.02 0.00 0.02 0.11 0.19 0.11 0.04 0.05 0.02 0.03 0.16 0.17 0.07 0.09 0.06 0.02 0.04 0.08 0.05 0.07 0.10 0.02 0.16 0.45 0.03 0.01
0.43 1.14 1.58 1.56 0.35 0.23 0.05 0.00 0.00 0.00 0.00 0.00 0.00 0.00 0.00 0.00 0.00 0.03 0.03 0.01 0.00 0.02 0.01 0.00 0.00 0.00 0.02 0.05 0.10 0.04 0.01 0.02 0.03 0.06 0.09 0.11 0.13 0.41 0.38 0.31 0.47 0.16 0.04 0.25 0.09 0.01 0.00 0.00 0.00
0.39 1.09 0.54 0.92 0.35 0.21 0.06 0.02 0.00 0.01 0.00 0.00 0.00 0.00 0.00 0.00 0.00 0.04 0.05 0.00 0.04 0.01 0.00 0.00 0.00 0.00 0.03 0.06 0.11 0.05 0.02 0.02 0.01 0.13 0.10 0.10 0.12 0.12 0.04 0.30 0.27 0.28 0.11 0.02 0.00 0.00 0.00 0.00 0.00
0.31 0.64 0.34 0.31 0.44 0.22 0.17 0.03 0.02 0.03 0.01 0.00 0.00 0.00 0.00 0.00 0.00 0.00 0.01 0.00 0.00 0.01 0.00 0.00 0.00 0.00 0.03 0.04 0.01 0.03 0.03 0.02 0.04 0.11 0.53 0.29 0.05 0.09 0.07 0.11 0.05 0.16 0.11 0.03 0.01 0.00 0.00 0.00 0.00
0.50 0.78 0.58 0.88 0.86 0.47 0.26 0.16 0.09 0.04 0.01 0.00 0.00 0.00 0.00 0.00 0.00 0.00 0.00 0.00 0.00 0.00 0.00 0.00 0.00 0.00 0.03 0.05 0.04 0.05 0.10 0.04 0.02 0.04 0.12 0.16 0.12 0.08 0.10 0.06 0.02 0.03 0.06 0.03 0.01 0.01 0.00 0.02 0.05
1.57 1.77 1.44 1.99 1.35 0.75 0.44 0.39 0.26 0.04 0.01 0.00 0.00 0.00 0.00 0.00 0.00 0.00 0.00 0.00 0.00 0.00 0.00 0.00 0.00 0.00 0.00 0.01 0.03 0.01 0.05 0.03 0.02 0.02 0.07 0.05 0.10 0.05 0.04 0.07 0.07 0.13 0.13 0.05 0.04 0.00 0.00 0.02 0.04
1.04 1.75 2.13 1.92 1.80 1.44 0.89 0.79 0.44 0.13 0.02 0.00 0.00 0.00 0.00 0.00 0.00 0.00 0.00 0.00 0.00 0.00 0.00 0.00 0.00 0.00 0.01 0.00 0.02 0.05 0.00 0.00 0.00 0.01 0.07 0.10 0.05 0.06 0.06 0.07 0.06 0.13 0.07 0.05 0.03 0.00 0.00 0.00 0.02
0.40 0.75 1.37 1.63 1.47 2.06 1.36 1.01 0.57 0.16 0.04 0.00 0.00 0.00 0.00 0.00 0.00 0.00 0.00 0.00 0.00 0.00 0.00 0.00 0.00 0.00 0.00 0.00 0.00 0.01 0.00 0.02 0.01 0.01 0.02 0.05 0.05 0.06 0.12 0.04 0.05 0.13 0.09 0.04 0.01 0.02 0.00 0.00 0.01
0.11 0.79 1.37 1.49 1.48 1.78 1.39 1.26 0.71 0.14 0.08 0.06 0.01 0.00 0.00 0.00 0.00 0.00 0.00 0.00 0.00 0.00 0.00 0.00 0.00 0.01 0.00 0.00 0.01 0.00 0.00 0.02 0.01 0.02 0.01 0.03 0.05 0.05 0.04 0.03 0.04 0.36 0.08 0.02 0.02 0.00 0.00 0.00 0.01
0.21 0.89 1.11 1.61 1.28 1.31 2.03 1.73 1.03 0.25 0.15 0.03 0.00 0.00 0.00 0.00 0.00 0.00 0.00 0.00 0.00 0.00 0.00 0.00 0.02 0.05 0.02 0.01 0.02 0.00 0.00 0.00 0.01 0.01 0.04 0.02 0.03 0.08 0.04 0.03 0.06 0.10 0.04 0.02 0.03 0.00 0.00 0.00 0.00
0.21 0.35 0.55 0.85 0.88 0.87 1.29 1.92 1.52 0.52 0.22 0.10 0.04 0.00 0.01 0.00 0.00 0.00 0.00 0.00 0.00 0.00 0.00 0.00 0.02 0.05 0.04 0.05 0.02 0.03 0.10 0.06 0.09 0.14 0.14 0.05 0.04 0.03 0.08 0.05 0.09 0.03 0.03 0.02 0.03 0.01 0.01 0.00 0.00
0.42 0.26 0.33 0.31 0.25 0.29 0.34 0.94 0.94 0.66 0.30 0.07 0.02 0.01 0.01 0.01 0.01 0.01 0.00 0.00 0.00 0.00 0.00 0.00 0.01 0.05 0.07 0.12 0.11 0.20 0.15 0.10 0.11 0.10 0.08 0.06 0.12 0.05 0.01 0.02 0.06 0.04 0.11 0.04 0.04 0.00 0.01 0.01 0.00
0.07 0.11 0.19 0.38 0.23 0.08 0.09 0.23 0.27 0.35 0.39 0.16 0.01 0.01 0.01 0.02 0.01 0.01 0.00 0.00 0.00 0.00 0.00 0.00 0.01 0.03 0.04 0.13 0.29 0.18 0.11 0.21 0.32 0.12 0.26 0.17 0.13 0.05 0.01 0.02 0.02 0.07 0.06 0.03 0.01 0.02 0.03 0.01 0.02
0.02 0.12 0.22 0.22 0.33 0.21 0.03 0.05 0.07 0.02 0.04 0.01 0.01 0.01 0.01 0.02 0.04 0.01 0.01 0.00 0.00 0.00 0.00 0.00 0.00 0.03 0.03 0.06 0.12 0.23 0.26 0.26 0.27 0.54 0.30 0.20 0.15 0.10 0.08 0.08 0.09 0.11 0.04 0.04 0.00 0.07 0.05 0.02 0.01
0.05 0.17 0.18 0.12 0.10 0.06 0.04 0.02 0.02 0.00 0.00 0.00 0.00 0.00 0.00 0.01 0.03 0.02 0.02 0.00 0.00 0.02 0.00 0.00 0.00 0.01 0.01 0.02 0.09 0.17 0.18 0.19 0.31 0.22 0.41 0.59 0.24 0.13 0.12 0.15 0.11 0.08 0.04 0.03 0.01 0.04 0.05 0.02 0.02
0.01 0.01 0.10 0.18 0.15 0.12 0.18 0.23 0.05 0.01 0.00 0.00 0.00 0.00 0.00 0.00 0.00 0.02 0.01 0.06 0.02 0.03 0.04 0.00 0.00 0.00 0.00 0.02 0.07 0.15 0.15 0.16 0.08 0.09 0.37 0.75 0.37 0.18 0.11 0.10 0.08 0.08 0.09 0.02 0.03 0.01 0.01 0.01 0.00
0.01 0.03 0.03 0.02 0.04 0.04 0.09 0.12 0.16 0.08 0.00 0.00 0.00 0.00 0.00 0.00 0.00 0.03 0.01 0.06 0.14 0.02 0.04 0.07 0.02 0.00 0.00 0.00 0.02 0.03 0.09 0.10 0.11 0.23 0.29 0.43 0.97 0.50 0.27 0.11 0.07 0.01 0.02 0.05 0.04 0.01 0.01 0.05 0.05
0.05 0.10 0.05 0.01 0.00 0.03 0.04 0.03 0.13 0.07 0.03 0.01 0.01 0.00 0.01 0.00 0.02 0.03 0.02 0.04 0.06 0.03 0.03 0.12 0.12 0.01 0.00 0.00 0.00 0.01 0.04 0.05 0.06 0.12 0.16 0.61 0.78 0.73 0.93 0.21 0.10 0.07 0.13 0.04 0.03 0.05 0.03 0.04 0.02
0.03 0.02 0.04 0.00 0.00 0.00 0.03 0.12 0.12 0.03 0.09 0.09 0.08 0.03 0.03 0.00 0.01 0.03 0.02 0.10 0.09 0.07 0.05 0.04 0.07 0.06 0.03 0.00 0.00 0.06 0.04 0.05 0.04 0.06 0.06 0.13 0.18 0.25 0.28 0.31 0.30 0.22 0.14 0.12 0.21 0.17 0.14 0.09 0.06
0.02 0.00 0.03 0.00 0.00 0.00 0.00 0.03 0.04 0.31 0.13 0.13 0.09 0.11 0.10 0.04 0.02 0.01 0.01 0.16 0.57 0.36 0.17 0.18 0.06 0.06 0.04 0.03 0.01 0.12 0.05 0.02 0.02 0.04 0.03 0.09 0.08 0.25 0.23 0.22 0.26 0.21 0.16 0.28 0.45 0.22 0.17 0.12 0.09

GFSSGP_prec_precacc24_126.txt.gz
Total_Precipitation_Accumulation
0.00 0.01 0.10 0.22 0.44 0.22 0.00 0.00 0.00 0.00 0.02 0.01 0.02 0.01 0.00 0.01 0.00 0.03 0.01 0.06 0.03 0.00 0.07 0.18 0.37 0.37 0.34 0.40 0.17 0.11 0.13 0.12 0.16 0.09 0.10 0.10 0.10 0.09 0.09 0.09 0.15 0.17 0.08 0.10 0.18 0.20 0.26 0.18 0.13
0.00 0.05 0.15 0.27 0.37 0.03 0.00 0.00 0.00 0.01 0.03 0.00 0.00 0.01 0.01 0.00 0.00 0.00 0.03 0.07 0.01 0.00 0.02 0.11 0.33 0.40 0.31 0.30 0.12 0.09 0.10 0.13 0.11 0.16 0.19 0.19 0.12 0.10 0.10 0.05 0.06 0.12 0.13 0.18 0.30 0.27 0.21 0.25 0.20
0.02 0.19 0.25 0.34 0.30 0.02 0.00 0.00 0.00 0.00 0.00 0.00 0.01 0.03 0.00 0.00 0.00 0.00 0.03 0.02 0.02 0.01 0.01 0.05 0.21 0.27 0.19 0.15 0.09 0.04 0.08 0.12 0.14 0.14 0.19 0.18 0.10 0.07 0.06 0.10 0.13 0.14 0.09 0.16 0.17 0.24 0.22 0.19 0.18
0.01 0.13 0.09 0.19 0.13 0.00 0.00 0.00 0.00 0.00 0.00 0.00 0.00 0.00 0.00 0.00 0.00 0.00 0.07 0.12 0.04 0.09 0.07 0.02 0.10 0.15 0.13 0.08 0.07 0.04 0.10 0.14 0.10 0.15 0.17 0.13 0.16 0.12 0.09 0.04 0.04 0.05 0.03 0.09 0.13 0.16 0.12 0.10 0.12
0.00 0.04 0.24 0.20 0.06 0.01 0.00 0.00 0.00 0.00 0.00 0.01 0.02 0.00 0.00 0.00 0.00 0.01 0.03 0.08 0.11 0.09 0.00 0.01 0.06 0.04 0.11 0.11 0.08 0.08 0.12 0.09 0.09 0.08 0.18 0.17 0.17 0.09 0.06 0.04 0.05 0.02 0.01 0.01 0.01 0.01 0.01 0.05 0.04
0.02 0.04 0.10 0.12 0.07 0.02 0.00 0.00 0.00 0.01 0.01 0.02 0.00 0.00 0.02 0.04 0.01 0.03 0.04 0.05 0.04 0.04 0.00 0.00 0.02 0.03 0.11 0.09 0.12 0.06 0.06 0.12 0.24 0.14 0.13 0.22 0.18 0.12 0.06 0.03 0.03 0.02 0.02 0.01 0.00 0.00 0.00 0.01 0.02
0.07 0.25 0.27 0.12 0.08 0.07 0.01 0.00 0.00 0.01 0.01 0.02 0.00 0.00 0.03 0.17 0.16 0.11 0.03 0.02 0.03 0.01 0.00 0.00 0.01 0.04 0.17 0.27 0.10 0.10 0.22 0.20 0.20 0.16 0.14 0.13 0.06 0.02 0.02 0.00 0.00 0.00 0.00 0.00 0.00 0.00 0.00 0.00 0.00
0.24 0.34 0.39 0.27 0.15 0.11 0.00 0.01 0.01 0.00 0.02 0.00 0.00 0.00 0.00 0.04 0.16 0.05 0.02 0.03 0.06 0.01 0.01 0.03 0.11 0.18 0.28 0.24 0.23 0.19 0.11 0.05 0.05 0.07 0.08 0.08 0.03 0.02 0.02 0.05 0.00 0.00 0.00 0.00 0.00 0.00 0.02 0.02 0.00
0.15 0.43 0.82 0.36 0.10 0.04 0.01 0.02 0.01 0.01 0.00 0.00 0.00 0.00 0.01 0.00 0.02 0.00 0.01 0.10 0.10 0.01 0.04 0.11 0.07 0.14 0.31 0.40 0.14 0.14 0.11 0.14 0.16 0.18 0.27 0.30 0.12 0.03 0.05 0.05 0.02 0.01 0.01 0.03 0.06 0.08 0.05 0.01 0.00
0.83 1.98 1.58 0.53 0.10 0.03 0.00 0.02 0.00 0.00 0.00 0.01 0.00 0.00 0.01 0.02 0.00 0.00 0.00 0.02 0.08 0.08 0.06 0.09 0.01 0.01 0.12 0.29 0.17 0.25 0.24 0.24 0.21 0.28 0.37 0.16 0.10 0.09 0.05 0.09 0.07 0.08 0.04 0.01 0.04 0.14 0.13 0.04 0.01
0.61 2.35 2.27 0.89 0.21 0.13 0.01 0.00 0.00 0.00 0.00 0.00 0.00 0.00 0.00 0.00 0.00 0.02 0.00 0.01 0.03 0.01 0.01 0.02 0.00 0.02 0.11 0.20 0.12 0.04 0.05 0.02 0.02 0.16 0.17 0.07 0.09 0.06 0.02 0.04 0.08 0.05 0.07 0.10 0.02 0.16 0.45 0.03 0.01
0.45 1.15 1.60 1.56 0.35 0.23 0.05 0.00 0.00 0.00 0.00 0.00 0.00 0.00 0.00 0.00 0.00 0.03 0.03 0.01 0.00 0.02 0.01 0.00 0.00 0.00 0.02 0.05 0.10 0.04 0.01 0.02 0.03 0.06 0.09 0.11 0.13 0.41 0.38 0.31 0.47 0.16 0.04 0.25 0.09 0.01 0.00 0.00 0.00
0.41 1.00 0.52 0.91 0.35 0.20 0.06 0.02 0.00 0.01 0.00 0.00 0.00 0.00 0.00 0.00 0.00 0.04 0.05 0.00 0.04 0.01 0.00 0.00 0.00 0.00 0.01 0.05 0.11 0.05 0.02 0.02 0.01 0.13 0.10 0.10 0.12 0.12 0.04 0.30 0.27 0.28 0.11 0.02 0.00 0.00 0.00 0.00 0.00
0.32 0.52 0.28 0.31 0.41 0.20 0.17 0.03 0.02 0.03 0.01 0.00 0.00 0.00 0.00 0.00 0.00 0.00 0.01 0.00 0.00 0.01 0.00 0.00 0.00 0.00 0.03 0.04 0.01 0.03 0.03 0.02 0.04 0.11 0.53 0.29 0.05 0.09 0.07 0.11 0.05 0.16 0.11 0.03 0.01 0.00 0.00 0.00 0.00
0.41 0.79 0.58 0.86 0.86 0.45 0.28 0.24 0.07 0.04 0.01 0.00 0.00 0.00 0.00 0.00 0.00 0.00 0.00 0.00 0.00 0.00 0.00 0.00 0.00 0.00 0.03 0.05 0.04 0.05 0.10 0.04 0.02 0.04 0.12 0.16 0.12 0.08 0.10 0.06 0.02 0.03 0.06 0.03 0.01 0.01 0.00 0.02 0.05
1.38 1.65 1.41 1.89 1.26 0.69 0.41 0.38 0.20 0.02 0.01 0.00 0.00 0.00 0.00 0.00 0.00 0.00 0.00 0.00 0.00 0.00 0.00 0.00 0.00 0.00 0.00 0.01 0.03 0.01 0.05 0.03 0.02 0.02 0.07 0.05 0.10 0.05 0.04 0.07 0.07 0.13 0.13 0.05 0.04 0.00 0.00 0.02 0.04
0.95 1.61 2.03 1.80 1.57 0.78 0.58 0.61 0.26 0.09 0.02 0.00 0.00 0.00 0.00 0.00 0.00 0.00 0.00 0.00 0.00 0.00 0.00 0.00 0.00 0.00 0.01 0.00 0.02 0.05 0.00 0.00 0.00 0.01 0.07 0.10 0.05 0.06 0.06 0.07 0.06 0.13 0.07 0.05 0.03 0.00 0.00 0.00 0.02
0.40 0.65 1.22 1.52 1.21 1.29 1.01 0.77 0.26 0.12 0.03 0.00 0.00 0.00 0.00 0.00 0.00 0.00 0.00 0.00 0.00 0.00 0.00 0.00 0.01 0.00 0.00 0.00 0.00 0.01 0.00 0.02 0.01 0.01 0.02 0.05 0.05 0.04 0.04 0.03 0.05 0.13 0.09 0.04 0.01 0.02 0.00 0.00 0.01
0.10 0.73 1.12 1.29 1.18 1.62 1.41 1.18 0.59 0.11 0.03 0.01 0.00 0.00 0.00 0.00 0.00 0.00 0.00 0.00 0.00 0.00 0.00 0.01 0.03 0.04 0.01 0.00 0.01 0.01 0.01 0.02 0.01 0.02 0.01 0.03 0.06 0.04 0.02 0.01 0.04 0.36 0.08 0.02 0.02 0.00 0.00 0.00 0.01
0.21 0.87 0.96 1.34 1.15 1.31 1.85 1.55 0.92 0.21 0.12 0.01 0.00 0.00 0.00 0.00 0.00 0.00 0.00 0.00 0.00 0.00 0.00 0.00 0.03 0.03 0.03 0.00 0.00 0.01 0.02 0.00 0.01 0.01 0.02 0.01 0.04 0.07 0.03 0.03 0.06 0.10 0.04 0.02 0.03 0.00 0.00 0.00 0.00
0.21 0.35 0.51 0.78 0.85 0.85 1.36 1.73 1.40 0.46 0.12 0.04 0.03 0.00 0.01 0.00 0.00 0.00 0.00 0.00 0.00 0.00 0.00 0.00 0.01 0.04 0.14 0.09 0.02 0.03 0.10 0.09 0.14 0.14 0.09 0.04 0.03 0.01 0.05 0.05 0.09 0.03 0.03 0.02 0.03 0.01 0.01 0.00 0.00
0.42 0.25 0.33 0.34 0.28 0.35 0.42 0.99 0.85 0.63 0.24 0.04 0.02 0.01 0.01 0.01 0.01 0.01 0.00 0.00 0.00 0.00 0.00 0.00 0.01 0.01 0.07 0.16 0.12 0.17 0.10 0.08 0.12 0.12 0.10 0.07 0.07 0.03 0.01 0.02 0.06 0.04 0.11 0.04 0.04 0.00 0.01 0.01 0.00
0.07 0.11 0.19 0.39 0.24 0.11 0.12 0.27 0.30 0.35 0.36 0.14 0.00 0.01 0.01 0.02 0.01 0.01 0.00 0.00 0.00 0.00 0.00 0.00 0.01 0.02 0.03 0.16 0.36 0.18 0.11 0.21 0.32 0.13 0.29 0.16 0.07 0.01 0.00 0.02 0.02 0.05 0.05 0.03 0.01 0.01 0.02 0.01 0.02
0.01 0.12 0.22 0.22 0.33 0.24 0.04 0.07 0.09 0.03 0.05 0.04 0.00 0.00 0.01 0.02 0.04 0.01 0.01 0.00 0.00 0.00 0.00 0.00 0.00 0.03 0.03 0.08 0.14 0.21 0.25 0.24 0.27 0.53 0.28 0.19 0.12 0.02 0.01 0.03 0.07 0.07 0.04 0.04 0.00 0.03 0.01 0.02 0.04
0.05 0.17 0.19 0.16 0.12 0.09 0.04 0.03 0.03 0.00 0.00 0.01 0.00 0.00 0.00 0.01 0.03 0.02 0.02 0.00 0.00 0.02 0.00 0.00 0.00 0.01 0.01 0.02 0.09 0.13 0.17 0.15 0.27 0.24 0.39 0.52 0.20 0.11 0.09 0.15 0.12 0.07 0.07 0.06 0.02 0.04 0.02 0.00 0.02
0.01 0.01 0.10 0.24 0.18 0.15 0.20 0.26 0.07 0.01 0.00 0.00 0.00 0.00 0.00 0.00 0.00 0.02 0.01 0.06 0.02 0.03 0.04 0.00 0.00 0.00 0.00 0.02 0.05 0.06 0.15 0.15 0.06 0.07 0.33 0.70 0.32 0.18 0.10 0.07 0.07 0.04 0.06 0.02 0.05 0.02 0.00 0.01 0.00
0.01 0.03 0.03 0.03 0.04 0.05 0.10 0.12 0.17 0.08 0.00 0.00 0.00 0.00 0.00 0.00 0.00 0.03 0.01 0.06 0.14 0.02 0.04 0.07 0.02 0.00 0.00 0.00 0.01 0.01 0.08 0.07 0.06 0.22 0.23 0.39 0.89 0.47 0.24 0.09 0.04 0.05 0.02 0.06 0.03 0.01 0.01 0.05 0.05
0.05 0.10 0.07 0.02 0.04 0.06 0.04 0.03 0.14 0.07 0.03 0.01 0.01 0.00 0.01 0.00 0.02 0.03 0.02 0.04 0.06 0.03 0.03 0.12 0.12 0.01 0.00 0.00 0.00 0.00 0.02 0.03 0.02 0.10 0.10 0.53 0.66 0.64 0.91 0.21 0.10 0.07 0.05 0.04 0.09 0.07 0.03 0.02 0.01
0.03 0.02 0.04 0.02 0.01 0.01 0.05 0.12 0.12 0.04 0.09 0.09 0.09 0.03 0.03 0.00 0.01 0.03 0.02 0.10 0.09 0.06 0.05 0.04 0.07 0.06 0.03 0.00 0.00 0.00 0.00 0.01 0.01 0.01 0.06 0.03 0.05 0.13 0.19 0.23 0.28 0.17 0.06 0.08 0.28 0.22 0.14 0.09 0.08
0.03 0.00 0.03 0.01 0.03 0.00 0.01 0.03 0.04 0.31 0.13 0.13 0.09 0.11 0.10 0.04 0.02 0.01 0.02 0.16 0.57 0.35 0.16 0.18 0.06 0.06 0.03 0.00 0.00 0.02 0.00 0.00 0.00 0.00 0.00 0.01 0.03 0.18 0.14 0.12 0.16 0.11 0.06 0.19 0.47 0.25 0.17 0.11 0.08

GFSSGP_prec_precacc24_129.txt.gz
Total_Precipitation_Accumulation
0.00 0.01 0.10 0.21 0.47 0.22 0.01 0.00 0.00 0.00 0.02 0.01 0.02 0.01 0.01 0.02 0.04 0.08 0.01 0.06 0.03 0.00 0.07 0.18 0.37 0.35 0.33 0.40 0.21 0.11 0.14 0.13 0.17 0.09 0.11 0.10 0.09 0.08 0.12 0.13 0.15 0.15 0.07 0.09 0.18 0.22 0.30 0.22 0.14
0.00 0.05 0.15 0.29 0.36 0.04 0.00 0.00 0.00 0.01 0.03 0.00 0.01 0.01 0.01 0.00 0.00 0.00 0.03 0.07 0.01 0.01 0.02 0.11 0.31 0.39 0.31 0.31 0.15 0.09 0.09 0.14 0.13 0.19 0.19 0.19 0.12 0.10 0.12 0.06 0.03 0.07 0.09 0.15 0.29 0.26 0.21 0.25 0.20
0.02 0.19 0.19 0.34 0.29 0.02 0.00 0.00 0.00 0.00 0.00 0.00 0.01 0.02 0.00 0.00 0.00 0.00 0.03 0.03 0.04 0.04 0.00 0.05 0.22 0.29 0.22 0.17 0.12 0.07 0.11 0.15 0.17 0.16 0.17 0.16 0.07 0.04 0.04 0.09 0.09 0.09 0.05 0.11 0.15 0.20 0.20 0.16 0.17
0.01 0.12 0.06 0.19 0.10 0.00 0.00 0.00 0.00 0.00 0.00 0.00 0.00 0.00 0.00 0.00 0.00 0.00 0.07 0.13 0.05 0.13 0.06 0.02 0.14 0.20 0.16 0.10 0.10 0.13 0.18 0.25 0.15 0.16 0.11 0.08 0.07 0.06 0.07 0.04 0.03 0.05 0.03 0.07 0.12 0.15 0.11 0.08 0.12
0.00 0.03 0.17 0.17 0.02 0.00 0.00 0.00 0.00 0.00 0.00 0.01 0.00 0.00 0.00 0.00 0.00 0.01 0.02 0.07 0.10 0.10 0.01 0.01 0.09 0.10 0.13 0.14 0.13 0.18 0.20 0.13 0.07 0.08 0.13 0.12 0.12 0.07 0.05 0.04 0.04 0.02 0.01 0.00 0.01 0.01 0.01 0.04 0.04
0.01 0.02 0.09 0.05 0.00 0.00 0.00 0.00 0.00 0.00 0.00 0.02 0.00 0.00 0.02 0.04 0.01 0.02 0.04 0.05 0.05 0.04 0.02 0.00 0.02 0.06 0.13 0.13 0.17 0.10 0.08 0.10 0.18 0.15 0.11 0.14 0.16 0.12 0.06 0.03 0.03 0.02 0.01 0.01 0.00 0.00 0.00 0.01 0.02
0.08 0.21 0.21 0.07 0.02 0.00 0.00 0.00 0.01 0.01 0.01 0.00 0.00 0.00 0.03 0.17 0.16 0.11 0.03 0.02 0.03 0.01 0.01 0.00 0.01 0.04 0.18 0.34 0.14 0.12 0.22 0.18 0.16 0.11 0.11 0.12 0.06 0.02 0.02 0.00 0.00 0.00 0.00 0.00 0.00 0.00 0.00 0.00 0.00
0.19 0.22 0.36 0.24 0.08 0.01 0.00 0.00 0.01 0.00 0.02 0.00 0.00 0.00 0.00 0.04 0.16 0.05 0.02 0.03 0.05 0.01 0.01 0.03 0.11 0.18 0.32 0.26 0.31 0.24 0.12 0.05 0.04 0.06 0.08 0.08 0.03 0.02 0.01 0.04 0.00 0.00 0.00 0.00 0.00 0.00 0.02 0.02 0.00
0.14 0.37 0.81 0.31 0.06 0.02 0.00 0.02 0.01 0.00 0.00 0.00 0.00 0.00 0.01 0.00 0.02 0.00 0.01 0.10 0.10 0.01 0.04 0.11 0.07 0.15 0.36 0.47 0.19 0.16 0.11 0.12 0.17 0.16 0.27 0.30 0.12 0.03 0.03 0.04 0.02 0.01 0.01 0.03 0.06 0.08 0.05 0.01 0.00
0.72 1.75 1.44 0.50 0.10 0.03 0.00 0.02 0.00 0.00 0.00 0.01 0.00 0.00 0.01 0.02 0.00 0.00 0.00 0.02 0.08 0.08 0.06 0.11 0.02 0.01 0.12 0.32 0.22 0.27 0.23 0.23 0.20 0.26 0.37 0.16 0.10 0.09 0.05 0.09 0.07 0.08 0.04 0.01 0.04 0.14 0.13 0.04 0.01
0.48 2.17 2.12 0.88 0.20 0.13 0.01 0.00 0.00 0.00 0.00 0.00 0.00 0.00 0.00 0.00 0.00 0.02 0.00 0.01 0.03 0.02 0.01 0.03 0.00 0.02 0.11 0.20 0.12 0.04 0.05 0.02 0.02 0.16 0.17 0.07 0.09 0.06 0.02 0.04 0.08 0.05 0.07 0.10 0.02 0.16 0.45 0.03 0.01
0.41 1.06 1.56 1.56 0.34 0.21 0.05 0.01 0.00 0.00 0.00 0.00 0.00 0.00 0.00 0.00 0.00 0.03 0.03 0.01 0.00 0.02 0.01 0.00 0.00 0.00 0.02 0.05 0.10 0.04 0.01 0.01 0.03 0.06 0.09 0.11 0.13 0.41 0.38 0.31 0.47 0.16 0.04 0.25 0.09 0.01 0.00 0.00 0.00
0.35 0.90 0.52 0.91 0.34 0.19 0.06 0.02 0.00 0.01 0.00 0.00 0.00 0.00 0.00 0.00 0.00 0.04 0.05 0.00 0.04 0.01 0.00 0.00 0.00 0.00 0.01 0.05 0.11 0.05 0.02 0.02 0.01 0.13 0.10 0.10 0.12 0.12 0.04 0.30 0.27 0.28 0.11 0.02 0.00 0.00 0.00 0.00 0.00
0.28 0.49 0.28 0.30 0.40 0.19 0.16 0.04 0.02 0.04 0.01 0.00 0.00 0.00 0.00 0.00 0.00 0.00 0.01 0.00 0.00 0.01 0.00 0.00 0.00 0.00 0.03 0.04 0.01 0.03 0.03 0.02 0.04 0.11 0.53 0.29 0.05 0.09 0.07 0.11 0.05 0.16 0.11 0.03 0.01 0.00 0.00 0.00 0.00
0.34 0.73 0.66 0.88 0.79 0.40 0.29 0.28 0.08 0.04 0.01 0.00 0.00 0.00 0.00 0.00 0.00 0.00 0.00 0.00 0.00 0.00 0.00 0.00 0.00 0.00 0.03 0.05 0.04 0.05 0.10 0.04 0.02 0.04 0.12 0.16 0.12 0.08 0.10 0.06 0.02 0.03 0.06 0.03 0.01 0.01 0.00 0.02 0.05
1.18 1.50 1.45 1.83 1.10 0.62 0.41 0.32 0.17 0.02 0.01 0.00 0.00 0.00 0.00 0.00 0.00 0.00 0.00 0.00 0.00 0.00 0.00 0.00 0.00 0.00 0.00 0.01 0.03 0.01 0.05 0.03 0.02 0.02 0.07 0.05 0.10 0.05 0.04 0.07 0.07 0.13 0.13 0.05 0.04 0.00 0.00 0.02 0.04
0.65 1.42 1.95 1.71 1.41 0.70 0.52 0.54 0.20 0.09 0.02 0.00 0.00 0.00 0.00 0.00 0.00 0.00 0.00 0.00 0.00 0.00 0.00 0.00 0.00 0.00 0.01 0.00 0.02 0.05 0.00 0.01 0.00 0.01 0.07 0.10 0.05 0.06 0.06 0.07 0.06 0.16 0.10 0.05 0.03 0.00 0.00 0.00 0.02
0.19 0.43 1.06 1.44 1.13 1.08 0.76 0.64 0.43 0.12 0.03 0.00 0.00 0.00 0.00 0.00 0.00 0.00 0.00 0.00 0.00 0.00 0.00 0.00 0.01 0.00 0.00 0.00 0.00 0.01 0.00 0.02 0.01 0.01 0.02 0.05 0.05 0.04 0.04 0.03 0.05 0.49 0.19 0.04 0.01 0.02 0.00 0.00 0.01
0.07 0.47 0.91 1.02 1.09 1.44 1.12 0.96 0.58 0.12 0.02 0.01 0.00 0.00 0.00 0.00 0.00 0.00 0.00 0.00 0.00 0.00 0.00 0.01 0.04 0.07 0.04 0.00 0.01 0.01 0.00 0.01 0.01 0.02 0.01 0.03 0.06 0.04 0.02 0.01 0.04 0.42 0.15 0.03 0.02 0.00 0.00 0.00 0.01
0.20 0.79 0.75 0.79 0.94 1.23 1.66 1.35 0.80 0.18 0.08 0.01 0.00 0.00 0.00 0.00 0.00 0.00 0.00 0.00 0.00 0.00 0.00 0.00 0.03 0.03 0.04 0.00 0.00 0.01 0.02 0.00 0.01 0.01 0.02 0.01 0.04 0.07 0.03 0.03 0.06 0.11 0.06 0.02 0.03 0.00 0.00 0.00 0.00
0.21 0.30 0.33 0.39 0.57 0.70 1.30 1.53 1.24 0.45 0.11 0.02 0.03 0.00 0.01 0.00 0.00 0.00 0.00 0.00 0.00 0.00 0.00 0.00 0.00 0.05 0.15 0.11 0.01 0.03 0.06 0.08 0.13 0.13 0.09 0.04 0.03 0.01 0.05 0.05 0.11 0.04 0.03 0.03 0.03 0.01 0.01 0.05 0.00
0.42 0.24 0.08 0.13 0.31 0.47 0.47 1.03 0.79 0.58 0.20 0.04 0.01 0.00 0.00 0.01 0.00 0.01 0.00 0.00 0.00 0.00 0.00 0.00 0.00 0.01 0.05 0.14 0.10 0.09 0.07 0.07 0.10 0.12 0.10 0.07 0.07 0.03 0.01 0.02 0.06 0.04 0.10 0.04 0.04 0.00 0.01 0.01 0.00
0.07 0.12 0.06 0.27 0.23 0.18 0.16 0.41 0.36 0.31 0.33 0.09 0.00 0.01 0.01 0.02 0.01 0.01 0.00 0.00 0.00 0.00 0.00 0.00 0.01 0.02 0.03 0.11 0.21 0.15 0.10 0.19 0.27 0.13 0.28 0.16 0.07 0.01 0.00 0.02 0.02 0.03 0.05 0.04 0.01 0.01 0.02 0.02 0.02
0.01 0.11 0.22 0.21 0.33 0.28 0.08 0.10 0.23 0.04 0.05 0.04 0.00 0.01 0.01 0.01 0.04 0.01 0.01 0.00 0.00 0.00 0.00 0.00 0.00 0.03 0.03 0.08 0.12 0.18 0.23 0.23 0.22 0.52 0.28 0.19 0.12 0.02 0.01 0.03 0.07 0.07 0.04 0.04 0.01 0.03 0.01 0.02 0.04
0.05 0.17 0.18 0.17 0.12 0.12 0.10 0.07 0.09 0.01 0.00 0.01 0.00 0.00 0.00 0.01 0.02 0.02 0.00 0.00 0.00 0.01 0.00 0.00 0.00 0.01 0.01 0.02 0.08 0.13 0.16 0.15 0.22 0.22 0.38 0.37 0.18 0.11 0.09 0.15 0.12 0.07 0.06 0.05 0.03 0.06 0.01 0.00 0.01
0.01 0.01 0.08 0.22 0.18 0.19 0.23 0.30 0.18 0.01 0.00 0.00 0.00 0.00 0.00 0.00 0.00 0.02 0.01 0.05 0.01 0.01 0.02 0.00 0.00 0.00 0.00 0.02 0.04 0.06 0.15 0.16 0.06 0.06 0.22 0.63 0.31 0.17 0.10 0.07 0.07 0.04 0.06 0.02 0.04 0.02 0.00 0.01 0.01
0.01 0.03 0.04 0.03 0.03 0.04 0.14 0.13 0.18 0.08 0.00 0.00 0.00 0.00 0.01 0.00 0.00 0.01 0.01 0.06 0.09 0.02 0.03 0.07 0.02 0.00 0.00 0.00 0.01 0.01 0.08 0.07 0.05 0.06 0.13 0.32 0.89 0.47 0.25 0.09 0.06 0.05 0.03 0.06 0.03 0.01 0.01 0.06 0.05
0.07 0.14 0.07 0.02 0.06 0.08 0.06 0.07 0.18 0.08 0.04 0.01 0.01 0.00 0.01 0.01 0.01 0.02 0.02 0.04 0.06 0.03 0.03 0.12 0.12 0.01 0.00 0.00 0.00 0.00 0.02 0.03 0.02 0.09 0.10 0.28 0.54 0.60 0.86 0.15 0.08 0.07 0.07 0.06 0.11 0.07 0.03 0.04 0.01
0.04 0.03 0.04 0.02 0.02 0.10 0.12 0.15 0.12 0.07 0.09 0.09 0.09 0.04 0.06 0.02 0.01 0.00 0.02 0.06 0.09 0.06 0.05 0.04 0.07 0.06 0.03 0.00 0.00 0.00 0.00 0.01 0.01 0.01 0.06 0.03 0.05 0.11 0.21 0.13 0.16 0.10 0.12 0.15 0.30 0.26 0.12 0.11 0.08
0.17 0.04 0.14 0.02 0.04 0.11 0.12 0.04 0.04 0.31 0.13 0.13 0.09 0.11 0.19 0.12 0.04 0.01 0.01 0.13 0.55 0.35 0.16 0.17 0.06 0.06 0.03 0.00 0.00 0.02 0.00 0.00 0.00 0.00 0.00 0.01 0.03 0.10 0.13 0.12 0.12 0.09 0.06 0.19 0.51 0.29 0.18 0.18 0.10

GFSSGP_prec_precacc24_132.txt.gz
Total_Precipitation_Accumulation
0.00 0.02 0.13 0.82 1.04 0.12 0.01 0.00 0.00 0.01 0.03 0.02 0.03 0.03 0.04 0.15 0.11 0.11 0.01 0.04 0.03 0.00 0.07 0.18 0.37 0.34 0.36 0.40 0.21 0.16 0.14 0.13 0.17 0.09 0.09 0.10 0.09 0.10 0.13 0.13 0.15 0.13 0.06 0.07 0.17 0.24 0.32 0.23 0.14
0.00 0.08 0.25 0.90 0.36 0.03 0.00 0.00 0.00 0.01 0.03 0.01 0.02 0.01 0.01 0.00 0.00 0.00 0.03 0.07 0.01 0.01 0.03 0.11 0.31 0.37 0.32 0.31 0.14 0.09 0.09 0.14 0.14 0.18 0.17 0.16 0.11 0.12 0.13 0.06 0.02 0.06 0.09 0.14 0.28 0.26 0.23 0.26 0.21
0.03 0.21 0.58 1.09 0.16 0.00 0.00 0.00 0.00 0.00 0.00 0.01 0.00 0.00 0.00 0.00 0.00 0.00 0.03 0.03 0.05 0.06 0.01 0.05 0.22 0.29 0.22 0.18 0.14 0.07 0.11 0.15 0.17 0.15 0.16 0.17 0.08 0.05 0.05 0.09 0.05 0.07 0.06 0.12 0.13 0.20 0.20 0.16 0.17
0.03 0.12 0.14 0.08 0.02 0.00 0.00 0.00 0.00 0.00 0.00 0.01 0.00 0.00 0.00 0.00 0.00 0.00 0.07 0.15 0.16 0.16 0.04 0.02 0.14 0.20 0.17 0.11 0.12 0.18 0.20 0.26 0.16 0.15 0.10 0.08 0.07 0.06 0.06 0.03 0.01 0.03 0.03 0.07 0.11 0.15 0.10 0.08 0.12
0.00 0.16 0.52 0.10 0.01 0.00 0.00 0.00 0.00 0.03 0.00 0.01 0.00 0.00 0.00 0.00 0.00 0.01 0.02 0.07 0.11 0.12 0.00 0.01 0.09 0.10 0.13 0.16 0.18 0.21 0.23 0.15 0.08 0.09 0.12 0.11 0.10 0.06 0.04 0.03 0.03 0.01 0.01 0.00 0.00 0.01 0.01 0.04 0.04
0.07 0.34 0.38 0.02 0.00 0.00 0.00 0.00 0.01 0.00 0.05 0.01 0.00 0.00 0.02 0.04 0.01 0.03 0.05 0.06 0.07 0.05 0.02 0.00 0.02 0.06 0.14 0.16 0.20 0.12 0.09 0.11 0.18 0.14 0.11 0.11 0.13 0.11 0.04 0.02 0.03 0.01 0.00 0.00 0.00 0.00 0.00 0.01 0.02
1.02 0.76 0.17 0.03 0.00 0.00 0.00 0.00 0.01 0.00 0.00 0.01 0.00 0.00 0.03 0.17 0.16 0.11 0.04 0.05 0.08 0.02 0.01 0.00 0.01 0.04 0.19 0.35 0.15 0.12 0.23 0.18 0.16 0.11 0.11 0.12 0.06 0.02 0.01 0.00 0.00 0.00 0.00 0.00 0.00 0.00 0.00 0.00 0.00
0.61 0.43 0.23 0.16 0.04 0.01 0.00 0.01 0.01 0.01 0.01 0.00 0.00 0.00 0.00 0.04 0.16 0.06 0.04 0.03 0.02 0.01 0.01 0.04 0.11 0.18 0.32 0.26 0.31 0.24 0.12 0.05 0.04 0.06 0.08 0.08 0.03 0.02 0.01 0.03 0.00 0.00 0.00 0.00 0.00 0.00 0.02 0.02 0.00
0.13 0.88 0.82 0.36 0.06 0.01 0.00 0.02 0.01 0.00 0.00 0.01 0.02 0.01 0.01 0.00 0.02 0.03 0.01 0.09 0.09 0.02 0.04 0.21 0.17 0.15 0.39 0.47 0.20 0.16 0.10 0.11 0.16 0.16 0.27 0.26 0.12 0.03 0.02 0.03 0.02 0.01 0.01 0.03 0.06 0.08 0.05 0.01 0.00
0.68 1.44 1.56 0.60 0.14 0.03 0.01 0.02 0.00 0.00 0.00 0.01 0.01 0.00 0.01 0.02 0.00 0.00 0.00 0.02 0.08 0.08 0.28 0.36 0.17 0.03 0.13 0.32 0.22 0.27 0.19 0.19 0.19 0.24 0.26 0.31 0.10 0.09 0.05 0.09 0.07 0.08 0.04 0.01 0.04 0.14 0.13 0.04 0.00
0.49 1.49 1.50 0.78 0.20 0.14 0.01 0.00 0.00 0.00 0.00 0.00 0.02 0.00 0.00 0.00 0.01 0.02 0.00 0.01 0.03 0.03 0.07 0.37 0.25 0.38 0.11 0.20 0.12 0.04 0.04 0.02 0.02 0.14 0.08 0.07 0.10 0.09 0.02 0.03 0.08 0.05 0.07 0.03 0.01 0.16 0.44 0.00 0.01
0.35 0.61 1.04 1.25 0.38 0.22 0.06 0.01 0.00 0.01 0.00 0.00 0.00 0.00 0.00 0.00 0.00 0.03 0.03 0.00 0.00 0.02 0.02 0.03 0.04 0.08 0.03 0.11 0.16 0.04 0.01 0.01 0.03 0.07 0.09 0.12 0.17 0.50 0.24 0.15 0.42 0.16 0.04 0.01 0.01 0.01 0.00 0.00 0.00
0.31 0.79 0.47 0.81 0.31 0.20 0.09 0.03 0.00 0.02 0.00 0.00 0.00 0.00 0.00 0.00 0.00 0.05 0.06 0.00 0.04 0.01 0.01 0.00 0.00 0.04 0.09 0.31 0.26 0.05 0.02 0.02 0.01 0.04 0.33 0.22 0.11 0.11 0.03 0.15 0.13 0.28 0.10 0.02 0.00 0.00 0.00 0.00 0.00
0.42 0.47 0.27 0.30 0.39 0.17 0.27 0.08 0.02 0.04 0.01 0.00 0.00 0.00 0.00 0.00 0.00 0.01 0.01 0.00 0.00 0.01 0.00 0.00 0.01 0.00 0.04 0.05 0.02 0.03 0.04 0.02 0.04 0.08 0.16 0.06 0.04 0.08 0.06 0.09 0.04 0.12 0.10 0.03 0.00 0.00 0.00 0.00 0.00
0.32 0.70 0.65 0.86 0.78 0.30 0.71 0.55 0.09 0.05 0.01 0.00 0.00 0.00 0.00 0.00 0.02 0.00 0.00 0.00 0.00 0.00 0.00 0.00 0.00 0.00 0.03 0.05 0.04 0.07 0.14 0.04 0.02 0.04 0.02 0.04 0.12 0.07 0.06 0.04 0.02 0.03 0.06 0.03 0.01 0.01 0.00 0.02 0.05
1.05 1.37 1.43 1.79 1.06 0.47 0.48 0.48 0.19 0.02 0.01 0.00 0.00 0.00 0.00 0.00 0.00 0.00 0.00 0.00 0.00 0.00 0.00 0.00 0.00 0.00 0.00 0.01 0.03 0.03 0.06 0.03 0.02 0.02 0.07 0.05 0.11 0.05 0.03 0.06 0.08 0.14 0.16 0.07 0.04 0.00 0.00 0.02 0.04
0.48 0.91 1.97 1.72 1.30 0.60 0.47 0.47 0.24 0.13 0.02 0.00 0.00 0.00 0.00 0.00 0.00 0.00 0.00 0.00 0.00 0.00 0.00 0.00 0.00 0.00 0.04 0.00 0.02 0.05 0.01 0.01 0.01 0.02 0.07 0.09 0.05 0.06 0.07 0.40 0.19 0.41 0.78 0.16 0.05 0.00 0.00 0.00 0.02
0.15 0.24 0.84 1.50 0.99 0.92 0.63 0.49 0.55 0.20 0.04 0.01 0.00 0.00 0.00 0.00 0.00 0.00 0.00 0.00 0.00 0.00 0.00 0.00 0.01 0.00 0.01 0.00 0.00 0.01 0.08 0.03 0.01 0.01 0.04 0.06 0.06 0.04 0.09 0.13 0.17 1.09 0.45 0.35 0.05 0.02 0.00 0.00 0.01
0.06 0.12 0.50 0.76 0.90 1.22 0.99 0.76 0.84 0.40 0.08 0.01 0.00 0.00 0.00 0.00 0.00 0.00 0.00 0.00 0.00 0.00 0.00 0.01 0.04 0.07 0.04 0.00 0.01 0.02 0.01 0.01 0.01 0.02 0.02 0.08 0.10 0.04 0.06 0.10 0.16 1.10 0.85 0.23 0.02 0.00 0.00 0.00 0.01
0.17 0.21 0.34 0.61 0.73 1.00 1.41 1.10 0.60 0.38 0.13 0.02 0.01 0.00 0.00 0.00 0.00 0.00 0.00 0.00 0.00 0.00 0.00 0.00 0.04 0.03 0.04 0.01 0.01 0.02 0.03 0.01 0.01 0.01 0.02 0.01 0.04 0.07 0.04 0.09 0.68 0.81 0.27 0.07 0.03 0.01 0.02 0.05 0.03
0.14 0.15 0.15 0.30 0.30 0.43 1.15 1.26 0.91 0.35 0.26 0.17 0.01 0.00 0.00 0.00 0.00 0.00 0.00 0.00 0.00 0.00 0.00 0.00 0.00 0.05 0.14 0.11 0.05 0.05 0.05 0.07 0.12 0.12 0.09 0.04 0.03 0.01 0.07 0.05 0.19 0.21 0.79 0.50 0.04 0.02 0.06 0.61 0.14
0.31 0.22 0.07 0.09 0.21 0.48 0.44 0.92 0.59 0.45 0.33 0.88 0.12 0.00 0.00 0.00 0.00 0.00 0.00 0.00 0.00 0.00 0.00 0.00 0.00 0.02 0.03 0.06 0.08 0.07 0.05 0.06 0.08 0.12 0.10 0.07 0.07 0.03 0.01 0.02 0.06 0.05 0.16 0.14 0.05 0.01 0.02 0.07 0.52
0.06 0.12 0.04 0.08 0.06 0.18 0.18 0.37 0.42 0.29 0.30 0.41 0.28 0.00 0.00 0.00 0.00 0.00 0.00 0.00 0.00 0.00 0.00 0.00 0.00 0.03 0.03 0.06 0.21 0.13 0.06 0.30 0.11 0.06 0.19 0.14 0.07 0.01 0.00 0.02 0.02 0.03 0.02 0.05 0.02 0.02 0.03 0.03 0.08
0.01 0.09 0.19 0.08 0.04 0.11 0.08 0.08 0.30 0.15 0.07 0.08 0.02 0.02 0.00 0.00 0.01 0.01 0.01 0.00 0.00 0.00 0.00 0.00 0.00 0.01 0.04 0.07 0.09 0.09 0.14 0.30 0.12 0.17 0.13 0.14 0.11 0.02 0.01 0.03 0.07 0.07 0.04 0.04 0.03 0.05 0.02 0.02 0.05
0.05 0.17 0.16 0.16 0.09 0.13 0.13 0.12 0.13 0.03 0.00 0.02 0.01 0.00 0.00 0.00 0.01 0.01 0.00 0.00 0.00 0.00 0.00 0.00 0.00 0.00 0.00 0.01 0.06 0.09 0.12 0.12 0.09 0.13 0.25 0.20 0.13 0.09 0.09 0.15 0.13 0.07 0.07 0.04 0.03 0.07 0.02 0.01 0.02
0.01 0.01 0.07 0.26 0.20 0.17 0.23 0.37 0.29 0.02 0.00 0.00 0.02 0.01 0.01 0.00 0.00 0.00 0.00 0.00 0.00 0.00 0.00 0.00 0.00 0.00 0.00 0.01 0.02 0.05 0.14 0.16 0.04 0.04 0.10 0.05 0.06 0.06 0.14 0.12 0.07 0.04 0.04 0.02 0.04 0.02 0.00 0.02 0.09
0.01 0.03 0.04 0.04 0.05 0.03 0.15 0.48 0.29 0.09 0.01 0.00 0.00 0.05 0.04 0.02 0.00 0.00 0.01 0.02 0.01 0.00 0.00 0.01 0.01 0.00 0.00 0.00 0.00 0.02 0.09 0.07 0.02 0.05 0.07 0.05 0.22 0.24 0.34 0.17 0.08 0.06 0.03 0.06 0.03 0.01 0.00 0.02 0.03
0.07 0.15 0.07 0.02 0.06 0.06 0.07 0.33 0.48 0.16 0.44 0.04 0.01 0.01 0.01 0.10 0.01 0.01 0.01 0.01 0.02 0.01 0.02 0.05 0.05 0.01 0.00 0.00 0.00 0.00 0.03 0.03 0.02 0.13 0.15 0.04 0.17 0.63 0.46 0.20 0.10 0.07 0.06 0.08 0.14 0.06 0.02 0.08 0.02
0.05 0.04 0.04 0.02 0.03 0.14 0.20 0.13 0.29 0.28 0.19 0.10 0.09 0.02 0.05 0.04 0.03 0.00 0.00 0.02 0.02 0.06 0.05 0.04 0.06 0.06 0.03 0.00 0.00 0.00 0.00 0.01 0.02 0.04 0.11 0.03 0.07 0.16 0.11 0.10 0.16 0.10 0.13 0.16 0.33 0.26 0.12 0.16 0.14
0.20 0.11 0.15 0.03 0.11 0.22 0.21 0.12 0.03 0.03 0.05 0.11 0.09 0.11 0.23 0.26 0.17 0.04 0.01 0.01 0.07 0.10 0.02 0.06 0.04 0.03 0.03 0.00 0.00 0.02 0.00 0.00 0.00 0.00 0.01 0.02 0.05 0.12 0.07 0.09 0.11 0.12 0.08 0.21 0.52 0.28 0.22 0.29 0.16

GFSSGP_prec_precacc24_135.txt.gz
Total_Precipitation_Accumulation
0.00 0.06 0.14 0.98 1.02 0.10 0.01 0.00 0.00 0.01 0.02 0.02 0.02 0.03 0.06 0.20 0.14 0.11 0.01 0.02 0.00 0.00 0.07 0.19 0.40 0.36 0.37 0.41 0.23 0.19 0.17 0.13 0.15 0.10 0.10 0.10 0.10 0.11 0.13 0.14 0.15 0.14 0.07 0.08 0.18 0.24 0.32 0.23 0.14
0.03 0.11 0.31 0.87 0.26 0.01 0.00 0.00 0.00 0.01 0.03 0.01 0.03 0.01 0.01 0.00 0.00 0.00 0.00 0.02 0.00 0.01 0.03 0.11 0.32 0.39 0.34 0.31 0.15 0.10 0.12 0.16 0.15 0.19 0.18 0.16 0.13 0.13 0.13 0.06 0.03 0.10 0.13 0.15 0.29 0.26 0.23 0.26 0.20
0.13 0.32 0.69 0.93 0.05 0.00 0.00 0.00 0.00 0.00 0.00 0.01 0.00 0.00 0.00 0.00 0.00 0.00 0.00 0.01 0.05 0.11 0.04 0.05 0.22 0.30 0.23 0.18 0.14 0.09 0.11 0.16 0.17 0.14 0.16 0.17 0.08 0.06 0.06 0.09 0.05 0.07 0.06 0.12 0.14 0.20 0.20 0.16 0.17
0.20 0.62 1.40 0.16 0.00 0.00 0.00 0.00 0.00 0.00 0.00 0.01 0.00 0.00 0.00 0.00 0.00 0.00 0.00 0.04 0.16 0.15 0.04 0.02 0.14 0.20 0.17 0.11 0.12 0.19 0.22 0.29 0.15 0.13 0.08 0.06 0.05 0.06 0.05 0.03 0.02 0.03 0.03 0.07 0.10 0.14 0.10 0.08 0.12
0.31 0.44 1.10 0.07 0.00 0.00 0.00 0.00 0.00 0.05 0.00 0.01 0.00 0.00 0.00 0.00 0.00 0.00 0.00 0.03 0.06 0.05 0.01 0.01 0.09 0.10 0.13 0.16 0.17 0.22 0.24 0.17 0.07 0.07 0.09 0.09 0.08 0.06 0.03 0.03 0.03 0.01 0.00 0.00 0.00 0.01 0.01 0.04 0.04
0.42 0.62 0.41 0.04 0.00 0.00 0.00 0.00 0.00 0.00 0.05 0.01 0.00 0.00 0.01 0.04 0.01 0.02 0.02 0.04 0.09 0.05 0.02 0.00 0.02 0.06 0.14 0.14 0.19 0.13 0.10 0.11 0.17 0.13 0.10 0.10 0.13 0.10 0.04 0.02 0.03 0.01 0.00 0.00 0.00 0.00 0.00 0.01 0.02
1.28 0.94 0.20 0.04 0.01 0.00 0.00 0.00 0.01 0.00 0.00 0.01 0.00 0.00 0.03 0.17 0.14 0.09 0.05 0.10 0.19 0.03 0.01 0.00 0.01 0.05 0.20 0.34 0.16 0.13 0.21 0.17 0.16 0.11 0.10 0.12 0.06 0.02 0.01 0.00 0.00 0.00 0.00 0.00 0.00 0.00 0.00 0.00 0.00
1.09 0.48 0.20 0.06 0.02 0.02 0.00 0.01 0.00 0.01 0.01 0.00 0.00 0.00 0.01 0.04 0.14 0.05 0.10 0.06 0.08 0.08 0.03 0.04 0.11 0.18 0.32 0.26 0.31 0.24 0.12 0.05 0.05 0.06 0.08 0.07 0.03 0.02 0.01 0.00 0.00 0.00 0.00 0.00 0.00 0.00 0.02 0.02 0.00
0.41 0.87 0.46 0.29 0.06 0.01 0.00 0.00 0.00 0.00 0.00 0.01 0.02 0.01 0.01 0.00 0.02 0.04 0.02 0.12 0.16 0.08 0.14 0.29 0.22 0.15 0.39 0.47 0.20 0.16 0.10 0.08 0.11 0.09 0.20 0.21 0.09 0.02 0.02 0.02 0.02 0.01 0.01 0.03 0.06 0.07 0.03 0.01 0.00
1.52 1.60 0.99 0.52 0.18 0.05 0.01 0.02 0.00 0.00 0.00 0.00 0.01 0.00 0.01 0.02 0.01 0.01 0.00 0.04 0.09 0.03 0.40 0.76 0.62 0.10 0.13 0.32 0.23 0.28 0.20 0.18 0.12 0.10 0.28 0.30 0.09 0.05 0.05 0.09 0.07 0.08 0.04 0.01 0.03 0.05 0.03 0.02 0.00
1.13 0.86 0.68 0.52 0.36 0.15 0.01 0.00 0.00 0.00 0.00 0.00 0.02 0.00 0.00 0.00 0.01 0.02 0.01 0.01 0.05 0.10 0.13 1.01 0.51 0.53 0.12 0.20 0.19 0.08 0.05 0.02 0.01 0.05 0.09 0.05 0.04 0.07 0.01 0.03 0.02 0.04 0.06 0.02 0.00 0.00 0.00 0.00 0.00
0.53 0.30 0.34 0.27 0.30 0.21 0.06 0.01 0.00 0.01 0.00 0.00 0.00 0.00 0.00 0.00 0.00 0.03 0.03 0.01 0.04 0.07 0.14 0.16 0.17 0.30 0.12 0.14 0.27 0.16 0.03 0.01 0.03 0.05 0.06 0.04 0.08 0.22 0.06 0.05 0.04 0.01 0.01 0.00 0.00 0.00 0.00 0.00 0.00
0.58 0.33 0.12 0.14 0.22 0.30 0.09 0.03 0.00 0.02 0.00 0.00 0.00 0.00 0.00 0.00 0.00 0.05 0.06 0.00 0.04 0.02 0.05 0.07 0.08 0.15 0.15 0.40 0.40 0.13 0.06 0.02 0.02 0.01 0.38 0.21 0.05 0.02 0.02 0.07 0.01 0.02 0.00 0.01 0.01 0.00 0.00 0.00 0.00
0.49 0.45 0.17 0.21 0.38 0.21 0.49 0.08 0.02 0.04 0.01 0.00 0.00 0.00 0.00 0.00 0.00 0.02 0.01 0.00 0.01 0.01 0.07 0.01 0.02 0.03 0.10 0.18 0.22 0.06 0.05 0.02 0.03 0.03 0.04 0.05 0.03 0.02 0.02 0.04 0.02 0.05 0.05 0.02 0.00 0.00 0.00 0.00 0.00
0.38 0.58 0.52 0.73 0.78 0.33 0.75 0.62 0.10 0.05 0.01 0.00 0.00 0.00 0.00 0.00 0.02 0.00 0.00 0.00 0.00 0.00 0.00 0.00 0.01 0.04 0.05 0.06 0.05 0.09 0.15 0.04 0.01 0.01 0.01 0.01 0.10 0.05 0.04 0.08 0.05 0.09 0.10 0.03 0.01 0.01 0.00 0.00 0.01
0.76 1.18 1.27 1.63 0.96 0.33 0.41 0.57 0.24 0.02 0.01 0.00 0.00 0.00 0.00 0.00 0.00 0.00 0.00 0.00 0.00 0.00 0.00 0.00 0.00 0.01 0.01 0.01 0.03 0.07 0.06 0.04 0.03 0.02 0.06 0.03 0.09 0.09 0.13 0.18 0.11 0.21 0.17 0.03 0.01 0.00 0.00 0.01 0.03
0.46 0.80 1.74 1.49 1.20 0.52 0.38 0.51 0.34 0.16 0.02 0.00 0.00 0.00 0.00 0.00 0.00 0.00 0.00 0.00 0.00 0.00 0.00 0.00 0.00 0.00 0.04 0.00 0.04 0.07 0.02 0.02 0.06 0.05 0.07 0.09 0.08 0.13 0.23 0.78 0.20 0.42 0.78 0.21 0.07 0.00 0.00 0.00 0.02
0.10 0.21 0.67 1.43 0.95 0.87 0.47 0.55 0.67 0.23 0.04 0.01 0.00 0.00 0.00 0.00 0.00 0.00 0.00 0.00 0.00 0.00 0.00 0.00 0.01 0.00 0.01 0.01 0.02 0.01 0.09 0.07 0.02 0.04 0.06 0.07 0.10 0.10 0.18 0.47 0.20 1.08 0.45 0.44 0.19 0.05 0.06 0.01 0.02
0.03 0.11 0.44 0.90 0.76 1.16 0.81 0.64 0.86 0.44 0.13 0.01 0.00 0.00 0.00 0.00 0.00 0.00 0.00 0.00 0.00 0.00 0.00 0.01 0.04 0.07 0.04 0.00 0.02 0.02 0.01 0.03 0.01 0.04 0.06 0.12 0.14 0.21 0.26 0.20 0.18 1.08 1.02 0.54 0.25 0.31 0.11 0.10 0.04
0.12 0.16 0.19 0.55 0.46 0.76 1.12 0.76 0.51 0.40 0.19 0.04 0.01 0.00 0.00 0.00 0.00 0.00 0.00 0.00 0.00 0.00 0.00 0.00 0.04 0.03 0.04 0.01 0.01 0.02 0.03 0.01 0.01 0.01 0.03 0.02 0.05 0.13 0.06 0.25 1.11 0.80 0.33 0.25 0.25 0.20 0.23 0.22 0.07
0.07 0.09 0.10 0.15 0.12 0.34 0.83 0.90 0.66 0.33 0.29 0.25 0.02 0.00 0.00 0.00 0.00 0.00 0.00 0.00 0.00 0.00 0.00 0.00 0.00 0.05 0.14 0.11 0.05 0.05 0.05 0.07 0.10 0.11 0.09 0.05 0.03 0.03 0.09 0.14 0.18 0.37 1.11 0.56 0.19 0.46 0.20 0.66 0.18
0.02 0.02 0.01 0.07 0.16 0.45 0.38 0.71 0.41 0.36 0.34 1.04 0.20 0.00 0.01 0.00 0.00 0.00 0.00 0.00 0.00 0.00 0.00 0.00 0.00 0.02 0.02 0.07 0.09 0.08 0.02 0.05 0.08 0.07 0.06 0.07 0.07 0.04 0.04 0.04 0.09 0.15 0.17 0.21 0.22 0.22 0.12 0.12 0.54
0.01 0.01 0.01 0.02 0.02 0.13 0.15 0.31 0.35 0.24 0.29 0.44 0.39 0.01 0.01 0.00 0.00 0.00 0.00 0.00 0.00 0.00 0.00 0.00 0.00 0.03 0.03 0.07 0.21 0.11 0.04 0.29 0.11 0.04 0.09 0.07 0.05 0.01 0.01 0.03 0.03 0.04 0.05 0.11 0.05 0.05 0.07 0.06 0.18
0.00 0.02 0.08 0.03 0.01 0.07 0.07 0.07 0.30 0.14 0.07 0.08 0.10 0.03 0.00 0.00 0.00 0.00 0.00 0.00 0.00 0.00 0.00 0.00 0.00 0.01 0.04 0.07 0.08 0.08 0.14 0.30 0.10 0.11 0.05 0.02 0.03 0.00 0.01 0.04 0.07 0.07 0.04 0.04 0.04 0.04 0.04 0.05 0.09
0.01 0.07 0.07 0.13 0.06 0.16 0.19 0.15 0.13 0.03 0.01 0.03 0.04 0.03 0.01 0.00 0.00 0.00 0.00 0.00 0.00 0.00 0.00 0.00 0.00 0.00 0.00 0.01 0.01 0.05 0.08 0.10 0.06 0.07 0.02 0.02 0.01 0.00 0.04 0.12 0.16 0.08 0.07 0.05 0.03 0.07 0.02 0.02 0.04
0.01 0.01 0.05 0.24 0.18 0.18 0.22 0.24 0.27 0.02 0.02 0.05 0.05 0.08 0.04 0.00 0.03 0.01 0.00 0.00 0.00 0.00 0.00 0.00 0.00 0.00 0.00 0.00 0.00 0.01 0.09 0.07 0.01 0.03 0.01 0.03 0.03 0.03 0.13 0.14 0.16 0.07 0.06 0.03 0.05 0.03 0.02 0.02 0.10
0.01 0.03 0.03 0.04 0.05 0.03 0.17 0.45 0.16 0.04 0.02 0.02 0.03 0.11 0.13 0.03 0.07 0.03 0.00 0.00 0.00 0.00 0.00 0.00 0.00 0.00 0.00 0.00 0.00 0.01 0.07 0.02 0.02 0.07 0.07 0.06 0.04 0.10 0.27 0.14 0.09 0.09 0.06 0.08 0.05 0.02 0.02 0.02 0.04
0.07 0.15 0.07 0.02 0.07 0.06 0.13 0.35 0.49 0.16 0.45 0.09 0.02 0.06 0.32 0.17 0.10 0.06 0.00 0.00 0.00 0.00 0.01 0.01 0.00 0.00 0.00 0.00 0.00 0.00 0.01 0.01 0.03 0.15 0.15 0.06 0.11 0.33 0.47 0.19 0.11 0.08 0.12 0.13 0.16 0.12 0.08 0.08 0.04
0.05 0.04 0.04 0.02 0.04 0.21 0.27 0.18 0.30 1.01 0.28 0.07 0.07 0.02 0.24 0.35 0.12 0.04 0.01 0.01 0.00 0.03 0.01 0.00 0.02 0.01 0.00 0.00 0.00 0.00 0.00 0.01 0.02 0.07 0.12 0.06 0.08 0.11 0.10 0.13 0.11 0.11 0.14 0.17 0.32 0.26 0.13 0.14 0.14
0.20 0.11 0.15 0.03 0.14 0.27 0.31 0.17 0.05 0.44 0.26 0.05 0.06 0.06 0.15 0.26 0.18 0.08 0.04 0.02 0.03 0.02 0.00 0.01 0.01 0.02 0.02 0.00 0.00 0.00 0.00 0.00 0.00 0.02 0.02 0.04 0.05 0.05 0.05 0.11 0.12 0.12 0.06 0.19 0.43 0.24 0.21 0.29 0.16

GFSSGP_prec_precacc24_138.txt.gz
Total_Precipitation_Accumulation
0.01 0.06 0.10 0.93 1.01 0.10 0.01 0.00 0.00 0.01 0.02 0.01 0.02 0.03 0.09 0.24 0.15 0.11 0.01 0.00 0.00 0.00 0.03 0.20 0.39 0.40 0.38 0.41 0.22 0.18 0.14 0.10 0.13 0.09 0.09 0.10 0.10 0.10 0.11 0.14 0.15 0.14 0.08 0.08 0.18 0.24 0.32 0.23 0.14
0.04 0.09 0.22 0.82 0.25 0.01 0.00 0.00 0.00 0.01 0.04 0.02 0.03 0.01 0.03 0.06 0.01 0.00 0.00 0.00 0.00 0.01 0.05 0.15 0.36 0.42 0.34 0.31 0.16 0.11 0.11 0.16 0.16 0.19 0.16 0.13 0.11 0.12 0.12 0.05 0.04 0.12 0.14 0.15 0.29 0.27 0.23 0.26 0.21
0.14 0.21 0.62 0.89 0.04 0.00 0.00 0.00 0.00 0.00 0.00 0.01 0.00 0.00 0.00 0.00 0.00 0.00 0.00 0.01 0.04 0.11 0.05 0.08 0.25 0.32 0.25 0.20 0.16 0.12 0.12 0.16 0.18 0.16 0.16 0.16 0.08 0.06 0.06 0.09 0.05 0.07 0.06 0.12 0.14 0.20 0.20 0.16 0.18
0.24 0.60 1.45 0.19 0.00 0.00 0.00 0.00 0.00 0.00 0.00 0.01 0.00 0.00 0.00 0.00 0.00 0.00 0.00 0.04 0.16 0.18 0.08 0.06 0.18 0.24 0.18 0.13 0.13 0.19 0.23 0.29 0.16 0.17 0.10 0.07 0.08 0.06 0.07 0.03 0.02 0.03 0.03 0.07 0.10 0.14 0.10 0.08 0.12
0.37 0.47 1.10 0.08 0.00 0.00 0.00 0.00 0.00 0.05 0.00 0.01 0.00 0.00 0.00 0.00 0.00 0.00 0.00 0.03 0.07 0.07 0.05 0.04 0.12 0.12 0.15 0.16 0.19 0.22 0.24 0.17 0.07 0.07 0.09 0.10 0.08 0.05 0.06 0.06 0.03 0.01 0.00 0.00 0.00 0.01 0.01 0.04 0.04
0.44 0.64 0.41 0.04 0.00 0.00 0.00 0.01 0.00 0.00 0.05 0.01 0.00 0.00 0.00 0.03 0.00 0.01 0.02 0.04 0.10 0.05 0.02 0.01 0.03 0.06 0.14 0.14 0.19 0.14 0.11 0.11 0.15 0.11 0.09 0.10 0.12 0.11 0.04 0.02 0.02 0.01 0.00 0.00 0.00 0.00 0.00 0.01 0.02
1.31 0.92 0.21 0.15 0.04 0.00 0.00 0.01 0.01 0.00 0.00 0.01 0.00 0.00 0.00 0.07 0.06 0.04 0.11 0.21 0.20 0.06 0.02 0.00 0.01 0.05 0.20 0.34 0.16 0.12 0.14 0.13 0.12 0.09 0.09 0.12 0.06 0.02 0.01 0.00 0.00 0.00 0.00 0.00 0.00 0.00 0.00 0.00 0.00
1.14 0.57 0.35 0.16 0.08 0.02 0.00 0.01 0.00 0.01 0.01 0.00 0.00 0.00 0.01 0.04 0.10 0.04 0.12 0.10 0.15 0.16 0.12 0.07 0.11 0.18 0.33 0.28 0.31 0.20 0.12 0.05 0.04 0.06 0.08 0.07 0.02 0.02 0.01 0.00 0.00 0.00 0.00 0.00 0.00 0.00 0.02 0.02 0.00
0.62 0.92 1.04 0.30 0.12 0.04 0.00 0.00 0.00 0.00 0.00 0.01 0.02 0.01 0.01 0.00 0.02 0.03 0.02 0.07 0.09 0.15 0.20 0.26 0.21 0.16 0.44 0.52 0.22 0.16 0.08 0.06 0.11 0.09 0.19 0.15 0.03 0.01 0.00 0.01 0.01 0.01 0.01 0.03 0.04 0.05 0.03 0.01 0.00
1.28 1.05 0.87 0.46 0.21 0.05 0.01 0.01 0.00 0.00 0.00 0.00 0.01 0.00 0.01 0.02 0.01 0.01 0.00 0.02 0.03 0.03 0.42 0.74 0.62 0.11 0.16 0.33 0.27 0.32 0.18 0.16 0.13 0.11 0.28 0.27 0.02 0.03 0.01 0.05 0.06 0.07 0.03 0.01 0.02 0.04 0.03 0.02 0.00
0.97 0.59 0.28 0.30 0.44 0.06 0.01 0.01 0.00 0.00 0.00 0.00 0.02 0.00 0.00 0.01 0.01 0.02 0.01 0.00 0.05 0.10 0.13 1.00 0.52 0.55 0.15 0.22 0.22 0.09 0.07 0.03 0.01 0.05 0.10 0.02 0.02 0.03 0.00 0.00 0.01 0.01 0.00 0.00 0.00 0.00 0.00 0.00 0.00
0.66 0.22 0.12 0.10 0.34 0.16 0.09 0.02 0.00 0.01 0.00 0.00 0.00 0.00 0.00 0.00 0.00 0.03 0.04 0.01 0.05 0.06 0.14 0.16 0.20 0.31 0.13 0.17 0.25 0.16 0.03 0.01 0.04 0.06 0.04 0.02 0.08 0.22 0.04 0.00 0.00 0.00 0.01 0.02 0.00 0.00 0.00 0.00 0.00
0.57 0.37 0.09 0.06 0.21 0.34 0.11 0.04 0.00 0.01 0.00 0.00 0.00 0.00 0.00 0.00 0.00 0.05 0.07 0.03 0.05 0.05 0.06 0.07 0.09 0.17 0.16 0.43 0.37 0.12 0.08 0.06 0.04 0.03 0.37 0.20 0.05 0.02 0.01 0.01 0.02 0.01 0.02 0.03 0.01 0.01 0.00 0.00 0.00
0.45 0.47 0.13 0.15 0.26 0.15 0.51 0.08 0.02 0.03 0.01 0.00 0.00 0.00 0.00 0.02 0.01 0.03 0.05 0.04 0.02 0.02 0.07 0.02 0.03 0.04 0.10 0.20 0.23 0.05 0.04 0.02 0.05 0.03 0.07 0.07 0.02 0.01 0.04 0.04 0.04 0.07 0.07 0.02 0.00 0.00 0.00 0.00 0.00
0.28 0.40 0.32 0.42 0.46 0.28 0.76 0.63 0.11 0.05 0.01 0.00 0.00 0.00 0.01 0.01 0.02 0.00 0.01 0.02 0.00 0.00 0.01 0.00 0.02 0.05 0.06 0.06 0.08 0.09 0.16 0.04 0.01 0.01 0.03 0.02 0.04 0.02 0.05 0.07 0.04 0.09 0.13 0.06 0.02 0.02 0.01 0.00 0.00
0.66 0.94 0.85 0.96 0.80 0.30 0.40 0.61 0.25 0.03 0.00 0.00 0.00 0.00 0.00 0.01 0.00 0.00 0.01 0.00 0.00 0.00 0.00 0.01 0.01 0.01 0.03 0.01 0.03 0.07 0.07 0.03 0.04 0.02 0.05 0.02 0.05 0.06 0.10 0.13 0.04 0.08 0.06 0.03 0.01 0.00 0.00 0.00 0.00
0.23 0.43 1.51 1.33 1.12 0.48 0.31 0.48 0.32 0.19 0.03 0.00 0.00 0.00 0.00 0.00 0.00 0.00 0.00 0.00 0.00 0.00 0.00 0.00 0.00 0.00 0.04 0.00 0.07 0.08 0.05 0.05 0.07 0.04 0.06 0.11 0.07 0.09 0.22 0.76 0.17 0.31 0.73 0.20 0.07 0.01 0.00 0.00 0.00
0.08 0.18 0.59 1.26 0.81 0.80 0.30 0.40 0.63 0.23 0.04 0.01 0.00 0.00 0.00 0.00 0.00 0.00 0.00 0.00 0.00 0.00 0.00 0.00 0.01 0.00 0.01 0.02 0.10 0.02 0.14 0.10 0.03 0.04 0.07 0.09 0.11 0.09 0.18 0.47 0.18 1.06 0.44 0.40 0.18 0.06 0.08 0.02 0.03
0.00 0.08 0.43 0.85 0.57 1.01 0.66 0.47 0.83 0.43 0.13 0.02 0.00 0.00 0.00 0.00 0.00 0.00 0.00 0.00 0.00 0.00 0.00 0.01 0.04 0.07 0.04 0.01 0.02 0.03 0.02 0.04 0.02 0.04 0.06 0.13 0.16 0.23 0.26 0.20 0.17 1.07 1.01 0.55 0.27 0.40 0.13 0.11 0.06
0.02 0.09 0.18 0.55 0.32 0.58 0.90 0.56 0.47 0.37 0.19 0.04 0.01 0.00 0.00 0.00 0.00 0.00 0.00 0.00 0.00 0.00 0.00 0.00 0.04 0.03 0.04 0.01 0.01 0.02 0.03 0.02 0.01 0.02 0.03 0.04 0.08 0.16 0.05 0.24 1.11 0.80 0.33 0.24 0.25 0.25 0.23 0.24 0.09
0.03 0.04 0.10 0.15 0.10 0.22 0.56 0.61 0.46 0.28 0.28 0.25 0.02 0.00 0.00 0.00 0.00 0.00 0.00 0.00 0.00 0.00 0.00 0.00 0.00 0.05 0.14 0.11 0.06 0.06 0.06 0.10 0.10 0.10 0.08 0.06 0.06 0.03 0.08 0.13 0.18 0.36 1.11 0.55 0.17 0.45 0.20 0.66 0.18
0.01 0.00 0.01 0.07 0.17 0.45 0.31 0.48 0.32 0.32 0.33 1.04 0.20 0.00 0.01 0.00 0.00 0.00 0.00 0.00 0.00 0.00 0.00 0.00 0.00 0.02 0.02 0.08 0.09 0.10 0.02 0.05 0.08 0.07 0.06 0.07 0.08 0.06 0.05 0.03 0.05 0.14 0.17 0.21 0.20 0.22 0.13 0.12 0.54
0.01 0.00 0.00 0.02 0.02 0.14 0.14 0.25 0.32 0.24 0.29 0.44 0.39 0.01 0.01 0.00 0.00 0.00 0.00 0.00 0.00 0.00 0.00 0.00 0.00 0.03 0.03 0.08 0.20 0.11 0.04 0.28 0.11 0.05 0.09 0.06 0.06 0.01 0.02 0.03 0.03 0.04 0.04 0.10 0.05 0.08 0.12 0.07 0.18
0.00 0.00 0.00 0.00 0.01 0.08 0.07 0.08 0.29 0.14 0.07 0.08 0.10 0.03 0.00 0.00 0.00 0.00 0.00 0.00 0.00 0.00 0.00 0.00 0.00 0.01 0.04 0.07 0.08 0.08 0.13 0.29 0.10 0.11 0.05 0.03 0.02 0.00 0.01 0.04 0.07 0.07 0.04 0.04 0.04 0.03 0.05 0.06 0.09
0.00 0.00 0.02 0.09 0.05 0.16 0.18 0.17 0.16 0.03 0.01 0.03 0.04 0.03 0.01 0.00 0.00 0.00 0.00 0.00 0.00 0.00 0.00 0.00 0.00 0.00 0.00 0.01 0.01 0.05 0.08 0.09 0.06 0.07 0.02 0.02 0.01 0.00 0.04 0.11 0.12 0.07 0.07 0.05 0.03 0.07 0.02 0.02 0.05
0.01 0.00 0.02 0.21 0.15 0.14 0.17 0.21 0.26 0.02 0.02 0.05 0.05 0.08 0.05 0.01 0.04 0.01 0.00 0.00 0.00 0.00 0.00 0.00 0.00 0.00 0.00 0.00 0.00 0.01 0.08 0.06 0.01 0.03 0.02 0.03 0.02 0.03 0.14 0.15 0.16 0.08 0.05 0.03 0.04 0.03 0.02 0.03 0.11
0.01 0.03 0.03 0.04 0.05 0.03 0.16 0.45 0.16 0.04 0.02 0.03 0.05 0.13 0.13 0.04 0.08 0.04 0.01 0.00 0.00 0.00 0.00 0.00 0.00 0.00 0.00 0.00 0.00 0.01 0.03 0.01 0.02 0.08 0.07 0.06 0.03 0.10 0.29 0.15 0.10 0.09 0.06 0.08 0.06 0.02 0.02 0.02 0.05
0.07 0.15 0.07 0.02 0.07 0.06 0.13 0.36 0.52 0.16 0.46 0.16 0.14 0.11 0.34 0.19 0.13 0.11 0.03 0.00 0.00 0.00 0.00 0.00 0.00 0.00 0.00 0.00 0.00 0.00 0.00 0.00 0.03 0.16 0.15 0.06 0.11 0.33 0.47 0.17 0.11 0.08 0.12 0.13 0.17 0.12 0.08 0.08 0.03
0.05 0.04 0.04 0.02 0.04 0.21 0.27 0.20 0.32 1.01 0.28 0.08 0.16 0.14 0.28 0.40 0.16 0.11 0.01 0.01 0.01 0.03 0.00 0.00 0.00 0.00 0.00 0.00 0.00 0.00 0.00 0.00 0.02 0.07 0.12 0.06 0.08 0.11 0.10 0.13 0.11 0.10 0.14 0.15 0.27 0.24 0.13 0.14 0.13
0.20 0.11 0.15 0.03 0.14 0.27 0.31 0.17 0.05 0.44 0.28 0.06 0.11 0.15 0.24 0.38 0.24 0.19 0.08 0.03 0.03 0.02 0.00 0.00 0.00 0.00 0.01 0.00 0.00 0.00 0.00 0.00 0.00 0.02 0.02 0.04 0.05 0.05 0.05 0.11 0.11 0.10 0.06 0.15 0.33 0.21 0.20 0.28 0.14

GFSSGP_prec_precacc24_141.txt.gz
Total_Precipitation_Accumulation
0.01 0.06 0.09 0.89 1.00 0.10 0.01 0.00 0.00 0.01 0.01 0.03 0.03 0.06 0.16 0.30 0.15 0.11 0.01 0.00 0.00 0.00 0.03 0.21 0.38 0.38 0.42 0.51 0.31 0.24 0.15 0.12 0.16 0.11 0.09 0.09 0.07 0.09 0.10 0.14 0.18 0.22 0.12 0.08 0.19 0.23 0.30 0.21 0.12
0.04 0.08 0.20 0.75 0.23 0.01 0.00 0.00 0.00 0.01 0.05 0.06 0.03 0.03 0.13 0.14 0.01 0.00 0.00 0.00 0.00 0.01 0.10 0.20 0.45 0.53 0.44 0.43 0.29 0.27 0.15 0.19 0.18 0.18 0.14 0.10 0.09 0.09 0.11 0.07 0.08 0.18 0.16 0.19 0.29 0.26 0.23 0.28 0.25
0.13 0.18 0.62 0.89 0.04 0.00 0.00 0.00 0.00 0.00 0.00 0.01 0.00 0.00 0.00 0.00 0.00 0.00 0.00 0.01 0.04 0.12 0.06 0.10 0.32 0.37 0.29 0.28 0.23 0.22 0.19 0.16 0.17 0.17 0.14 0.12 0.07 0.08 0.10 0.11 0.10 0.11 0.10 0.13 0.15 0.19 0.20 0.19 0.23
0.23 0.60 1.45 0.19 0.00 0.00 0.00 0.00 0.00 0.00 0.00 0.01 0.00 0.00 0.00 0.00 0.00 0.00 0.00 0.04 0.16 0.18 0.08 0.08 0.19 0.28 0.23 0.18 0.15 0.20 0.29 0.27 0.16 0.17 0.10 0.08 0.15 0.10 0.08 0.04 0.03 0.04 0.03 0.07 0.10 0.14 0.10 0.08 0.10
0.37 0.47 1.10 0.08 0.00 0.00 0.00 0.00 0.00 0.05 0.00 0.01 0.00 0.00 0.00 0.00 0.00 0.00 0.00 0.03 0.07 0.06 0.06 0.05 0.13 0.14 0.16 0.20 0.20 0.26 0.26 0.16 0.05 0.08 0.14 0.17 0.15 0.11 0.09 0.08 0.03 0.01 0.00 0.00 0.00 0.01 0.01 0.04 0.04
0.45 0.64 0.42 0.05 0.00 0.00 0.00 0.01 0.00 0.00 0.05 0.01 0.00 0.00 0.00 0.00 0.00 0.01 0.02 0.04 0.08 0.02 0.06 0.16 0.07 0.08 0.16 0.16 0.20 0.15 0.09 0.10 0.14 0.15 0.17 0.20 0.17 0.15 0.07 0.04 0.02 0.01 0.00 0.00 0.00 0.00 0.00 0.01 0.02
1.31 0.91 0.21 0.20 0.05 0.00 0.00 0.01 0.01 0.00 0.00 0.01 0.00 0.00 0.00 0.02 0.02 0.03 0.10 0.19 0.20 0.08 0.11 0.10 0.05 0.05 0.20 0.34 0.14 0.12 0.14 0.10 0.11 0.10 0.12 0.16 0.10 0.02 0.01 0.00 0.00 0.00 0.00 0.00 0.00 0.00 0.00 0.00 0.00
1.12 0.60 0.57 0.30 0.15 0.07 0.00 0.00 0.00 0.01 0.01 0.00 0.00 0.00 0.01 0.03 0.04 0.03 0.12 0.10 0.15 0.19 0.20 0.19 0.18 0.21 0.34 0.29 0.28 0.18 0.12 0.05 0.04 0.07 0.09 0.08 0.03 0.02 0.01 0.00 0.00 0.00 0.00 0.00 0.00 0.00 0.01 0.02 0.01
0.59 0.95 1.33 0.37 0.20 0.16 0.02 0.00 0.00 0.00 0.00 0.01 0.02 0.01 0.00 0.00 0.00 0.03 0.03 0.07 0.09 0.15 0.21 0.31 0.22 0.14 0.42 0.48 0.20 0.16 0.09 0.06 0.11 0.10 0.15 0.10 0.01 0.00 0.00 0.01 0.01 0.01 0.01 0.03 0.04 0.04 0.02 0.00 0.00
1.21 0.82 0.98 0.46 0.25 0.17 0.08 0.01 0.00 0.00 0.00 0.00 0.01 0.00 0.00 0.00 0.01 0.01 0.03 0.01 0.01 0.03 0.42 0.75 0.62 0.11 0.15 0.30 0.26 0.26 0.12 0.11 0.11 0.10 0.27 0.26 0.02 0.03 0.01 0.04 0.05 0.05 0.03 0.01 0.02 0.03 0.01 0.01 0.00
0.95 0.42 0.28 0.32 0.48 0.10 0.02 0.01 0.01 0.01 0.00 0.00 0.02 0.00 0.00 0.01 0.01 0.01 0.04 0.01 0.03 0.11 0.16 1.00 0.52 0.55 0.13 0.11 0.16 0.08 0.06 0.02 0.01 0.05 0.09 0.02 0.02 0.03 0.00 0.00 0.00 0.01 0.00 0.00 0.00 0.00 0.00 0.00 0.00
0.66 0.20 0.04 0.11 0.40 0.18 0.11 0.02 0.01 0.01 0.01 0.00 0.00 0.00 0.00 0.00 0.02 0.01 0.01 0.00 0.05 0.06 0.16 0.17 0.20 0.31 0.12 0.14 0.18 0.15 0.04 0.01 0.02 0.03 0.01 0.02 0.08 0.21 0.04 0.00 0.00 0.00 0.01 0.02 0.00 0.00 0.00 0.00 0.00
0.57 0.36 0.10 0.05 0.30 0.39 0.17 0.09 0.01 0.02 0.01 0.00 0.00 0.00 0.00 0.00 0.01 0.06 0.03 0.03 0.04 0.05 0.06 0.07 0.09 0.17 0.15 0.40 0.34 0.09 0.07 0.05 0.03 0.03 0.37 0.20 0.05 0.02 0.01 0.01 0.02 0.01 0.02 0.02 0.01 0.01 0.00 0.00 0.00
0.44 0.41 0.16 0.18 0.28 0.16 0.50 0.13 0.02 0.01 0.00 0.00 0.00 0.00 0.01 0.02 0.01 0.03 0.06 0.06 0.02 0.02 0.07 0.02 0.03 0.04 0.09 0.16 0.23 0.03 0.04 0.01 0.03 0.02 0.08 0.08 0.03 0.01 0.04 0.04 0.04 0.04 0.04 0.01 0.00 0.00 0.00 0.00 0.00
0.21 0.43 0.47 0.40 0.40 0.28 0.69 0.66 0.10 0.02 0.01 0.00 0.00 0.00 0.02 0.01 0.02 0.00 0.02 0.04 0.02 0.00 0.01 0.00 0.02 0.05 0.05 0.02 0.07 0.08 0.16 0.04 0.01 0.01 0.07 0.04 0.03 0.02 0.05 0.07 0.04 0.09 0.13 0.06 0.01 0.01 0.00 0.00 0.00
0.64 0.45 0.61 0.49 0.38 0.21 0.36 0.74 0.26 0.04 0.00 0.00 0.00 0.00 0.01 0.01 0.00 0.00 0.02 0.04 0.02 0.00 0.03 0.01 0.01 0.01 0.03 0.01 0.03 0.07 0.07 0.03 0.04 0.02 0.04 0.03 0.05 0.06 0.10 0.13 0.04 0.08 0.05 0.03 0.01 0.00 0.00 0.00 0.00
0.25 0.34 0.63 0.46 0.38 0.32 0.28 0.52 0.37 0.22 0.05 0.00 0.00 0.00 0.00 0.00 0.00 0.00 0.01 0.00 0.00 0.01 0.03 0.00 0.00 0.00 0.04 0.01 0.07 0.09 0.06 0.05 0.07 0.05 0.05 0.11 0.06 0.07 0.19 0.74 0.16 0.31 0.72 0.18 0.06 0.01 0.00 0.00 0.00
0.08 0.12 0.32 0.80 0.40 0.61 0.26 0.36 0.61 0.21 0.06 0.01 0.00 0.00 0.00 0.00 0.00 0.00 0.01 0.01 0.00 0.01 0.01 0.00 0.01 0.00 0.01 0.02 0.11 0.02 0.15 0.11 0.02 0.03 0.07 0.08 0.10 0.06 0.16 0.45 0.16 0.98 0.42 0.40 0.18 0.04 0.08 0.02 0.03
0.00 0.04 0.30 0.74 0.44 0.81 0.54 0.34 0.73 0.42 0.14 0.02 0.00 0.00 0.00 0.00 0.00 0.00 0.01 0.00 0.00 0.00 0.00 0.01 0.04 0.07 0.04 0.01 0.03 0.04 0.04 0.05 0.01 0.03 0.05 0.12 0.14 0.22 0.26 0.20 0.17 1.06 1.01 0.55 0.26 0.40 0.13 0.11 0.05
0.00 0.05 0.15 0.53 0.23 0.49 0.74 0.45 0.38 0.34 0.20 0.09 0.01 0.00 0.00 0.00 0.00 0.00 0.00 0.00 0.00 0.00 0.00 0.00 0.04 0.03 0.04 0.01 0.02 0.03 0.03 0.02 0.01 0.02 0.02 0.04 0.08 0.16 0.05 0.24 1.11 0.80 0.33 0.24 0.24 0.25 0.23 0.24 0.09
0.03 0.03 0.08 0.15 0.07 0.17 0.52 0.52 0.37 0.22 0.28 0.25 0.02 0.02 0.00 0.00 0.00 0.00 0.00 0.00 0.00 0.00 0.00 0.00 0.00 0.05 0.14 0.11 0.06 0.06 0.08 0.11 0.11 0.08 0.06 0.04 0.04 0.03 0.08 0.13 0.18 0.36 1.11 0.55 0.16 0.45 0.20 0.66 0.18
0.01 0.00 0.01 0.06 0.17 0.44 0.33 0.45 0.26 0.24 0.32 1.05 0.21 0.04 0.01 0.00 0.00 0.00 0.00 0.00 0.00 0.00 0.00 0.00 0.00 0.02 0.02 0.08 0.09 0.10 0.02 0.05 0.08 0.07 0.06 0.06 0.04 0.04 0.04 0.03 0.05 0.14 0.17 0.21 0.19 0.22 0.13 0.12 0.54
0.01 0.00 0.00 0.02 0.02 0.14 0.15 0.25 0.30 0.17 0.23 0.46 0.41 0.03 0.02 0.00 0.00 0.00 0.00 0.00 0.00 0.00 0.00 0.00 0.00 0.03 0.03 0.08 0.20 0.11 0.04 0.28 0.11 0.05 0.09 0.06 0.05 0.01 0.03 0.03 0.02 0.03 0.04 0.11 0.05 0.08 0.12 0.07 0.18
0.00 0.00 0.00 0.02 0.04 0.08 0.07 0.08 0.29 0.14 0.05 0.09 0.12 0.04 0.01 0.00 0.01 0.00 0.02 0.00 0.00 0.00 0.00 0.00 0.00 0.01 0.04 0.07 0.08 0.08 0.13 0.29 0.10 0.11 0.05 0.03 0.02 0.00 0.01 0.04 0.07 0.07 0.04 0.04 0.04 0.03 0.05 0.06 0.09
0.00 0.00 0.02 0.08 0.04 0.15 0.17 0.17 0.16 0.04 0.01 0.03 0.04 0.03 0.02 0.09 0.09 0.07 0.00 0.00 0.00 0.00 0.00 0.00 0.00 0.00 0.00 0.01 0.01 0.05 0.08 0.09 0.06 0.07 0.02 0.02 0.01 0.00 0.04 0.11 0.12 0.07 0.07 0.05 0.02 0.07 0.02 0.02 0.04
0.01 0.00 0.02 0.17 0.12 0.14 0.16 0.21 0.26 0.02 0.02 0.05 0.05 0.09 0.06 0.06 0.11 0.07 0.01 0.00 0.01 0.00 0.00 0.00 0.00 0.00 0.00 0.00 0.00 0.01 0.08 0.06 0.01 0.03 0.02 0.03 0.02 0.03 0.14 0.15 0.16 0.08 0.05 0.03 0.03 0.03 0.02 0.03 0.11
0.01 0.03 0.03 0.03 0.05 0.02 0.16 0.45 0.16 0.04 0.02 0.03 0.05 0.14 0.15 0.04 0.09 0.06 0.03 0.02 0.01 0.00 0.00 0.00 0.00 0.00 0.00 0.00 0.00 0.01 0.03 0.01 0.02 0.08 0.07 0.06 0.03 0.10 0.29 0.17 0.11 0.09 0.06 0.08 0.06 0.02 0.02 0.02 0.05
0.07 0.15 0.07 0.02 0.07 0.06 0.13 0.36 0.52 0.16 0.46 0.16 0.16 0.15 0.39 0.20 0.12 0.12 0.03 0.01 0.00 0.00 0.00 0.00 0.00 0.00 0.00 0.00 0.00 0.00 0.00 0.00 0.03 0.16 0.15 0.06 0.11 0.33 0.47 0.16 0.12 0.08 0.12 0.13 0.17 0.12 0.08 0.08 0.03
0.04 0.04 0.04 0.02 0.04 0.21 0.27 0.20 0.32 1.01 0.28 0.08 0.17 0.15 0.31 0.42 0.17 0.16 0.05 0.01 0.01 0.00 0.00 0.00 0.00 0.00 0.00 0.00 0.00 0.00 0.00 0.00 0.02 0.07 0.12 0.06 0.08 0.11 0.11 0.13 0.11 0.10 0.14 0.15 0.27 0.24 0.13 0.14 0.11
0.20 0.11 0.15 0.03 0.14 0.27 0.31 0.17 0.05 0.44 0.28 0.06 0.11 0.19 0.27 0.40 0.29 0.22 0.13 0.03 0.04 0.02 0.00 0.00 0.00 0.00 0.01 0.00 0.00 0.00 0.00 0.00 0.00 0.02 0.02 0.04 0.05 0.05 0.05 0.11 0.10 0.08 0.05 0.07 0.30 0.18 0.16 0.27 0.12